<?xml version="1.0" encoding="UTF-8" standalone="no" ?>
<gpx xmlns="http://www.topografix.com/GPX/1/1" xmlns:xsi="http://www.w3.org/2001/XMLSchema-instance" xsi:schemaLocation="http://www.topografix.com/GPX/1/1 http://www.topografix.com/GPX/1/1/gpx.xsd" version="1.1" creator="VisuGPX - https://www.visugpx.com">
  <metadata>
    <name>2019-09-28 - Trace GPS</name>
  </metadata>
  <trk>
    <name><![CDATA[2019-09-28 - Trace GPS]]></name>
    <trkseg>
      <trkpt lat="44.09668" lon="6.93463">
        <ele>1747.33</ele>
        <time>2019-09-28T05:53:12Z</time>
      </trkpt>
      <trkpt lat="44.09674" lon="6.93459">
        <ele>1736.76</ele>
        <time>2019-09-28T05:53:34Z</time>
      </trkpt>
      <trkpt lat="44.09674" lon="6.93453">
        <ele>1736.76</ele>
        <time>2019-09-28T05:54:02Z</time>
      </trkpt>
      <trkpt lat="44.09674" lon="6.93454">
        <ele>1734.84</ele>
        <time>2019-09-28T05:54:37Z</time>
      </trkpt>
      <trkpt lat="44.09674" lon="6.93457">
        <ele>1733.39</ele>
        <time>2019-09-28T05:54:58Z</time>
      </trkpt>
      <trkpt lat="44.09674" lon="6.93457">
        <ele>1736.76</ele>
        <time>2019-09-28T05:55:28Z</time>
      </trkpt>
      <trkpt lat="44.09675" lon="6.93454">
        <ele>1735.32</ele>
        <time>2019-09-28T05:55:57Z</time>
      </trkpt>
      <trkpt lat="44.09674" lon="6.93454">
        <ele>1736.76</ele>
        <time>2019-09-28T05:56:33Z</time>
      </trkpt>
      <trkpt lat="44.09676" lon="6.93455">
        <ele>1735.8</ele>
        <time>2019-09-28T05:57:19Z</time>
      </trkpt>
      <trkpt lat="44.09676" lon="6.93456">
        <ele>1736.28</ele>
        <time>2019-09-28T05:57:32Z</time>
      </trkpt>
      <trkpt lat="44.09674" lon="6.93454">
        <ele>1737.72</ele>
        <time>2019-09-28T05:57:40Z</time>
      </trkpt>
      <trkpt lat="44.09677" lon="6.93453">
        <ele>1738.68</ele>
        <time>2019-09-28T05:57:50Z</time>
      </trkpt>
      <trkpt lat="44.09674" lon="6.93458">
        <ele>1739.16</ele>
        <time>2019-09-28T05:58:03Z</time>
      </trkpt>
      <trkpt lat="44.09673" lon="6.93457">
        <ele>1739.16</ele>
        <time>2019-09-28T05:58:12Z</time>
      </trkpt>
      <trkpt lat="44.09674" lon="6.93451">
        <ele>1738.2</ele>
        <time>2019-09-28T05:58:15Z</time>
      </trkpt>
      <trkpt lat="44.09675" lon="6.9345">
        <ele>1738.2</ele>
        <time>2019-09-28T05:58:16Z</time>
      </trkpt>
      <trkpt lat="44.09677" lon="6.93448">
        <ele>1738.2</ele>
        <time>2019-09-28T05:58:17Z</time>
      </trkpt>
      <trkpt lat="44.09678" lon="6.93446">
        <ele>1738.2</ele>
        <time>2019-09-28T05:58:18Z</time>
      </trkpt>
      <trkpt lat="44.09679" lon="6.93444">
        <ele>1738.2</ele>
        <time>2019-09-28T05:58:19Z</time>
      </trkpt>
      <trkpt lat="44.0968" lon="6.93442">
        <ele>1738.2</ele>
        <time>2019-09-28T05:58:20Z</time>
      </trkpt>
      <trkpt lat="44.09693" lon="6.93426">
        <ele>1737.24</ele>
        <time>2019-09-28T05:58:28Z</time>
      </trkpt>
      <trkpt lat="44.09699" lon="6.93415">
        <ele>1737.24</ele>
        <time>2019-09-28T05:58:31Z</time>
      </trkpt>
      <trkpt lat="44.09702" lon="6.9341">
        <ele>1737.24</ele>
        <time>2019-09-28T05:58:32Z</time>
      </trkpt>
      <trkpt lat="44.09705" lon="6.93405">
        <ele>1736.76</ele>
        <time>2019-09-28T05:58:33Z</time>
      </trkpt>
      <trkpt lat="44.09707" lon="6.93398">
        <ele>1736.76</ele>
        <time>2019-09-28T05:58:34Z</time>
      </trkpt>
      <trkpt lat="44.09707" lon="6.9339">
        <ele>1736.28</ele>
        <time>2019-09-28T05:58:35Z</time>
      </trkpt>
      <trkpt lat="44.09705" lon="6.93382">
        <ele>1736.28</ele>
        <time>2019-09-28T05:58:36Z</time>
      </trkpt>
      <trkpt lat="44.09702" lon="6.93376">
        <ele>1735.8</ele>
        <time>2019-09-28T05:58:37Z</time>
      </trkpt>
      <trkpt lat="44.09698" lon="6.93371">
        <ele>1735.32</ele>
        <time>2019-09-28T05:58:38Z</time>
      </trkpt>
      <trkpt lat="44.09694" lon="6.93365">
        <ele>1734.84</ele>
        <time>2019-09-28T05:58:39Z</time>
      </trkpt>
      <trkpt lat="44.09688" lon="6.9336">
        <ele>1734.36</ele>
        <time>2019-09-28T05:58:40Z</time>
      </trkpt>
      <trkpt lat="44.09668" lon="6.93336">
        <ele>1732.91</ele>
        <time>2019-09-28T05:58:44Z</time>
      </trkpt>
      <trkpt lat="44.09667" lon="6.93329">
        <ele>1732.43</ele>
        <time>2019-09-28T05:58:45Z</time>
      </trkpt>
      <trkpt lat="44.09671" lon="6.93322">
        <ele>1731.47</ele>
        <time>2019-09-28T05:58:47Z</time>
      </trkpt>
      <trkpt lat="44.09679" lon="6.93322">
        <ele>1730.99</ele>
        <time>2019-09-28T05:58:48Z</time>
      </trkpt>
      <trkpt lat="44.09685" lon="6.93323">
        <ele>1730.99</ele>
        <time>2019-09-28T05:58:49Z</time>
      </trkpt>
      <trkpt lat="44.09708" lon="6.93321">
        <ele>1730.03</ele>
        <time>2019-09-28T05:58:53Z</time>
      </trkpt>
      <trkpt lat="44.09714" lon="6.93318">
        <ele>1729.55</ele>
        <time>2019-09-28T05:58:54Z</time>
      </trkpt>
      <trkpt lat="44.09719" lon="6.93314">
        <ele>1729.55</ele>
        <time>2019-09-28T05:58:55Z</time>
      </trkpt>
      <trkpt lat="44.09724" lon="6.93307">
        <ele>1729.55</ele>
        <time>2019-09-28T05:58:56Z</time>
      </trkpt>
      <trkpt lat="44.09727" lon="6.93302">
        <ele>1729.55</ele>
        <time>2019-09-28T05:58:57Z</time>
      </trkpt>
      <trkpt lat="44.09731" lon="6.93294">
        <ele>1729.55</ele>
        <time>2019-09-28T05:58:58Z</time>
      </trkpt>
      <trkpt lat="44.09734" lon="6.93289">
        <ele>1729.55</ele>
        <time>2019-09-28T05:58:59Z</time>
      </trkpt>
      <trkpt lat="44.09741" lon="6.93276">
        <ele>1729.55</ele>
        <time>2019-09-28T05:59:01Z</time>
      </trkpt>
      <trkpt lat="44.09744" lon="6.93271">
        <ele>1729.55</ele>
        <time>2019-09-28T05:59:02Z</time>
      </trkpt>
      <trkpt lat="44.09748" lon="6.93267">
        <ele>1730.03</ele>
        <time>2019-09-28T05:59:03Z</time>
      </trkpt>
      <trkpt lat="44.09752" lon="6.93265">
        <ele>1730.03</ele>
        <time>2019-09-28T05:59:04Z</time>
      </trkpt>
      <trkpt lat="44.09756" lon="6.93266">
        <ele>1730.51</ele>
        <time>2019-09-28T05:59:05Z</time>
      </trkpt>
      <trkpt lat="44.0976" lon="6.93269">
        <ele>1730.51</ele>
        <time>2019-09-28T05:59:06Z</time>
      </trkpt>
      <trkpt lat="44.09764" lon="6.93272">
        <ele>1730.99</ele>
        <time>2019-09-28T05:59:07Z</time>
      </trkpt>
      <trkpt lat="44.09826" lon="6.93298">
        <ele>1734.36</ele>
        <time>2019-09-28T05:59:21Z</time>
      </trkpt>
      <trkpt lat="44.09857" lon="6.9331">
        <ele>1734.36</ele>
        <time>2019-09-28T05:59:33Z</time>
      </trkpt>
      <trkpt lat="44.09883" lon="6.93333">
        <ele>1734.84</ele>
        <time>2019-09-28T05:59:44Z</time>
      </trkpt>
      <trkpt lat="44.09896" lon="6.93347">
        <ele>1735.32</ele>
        <time>2019-09-28T05:59:48Z</time>
      </trkpt>
      <trkpt lat="44.099" lon="6.93349">
        <ele>1735.32</ele>
        <time>2019-09-28T05:59:49Z</time>
      </trkpt>
      <trkpt lat="44.09905" lon="6.93351">
        <ele>1735.32</ele>
        <time>2019-09-28T05:59:50Z</time>
      </trkpt>
      <trkpt lat="44.09919" lon="6.93355">
        <ele>1735.32</ele>
        <time>2019-09-28T05:59:53Z</time>
      </trkpt>
      <trkpt lat="44.09973" lon="6.9335">
        <ele>1738.68</ele>
        <time>2019-09-28T06:00:05Z</time>
      </trkpt>
      <trkpt lat="44.10018" lon="6.93365">
        <ele>1738.68</ele>
        <time>2019-09-28T06:00:15Z</time>
      </trkpt>
      <trkpt lat="44.10022" lon="6.93366">
        <ele>1738.68</ele>
        <time>2019-09-28T06:00:16Z</time>
      </trkpt>
      <trkpt lat="44.10026" lon="6.93366">
        <ele>1738.68</ele>
        <time>2019-09-28T06:00:17Z</time>
      </trkpt>
      <trkpt lat="44.1003" lon="6.93367">
        <ele>1738.68</ele>
        <time>2019-09-28T06:00:18Z</time>
      </trkpt>
      <trkpt lat="44.10033" lon="6.93369">
        <ele>1739.16</ele>
        <time>2019-09-28T06:00:19Z</time>
      </trkpt>
      <trkpt lat="44.10036" lon="6.93372">
        <ele>1739.16</ele>
        <time>2019-09-28T06:00:20Z</time>
      </trkpt>
      <trkpt lat="44.10049" lon="6.934">
        <ele>1739.64</ele>
        <time>2019-09-28T06:00:31Z</time>
      </trkpt>
      <trkpt lat="44.10077" lon="6.93426">
        <ele>1739.64</ele>
        <time>2019-09-28T06:00:45Z</time>
      </trkpt>
      <trkpt lat="44.10109" lon="6.93459">
        <ele>1740.12</ele>
        <time>2019-09-28T06:00:58Z</time>
      </trkpt>
      <trkpt lat="44.1012" lon="6.93477">
        <ele>1740.12</ele>
        <time>2019-09-28T06:01:02Z</time>
      </trkpt>
      <trkpt lat="44.10168" lon="6.93557">
        <ele>1743.01</ele>
        <time>2019-09-28T06:01:19Z</time>
      </trkpt>
      <trkpt lat="44.10187" lon="6.93622">
        <ele>1745.41</ele>
        <time>2019-09-28T06:01:32Z</time>
      </trkpt>
      <trkpt lat="44.10201" lon="6.93672">
        <ele>1747.33</ele>
        <time>2019-09-28T06:01:45Z</time>
      </trkpt>
      <trkpt lat="44.10208" lon="6.93691">
        <ele>1747.81</ele>
        <time>2019-09-28T06:01:52Z</time>
      </trkpt>
      <trkpt lat="44.10222" lon="6.93749">
        <ele>1749.74</ele>
        <time>2019-09-28T06:02:08Z</time>
      </trkpt>
      <trkpt lat="44.10225" lon="6.93771">
        <ele>1750.7</ele>
        <time>2019-09-28T06:02:14Z</time>
      </trkpt>
      <trkpt lat="44.10231" lon="6.93789">
        <ele>1750.7</ele>
        <time>2019-09-28T06:02:25Z</time>
      </trkpt>
      <trkpt lat="44.10235" lon="6.93804">
        <ele>1750.7</ele>
        <time>2019-09-28T06:02:35Z</time>
      </trkpt>
      <trkpt lat="44.10247" lon="6.93832">
        <ele>1750.7</ele>
        <time>2019-09-28T06:02:47Z</time>
      </trkpt>
      <trkpt lat="44.10272" lon="6.93888">
        <ele>1752.14</ele>
        <time>2019-09-28T06:03:04Z</time>
      </trkpt>
      <trkpt lat="44.10309" lon="6.93938">
        <ele>1753.58</ele>
        <time>2019-09-28T06:03:21Z</time>
      </trkpt>
      <trkpt lat="44.10351" lon="6.9396">
        <ele>1754.54</ele>
        <time>2019-09-28T06:03:36Z</time>
      </trkpt>
      <trkpt lat="44.1041" lon="6.93988">
        <ele>1754.06</ele>
        <time>2019-09-28T06:03:56Z</time>
      </trkpt>
      <trkpt lat="44.10455" lon="6.94054">
        <ele>1754.54</ele>
        <time>2019-09-28T06:04:13Z</time>
      </trkpt>
      <trkpt lat="44.10482" lon="6.94112">
        <ele>1757.43</ele>
        <time>2019-09-28T06:04:29Z</time>
      </trkpt>
      <trkpt lat="44.10496" lon="6.94163">
        <ele>1759.35</ele>
        <time>2019-09-28T06:04:42Z</time>
      </trkpt>
      <trkpt lat="44.10508" lon="6.94239">
        <ele>1760.79</ele>
        <time>2019-09-28T06:05:00Z</time>
      </trkpt>
      <trkpt lat="44.10528" lon="6.94314">
        <ele>1762.71</ele>
        <time>2019-09-28T06:05:19Z</time>
      </trkpt>
      <trkpt lat="44.10553" lon="6.9436">
        <ele>1763.68</ele>
        <time>2019-09-28T06:05:34Z</time>
      </trkpt>
      <trkpt lat="44.10592" lon="6.94403">
        <ele>1764.16</ele>
        <time>2019-09-28T06:05:51Z</time>
      </trkpt>
      <trkpt lat="44.10634" lon="6.94422">
        <ele>1763.2</ele>
        <time>2019-09-28T06:06:06Z</time>
      </trkpt>
      <trkpt lat="44.10695" lon="6.94424">
        <ele>1763.2</ele>
        <time>2019-09-28T06:06:25Z</time>
      </trkpt>
      <trkpt lat="44.10762" lon="6.94409">
        <ele>1764.64</ele>
        <time>2019-09-28T06:06:44Z</time>
      </trkpt>
      <trkpt lat="44.10801" lon="6.94403">
        <ele>1765.12</ele>
        <time>2019-09-28T06:06:57Z</time>
      </trkpt>
      <trkpt lat="44.10803" lon="6.94406">
        <ele>1765.12</ele>
        <time>2019-09-28T06:06:58Z</time>
      </trkpt>
      <trkpt lat="44.10805" lon="6.9441">
        <ele>1765.12</ele>
        <time>2019-09-28T06:06:59Z</time>
      </trkpt>
      <trkpt lat="44.10806" lon="6.94414">
        <ele>1765.12</ele>
        <time>2019-09-28T06:07:00Z</time>
      </trkpt>
      <trkpt lat="44.10805" lon="6.94419">
        <ele>1765.12</ele>
        <time>2019-09-28T06:07:01Z</time>
      </trkpt>
      <trkpt lat="44.10805" lon="6.94425">
        <ele>1765.6</ele>
        <time>2019-09-28T06:07:02Z</time>
      </trkpt>
      <trkpt lat="44.10803" lon="6.9443">
        <ele>1765.12</ele>
        <time>2019-09-28T06:07:03Z</time>
      </trkpt>
      <trkpt lat="44.10801" lon="6.94435">
        <ele>1765.6</ele>
        <time>2019-09-28T06:07:04Z</time>
      </trkpt>
      <trkpt lat="44.10794" lon="6.9446">
        <ele>1766.08</ele>
        <time>2019-09-28T06:07:09Z</time>
      </trkpt>
      <trkpt lat="44.10792" lon="6.94501">
        <ele>1767.04</ele>
        <time>2019-09-28T06:07:16Z</time>
      </trkpt>
      <trkpt lat="44.10792" lon="6.94507">
        <ele>1767.04</ele>
        <time>2019-09-28T06:07:17Z</time>
      </trkpt>
      <trkpt lat="44.108" lon="6.94597">
        <ele>1768.48</ele>
        <time>2019-09-28T06:07:33Z</time>
      </trkpt>
      <trkpt lat="44.10801" lon="6.94631">
        <ele>1768.48</ele>
        <time>2019-09-28T06:07:39Z</time>
      </trkpt>
      <trkpt lat="44.10801" lon="6.94637">
        <ele>1768.48</ele>
        <time>2019-09-28T06:07:40Z</time>
      </trkpt>
      <trkpt lat="44.108" lon="6.94643">
        <ele>1768.48</ele>
        <time>2019-09-28T06:07:41Z</time>
      </trkpt>
      <trkpt lat="44.10797" lon="6.9465">
        <ele>1768.48</ele>
        <time>2019-09-28T06:07:42Z</time>
      </trkpt>
      <trkpt lat="44.10795" lon="6.94654">
        <ele>1768.48</ele>
        <time>2019-09-28T06:07:43Z</time>
      </trkpt>
      <trkpt lat="44.10792" lon="6.94658">
        <ele>1768.48</ele>
        <time>2019-09-28T06:07:44Z</time>
      </trkpt>
      <trkpt lat="44.1079" lon="6.94662">
        <ele>1768.96</ele>
        <time>2019-09-28T06:07:45Z</time>
      </trkpt>
      <trkpt lat="44.10774" lon="6.94715">
        <ele>1768</ele>
        <time>2019-09-28T06:07:57Z</time>
      </trkpt>
      <trkpt lat="44.10786" lon="6.94745">
        <ele>1767.52</ele>
        <time>2019-09-28T06:08:06Z</time>
      </trkpt>
      <trkpt lat="44.10791" lon="6.94753">
        <ele>1767.04</ele>
        <time>2019-09-28T06:08:08Z</time>
      </trkpt>
      <trkpt lat="44.10794" lon="6.94757">
        <ele>1767.04</ele>
        <time>2019-09-28T06:08:09Z</time>
      </trkpt>
      <trkpt lat="44.10832" lon="6.94806">
        <ele>1766.56</ele>
        <time>2019-09-28T06:08:23Z</time>
      </trkpt>
      <trkpt lat="44.10847" lon="6.94835">
        <ele>1765.6</ele>
        <time>2019-09-28T06:08:29Z</time>
      </trkpt>
      <trkpt lat="44.10892" lon="6.9491">
        <ele>1760.79</ele>
        <time>2019-09-28T06:08:41Z</time>
      </trkpt>
      <trkpt lat="44.10906" lon="6.94939">
        <ele>1758.87</ele>
        <time>2019-09-28T06:08:44Z</time>
      </trkpt>
      <trkpt lat="44.10964" lon="6.95072">
        <ele>1749.26</ele>
        <time>2019-09-28T06:08:55Z</time>
      </trkpt>
      <trkpt lat="44.11005" lon="6.95211">
        <ele>1746.85</ele>
        <time>2019-09-28T06:09:06Z</time>
      </trkpt>
      <trkpt lat="44.11006" lon="6.95222">
        <ele>1746.85</ele>
        <time>2019-09-28T06:09:07Z</time>
      </trkpt>
      <trkpt lat="44.11004" lon="6.95234">
        <ele>1746.85</ele>
        <time>2019-09-28T06:09:08Z</time>
      </trkpt>
      <trkpt lat="44.11002" lon="6.95244">
        <ele>1747.33</ele>
        <time>2019-09-28T06:09:09Z</time>
      </trkpt>
      <trkpt lat="44.11" lon="6.95253">
        <ele>1747.81</ele>
        <time>2019-09-28T06:09:10Z</time>
      </trkpt>
      <trkpt lat="44.10999" lon="6.95261">
        <ele>1748.29</ele>
        <time>2019-09-28T06:09:11Z</time>
      </trkpt>
      <trkpt lat="44.10997" lon="6.9528">
        <ele>1749.74</ele>
        <time>2019-09-28T06:09:14Z</time>
      </trkpt>
      <trkpt lat="44.10997" lon="6.95285">
        <ele>1750.22</ele>
        <time>2019-09-28T06:09:15Z</time>
      </trkpt>
      <trkpt lat="44.10998" lon="6.9529">
        <ele>1750.7</ele>
        <time>2019-09-28T06:09:16Z</time>
      </trkpt>
      <trkpt lat="44.10998" lon="6.95295">
        <ele>1750.7</ele>
        <time>2019-09-28T06:09:17Z</time>
      </trkpt>
      <trkpt lat="44.10999" lon="6.95301">
        <ele>1751.18</ele>
        <time>2019-09-28T06:09:18Z</time>
      </trkpt>
      <trkpt lat="44.11" lon="6.95305">
        <ele>1751.18</ele>
        <time>2019-09-28T06:09:19Z</time>
      </trkpt>
      <trkpt lat="44.11006" lon="6.95376">
        <ele>1753.1</ele>
        <time>2019-09-28T06:09:34Z</time>
      </trkpt>
      <trkpt lat="44.11013" lon="6.95459">
        <ele>1753.1</ele>
        <time>2019-09-28T06:09:48Z</time>
      </trkpt>
      <trkpt lat="44.11025" lon="6.95535">
        <ele>1754.06</ele>
        <time>2019-09-28T06:10:04Z</time>
      </trkpt>
      <trkpt lat="44.11035" lon="6.95632">
        <ele>1755.99</ele>
        <time>2019-09-28T06:10:23Z</time>
      </trkpt>
      <trkpt lat="44.11041" lon="6.95707">
        <ele>1757.43</ele>
        <time>2019-09-28T06:10:38Z</time>
      </trkpt>
      <trkpt lat="44.11061" lon="6.9575">
        <ele>1756.47</ele>
        <time>2019-09-28T06:10:49Z</time>
      </trkpt>
      <trkpt lat="44.11071" lon="6.95798">
        <ele>1756.95</ele>
        <time>2019-09-28T06:11:00Z</time>
      </trkpt>
      <trkpt lat="44.11103" lon="6.95836">
        <ele>1758.87</ele>
        <time>2019-09-28T06:11:15Z</time>
      </trkpt>
      <trkpt lat="44.11132" lon="6.95824">
        <ele>1760.79</ele>
        <time>2019-09-28T06:11:27Z</time>
      </trkpt>
      <trkpt lat="44.11151" lon="6.95825">
        <ele>1763.2</ele>
        <time>2019-09-28T06:11:38Z</time>
      </trkpt>
      <trkpt lat="44.11183" lon="6.95847">
        <ele>1766.56</ele>
        <time>2019-09-28T06:11:54Z</time>
      </trkpt>
      <trkpt lat="44.11224" lon="6.95855">
        <ele>1770.41</ele>
        <time>2019-09-28T06:12:11Z</time>
      </trkpt>
      <trkpt lat="44.1124" lon="6.95886">
        <ele>1771.37</ele>
        <time>2019-09-28T06:12:22Z</time>
      </trkpt>
      <trkpt lat="44.11246" lon="6.95937">
        <ele>1773.77</ele>
        <time>2019-09-28T06:12:35Z</time>
      </trkpt>
      <trkpt lat="44.1127" lon="6.95976">
        <ele>1776.65</ele>
        <time>2019-09-28T06:12:50Z</time>
      </trkpt>
      <trkpt lat="44.11302" lon="6.96015">
        <ele>1780.02</ele>
        <time>2019-09-28T06:13:07Z</time>
      </trkpt>
      <trkpt lat="44.11339" lon="6.96026">
        <ele>1781.94</ele>
        <time>2019-09-28T06:13:22Z</time>
      </trkpt>
      <trkpt lat="44.11379" lon="6.96019">
        <ele>1784.82</ele>
        <time>2019-09-28T06:13:38Z</time>
      </trkpt>
      <trkpt lat="44.11416" lon="6.96009">
        <ele>1788.67</ele>
        <time>2019-09-28T06:13:52Z</time>
      </trkpt>
      <trkpt lat="44.11469" lon="6.96021">
        <ele>1789.15</ele>
        <time>2019-09-28T06:14:10Z</time>
      </trkpt>
      <trkpt lat="44.11514" lon="6.96035">
        <ele>1789.15</ele>
        <time>2019-09-28T06:14:26Z</time>
      </trkpt>
      <trkpt lat="44.11538" lon="6.96042">
        <ele>1789.63</ele>
        <time>2019-09-28T06:14:36Z</time>
      </trkpt>
      <trkpt lat="44.1154" lon="6.96042">
        <ele>1789.63</ele>
        <time>2019-09-28T06:14:37Z</time>
      </trkpt>
      <trkpt lat="44.11542" lon="6.96042">
        <ele>1789.63</ele>
        <time>2019-09-28T06:14:38Z</time>
      </trkpt>
      <trkpt lat="44.11544" lon="6.96043">
        <ele>1789.63</ele>
        <time>2019-09-28T06:14:39Z</time>
      </trkpt>
      <trkpt lat="44.11546" lon="6.96044">
        <ele>1789.63</ele>
        <time>2019-09-28T06:14:40Z</time>
      </trkpt>
      <trkpt lat="44.11549" lon="6.96045">
        <ele>1790.11</ele>
        <time>2019-09-28T06:14:41Z</time>
      </trkpt>
      <trkpt lat="44.11552" lon="6.96046">
        <ele>1790.11</ele>
        <time>2019-09-28T06:14:42Z</time>
      </trkpt>
      <trkpt lat="44.11594" lon="6.96056">
        <ele>1790.59</ele>
        <time>2019-09-28T06:14:58Z</time>
      </trkpt>
      <trkpt lat="44.1164" lon="6.96043">
        <ele>1791.55</ele>
        <time>2019-09-28T06:15:15Z</time>
      </trkpt>
      <trkpt lat="44.11682" lon="6.96018">
        <ele>1791.07</ele>
        <time>2019-09-28T06:15:30Z</time>
      </trkpt>
      <trkpt lat="44.11724" lon="6.96007">
        <ele>1791.07</ele>
        <time>2019-09-28T06:15:43Z</time>
      </trkpt>
      <trkpt lat="44.11778" lon="6.95987">
        <ele>1791.55</ele>
        <time>2019-09-28T06:16:00Z</time>
      </trkpt>
      <trkpt lat="44.11826" lon="6.95976">
        <ele>1792.52</ele>
        <time>2019-09-28T06:16:16Z</time>
      </trkpt>
      <trkpt lat="44.11868" lon="6.95979">
        <ele>1794.44</ele>
        <time>2019-09-28T06:16:31Z</time>
      </trkpt>
      <trkpt lat="44.1191" lon="6.95991">
        <ele>1797.32</ele>
        <time>2019-09-28T06:16:46Z</time>
      </trkpt>
      <trkpt lat="44.11944" lon="6.96018">
        <ele>1801.17</ele>
        <time>2019-09-28T06:17:01Z</time>
      </trkpt>
      <trkpt lat="44.11964" lon="6.96056">
        <ele>1804.05</ele>
        <time>2019-09-28T06:17:16Z</time>
      </trkpt>
      <trkpt lat="44.11995" lon="6.96082">
        <ele>1805.01</ele>
        <time>2019-09-28T06:17:29Z</time>
      </trkpt>
      <trkpt lat="44.11999" lon="6.96086">
        <ele>1805.01</ele>
        <time>2019-09-28T06:17:30Z</time>
      </trkpt>
      <trkpt lat="44.12002" lon="6.9609">
        <ele>1805.01</ele>
        <time>2019-09-28T06:17:31Z</time>
      </trkpt>
      <trkpt lat="44.12026" lon="6.96144">
        <ele>1805.49</ele>
        <time>2019-09-28T06:17:43Z</time>
      </trkpt>
      <trkpt lat="44.12026" lon="6.96217">
        <ele>1808.38</ele>
        <time>2019-09-28T06:17:56Z</time>
      </trkpt>
      <trkpt lat="44.12029" lon="6.96243">
        <ele>1808.86</ele>
        <time>2019-09-28T06:18:01Z</time>
      </trkpt>
      <trkpt lat="44.12029" lon="6.96317">
        <ele>1812.22</ele>
        <time>2019-09-28T06:18:17Z</time>
      </trkpt>
      <trkpt lat="44.1204" lon="6.96368">
        <ele>1816.55</ele>
        <time>2019-09-28T06:18:32Z</time>
      </trkpt>
      <trkpt lat="44.12061" lon="6.96416">
        <ele>1818.47</ele>
        <time>2019-09-28T06:18:48Z</time>
      </trkpt>
      <trkpt lat="44.12079" lon="6.96462">
        <ele>1820.39</ele>
        <time>2019-09-28T06:19:03Z</time>
      </trkpt>
      <trkpt lat="44.12105" lon="6.96508">
        <ele>1820.87</ele>
        <time>2019-09-28T06:19:18Z</time>
      </trkpt>
      <trkpt lat="44.12138" lon="6.96543">
        <ele>1820.39</ele>
        <time>2019-09-28T06:19:31Z</time>
      </trkpt>
      <trkpt lat="44.12146" lon="6.96559">
        <ele>1820.39</ele>
        <time>2019-09-28T06:19:35Z</time>
      </trkpt>
      <trkpt lat="44.12146" lon="6.96564">
        <ele>1820.87</ele>
        <time>2019-09-28T06:19:36Z</time>
      </trkpt>
      <trkpt lat="44.12145" lon="6.96569">
        <ele>1820.87</ele>
        <time>2019-09-28T06:19:37Z</time>
      </trkpt>
      <trkpt lat="44.12142" lon="6.96618">
        <ele>1823.76</ele>
        <time>2019-09-28T06:19:49Z</time>
      </trkpt>
      <trkpt lat="44.12136" lon="6.96673">
        <ele>1826.64</ele>
        <time>2019-09-28T06:20:02Z</time>
      </trkpt>
      <trkpt lat="44.12132" lon="6.96718">
        <ele>1828.56</ele>
        <time>2019-09-28T06:20:15Z</time>
      </trkpt>
      <trkpt lat="44.12128" lon="6.96766">
        <ele>1831.93</ele>
        <time>2019-09-28T06:20:29Z</time>
      </trkpt>
      <trkpt lat="44.1211" lon="6.96805">
        <ele>1834.33</ele>
        <time>2019-09-28T06:20:43Z</time>
      </trkpt>
      <trkpt lat="44.12098" lon="6.96845">
        <ele>1838.18</ele>
        <time>2019-09-28T06:20:56Z</time>
      </trkpt>
      <trkpt lat="44.12078" lon="6.96886">
        <ele>1842.02</ele>
        <time>2019-09-28T06:21:11Z</time>
      </trkpt>
      <trkpt lat="44.12048" lon="6.96928">
        <ele>1846.35</ele>
        <time>2019-09-28T06:21:29Z</time>
      </trkpt>
      <trkpt lat="44.12029" lon="6.96965">
        <ele>1850.19</ele>
        <time>2019-09-28T06:21:44Z</time>
      </trkpt>
      <trkpt lat="44.12008" lon="6.97001">
        <ele>1854.04</ele>
        <time>2019-09-28T06:21:58Z</time>
      </trkpt>
      <trkpt lat="44.12" lon="6.97044">
        <ele>1855.96</ele>
        <time>2019-09-28T06:22:12Z</time>
      </trkpt>
      <trkpt lat="44.12" lon="6.97056">
        <ele>1855.96</ele>
        <time>2019-09-28T06:22:16Z</time>
      </trkpt>
      <trkpt lat="44.12" lon="6.97057">
        <ele>1855.96</ele>
        <time>2019-09-28T06:22:17Z</time>
      </trkpt>
      <trkpt lat="44.12" lon="6.97059">
        <ele>1855.96</ele>
        <time>2019-09-28T06:22:18Z</time>
      </trkpt>
      <trkpt lat="44.12003" lon="6.97088">
        <ele>1855.96</ele>
        <time>2019-09-28T06:22:30Z</time>
      </trkpt>
      <trkpt lat="44.12004" lon="6.9709">
        <ele>1855.96</ele>
        <time>2019-09-28T06:22:47Z</time>
      </trkpt>
      <trkpt lat="44.12005" lon="6.97096">
        <ele>1855.48</ele>
        <time>2019-09-28T06:23:00Z</time>
      </trkpt>
      <trkpt lat="44.12006" lon="6.97095">
        <ele>1854.52</ele>
        <time>2019-09-28T06:23:22Z</time>
      </trkpt>
      <trkpt lat="44.12005" lon="6.97095">
        <ele>1854.04</ele>
        <time>2019-09-28T06:23:56Z</time>
      </trkpt>
      <trkpt lat="44.12005" lon="6.97095">
        <ele>1853.56</ele>
        <time>2019-09-28T06:24:26Z</time>
      </trkpt>
      <trkpt lat="44.12008" lon="6.97107">
        <ele>1854.04</ele>
        <time>2019-09-28T06:24:47Z</time>
      </trkpt>
      <trkpt lat="44.12011" lon="6.9716">
        <ele>1850.68</ele>
        <time>2019-09-28T06:24:57Z</time>
      </trkpt>
      <trkpt lat="44.1201" lon="6.97167">
        <ele>1850.19</ele>
        <time>2019-09-28T06:24:58Z</time>
      </trkpt>
      <trkpt lat="44.12009" lon="6.97175">
        <ele>1849.71</ele>
        <time>2019-09-28T06:24:59Z</time>
      </trkpt>
      <trkpt lat="44.12006" lon="6.97183">
        <ele>1849.23</ele>
        <time>2019-09-28T06:25:00Z</time>
      </trkpt>
      <trkpt lat="44.12003" lon="6.97189">
        <ele>1848.75</ele>
        <time>2019-09-28T06:25:01Z</time>
      </trkpt>
      <trkpt lat="44.11999" lon="6.97194">
        <ele>1848.27</ele>
        <time>2019-09-28T06:25:02Z</time>
      </trkpt>
      <trkpt lat="44.11995" lon="6.97199">
        <ele>1847.79</ele>
        <time>2019-09-28T06:25:03Z</time>
      </trkpt>
      <trkpt lat="44.11992" lon="6.97205">
        <ele>1847.31</ele>
        <time>2019-09-28T06:25:04Z</time>
      </trkpt>
      <trkpt lat="44.11989" lon="6.97211">
        <ele>1846.35</ele>
        <time>2019-09-28T06:25:05Z</time>
      </trkpt>
      <trkpt lat="44.11986" lon="6.97217">
        <ele>1845.87</ele>
        <time>2019-09-28T06:25:06Z</time>
      </trkpt>
      <trkpt lat="44.11978" lon="6.97241">
        <ele>1843.95</ele>
        <time>2019-09-28T06:25:10Z</time>
      </trkpt>
      <trkpt lat="44.11976" lon="6.97247">
        <ele>1843.47</ele>
        <time>2019-09-28T06:25:11Z</time>
      </trkpt>
      <trkpt lat="44.11964" lon="6.97288">
        <ele>1841.06</ele>
        <time>2019-09-28T06:25:17Z</time>
      </trkpt>
      <trkpt lat="44.11963" lon="6.97297">
        <ele>1840.58</ele>
        <time>2019-09-28T06:25:18Z</time>
      </trkpt>
      <trkpt lat="44.11963" lon="6.97305">
        <ele>1839.62</ele>
        <time>2019-09-28T06:25:19Z</time>
      </trkpt>
      <trkpt lat="44.11964" lon="6.97313">
        <ele>1839.14</ele>
        <time>2019-09-28T06:25:20Z</time>
      </trkpt>
      <trkpt lat="44.11966" lon="6.97321">
        <ele>1838.66</ele>
        <time>2019-09-28T06:25:21Z</time>
      </trkpt>
      <trkpt lat="44.11967" lon="6.97331">
        <ele>1837.7</ele>
        <time>2019-09-28T06:25:22Z</time>
      </trkpt>
      <trkpt lat="44.11969" lon="6.97337">
        <ele>1836.74</ele>
        <time>2019-09-28T06:25:23Z</time>
      </trkpt>
      <trkpt lat="44.11971" lon="6.97345">
        <ele>1836.26</ele>
        <time>2019-09-28T06:25:24Z</time>
      </trkpt>
      <trkpt lat="44.11974" lon="6.97353">
        <ele>1835.29</ele>
        <time>2019-09-28T06:25:25Z</time>
      </trkpt>
      <trkpt lat="44.11976" lon="6.97359">
        <ele>1834.81</ele>
        <time>2019-09-28T06:25:26Z</time>
      </trkpt>
      <trkpt lat="44.1198" lon="6.97366">
        <ele>1834.33</ele>
        <time>2019-09-28T06:25:27Z</time>
      </trkpt>
      <trkpt lat="44.11984" lon="6.97372">
        <ele>1833.37</ele>
        <time>2019-09-28T06:25:28Z</time>
      </trkpt>
      <trkpt lat="44.12016" lon="6.97412">
        <ele>1829.05</ele>
        <time>2019-09-28T06:25:37Z</time>
      </trkpt>
      <trkpt lat="44.12022" lon="6.97416">
        <ele>1828.08</ele>
        <time>2019-09-28T06:25:38Z</time>
      </trkpt>
      <trkpt lat="44.12028" lon="6.97419">
        <ele>1827.6</ele>
        <time>2019-09-28T06:25:39Z</time>
      </trkpt>
      <trkpt lat="44.12036" lon="6.97422">
        <ele>1827.12</ele>
        <time>2019-09-28T06:25:40Z</time>
      </trkpt>
      <trkpt lat="44.12044" lon="6.97425">
        <ele>1826.16</ele>
        <time>2019-09-28T06:25:41Z</time>
      </trkpt>
      <trkpt lat="44.12067" lon="6.97432">
        <ele>1824.24</ele>
        <time>2019-09-28T06:25:44Z</time>
      </trkpt>
      <trkpt lat="44.12075" lon="6.97435">
        <ele>1823.28</ele>
        <time>2019-09-28T06:25:45Z</time>
      </trkpt>
      <trkpt lat="44.1209" lon="6.97444">
        <ele>1821.84</ele>
        <time>2019-09-28T06:25:48Z</time>
      </trkpt>
      <trkpt lat="44.12093" lon="6.97447">
        <ele>1821.35</ele>
        <time>2019-09-28T06:25:49Z</time>
      </trkpt>
      <trkpt lat="44.12093" lon="6.97451">
        <ele>1820.87</ele>
        <time>2019-09-28T06:25:50Z</time>
      </trkpt>
      <trkpt lat="44.12094" lon="6.97457">
        <ele>1820.39</ele>
        <time>2019-09-28T06:25:51Z</time>
      </trkpt>
      <trkpt lat="44.12095" lon="6.97463">
        <ele>1819.91</ele>
        <time>2019-09-28T06:25:52Z</time>
      </trkpt>
      <trkpt lat="44.12096" lon="6.97469">
        <ele>1819.43</ele>
        <time>2019-09-28T06:25:53Z</time>
      </trkpt>
      <trkpt lat="44.12096" lon="6.97475">
        <ele>1818.95</ele>
        <time>2019-09-28T06:25:54Z</time>
      </trkpt>
      <trkpt lat="44.12097" lon="6.97483">
        <ele>1818.47</ele>
        <time>2019-09-28T06:25:55Z</time>
      </trkpt>
      <trkpt lat="44.12098" lon="6.9749">
        <ele>1817.99</ele>
        <time>2019-09-28T06:25:56Z</time>
      </trkpt>
      <trkpt lat="44.12099" lon="6.97499">
        <ele>1817.03</ele>
        <time>2019-09-28T06:25:57Z</time>
      </trkpt>
      <trkpt lat="44.12115" lon="6.97557">
        <ele>1812.22</ele>
        <time>2019-09-28T06:26:03Z</time>
      </trkpt>
      <trkpt lat="44.12119" lon="6.97564">
        <ele>1811.74</ele>
        <time>2019-09-28T06:26:04Z</time>
      </trkpt>
      <trkpt lat="44.12128" lon="6.97578">
        <ele>1810.3</ele>
        <time>2019-09-28T06:26:06Z</time>
      </trkpt>
      <trkpt lat="44.12133" lon="6.97587">
        <ele>1809.34</ele>
        <time>2019-09-28T06:26:07Z</time>
      </trkpt>
      <trkpt lat="44.12152" lon="6.97637">
        <ele>1805.49</ele>
        <time>2019-09-28T06:26:13Z</time>
      </trkpt>
      <trkpt lat="44.12161" lon="6.97655">
        <ele>1803.57</ele>
        <time>2019-09-28T06:26:16Z</time>
      </trkpt>
      <trkpt lat="44.12164" lon="6.9766">
        <ele>1803.09</ele>
        <time>2019-09-28T06:26:17Z</time>
      </trkpt>
      <trkpt lat="44.12168" lon="6.97665">
        <ele>1802.61</ele>
        <time>2019-09-28T06:26:18Z</time>
      </trkpt>
      <trkpt lat="44.12172" lon="6.97669">
        <ele>1801.65</ele>
        <time>2019-09-28T06:26:19Z</time>
      </trkpt>
      <trkpt lat="44.12177" lon="6.97673">
        <ele>1801.17</ele>
        <time>2019-09-28T06:26:20Z</time>
      </trkpt>
      <trkpt lat="44.12181" lon="6.97678">
        <ele>1800.69</ele>
        <time>2019-09-28T06:26:21Z</time>
      </trkpt>
      <trkpt lat="44.12186" lon="6.97685">
        <ele>1799.73</ele>
        <time>2019-09-28T06:26:22Z</time>
      </trkpt>
      <trkpt lat="44.12191" lon="6.97691">
        <ele>1799.24</ele>
        <time>2019-09-28T06:26:23Z</time>
      </trkpt>
      <trkpt lat="44.12195" lon="6.97697">
        <ele>1798.28</ele>
        <time>2019-09-28T06:26:24Z</time>
      </trkpt>
      <trkpt lat="44.12199" lon="6.97702">
        <ele>1797.32</ele>
        <time>2019-09-28T06:26:25Z</time>
      </trkpt>
      <trkpt lat="44.12203" lon="6.97708">
        <ele>1796.84</ele>
        <time>2019-09-28T06:26:26Z</time>
      </trkpt>
      <trkpt lat="44.12211" lon="6.97724">
        <ele>1795.4</ele>
        <time>2019-09-28T06:26:29Z</time>
      </trkpt>
      <trkpt lat="44.12216" lon="6.97735">
        <ele>1794.44</ele>
        <time>2019-09-28T06:26:31Z</time>
      </trkpt>
      <trkpt lat="44.12219" lon="6.97741">
        <ele>1793.96</ele>
        <time>2019-09-28T06:26:32Z</time>
      </trkpt>
      <trkpt lat="44.1223" lon="6.97756">
        <ele>1792.52</ele>
        <time>2019-09-28T06:26:35Z</time>
      </trkpt>
      <trkpt lat="44.12233" lon="6.9776">
        <ele>1792.03</ele>
        <time>2019-09-28T06:26:36Z</time>
      </trkpt>
      <trkpt lat="44.12235" lon="6.97765">
        <ele>1791.55</ele>
        <time>2019-09-28T06:26:37Z</time>
      </trkpt>
      <trkpt lat="44.12237" lon="6.97769">
        <ele>1791.07</ele>
        <time>2019-09-28T06:26:38Z</time>
      </trkpt>
      <trkpt lat="44.12239" lon="6.97771">
        <ele>1790.59</ele>
        <time>2019-09-28T06:26:39Z</time>
      </trkpt>
      <trkpt lat="44.12242" lon="6.97775">
        <ele>1790.59</ele>
        <time>2019-09-28T06:26:40Z</time>
      </trkpt>
      <trkpt lat="44.12245" lon="6.97777">
        <ele>1790.11</ele>
        <time>2019-09-28T06:26:41Z</time>
      </trkpt>
      <trkpt lat="44.12248" lon="6.9778">
        <ele>1789.63</ele>
        <time>2019-09-28T06:26:42Z</time>
      </trkpt>
      <trkpt lat="44.12251" lon="6.97783">
        <ele>1789.15</ele>
        <time>2019-09-28T06:26:43Z</time>
      </trkpt>
      <trkpt lat="44.12254" lon="6.97785">
        <ele>1789.15</ele>
        <time>2019-09-28T06:26:44Z</time>
      </trkpt>
      <trkpt lat="44.12257" lon="6.97787">
        <ele>1788.67</ele>
        <time>2019-09-28T06:26:45Z</time>
      </trkpt>
      <trkpt lat="44.12261" lon="6.97789">
        <ele>1788.67</ele>
        <time>2019-09-28T06:26:46Z</time>
      </trkpt>
      <trkpt lat="44.12265" lon="6.97791">
        <ele>1788.19</ele>
        <time>2019-09-28T06:26:47Z</time>
      </trkpt>
      <trkpt lat="44.12283" lon="6.97802">
        <ele>1786.75</ele>
        <time>2019-09-28T06:26:51Z</time>
      </trkpt>
      <trkpt lat="44.12323" lon="6.9782">
        <ele>1782.9</ele>
        <time>2019-09-28T06:27:03Z</time>
      </trkpt>
      <trkpt lat="44.12352" lon="6.9782">
        <ele>1779.06</ele>
        <time>2019-09-28T06:27:13Z</time>
      </trkpt>
      <trkpt lat="44.12379" lon="6.9783">
        <ele>1775.69</ele>
        <time>2019-09-28T06:27:24Z</time>
      </trkpt>
      <trkpt lat="44.12394" lon="6.97851">
        <ele>1774.73</ele>
        <time>2019-09-28T06:27:32Z</time>
      </trkpt>
      <trkpt lat="44.12397" lon="6.97852">
        <ele>1774.25</ele>
        <time>2019-09-28T06:27:33Z</time>
      </trkpt>
      <trkpt lat="44.12399" lon="6.97851">
        <ele>1774.25</ele>
        <time>2019-09-28T06:27:34Z</time>
      </trkpt>
      <trkpt lat="44.12416" lon="6.97849">
        <ele>1772.81</ele>
        <time>2019-09-28T06:27:38Z</time>
      </trkpt>
      <trkpt lat="44.12421" lon="6.9785">
        <ele>1772.33</ele>
        <time>2019-09-28T06:27:39Z</time>
      </trkpt>
      <trkpt lat="44.12426" lon="6.97852">
        <ele>1771.85</ele>
        <time>2019-09-28T06:27:40Z</time>
      </trkpt>
      <trkpt lat="44.1245" lon="6.97863">
        <ele>1772.33</ele>
        <time>2019-09-28T06:27:49Z</time>
      </trkpt>
      <trkpt lat="44.12453" lon="6.97873">
        <ele>1772.33</ele>
        <time>2019-09-28T06:28:01Z</time>
      </trkpt>
      <trkpt lat="44.12453" lon="6.97876">
        <ele>1773.77</ele>
        <time>2019-09-28T06:28:18Z</time>
      </trkpt>
      <trkpt lat="44.12452" lon="6.97877">
        <ele>1773.29</ele>
        <time>2019-09-28T06:28:21Z</time>
      </trkpt>
      <trkpt lat="44.12436" lon="6.97915">
        <ele>1772.33</ele>
        <time>2019-09-28T06:28:31Z</time>
      </trkpt>
      <trkpt lat="44.12428" lon="6.97952">
        <ele>1769.92</ele>
        <time>2019-09-28T06:28:39Z</time>
      </trkpt>
      <trkpt lat="44.12433" lon="6.97971">
        <ele>1768.96</ele>
        <time>2019-09-28T06:28:42Z</time>
      </trkpt>
      <trkpt lat="44.12436" lon="6.98">
        <ele>1768.48</ele>
        <time>2019-09-28T06:28:46Z</time>
      </trkpt>
      <trkpt lat="44.12436" lon="6.98008">
        <ele>1768.48</ele>
        <time>2019-09-28T06:28:47Z</time>
      </trkpt>
      <trkpt lat="44.12437" lon="6.98016">
        <ele>1768</ele>
        <time>2019-09-28T06:28:48Z</time>
      </trkpt>
      <trkpt lat="44.12437" lon="6.98024">
        <ele>1768</ele>
        <time>2019-09-28T06:28:49Z</time>
      </trkpt>
      <trkpt lat="44.12438" lon="6.98032">
        <ele>1767.52</ele>
        <time>2019-09-28T06:28:50Z</time>
      </trkpt>
      <trkpt lat="44.12439" lon="6.98039">
        <ele>1767.04</ele>
        <time>2019-09-28T06:28:51Z</time>
      </trkpt>
      <trkpt lat="44.12439" lon="6.98047">
        <ele>1767.04</ele>
        <time>2019-09-28T06:28:52Z</time>
      </trkpt>
      <trkpt lat="44.12438" lon="6.98054">
        <ele>1767.04</ele>
        <time>2019-09-28T06:28:53Z</time>
      </trkpt>
      <trkpt lat="44.12435" lon="6.9806">
        <ele>1767.04</ele>
        <time>2019-09-28T06:28:54Z</time>
      </trkpt>
      <trkpt lat="44.12432" lon="6.98065">
        <ele>1767.04</ele>
        <time>2019-09-28T06:28:55Z</time>
      </trkpt>
      <trkpt lat="44.12429" lon="6.9807">
        <ele>1767.04</ele>
        <time>2019-09-28T06:28:56Z</time>
      </trkpt>
      <trkpt lat="44.12426" lon="6.98075">
        <ele>1766.56</ele>
        <time>2019-09-28T06:28:57Z</time>
      </trkpt>
      <trkpt lat="44.12424" lon="6.98081">
        <ele>1766.56</ele>
        <time>2019-09-28T06:28:58Z</time>
      </trkpt>
      <trkpt lat="44.12423" lon="6.98086">
        <ele>1766.56</ele>
        <time>2019-09-28T06:28:59Z</time>
      </trkpt>
      <trkpt lat="44.12423" lon="6.98092">
        <ele>1766.56</ele>
        <time>2019-09-28T06:29:00Z</time>
      </trkpt>
      <trkpt lat="44.12424" lon="6.98098">
        <ele>1766.08</ele>
        <time>2019-09-28T06:29:01Z</time>
      </trkpt>
      <trkpt lat="44.12425" lon="6.98104">
        <ele>1765.6</ele>
        <time>2019-09-28T06:29:02Z</time>
      </trkpt>
      <trkpt lat="44.12426" lon="6.98111">
        <ele>1765.6</ele>
        <time>2019-09-28T06:29:03Z</time>
      </trkpt>
      <trkpt lat="44.12428" lon="6.98146">
        <ele>1764.64</ele>
        <time>2019-09-28T06:29:08Z</time>
      </trkpt>
      <trkpt lat="44.12431" lon="6.98153">
        <ele>1764.16</ele>
        <time>2019-09-28T06:29:09Z</time>
      </trkpt>
      <trkpt lat="44.12434" lon="6.9816">
        <ele>1763.68</ele>
        <time>2019-09-28T06:29:10Z</time>
      </trkpt>
      <trkpt lat="44.12437" lon="6.98166">
        <ele>1763.2</ele>
        <time>2019-09-28T06:29:11Z</time>
      </trkpt>
      <trkpt lat="44.12442" lon="6.98172">
        <ele>1763.2</ele>
        <time>2019-09-28T06:29:12Z</time>
      </trkpt>
      <trkpt lat="44.12446" lon="6.98177">
        <ele>1762.71</ele>
        <time>2019-09-28T06:29:13Z</time>
      </trkpt>
      <trkpt lat="44.12474" lon="6.98216">
        <ele>1761.75</ele>
        <time>2019-09-28T06:29:23Z</time>
      </trkpt>
      <trkpt lat="44.12475" lon="6.98228">
        <ele>1761.75</ele>
        <time>2019-09-28T06:29:27Z</time>
      </trkpt>
      <trkpt lat="44.12474" lon="6.9823">
        <ele>1761.75</ele>
        <time>2019-09-28T06:29:28Z</time>
      </trkpt>
      <trkpt lat="44.12472" lon="6.98232">
        <ele>1761.75</ele>
        <time>2019-09-28T06:29:30Z</time>
      </trkpt>
      <trkpt lat="44.1247" lon="6.98232">
        <ele>1761.75</ele>
        <time>2019-09-28T06:29:31Z</time>
      </trkpt>
      <trkpt lat="44.12432" lon="6.98232">
        <ele>1762.71</ele>
        <time>2019-09-28T06:29:42Z</time>
      </trkpt>
      <trkpt lat="44.12393" lon="6.98246">
        <ele>1767.04</ele>
        <time>2019-09-28T06:29:56Z</time>
      </trkpt>
      <trkpt lat="44.12363" lon="6.9827">
        <ele>1768.96</ele>
        <time>2019-09-28T06:30:10Z</time>
      </trkpt>
      <trkpt lat="44.12338" lon="6.983">
        <ele>1769.92</ele>
        <time>2019-09-28T06:30:24Z</time>
      </trkpt>
      <trkpt lat="44.12313" lon="6.98337">
        <ele>1772.33</ele>
        <time>2019-09-28T06:30:40Z</time>
      </trkpt>
      <trkpt lat="44.1229" lon="6.9836">
        <ele>1776.17</ele>
        <time>2019-09-28T06:30:53Z</time>
      </trkpt>
      <trkpt lat="44.12261" lon="6.98366">
        <ele>1778.1</ele>
        <time>2019-09-28T06:31:05Z</time>
      </trkpt>
      <trkpt lat="44.12238" lon="6.98391">
        <ele>1781.94</ele>
        <time>2019-09-28T06:31:19Z</time>
      </trkpt>
      <trkpt lat="44.1221" lon="6.98404">
        <ele>1783.38</ele>
        <time>2019-09-28T06:31:33Z</time>
      </trkpt>
      <trkpt lat="44.12184" lon="6.98413">
        <ele>1783.38</ele>
        <time>2019-09-28T06:31:45Z</time>
      </trkpt>
      <trkpt lat="44.1216" lon="6.98429">
        <ele>1784.34</ele>
        <time>2019-09-28T06:31:57Z</time>
      </trkpt>
      <trkpt lat="44.1213" lon="6.98418">
        <ele>1787.23</ele>
        <time>2019-09-28T06:32:11Z</time>
      </trkpt>
      <trkpt lat="44.12114" lon="6.98389">
        <ele>1790.11</ele>
        <time>2019-09-28T06:32:22Z</time>
      </trkpt>
      <trkpt lat="44.12089" lon="6.98359">
        <ele>1793.48</ele>
        <time>2019-09-28T06:32:37Z</time>
      </trkpt>
      <trkpt lat="44.12064" lon="6.98341">
        <ele>1796.36</ele>
        <time>2019-09-28T06:32:50Z</time>
      </trkpt>
      <trkpt lat="44.12034" lon="6.98324">
        <ele>1796.84</ele>
        <time>2019-09-28T06:33:04Z</time>
      </trkpt>
      <trkpt lat="44.12026" lon="6.98316">
        <ele>1797.32</ele>
        <time>2019-09-28T06:33:08Z</time>
      </trkpt>
      <trkpt lat="44.12023" lon="6.98316">
        <ele>1797.32</ele>
        <time>2019-09-28T06:33:09Z</time>
      </trkpt>
      <trkpt lat="44.12021" lon="6.98317">
        <ele>1797.32</ele>
        <time>2019-09-28T06:33:10Z</time>
      </trkpt>
      <trkpt lat="44.12019" lon="6.98319">
        <ele>1797.32</ele>
        <time>2019-09-28T06:33:11Z</time>
      </trkpt>
      <trkpt lat="44.12018" lon="6.98321">
        <ele>1797.32</ele>
        <time>2019-09-28T06:33:12Z</time>
      </trkpt>
      <trkpt lat="44.12017" lon="6.98325">
        <ele>1797.32</ele>
        <time>2019-09-28T06:33:13Z</time>
      </trkpt>
      <trkpt lat="44.12017" lon="6.98327">
        <ele>1797.32</ele>
        <time>2019-09-28T06:33:14Z</time>
      </trkpt>
      <trkpt lat="44.12018" lon="6.98329">
        <ele>1797.8</ele>
        <time>2019-09-28T06:33:15Z</time>
      </trkpt>
      <trkpt lat="44.1202" lon="6.98331">
        <ele>1797.8</ele>
        <time>2019-09-28T06:33:16Z</time>
      </trkpt>
      <trkpt lat="44.12022" lon="6.98332">
        <ele>1797.8</ele>
        <time>2019-09-28T06:33:17Z</time>
      </trkpt>
      <trkpt lat="44.12023" lon="6.98333">
        <ele>1798.28</ele>
        <time>2019-09-28T06:33:18Z</time>
      </trkpt>
      <trkpt lat="44.12025" lon="6.98335">
        <ele>1798.28</ele>
        <time>2019-09-28T06:33:19Z</time>
      </trkpt>
      <trkpt lat="44.12027" lon="6.98336">
        <ele>1798.28</ele>
        <time>2019-09-28T06:33:20Z</time>
      </trkpt>
      <trkpt lat="44.12029" lon="6.98337">
        <ele>1798.28</ele>
        <time>2019-09-28T06:33:21Z</time>
      </trkpt>
      <trkpt lat="44.12031" lon="6.98338">
        <ele>1798.76</ele>
        <time>2019-09-28T06:33:22Z</time>
      </trkpt>
      <trkpt lat="44.12033" lon="6.98338">
        <ele>1798.76</ele>
        <time>2019-09-28T06:33:23Z</time>
      </trkpt>
      <trkpt lat="44.12035" lon="6.9834">
        <ele>1798.76</ele>
        <time>2019-09-28T06:33:24Z</time>
      </trkpt>
      <trkpt lat="44.12056" lon="6.98354">
        <ele>1800.69</ele>
        <time>2019-09-28T06:33:37Z</time>
      </trkpt>
      <trkpt lat="44.12072" lon="6.98378">
        <ele>1803.57</ele>
        <time>2019-09-28T06:33:48Z</time>
      </trkpt>
      <trkpt lat="44.12086" lon="6.98415">
        <ele>1805.01</ele>
        <time>2019-09-28T06:34:03Z</time>
      </trkpt>
      <trkpt lat="44.12098" lon="6.98456">
        <ele>1808.38</ele>
        <time>2019-09-28T06:34:19Z</time>
      </trkpt>
      <trkpt lat="44.12111" lon="6.98491">
        <ele>1810.78</ele>
        <time>2019-09-28T06:34:33Z</time>
      </trkpt>
      <trkpt lat="44.12114" lon="6.98494">
        <ele>1810.3</ele>
        <time>2019-09-28T06:34:35Z</time>
      </trkpt>
      <trkpt lat="44.12117" lon="6.98495">
        <ele>1810.78</ele>
        <time>2019-09-28T06:34:36Z</time>
      </trkpt>
      <trkpt lat="44.12119" lon="6.98495">
        <ele>1811.26</ele>
        <time>2019-09-28T06:34:37Z</time>
      </trkpt>
      <trkpt lat="44.12121" lon="6.98496">
        <ele>1811.74</ele>
        <time>2019-09-28T06:34:38Z</time>
      </trkpt>
      <trkpt lat="44.12123" lon="6.98496">
        <ele>1812.22</ele>
        <time>2019-09-28T06:34:39Z</time>
      </trkpt>
      <trkpt lat="44.12126" lon="6.98495">
        <ele>1812.7</ele>
        <time>2019-09-28T06:34:40Z</time>
      </trkpt>
      <trkpt lat="44.12128" lon="6.98495">
        <ele>1813.18</ele>
        <time>2019-09-28T06:34:41Z</time>
      </trkpt>
      <trkpt lat="44.1213" lon="6.98494">
        <ele>1813.18</ele>
        <time>2019-09-28T06:34:42Z</time>
      </trkpt>
      <trkpt lat="44.12133" lon="6.98494">
        <ele>1813.66</ele>
        <time>2019-09-28T06:34:43Z</time>
      </trkpt>
      <trkpt lat="44.12161" lon="6.98493">
        <ele>1816.07</ele>
        <time>2019-09-28T06:34:57Z</time>
      </trkpt>
      <trkpt lat="44.12192" lon="6.98488">
        <ele>1817.03</ele>
        <time>2019-09-28T06:35:12Z</time>
      </trkpt>
      <trkpt lat="44.12196" lon="6.98488">
        <ele>1817.51</ele>
        <time>2019-09-28T06:35:14Z</time>
      </trkpt>
      <trkpt lat="44.122" lon="6.98494">
        <ele>1818.47</ele>
        <time>2019-09-28T06:35:17Z</time>
      </trkpt>
      <trkpt lat="44.122" lon="6.98497">
        <ele>1818.47</ele>
        <time>2019-09-28T06:35:18Z</time>
      </trkpt>
      <trkpt lat="44.122" lon="6.985">
        <ele>1818.95</ele>
        <time>2019-09-28T06:35:19Z</time>
      </trkpt>
      <trkpt lat="44.12199" lon="6.98503">
        <ele>1819.43</ele>
        <time>2019-09-28T06:35:20Z</time>
      </trkpt>
      <trkpt lat="44.12197" lon="6.98505">
        <ele>1819.91</ele>
        <time>2019-09-28T06:35:21Z</time>
      </trkpt>
      <trkpt lat="44.12195" lon="6.98506">
        <ele>1820.39</ele>
        <time>2019-09-28T06:35:22Z</time>
      </trkpt>
      <trkpt lat="44.12166" lon="6.98514">
        <ele>1821.35</ele>
        <time>2019-09-28T06:35:35Z</time>
      </trkpt>
      <trkpt lat="44.12134" lon="6.98529">
        <ele>1822.32</ele>
        <time>2019-09-28T06:35:50Z</time>
      </trkpt>
      <trkpt lat="44.12104" lon="6.98555">
        <ele>1824.24</ele>
        <time>2019-09-28T06:36:06Z</time>
      </trkpt>
      <trkpt lat="44.12085" lon="6.98585">
        <ele>1825.68</ele>
        <time>2019-09-28T06:36:19Z</time>
      </trkpt>
      <trkpt lat="44.12083" lon="6.98588">
        <ele>1825.68</ele>
        <time>2019-09-28T06:36:20Z</time>
      </trkpt>
      <trkpt lat="44.12082" lon="6.9859">
        <ele>1825.68</ele>
        <time>2019-09-28T06:36:21Z</time>
      </trkpt>
      <trkpt lat="44.12081" lon="6.98592">
        <ele>1825.68</ele>
        <time>2019-09-28T06:36:22Z</time>
      </trkpt>
      <trkpt lat="44.1208" lon="6.98594">
        <ele>1826.16</ele>
        <time>2019-09-28T06:36:23Z</time>
      </trkpt>
      <trkpt lat="44.12079" lon="6.98595">
        <ele>1826.64</ele>
        <time>2019-09-28T06:36:24Z</time>
      </trkpt>
      <trkpt lat="44.12077" lon="6.98596">
        <ele>1826.64</ele>
        <time>2019-09-28T06:36:30Z</time>
      </trkpt>
      <trkpt lat="44.12077" lon="6.98595">
        <ele>1825.68</ele>
        <time>2019-09-28T06:36:34Z</time>
      </trkpt>
      <trkpt lat="44.12077" lon="6.98593">
        <ele>1826.16</ele>
        <time>2019-09-28T06:36:36Z</time>
      </trkpt>
      <trkpt lat="44.1208" lon="6.9859">
        <ele>1825.68</ele>
        <time>2019-09-28T06:36:39Z</time>
      </trkpt>
      <trkpt lat="44.12088" lon="6.98598">
        <ele>1825.2</ele>
        <time>2019-09-28T06:36:46Z</time>
      </trkpt>
      <trkpt lat="44.12087" lon="6.98602">
        <ele>1825.2</ele>
        <time>2019-09-28T06:36:47Z</time>
      </trkpt>
      <trkpt lat="44.12086" lon="6.98605">
        <ele>1825.2</ele>
        <time>2019-09-28T06:36:48Z</time>
      </trkpt>
      <trkpt lat="44.12085" lon="6.98609">
        <ele>1825.2</ele>
        <time>2019-09-28T06:36:49Z</time>
      </trkpt>
      <trkpt lat="44.12085" lon="6.98612">
        <ele>1825.68</ele>
        <time>2019-09-28T06:36:50Z</time>
      </trkpt>
      <trkpt lat="44.12085" lon="6.98616">
        <ele>1825.2</ele>
        <time>2019-09-28T06:36:51Z</time>
      </trkpt>
      <trkpt lat="44.12086" lon="6.98619">
        <ele>1825.2</ele>
        <time>2019-09-28T06:36:52Z</time>
      </trkpt>
      <trkpt lat="44.12102" lon="6.98649">
        <ele>1826.64</ele>
        <time>2019-09-28T06:37:04Z</time>
      </trkpt>
      <trkpt lat="44.12131" lon="6.98678">
        <ele>1830.01</ele>
        <time>2019-09-28T06:37:21Z</time>
      </trkpt>
      <trkpt lat="44.12155" lon="6.98709">
        <ele>1834.33</ele>
        <time>2019-09-28T06:37:37Z</time>
      </trkpt>
      <trkpt lat="44.12182" lon="6.98723">
        <ele>1838.18</ele>
        <time>2019-09-28T06:37:51Z</time>
      </trkpt>
      <trkpt lat="44.12206" lon="6.98723">
        <ele>1841.06</ele>
        <time>2019-09-28T06:38:03Z</time>
      </trkpt>
      <trkpt lat="44.12223" lon="6.98715">
        <ele>1842.98</ele>
        <time>2019-09-28T06:38:14Z</time>
      </trkpt>
      <trkpt lat="44.12228" lon="6.98716">
        <ele>1844.91</ele>
        <time>2019-09-28T06:38:26Z</time>
      </trkpt>
      <trkpt lat="44.12229" lon="6.98717">
        <ele>1845.39</ele>
        <time>2019-09-28T06:38:27Z</time>
      </trkpt>
      <trkpt lat="44.12232" lon="6.98719">
        <ele>1845.87</ele>
        <time>2019-09-28T06:38:30Z</time>
      </trkpt>
      <trkpt lat="44.12242" lon="6.98728">
        <ele>1846.83</ele>
        <time>2019-09-28T06:38:42Z</time>
      </trkpt>
      <trkpt lat="44.12247" lon="6.98735">
        <ele>1846.83</ele>
        <time>2019-09-28T06:38:52Z</time>
      </trkpt>
      <trkpt lat="44.12249" lon="6.98744">
        <ele>1849.23</ele>
        <time>2019-09-28T06:39:02Z</time>
      </trkpt>
      <trkpt lat="44.1225" lon="6.98745">
        <ele>1849.71</ele>
        <time>2019-09-28T06:39:03Z</time>
      </trkpt>
      <trkpt lat="44.1225" lon="6.98747">
        <ele>1849.71</ele>
        <time>2019-09-28T06:39:04Z</time>
      </trkpt>
      <trkpt lat="44.1226" lon="6.98786">
        <ele>1854.04</ele>
        <time>2019-09-28T06:39:17Z</time>
      </trkpt>
      <trkpt lat="44.12283" lon="6.9881">
        <ele>1855.96</ele>
        <time>2019-09-28T06:39:31Z</time>
      </trkpt>
      <trkpt lat="44.1231" lon="6.98828">
        <ele>1856.44</ele>
        <time>2019-09-28T06:39:45Z</time>
      </trkpt>
      <trkpt lat="44.12319" lon="6.9886">
        <ele>1859.33</ele>
        <time>2019-09-28T06:39:56Z</time>
      </trkpt>
      <trkpt lat="44.12338" lon="6.9888">
        <ele>1860.77</ele>
        <time>2019-09-28T06:40:08Z</time>
      </trkpt>
      <trkpt lat="44.12357" lon="6.98903">
        <ele>1862.69</ele>
        <time>2019-09-28T06:40:21Z</time>
      </trkpt>
      <trkpt lat="44.12359" lon="6.98904">
        <ele>1862.69</ele>
        <time>2019-09-28T06:40:22Z</time>
      </trkpt>
      <trkpt lat="44.1236" lon="6.98905">
        <ele>1862.69</ele>
        <time>2019-09-28T06:40:23Z</time>
      </trkpt>
      <trkpt lat="44.12362" lon="6.98907">
        <ele>1862.69</ele>
        <time>2019-09-28T06:40:24Z</time>
      </trkpt>
      <trkpt lat="44.12363" lon="6.98908">
        <ele>1862.69</ele>
        <time>2019-09-28T06:40:25Z</time>
      </trkpt>
      <trkpt lat="44.12365" lon="6.9891">
        <ele>1863.17</ele>
        <time>2019-09-28T06:40:26Z</time>
      </trkpt>
      <trkpt lat="44.1239" lon="6.98932">
        <ele>1865.09</ele>
        <time>2019-09-28T06:40:40Z</time>
      </trkpt>
      <trkpt lat="44.12411" lon="6.98963">
        <ele>1867.5</ele>
        <time>2019-09-28T06:40:55Z</time>
      </trkpt>
      <trkpt lat="44.1243" lon="6.98981">
        <ele>1869.9</ele>
        <time>2019-09-28T06:41:09Z</time>
      </trkpt>
      <trkpt lat="44.12436" lon="6.98985">
        <ele>1870.86</ele>
        <time>2019-09-28T06:41:13Z</time>
      </trkpt>
      <trkpt lat="44.12438" lon="6.98987">
        <ele>1870.86</ele>
        <time>2019-09-28T06:41:14Z</time>
      </trkpt>
      <trkpt lat="44.12439" lon="6.9899">
        <ele>1870.38</ele>
        <time>2019-09-28T06:41:15Z</time>
      </trkpt>
      <trkpt lat="44.12441" lon="6.98992">
        <ele>1870.38</ele>
        <time>2019-09-28T06:41:16Z</time>
      </trkpt>
      <trkpt lat="44.12443" lon="6.98994">
        <ele>1870.38</ele>
        <time>2019-09-28T06:41:17Z</time>
      </trkpt>
      <trkpt lat="44.12445" lon="6.98996">
        <ele>1870.38</ele>
        <time>2019-09-28T06:41:18Z</time>
      </trkpt>
      <trkpt lat="44.12446" lon="6.98997">
        <ele>1870.38</ele>
        <time>2019-09-28T06:41:19Z</time>
      </trkpt>
      <trkpt lat="44.12455" lon="6.99006">
        <ele>1870.38</ele>
        <time>2019-09-28T06:41:29Z</time>
      </trkpt>
      <trkpt lat="44.12464" lon="6.99025">
        <ele>1871.34</ele>
        <time>2019-09-28T06:41:39Z</time>
      </trkpt>
      <trkpt lat="44.12467" lon="6.99029">
        <ele>1872.79</ele>
        <time>2019-09-28T06:41:42Z</time>
      </trkpt>
      <trkpt lat="44.12467" lon="6.99032">
        <ele>1873.27</ele>
        <time>2019-09-28T06:41:43Z</time>
      </trkpt>
      <trkpt lat="44.12467" lon="6.99034">
        <ele>1873.27</ele>
        <time>2019-09-28T06:41:44Z</time>
      </trkpt>
      <trkpt lat="44.12467" lon="6.99037">
        <ele>1873.75</ele>
        <time>2019-09-28T06:41:45Z</time>
      </trkpt>
      <trkpt lat="44.12466" lon="6.99039">
        <ele>1874.23</ele>
        <time>2019-09-28T06:41:46Z</time>
      </trkpt>
      <trkpt lat="44.12466" lon="6.99043">
        <ele>1874.71</ele>
        <time>2019-09-28T06:41:47Z</time>
      </trkpt>
      <trkpt lat="44.12466" lon="6.99047">
        <ele>1874.71</ele>
        <time>2019-09-28T06:41:48Z</time>
      </trkpt>
      <trkpt lat="44.12467" lon="6.9905">
        <ele>1874.71</ele>
        <time>2019-09-28T06:41:49Z</time>
      </trkpt>
      <trkpt lat="44.12469" lon="6.99053">
        <ele>1874.71</ele>
        <time>2019-09-28T06:41:50Z</time>
      </trkpt>
      <trkpt lat="44.1247" lon="6.99056">
        <ele>1875.19</ele>
        <time>2019-09-28T06:41:51Z</time>
      </trkpt>
      <trkpt lat="44.12471" lon="6.99058">
        <ele>1875.19</ele>
        <time>2019-09-28T06:41:52Z</time>
      </trkpt>
      <trkpt lat="44.12472" lon="6.9906">
        <ele>1875.67</ele>
        <time>2019-09-28T06:41:53Z</time>
      </trkpt>
      <trkpt lat="44.12473" lon="6.99063">
        <ele>1875.67</ele>
        <time>2019-09-28T06:41:54Z</time>
      </trkpt>
      <trkpt lat="44.12475" lon="6.99065">
        <ele>1876.15</ele>
        <time>2019-09-28T06:41:55Z</time>
      </trkpt>
      <trkpt lat="44.12476" lon="6.99067">
        <ele>1876.15</ele>
        <time>2019-09-28T06:41:56Z</time>
      </trkpt>
      <trkpt lat="44.12504" lon="6.99099">
        <ele>1876.63</ele>
        <time>2019-09-28T06:42:12Z</time>
      </trkpt>
      <trkpt lat="44.12524" lon="6.99117">
        <ele>1876.63</ele>
        <time>2019-09-28T06:42:24Z</time>
      </trkpt>
      <trkpt lat="44.12526" lon="6.99119">
        <ele>1876.63</ele>
        <time>2019-09-28T06:42:25Z</time>
      </trkpt>
      <trkpt lat="44.12551" lon="6.9914">
        <ele>1876.63</ele>
        <time>2019-09-28T06:42:37Z</time>
      </trkpt>
      <trkpt lat="44.12571" lon="6.99155">
        <ele>1877.59</ele>
        <time>2019-09-28T06:42:48Z</time>
      </trkpt>
      <trkpt lat="44.12574" lon="6.99157">
        <ele>1877.59</ele>
        <time>2019-09-28T06:42:50Z</time>
      </trkpt>
      <trkpt lat="44.12596" lon="6.99169">
        <ele>1878.07</ele>
        <time>2019-09-28T06:43:02Z</time>
      </trkpt>
      <trkpt lat="44.12604" lon="6.99173">
        <ele>1878.55</ele>
        <time>2019-09-28T06:43:06Z</time>
      </trkpt>
      <trkpt lat="44.12624" lon="6.99188">
        <ele>1880</ele>
        <time>2019-09-28T06:43:18Z</time>
      </trkpt>
      <trkpt lat="44.12647" lon="6.99204">
        <ele>1880.48</ele>
        <time>2019-09-28T06:43:31Z</time>
      </trkpt>
      <trkpt lat="44.12666" lon="6.99217">
        <ele>1881.92</ele>
        <time>2019-09-28T06:43:43Z</time>
      </trkpt>
      <trkpt lat="44.12673" lon="6.99219">
        <ele>1882.88</ele>
        <time>2019-09-28T06:43:52Z</time>
      </trkpt>
      <trkpt lat="44.12673" lon="6.99218">
        <ele>1882.88</ele>
        <time>2019-09-28T06:44:19Z</time>
      </trkpt>
      <trkpt lat="44.12671" lon="6.99216">
        <ele>1881.44</ele>
        <time>2019-09-28T06:44:48Z</time>
      </trkpt>
      <trkpt lat="44.12672" lon="6.99217">
        <ele>1880.96</ele>
        <time>2019-09-28T06:45:13Z</time>
      </trkpt>
      <trkpt lat="44.12672" lon="6.9922">
        <ele>1885.76</ele>
        <time>2019-09-28T06:45:36Z</time>
      </trkpt>
      <trkpt lat="44.12671" lon="6.99222">
        <ele>1881.44</ele>
        <time>2019-09-28T06:46:02Z</time>
      </trkpt>
      <trkpt lat="44.12671" lon="6.99221">
        <ele>1876.63</ele>
        <time>2019-09-28T06:46:31Z</time>
      </trkpt>
      <trkpt lat="44.12671" lon="6.99219">
        <ele>1877.11</ele>
        <time>2019-09-28T06:47:03Z</time>
      </trkpt>
      <trkpt lat="44.12677" lon="6.99224">
        <ele>1879.03</ele>
        <time>2019-09-28T06:47:27Z</time>
      </trkpt>
      <trkpt lat="44.1268" lon="6.99227">
        <ele>1879.03</ele>
        <time>2019-09-28T06:47:28Z</time>
      </trkpt>
      <trkpt lat="44.12681" lon="6.99228">
        <ele>1879.03</ele>
        <time>2019-09-28T06:47:29Z</time>
      </trkpt>
      <trkpt lat="44.12683" lon="6.99231">
        <ele>1879.03</ele>
        <time>2019-09-28T06:47:30Z</time>
      </trkpt>
      <trkpt lat="44.12685" lon="6.99233">
        <ele>1879.51</ele>
        <time>2019-09-28T06:47:31Z</time>
      </trkpt>
      <trkpt lat="44.12687" lon="6.99235">
        <ele>1879.51</ele>
        <time>2019-09-28T06:47:32Z</time>
      </trkpt>
      <trkpt lat="44.12689" lon="6.99237">
        <ele>1879.51</ele>
        <time>2019-09-28T06:47:33Z</time>
      </trkpt>
      <trkpt lat="44.12691" lon="6.99239">
        <ele>1880</ele>
        <time>2019-09-28T06:47:34Z</time>
      </trkpt>
      <trkpt lat="44.12723" lon="6.99256">
        <ele>1883.36</ele>
        <time>2019-09-28T06:47:49Z</time>
      </trkpt>
      <trkpt lat="44.12757" lon="6.99268">
        <ele>1887.69</ele>
        <time>2019-09-28T06:48:05Z</time>
      </trkpt>
      <trkpt lat="44.12785" lon="6.99287">
        <ele>1890.09</ele>
        <time>2019-09-28T06:48:19Z</time>
      </trkpt>
      <trkpt lat="44.12813" lon="6.99299">
        <ele>1893.93</ele>
        <time>2019-09-28T06:48:33Z</time>
      </trkpt>
      <trkpt lat="44.12845" lon="6.99311">
        <ele>1900.18</ele>
        <time>2019-09-28T06:48:49Z</time>
      </trkpt>
      <trkpt lat="44.12872" lon="6.99318">
        <ele>1902.59</ele>
        <time>2019-09-28T06:49:03Z</time>
      </trkpt>
      <trkpt lat="44.12896" lon="6.99325">
        <ele>1906.91</ele>
        <time>2019-09-28T06:49:16Z</time>
      </trkpt>
      <trkpt lat="44.12921" lon="6.99328">
        <ele>1910.28</ele>
        <time>2019-09-28T06:49:30Z</time>
      </trkpt>
      <trkpt lat="44.12943" lon="6.99331">
        <ele>1913.64</ele>
        <time>2019-09-28T06:49:42Z</time>
      </trkpt>
      <trkpt lat="44.12968" lon="6.99328">
        <ele>1915.56</ele>
        <time>2019-09-28T06:49:56Z</time>
      </trkpt>
      <trkpt lat="44.1299" lon="6.99319">
        <ele>1918.45</ele>
        <time>2019-09-28T06:50:09Z</time>
      </trkpt>
      <trkpt lat="44.13018" lon="6.99313">
        <ele>1920.85</ele>
        <time>2019-09-28T06:50:25Z</time>
      </trkpt>
      <trkpt lat="44.13035" lon="6.99342">
        <ele>1923.25</ele>
        <time>2019-09-28T06:50:40Z</time>
      </trkpt>
      <trkpt lat="44.13047" lon="6.99372">
        <ele>1927.1</ele>
        <time>2019-09-28T06:50:53Z</time>
      </trkpt>
      <trkpt lat="44.13063" lon="6.99402">
        <ele>1931.43</ele>
        <time>2019-09-28T06:51:07Z</time>
      </trkpt>
      <trkpt lat="44.13077" lon="6.99416">
        <ele>1932.87</ele>
        <time>2019-09-28T06:51:18Z</time>
      </trkpt>
      <trkpt lat="44.13078" lon="6.99418">
        <ele>1933.35</ele>
        <time>2019-09-28T06:51:19Z</time>
      </trkpt>
      <trkpt lat="44.13085" lon="6.99443">
        <ele>1935.75</ele>
        <time>2019-09-28T06:51:29Z</time>
      </trkpt>
      <trkpt lat="44.13085" lon="6.99445">
        <ele>1936.23</ele>
        <time>2019-09-28T06:51:30Z</time>
      </trkpt>
      <trkpt lat="44.13084" lon="6.99453">
        <ele>1936.71</ele>
        <time>2019-09-28T06:51:33Z</time>
      </trkpt>
      <trkpt lat="44.13084" lon="6.99456">
        <ele>1936.71</ele>
        <time>2019-09-28T06:51:34Z</time>
      </trkpt>
      <trkpt lat="44.13084" lon="6.99458">
        <ele>1936.71</ele>
        <time>2019-09-28T06:51:35Z</time>
      </trkpt>
      <trkpt lat="44.13073" lon="6.99493">
        <ele>1941.04</ele>
        <time>2019-09-28T06:51:50Z</time>
      </trkpt>
      <trkpt lat="44.13064" lon="6.99509">
        <ele>1942.96</ele>
        <time>2019-09-28T06:51:58Z</time>
      </trkpt>
      <trkpt lat="44.13063" lon="6.9951">
        <ele>1942.96</ele>
        <time>2019-09-28T06:51:59Z</time>
      </trkpt>
      <trkpt lat="44.13061" lon="6.99512">
        <ele>1942.96</ele>
        <time>2019-09-28T06:52:00Z</time>
      </trkpt>
      <trkpt lat="44.1306" lon="6.99513">
        <ele>1943.44</ele>
        <time>2019-09-28T06:52:01Z</time>
      </trkpt>
      <trkpt lat="44.13058" lon="6.99515">
        <ele>1943.44</ele>
        <time>2019-09-28T06:52:02Z</time>
      </trkpt>
      <trkpt lat="44.13057" lon="6.99517">
        <ele>1943.92</ele>
        <time>2019-09-28T06:52:03Z</time>
      </trkpt>
      <trkpt lat="44.13056" lon="6.99519">
        <ele>1944.4</ele>
        <time>2019-09-28T06:52:04Z</time>
      </trkpt>
      <trkpt lat="44.13054" lon="6.9952">
        <ele>1944.4</ele>
        <time>2019-09-28T06:52:05Z</time>
      </trkpt>
      <trkpt lat="44.13053" lon="6.99522">
        <ele>1944.88</ele>
        <time>2019-09-28T06:52:06Z</time>
      </trkpt>
      <trkpt lat="44.13051" lon="6.99524">
        <ele>1944.88</ele>
        <time>2019-09-28T06:52:07Z</time>
      </trkpt>
      <trkpt lat="44.1305" lon="6.99526">
        <ele>1944.88</ele>
        <time>2019-09-28T06:52:08Z</time>
      </trkpt>
      <trkpt lat="44.13049" lon="6.99527">
        <ele>1944.88</ele>
        <time>2019-09-28T06:52:09Z</time>
      </trkpt>
      <trkpt lat="44.13041" lon="6.99536">
        <ele>1946.33</ele>
        <time>2019-09-28T06:52:15Z</time>
      </trkpt>
      <trkpt lat="44.13039" lon="6.99538">
        <ele>1946.81</ele>
        <time>2019-09-28T06:52:16Z</time>
      </trkpt>
      <trkpt lat="44.13038" lon="6.9954">
        <ele>1946.81</ele>
        <time>2019-09-28T06:52:17Z</time>
      </trkpt>
      <trkpt lat="44.13017" lon="6.99559">
        <ele>1949.21</ele>
        <time>2019-09-28T06:52:32Z</time>
      </trkpt>
      <trkpt lat="44.13002" lon="6.99576">
        <ele>1951.61</ele>
        <time>2019-09-28T06:52:45Z</time>
      </trkpt>
      <trkpt lat="44.12999" lon="6.99579">
        <ele>1952.57</ele>
        <time>2019-09-28T06:52:48Z</time>
      </trkpt>
      <trkpt lat="44.13" lon="6.9958">
        <ele>1952.57</ele>
        <time>2019-09-28T06:52:49Z</time>
      </trkpt>
      <trkpt lat="44.13001" lon="6.99581">
        <ele>1953.06</ele>
        <time>2019-09-28T06:52:50Z</time>
      </trkpt>
      <trkpt lat="44.13006" lon="6.99581">
        <ele>1953.06</ele>
        <time>2019-09-28T06:53:00Z</time>
      </trkpt>
      <trkpt lat="44.13013" lon="6.99579">
        <ele>1954.5</ele>
        <time>2019-09-28T06:53:16Z</time>
      </trkpt>
      <trkpt lat="44.1302" lon="6.99574">
        <ele>1954.98</ele>
        <time>2019-09-28T06:53:28Z</time>
      </trkpt>
      <trkpt lat="44.13032" lon="6.99568">
        <ele>1956.42</ele>
        <time>2019-09-28T06:53:39Z</time>
      </trkpt>
      <trkpt lat="44.13049" lon="6.99563">
        <ele>1959.3</ele>
        <time>2019-09-28T06:53:49Z</time>
      </trkpt>
      <trkpt lat="44.13072" lon="6.99562">
        <ele>1961.71</ele>
        <time>2019-09-28T06:54:03Z</time>
      </trkpt>
      <trkpt lat="44.13099" lon="6.99564">
        <ele>1965.07</ele>
        <time>2019-09-28T06:54:18Z</time>
      </trkpt>
      <trkpt lat="44.13121" lon="6.99549">
        <ele>1966.99</ele>
        <time>2019-09-28T06:54:32Z</time>
      </trkpt>
      <trkpt lat="44.13123" lon="6.99548">
        <ele>1967.48</ele>
        <time>2019-09-28T06:54:33Z</time>
      </trkpt>
      <trkpt lat="44.13125" lon="6.99547">
        <ele>1967.48</ele>
        <time>2019-09-28T06:54:34Z</time>
      </trkpt>
      <trkpt lat="44.13141" lon="6.99533">
        <ele>1971.32</ele>
        <time>2019-09-28T06:54:46Z</time>
      </trkpt>
      <trkpt lat="44.13158" lon="6.99516">
        <ele>1972.76</ele>
        <time>2019-09-28T06:54:59Z</time>
      </trkpt>
      <trkpt lat="44.13159" lon="6.99514">
        <ele>1973.24</ele>
        <time>2019-09-28T06:55:00Z</time>
      </trkpt>
      <trkpt lat="44.1316" lon="6.99513">
        <ele>1973.24</ele>
        <time>2019-09-28T06:55:01Z</time>
      </trkpt>
      <trkpt lat="44.13162" lon="6.99512">
        <ele>1973.24</ele>
        <time>2019-09-28T06:55:02Z</time>
      </trkpt>
      <trkpt lat="44.13164" lon="6.99511">
        <ele>1974.2</ele>
        <time>2019-09-28T06:55:03Z</time>
      </trkpt>
      <trkpt lat="44.13165" lon="6.9951">
        <ele>1974.2</ele>
        <time>2019-09-28T06:55:04Z</time>
      </trkpt>
      <trkpt lat="44.13167" lon="6.99509">
        <ele>1974.69</ele>
        <time>2019-09-28T06:55:05Z</time>
      </trkpt>
      <trkpt lat="44.13168" lon="6.99508">
        <ele>1974.69</ele>
        <time>2019-09-28T06:55:06Z</time>
      </trkpt>
      <trkpt lat="44.1317" lon="6.99507">
        <ele>1975.17</ele>
        <time>2019-09-28T06:55:07Z</time>
      </trkpt>
      <trkpt lat="44.13171" lon="6.99505">
        <ele>1975.17</ele>
        <time>2019-09-28T06:55:08Z</time>
      </trkpt>
      <trkpt lat="44.13173" lon="6.99504">
        <ele>1975.65</ele>
        <time>2019-09-28T06:55:09Z</time>
      </trkpt>
      <trkpt lat="44.13174" lon="6.99502">
        <ele>1975.65</ele>
        <time>2019-09-28T06:55:10Z</time>
      </trkpt>
      <trkpt lat="44.13189" lon="6.99488">
        <ele>1977.57</ele>
        <time>2019-09-28T06:55:20Z</time>
      </trkpt>
      <trkpt lat="44.1319" lon="6.99486">
        <ele>1978.05</ele>
        <time>2019-09-28T06:55:21Z</time>
      </trkpt>
      <trkpt lat="44.13192" lon="6.99485">
        <ele>1978.05</ele>
        <time>2019-09-28T06:55:22Z</time>
      </trkpt>
      <trkpt lat="44.13201" lon="6.99478">
        <ele>1979.97</ele>
        <time>2019-09-28T06:55:29Z</time>
      </trkpt>
      <trkpt lat="44.13203" lon="6.99476">
        <ele>1979.97</ele>
        <time>2019-09-28T06:55:30Z</time>
      </trkpt>
      <trkpt lat="44.13213" lon="6.99449">
        <ele>1981.41</ele>
        <time>2019-09-28T06:55:43Z</time>
      </trkpt>
      <trkpt lat="44.13221" lon="6.99415">
        <ele>1984.78</ele>
        <time>2019-09-28T06:55:58Z</time>
      </trkpt>
      <trkpt lat="44.13223" lon="6.99414">
        <ele>1984.78</ele>
        <time>2019-09-28T06:55:59Z</time>
      </trkpt>
      <trkpt lat="44.13224" lon="6.99413">
        <ele>1985.26</ele>
        <time>2019-09-28T06:56:00Z</time>
      </trkpt>
      <trkpt lat="44.13226" lon="6.99413">
        <ele>1985.26</ele>
        <time>2019-09-28T06:56:01Z</time>
      </trkpt>
      <trkpt lat="44.13228" lon="6.99413">
        <ele>1986.22</ele>
        <time>2019-09-28T06:56:02Z</time>
      </trkpt>
      <trkpt lat="44.13229" lon="6.99413">
        <ele>1986.7</ele>
        <time>2019-09-28T06:56:03Z</time>
      </trkpt>
      <trkpt lat="44.13231" lon="6.99412">
        <ele>1987.18</ele>
        <time>2019-09-28T06:56:04Z</time>
      </trkpt>
      <trkpt lat="44.13233" lon="6.99411">
        <ele>1987.66</ele>
        <time>2019-09-28T06:56:05Z</time>
      </trkpt>
      <trkpt lat="44.13235" lon="6.99411">
        <ele>1988.14</ele>
        <time>2019-09-28T06:56:06Z</time>
      </trkpt>
      <trkpt lat="44.13236" lon="6.99415">
        <ele>1987.18</ele>
        <time>2019-09-28T06:56:18Z</time>
      </trkpt>
      <trkpt lat="44.13236" lon="6.99416">
        <ele>1987.66</ele>
        <time>2019-09-28T06:56:19Z</time>
      </trkpt>
      <trkpt lat="44.13237" lon="6.99421">
        <ele>1987.18</ele>
        <time>2019-09-28T06:56:34Z</time>
      </trkpt>
      <trkpt lat="44.13236" lon="6.9942">
        <ele>1985.74</ele>
        <time>2019-09-28T06:57:02Z</time>
      </trkpt>
      <trkpt lat="44.13237" lon="6.9942">
        <ele>1985.74</ele>
        <time>2019-09-28T06:57:26Z</time>
      </trkpt>
      <trkpt lat="44.13236" lon="6.99419">
        <ele>1986.22</ele>
        <time>2019-09-28T06:57:52Z</time>
      </trkpt>
      <trkpt lat="44.13236" lon="6.99419">
        <ele>1986.7</ele>
        <time>2019-09-28T06:58:18Z</time>
      </trkpt>
      <trkpt lat="44.13236" lon="6.99419">
        <ele>1987.66</ele>
        <time>2019-09-28T06:58:44Z</time>
      </trkpt>
      <trkpt lat="44.13236" lon="6.9942">
        <ele>1988.62</ele>
        <time>2019-09-28T06:59:08Z</time>
      </trkpt>
      <trkpt lat="44.13236" lon="6.9942">
        <ele>1988.62</ele>
        <time>2019-09-28T06:59:35Z</time>
      </trkpt>
      <trkpt lat="44.13235" lon="6.99422">
        <ele>1989.59</ele>
        <time>2019-09-28T07:00:00Z</time>
      </trkpt>
      <trkpt lat="44.13235" lon="6.99422">
        <ele>1990.55</ele>
        <time>2019-09-28T07:00:30Z</time>
      </trkpt>
      <trkpt lat="44.13235" lon="6.99424">
        <ele>1989.59</ele>
        <time>2019-09-28T07:01:05Z</time>
      </trkpt>
      <trkpt lat="44.13235" lon="6.99424">
        <ele>1989.1</ele>
        <time>2019-09-28T07:01:32Z</time>
      </trkpt>
      <trkpt lat="44.13235" lon="6.99424">
        <ele>1989.59</ele>
        <time>2019-09-28T07:02:05Z</time>
      </trkpt>
      <trkpt lat="44.13235" lon="6.99425">
        <ele>1988.62</ele>
        <time>2019-09-28T07:02:37Z</time>
      </trkpt>
      <trkpt lat="44.13235" lon="6.99424">
        <ele>1989.1</ele>
        <time>2019-09-28T07:03:10Z</time>
      </trkpt>
      <trkpt lat="44.13234" lon="6.99423">
        <ele>1987.66</ele>
        <time>2019-09-28T07:03:50Z</time>
      </trkpt>
      <trkpt lat="44.13235" lon="6.99424">
        <ele>1986.7</ele>
        <time>2019-09-28T07:04:23Z</time>
      </trkpt>
      <trkpt lat="44.13236" lon="6.99422">
        <ele>1986.7</ele>
        <time>2019-09-28T07:04:52Z</time>
      </trkpt>
      <trkpt lat="44.13235" lon="6.9942">
        <ele>1985.26</ele>
        <time>2019-09-28T07:05:25Z</time>
      </trkpt>
      <trkpt lat="44.13235" lon="6.9942">
        <ele>1985.26</ele>
        <time>2019-09-28T07:05:53Z</time>
      </trkpt>
      <trkpt lat="44.13235" lon="6.99421">
        <ele>1984.78</ele>
        <time>2019-09-28T07:06:23Z</time>
      </trkpt>
      <trkpt lat="44.13236" lon="6.99419">
        <ele>1985.26</ele>
        <time>2019-09-28T07:06:55Z</time>
      </trkpt>
      <trkpt lat="44.13235" lon="6.99422">
        <ele>1987.18</ele>
        <time>2019-09-28T07:07:08Z</time>
      </trkpt>
      <trkpt lat="44.13235" lon="6.99421">
        <ele>1987.66</ele>
        <time>2019-09-28T07:07:28Z</time>
      </trkpt>
      <trkpt lat="44.13235" lon="6.99422">
        <ele>1986.7</ele>
        <time>2019-09-28T07:07:42Z</time>
      </trkpt>
      <trkpt lat="44.13234" lon="6.9942">
        <ele>1989.59</ele>
        <time>2019-09-28T07:08:18Z</time>
      </trkpt>
      <trkpt lat="44.13235" lon="6.9942">
        <ele>1989.59</ele>
        <time>2019-09-28T07:08:58Z</time>
      </trkpt>
      <trkpt lat="44.13234" lon="6.99422">
        <ele>1989.59</ele>
        <time>2019-09-28T07:09:14Z</time>
      </trkpt>
      <trkpt lat="44.13234" lon="6.99424">
        <ele>1990.55</ele>
        <time>2019-09-28T07:09:43Z</time>
      </trkpt>
      <trkpt lat="44.13234" lon="6.99424">
        <ele>1990.55</ele>
        <time>2019-09-28T07:10:22Z</time>
      </trkpt>
      <trkpt lat="44.13236" lon="6.99424">
        <ele>1988.62</ele>
        <time>2019-09-28T07:10:39Z</time>
      </trkpt>
      <trkpt lat="44.13236" lon="6.99422">
        <ele>1989.1</ele>
        <time>2019-09-28T07:11:14Z</time>
      </trkpt>
      <trkpt lat="44.13234" lon="6.99423">
        <ele>1990.07</ele>
        <time>2019-09-28T07:11:33Z</time>
      </trkpt>
      <trkpt lat="44.13235" lon="6.99423">
        <ele>1990.55</ele>
        <time>2019-09-28T07:12:02Z</time>
      </trkpt>
      <trkpt lat="44.13234" lon="6.99423">
        <ele>1989.1</ele>
        <time>2019-09-28T07:12:22Z</time>
      </trkpt>
      <trkpt lat="44.13234" lon="6.99425">
        <ele>1989.59</ele>
        <time>2019-09-28T07:12:42Z</time>
      </trkpt>
      <trkpt lat="44.13235" lon="6.99423">
        <ele>1989.59</ele>
        <time>2019-09-28T07:12:59Z</time>
      </trkpt>
      <trkpt lat="44.13234" lon="6.99424">
        <ele>1990.55</ele>
        <time>2019-09-28T07:13:08Z</time>
      </trkpt>
      <trkpt lat="44.13233" lon="6.99426">
        <ele>1990.07</ele>
        <time>2019-09-28T07:13:09Z</time>
      </trkpt>
      <trkpt lat="44.13227" lon="6.99451">
        <ele>1986.22</ele>
        <time>2019-09-28T07:13:17Z</time>
      </trkpt>
      <trkpt lat="44.13226" lon="6.99453">
        <ele>1985.74</ele>
        <time>2019-09-28T07:13:18Z</time>
      </trkpt>
      <trkpt lat="44.13224" lon="6.99454">
        <ele>1985.26</ele>
        <time>2019-09-28T07:13:19Z</time>
      </trkpt>
      <trkpt lat="44.1322" lon="6.99459">
        <ele>1983.82</ele>
        <time>2019-09-28T07:13:21Z</time>
      </trkpt>
      <trkpt lat="44.13219" lon="6.99463">
        <ele>1983.34</ele>
        <time>2019-09-28T07:13:22Z</time>
      </trkpt>
      <trkpt lat="44.13205" lon="6.99509">
        <ele>1982.38</ele>
        <time>2019-09-28T07:13:34Z</time>
      </trkpt>
      <trkpt lat="44.13186" lon="6.99543">
        <ele>1981.9</ele>
        <time>2019-09-28T07:13:45Z</time>
      </trkpt>
      <trkpt lat="44.13161" lon="6.99594">
        <ele>1981.41</ele>
        <time>2019-09-28T07:13:57Z</time>
      </trkpt>
      <trkpt lat="44.1315" lon="6.99611">
        <ele>1981.41</ele>
        <time>2019-09-28T07:14:01Z</time>
      </trkpt>
      <trkpt lat="44.13131" lon="6.99632">
        <ele>1981.41</ele>
        <time>2019-09-28T07:14:10Z</time>
      </trkpt>
      <trkpt lat="44.13129" lon="6.99637">
        <ele>1981.9</ele>
        <time>2019-09-28T07:14:12Z</time>
      </trkpt>
      <trkpt lat="44.13137" lon="6.99644">
        <ele>1984.78</ele>
        <time>2019-09-28T07:14:20Z</time>
      </trkpt>
      <trkpt lat="44.13133" lon="6.99649">
        <ele>1985.74</ele>
        <time>2019-09-28T07:14:23Z</time>
      </trkpt>
      <trkpt lat="44.13131" lon="6.9965">
        <ele>1986.22</ele>
        <time>2019-09-28T07:14:24Z</time>
      </trkpt>
      <trkpt lat="44.13129" lon="6.9965">
        <ele>1986.22</ele>
        <time>2019-09-28T07:14:25Z</time>
      </trkpt>
      <trkpt lat="44.13128" lon="6.9965">
        <ele>1986.22</ele>
        <time>2019-09-28T07:14:26Z</time>
      </trkpt>
      <trkpt lat="44.13126" lon="6.99651">
        <ele>1986.7</ele>
        <time>2019-09-28T07:14:27Z</time>
      </trkpt>
      <trkpt lat="44.13124" lon="6.99652">
        <ele>1986.7</ele>
        <time>2019-09-28T07:14:28Z</time>
      </trkpt>
      <trkpt lat="44.13123" lon="6.99653">
        <ele>1986.7</ele>
        <time>2019-09-28T07:14:29Z</time>
      </trkpt>
      <trkpt lat="44.13122" lon="6.99654">
        <ele>1987.18</ele>
        <time>2019-09-28T07:14:30Z</time>
      </trkpt>
      <trkpt lat="44.13121" lon="6.99654">
        <ele>1987.18</ele>
        <time>2019-09-28T07:14:31Z</time>
      </trkpt>
      <trkpt lat="44.13119" lon="6.99655">
        <ele>1987.18</ele>
        <time>2019-09-28T07:14:32Z</time>
      </trkpt>
      <trkpt lat="44.13118" lon="6.99655">
        <ele>1987.18</ele>
        <time>2019-09-28T07:14:33Z</time>
      </trkpt>
      <trkpt lat="44.13116" lon="6.99656">
        <ele>1987.66</ele>
        <time>2019-09-28T07:14:35Z</time>
      </trkpt>
      <trkpt lat="44.13088" lon="6.99671">
        <ele>1991.51</ele>
        <time>2019-09-28T07:14:53Z</time>
      </trkpt>
      <trkpt lat="44.13087" lon="6.99671">
        <ele>1991.03</ele>
        <time>2019-09-28T07:14:54Z</time>
      </trkpt>
      <trkpt lat="44.13086" lon="6.99671">
        <ele>1991.03</ele>
        <time>2019-09-28T07:14:55Z</time>
      </trkpt>
      <trkpt lat="44.13066" lon="6.99679">
        <ele>1993.91</ele>
        <time>2019-09-28T07:15:06Z</time>
      </trkpt>
      <trkpt lat="44.13064" lon="6.9968">
        <ele>1994.39</ele>
        <time>2019-09-28T07:15:07Z</time>
      </trkpt>
      <trkpt lat="44.13062" lon="6.99681">
        <ele>1994.87</ele>
        <time>2019-09-28T07:15:08Z</time>
      </trkpt>
      <trkpt lat="44.1306" lon="6.99682">
        <ele>1994.87</ele>
        <time>2019-09-28T07:15:09Z</time>
      </trkpt>
      <trkpt lat="44.13059" lon="6.99684">
        <ele>1995.35</ele>
        <time>2019-09-28T07:15:10Z</time>
      </trkpt>
      <trkpt lat="44.13057" lon="6.99685">
        <ele>1995.83</ele>
        <time>2019-09-28T07:15:11Z</time>
      </trkpt>
      <trkpt lat="44.13056" lon="6.99687">
        <ele>1996.32</ele>
        <time>2019-09-28T07:15:12Z</time>
      </trkpt>
      <trkpt lat="44.13054" lon="6.99689">
        <ele>1996.8</ele>
        <time>2019-09-28T07:15:13Z</time>
      </trkpt>
      <trkpt lat="44.13052" lon="6.9969">
        <ele>1996.8</ele>
        <time>2019-09-28T07:15:14Z</time>
      </trkpt>
      <trkpt lat="44.13051" lon="6.99692">
        <ele>1997.28</ele>
        <time>2019-09-28T07:15:15Z</time>
      </trkpt>
      <trkpt lat="44.13027" lon="6.9972">
        <ele>2003.04</ele>
        <time>2019-09-28T07:15:32Z</time>
      </trkpt>
      <trkpt lat="44.13019" lon="6.99727">
        <ele>2004.49</ele>
        <time>2019-09-28T07:15:42Z</time>
      </trkpt>
      <trkpt lat="44.13015" lon="6.99732">
        <ele>2004.01</ele>
        <time>2019-09-28T07:15:57Z</time>
      </trkpt>
      <trkpt lat="44.13005" lon="6.9974">
        <ele>2005.45</ele>
        <time>2019-09-28T07:16:13Z</time>
      </trkpt>
      <trkpt lat="44.12994" lon="6.99748">
        <ele>2009.77</ele>
        <time>2019-09-28T07:16:30Z</time>
      </trkpt>
      <trkpt lat="44.12982" lon="6.99755">
        <ele>2014.1</ele>
        <time>2019-09-28T07:16:45Z</time>
      </trkpt>
      <trkpt lat="44.12966" lon="6.9976">
        <ele>2017.46</ele>
        <time>2019-09-28T07:17:02Z</time>
      </trkpt>
      <trkpt lat="44.1295" lon="6.99767">
        <ele>2020.83</ele>
        <time>2019-09-28T07:17:21Z</time>
      </trkpt>
      <trkpt lat="44.12945" lon="6.99771">
        <ele>2021.31</ele>
        <time>2019-09-28T07:17:35Z</time>
      </trkpt>
      <trkpt lat="44.12938" lon="6.99783">
        <ele>2024.19</ele>
        <time>2019-09-28T07:17:54Z</time>
      </trkpt>
      <trkpt lat="44.12936" lon="6.99786">
        <ele>2025.15</ele>
        <time>2019-09-28T07:18:13Z</time>
      </trkpt>
      <trkpt lat="44.1294" lon="6.99783">
        <ele>2025.64</ele>
        <time>2019-09-28T07:18:42Z</time>
      </trkpt>
      <trkpt lat="44.12939" lon="6.99784">
        <ele>2025.15</ele>
        <time>2019-09-28T07:19:07Z</time>
      </trkpt>
      <trkpt lat="44.12939" lon="6.99786">
        <ele>2023.71</ele>
        <time>2019-09-28T07:19:32Z</time>
      </trkpt>
      <trkpt lat="44.12937" lon="6.99789">
        <ele>2024.67</ele>
        <time>2019-09-28T07:19:53Z</time>
      </trkpt>
      <trkpt lat="44.12933" lon="6.9981">
        <ele>2024.67</ele>
        <time>2019-09-28T07:20:07Z</time>
      </trkpt>
      <trkpt lat="44.12926" lon="6.99826">
        <ele>2022.27</ele>
        <time>2019-09-28T07:20:19Z</time>
      </trkpt>
      <trkpt lat="44.12924" lon="6.9983">
        <ele>2021.79</ele>
        <time>2019-09-28T07:20:22Z</time>
      </trkpt>
      <trkpt lat="44.12917" lon="6.99844">
        <ele>2024.67</ele>
        <time>2019-09-28T07:20:35Z</time>
      </trkpt>
      <trkpt lat="44.12917" lon="6.99847">
        <ele>2025.15</ele>
        <time>2019-09-28T07:20:38Z</time>
      </trkpt>
      <trkpt lat="44.12917" lon="6.99848">
        <ele>2025.15</ele>
        <time>2019-09-28T07:20:39Z</time>
      </trkpt>
      <trkpt lat="44.12916" lon="6.9985">
        <ele>2025.15</ele>
        <time>2019-09-28T07:20:40Z</time>
      </trkpt>
      <trkpt lat="44.12916" lon="6.99852">
        <ele>2025.64</ele>
        <time>2019-09-28T07:20:41Z</time>
      </trkpt>
      <trkpt lat="44.12915" lon="6.99857">
        <ele>2026.6</ele>
        <time>2019-09-28T07:20:45Z</time>
      </trkpt>
      <trkpt lat="44.12915" lon="6.99858">
        <ele>2026.6</ele>
        <time>2019-09-28T07:20:46Z</time>
      </trkpt>
      <trkpt lat="44.12915" lon="6.9986">
        <ele>2026.6</ele>
        <time>2019-09-28T07:20:47Z</time>
      </trkpt>
      <trkpt lat="44.12916" lon="6.99862">
        <ele>2026.6</ele>
        <time>2019-09-28T07:20:48Z</time>
      </trkpt>
      <trkpt lat="44.12916" lon="6.99864">
        <ele>2026.6</ele>
        <time>2019-09-28T07:20:49Z</time>
      </trkpt>
      <trkpt lat="44.12916" lon="6.99865">
        <ele>2026.6</ele>
        <time>2019-09-28T07:20:50Z</time>
      </trkpt>
      <trkpt lat="44.12916" lon="6.99867">
        <ele>2026.12</ele>
        <time>2019-09-28T07:20:51Z</time>
      </trkpt>
      <trkpt lat="44.1291" lon="6.99885">
        <ele>2024.19</ele>
        <time>2019-09-28T07:21:04Z</time>
      </trkpt>
      <trkpt lat="44.12905" lon="6.999">
        <ele>2021.79</ele>
        <time>2019-09-28T07:21:18Z</time>
      </trkpt>
      <trkpt lat="44.12903" lon="6.99906">
        <ele>2020.83</ele>
        <time>2019-09-28T07:21:31Z</time>
      </trkpt>
      <trkpt lat="44.12902" lon="6.99912">
        <ele>2019.87</ele>
        <time>2019-09-28T07:21:38Z</time>
      </trkpt>
      <trkpt lat="44.12901" lon="6.9992">
        <ele>2018.43</ele>
        <time>2019-09-28T07:21:48Z</time>
      </trkpt>
      <trkpt lat="44.12901" lon="6.99922">
        <ele>2016.98</ele>
        <time>2019-09-28T07:22:04Z</time>
      </trkpt>
      <trkpt lat="44.12901" lon="6.99938">
        <ele>2016.02</ele>
        <time>2019-09-28T07:22:19Z</time>
      </trkpt>
      <trkpt lat="44.12905" lon="6.99951">
        <ele>2013.62</ele>
        <time>2019-09-28T07:22:24Z</time>
      </trkpt>
      <trkpt lat="44.12905" lon="6.99954">
        <ele>2013.62</ele>
        <time>2019-09-28T07:22:25Z</time>
      </trkpt>
      <trkpt lat="44.12906" lon="6.99957">
        <ele>2013.14</ele>
        <time>2019-09-28T07:22:26Z</time>
      </trkpt>
      <trkpt lat="44.12916" lon="6.99987">
        <ele>2009.77</ele>
        <time>2019-09-28T07:22:37Z</time>
      </trkpt>
      <trkpt lat="44.1292" lon="7.00009">
        <ele>2004.97</ele>
        <time>2019-09-28T07:22:50Z</time>
      </trkpt>
      <trkpt lat="44.12921" lon="7.00014">
        <ele>2004.01</ele>
        <time>2019-09-28T07:22:52Z</time>
      </trkpt>
      <trkpt lat="44.12921" lon="7.00017">
        <ele>2003.52</ele>
        <time>2019-09-28T07:22:53Z</time>
      </trkpt>
      <trkpt lat="44.12927" lon="7.00056">
        <ele>1999.68</ele>
        <time>2019-09-28T07:23:03Z</time>
      </trkpt>
      <trkpt lat="44.12922" lon="7.00089">
        <ele>1996.8</ele>
        <time>2019-09-28T07:23:13Z</time>
      </trkpt>
      <trkpt lat="44.12923" lon="7.00099">
        <ele>1994.39</ele>
        <time>2019-09-28T07:23:18Z</time>
      </trkpt>
      <trkpt lat="44.12924" lon="7.00103">
        <ele>1993.91</ele>
        <time>2019-09-28T07:23:19Z</time>
      </trkpt>
      <trkpt lat="44.12924" lon="7.00108">
        <ele>1993.43</ele>
        <time>2019-09-28T07:23:20Z</time>
      </trkpt>
      <trkpt lat="44.12922" lon="7.00113">
        <ele>1992.95</ele>
        <time>2019-09-28T07:23:21Z</time>
      </trkpt>
      <trkpt lat="44.12921" lon="7.00119">
        <ele>1992.95</ele>
        <time>2019-09-28T07:23:22Z</time>
      </trkpt>
      <trkpt lat="44.12917" lon="7.00129">
        <ele>1991.99</ele>
        <time>2019-09-28T07:23:24Z</time>
      </trkpt>
      <trkpt lat="44.12911" lon="7.00141">
        <ele>1990.55</ele>
        <time>2019-09-28T07:23:26Z</time>
      </trkpt>
      <trkpt lat="44.12909" lon="7.00146">
        <ele>1990.55</ele>
        <time>2019-09-28T07:23:27Z</time>
      </trkpt>
      <trkpt lat="44.12907" lon="7.00149">
        <ele>1990.55</ele>
        <time>2019-09-28T07:23:28Z</time>
      </trkpt>
      <trkpt lat="44.12905" lon="7.00154">
        <ele>1992.95</ele>
        <time>2019-09-28T07:23:36Z</time>
      </trkpt>
      <trkpt lat="44.12903" lon="7.00158">
        <ele>1993.91</ele>
        <time>2019-09-28T07:23:52Z</time>
      </trkpt>
      <trkpt lat="44.12899" lon="7.00171">
        <ele>1997.76</ele>
        <time>2019-09-28T07:24:07Z</time>
      </trkpt>
      <trkpt lat="44.12899" lon="7.00172">
        <ele>1997.76</ele>
        <time>2019-09-28T07:24:08Z</time>
      </trkpt>
      <trkpt lat="44.12897" lon="7.00191">
        <ele>2000.64</ele>
        <time>2019-09-28T07:24:26Z</time>
      </trkpt>
      <trkpt lat="44.12895" lon="7.00203">
        <ele>2004.01</ele>
        <time>2019-09-28T07:24:40Z</time>
      </trkpt>
      <trkpt lat="44.12894" lon="7.00219">
        <ele>2008.81</ele>
        <time>2019-09-28T07:24:57Z</time>
      </trkpt>
      <trkpt lat="44.12893" lon="7.00223">
        <ele>2009.77</ele>
        <time>2019-09-28T07:25:01Z</time>
      </trkpt>
      <trkpt lat="44.1289" lon="7.00234">
        <ele>2012.66</ele>
        <time>2019-09-28T07:25:15Z</time>
      </trkpt>
      <trkpt lat="44.12884" lon="7.00224">
        <ele>2014.58</ele>
        <time>2019-09-28T07:25:29Z</time>
      </trkpt>
      <trkpt lat="44.12879" lon="7.00215">
        <ele>2016.5</ele>
        <time>2019-09-28T07:25:44Z</time>
      </trkpt>
      <trkpt lat="44.12875" lon="7.00215">
        <ele>2016.98</ele>
        <time>2019-09-28T07:25:59Z</time>
      </trkpt>
      <trkpt lat="44.12872" lon="7.00215">
        <ele>2017.94</ele>
        <time>2019-09-28T07:26:50Z</time>
      </trkpt>
      <trkpt lat="44.12874" lon="7.00215">
        <ele>2016.98</ele>
        <time>2019-09-28T07:27:31Z</time>
      </trkpt>
      <trkpt lat="44.12874" lon="7.00216">
        <ele>2017.46</ele>
        <time>2019-09-28T07:28:07Z</time>
      </trkpt>
      <trkpt lat="44.12873" lon="7.00214">
        <ele>2013.62</ele>
        <time>2019-09-28T07:28:45Z</time>
      </trkpt>
      <trkpt lat="44.12875" lon="7.00215">
        <ele>2015.06</ele>
        <time>2019-09-28T07:29:14Z</time>
      </trkpt>
      <trkpt lat="44.12875" lon="7.00215">
        <ele>2017.94</ele>
        <time>2019-09-28T07:29:57Z</time>
      </trkpt>
      <trkpt lat="44.12872" lon="7.00216">
        <ele>2017.46</ele>
        <time>2019-09-28T07:30:21Z</time>
      </trkpt>
      <trkpt lat="44.12861" lon="7.00234">
        <ele>2016.02</ele>
        <time>2019-09-28T07:30:36Z</time>
      </trkpt>
      <trkpt lat="44.12853" lon="7.00245">
        <ele>2014.1</ele>
        <time>2019-09-28T07:30:49Z</time>
      </trkpt>
      <trkpt lat="44.12854" lon="7.00247">
        <ele>2013.62</ele>
        <time>2019-09-28T07:31:26Z</time>
      </trkpt>
      <trkpt lat="44.12853" lon="7.00247">
        <ele>2013.14</ele>
        <time>2019-09-28T07:31:57Z</time>
      </trkpt>
      <trkpt lat="44.1284" lon="7.00257">
        <ele>2010.73</ele>
        <time>2019-09-28T07:32:09Z</time>
      </trkpt>
      <trkpt lat="44.12817" lon="7.00266">
        <ele>2005.93</ele>
        <time>2019-09-28T07:32:19Z</time>
      </trkpt>
      <trkpt lat="44.12794" lon="7.00277">
        <ele>2002.08</ele>
        <time>2019-09-28T07:32:30Z</time>
      </trkpt>
      <trkpt lat="44.12775" lon="7.00293">
        <ele>1998.24</ele>
        <time>2019-09-28T07:32:39Z</time>
      </trkpt>
      <trkpt lat="44.12774" lon="7.00293">
        <ele>1999.2</ele>
        <time>2019-09-28T07:32:50Z</time>
      </trkpt>
      <trkpt lat="44.12774" lon="7.00294">
        <ele>1999.2</ele>
        <time>2019-09-28T07:33:20Z</time>
      </trkpt>
      <trkpt lat="44.12774" lon="7.00294">
        <ele>1997.28</ele>
        <time>2019-09-28T07:33:42Z</time>
      </trkpt>
      <trkpt lat="44.12776" lon="7.00295">
        <ele>1995.83</ele>
        <time>2019-09-28T07:34:02Z</time>
      </trkpt>
      <trkpt lat="44.12777" lon="7.00295">
        <ele>1995.83</ele>
        <time>2019-09-28T07:34:21Z</time>
      </trkpt>
      <trkpt lat="44.12774" lon="7.00295">
        <ele>1995.35</ele>
        <time>2019-09-28T07:34:45Z</time>
      </trkpt>
      <trkpt lat="44.12775" lon="7.00293">
        <ele>1994.87</ele>
        <time>2019-09-28T07:35:08Z</time>
      </trkpt>
      <trkpt lat="44.12775" lon="7.00296">
        <ele>1994.87</ele>
        <time>2019-09-28T07:35:12Z</time>
      </trkpt>
      <trkpt lat="44.12783" lon="7.00327">
        <ele>1990.55</ele>
        <time>2019-09-28T07:35:20Z</time>
      </trkpt>
      <trkpt lat="44.12784" lon="7.00328">
        <ele>1991.03</ele>
        <time>2019-09-28T07:35:34Z</time>
      </trkpt>
      <trkpt lat="44.12786" lon="7.00332">
        <ele>1990.07</ele>
        <time>2019-09-28T07:35:43Z</time>
      </trkpt>
      <trkpt lat="44.12786" lon="7.00335">
        <ele>1990.07</ele>
        <time>2019-09-28T07:35:44Z</time>
      </trkpt>
      <trkpt lat="44.12795" lon="7.00369">
        <ele>1986.22</ele>
        <time>2019-09-28T07:35:51Z</time>
      </trkpt>
      <trkpt lat="44.12805" lon="7.00426">
        <ele>1980.93</ele>
        <time>2019-09-28T07:36:02Z</time>
      </trkpt>
      <trkpt lat="44.12807" lon="7.00446">
        <ele>1979.01</ele>
        <time>2019-09-28T07:36:06Z</time>
      </trkpt>
      <trkpt lat="44.12805" lon="7.00464">
        <ele>1976.61</ele>
        <time>2019-09-28T07:36:09Z</time>
      </trkpt>
      <trkpt lat="44.12806" lon="7.0047">
        <ele>1975.65</ele>
        <time>2019-09-28T07:36:10Z</time>
      </trkpt>
      <trkpt lat="44.12806" lon="7.00476">
        <ele>1975.17</ele>
        <time>2019-09-28T07:36:11Z</time>
      </trkpt>
      <trkpt lat="44.12805" lon="7.00483">
        <ele>1973.72</ele>
        <time>2019-09-28T07:36:12Z</time>
      </trkpt>
      <trkpt lat="44.12803" lon="7.00491">
        <ele>1973.24</ele>
        <time>2019-09-28T07:36:13Z</time>
      </trkpt>
      <trkpt lat="44.12801" lon="7.00497">
        <ele>1972.28</ele>
        <time>2019-09-28T07:36:14Z</time>
      </trkpt>
      <trkpt lat="44.12798" lon="7.00503">
        <ele>1971.8</ele>
        <time>2019-09-28T07:36:15Z</time>
      </trkpt>
      <trkpt lat="44.12794" lon="7.00507">
        <ele>1971.8</ele>
        <time>2019-09-28T07:36:16Z</time>
      </trkpt>
      <trkpt lat="44.12789" lon="7.00511">
        <ele>1971.32</ele>
        <time>2019-09-28T07:36:17Z</time>
      </trkpt>
      <trkpt lat="44.12783" lon="7.00515">
        <ele>1971.32</ele>
        <time>2019-09-28T07:36:18Z</time>
      </trkpt>
      <trkpt lat="44.1277" lon="7.00523">
        <ele>1970.36</ele>
        <time>2019-09-28T07:36:21Z</time>
      </trkpt>
      <trkpt lat="44.12766" lon="7.00523">
        <ele>1970.36</ele>
        <time>2019-09-28T07:36:22Z</time>
      </trkpt>
      <trkpt lat="44.12762" lon="7.00522">
        <ele>1969.88</ele>
        <time>2019-09-28T07:36:23Z</time>
      </trkpt>
      <trkpt lat="44.12739" lon="7.00517">
        <ele>1964.11</ele>
        <time>2019-09-28T07:36:29Z</time>
      </trkpt>
      <trkpt lat="44.12734" lon="7.00518">
        <ele>1963.63</ele>
        <time>2019-09-28T07:36:30Z</time>
      </trkpt>
      <trkpt lat="44.12699" lon="7.00523">
        <ele>1964.11</ele>
        <time>2019-09-28T07:36:41Z</time>
      </trkpt>
      <trkpt lat="44.12667" lon="7.00528">
        <ele>1964.11</ele>
        <time>2019-09-28T07:36:51Z</time>
      </trkpt>
      <trkpt lat="44.12635" lon="7.00525">
        <ele>1961.71</ele>
        <time>2019-09-28T07:37:01Z</time>
      </trkpt>
      <trkpt lat="44.12633" lon="7.00523">
        <ele>1960.75</ele>
        <time>2019-09-28T07:37:03Z</time>
      </trkpt>
      <trkpt lat="44.1263" lon="7.00522">
        <ele>1960.27</ele>
        <time>2019-09-28T07:37:04Z</time>
      </trkpt>
      <trkpt lat="44.12627" lon="7.00522">
        <ele>1959.78</ele>
        <time>2019-09-28T07:37:05Z</time>
      </trkpt>
      <trkpt lat="44.12591" lon="7.00547">
        <ele>1954.98</ele>
        <time>2019-09-28T07:37:17Z</time>
      </trkpt>
      <trkpt lat="44.12587" lon="7.00562">
        <ele>1952.09</ele>
        <time>2019-09-28T07:37:23Z</time>
      </trkpt>
      <trkpt lat="44.12586" lon="7.00563">
        <ele>1952.09</ele>
        <time>2019-09-28T07:37:24Z</time>
      </trkpt>
      <trkpt lat="44.12585" lon="7.00565">
        <ele>1951.13</ele>
        <time>2019-09-28T07:37:25Z</time>
      </trkpt>
      <trkpt lat="44.12579" lon="7.00593">
        <ele>1947.77</ele>
        <time>2019-09-28T07:37:36Z</time>
      </trkpt>
      <trkpt lat="44.12569" lon="7.00606">
        <ele>1943.92</ele>
        <time>2019-09-28T07:37:45Z</time>
      </trkpt>
      <trkpt lat="44.12568" lon="7.00603">
        <ele>1945.36</ele>
        <time>2019-09-28T07:37:59Z</time>
      </trkpt>
      <trkpt lat="44.12568" lon="7.00601">
        <ele>1945.36</ele>
        <time>2019-09-28T07:38:00Z</time>
      </trkpt>
      <trkpt lat="44.12567" lon="7.00599">
        <ele>1945.36</ele>
        <time>2019-09-28T07:38:01Z</time>
      </trkpt>
      <trkpt lat="44.12566" lon="7.00596">
        <ele>1944.88</ele>
        <time>2019-09-28T07:38:02Z</time>
      </trkpt>
      <trkpt lat="44.12564" lon="7.00594">
        <ele>1945.36</ele>
        <time>2019-09-28T07:38:03Z</time>
      </trkpt>
      <trkpt lat="44.12534" lon="7.00566">
        <ele>1946.33</ele>
        <time>2019-09-28T07:38:18Z</time>
      </trkpt>
      <trkpt lat="44.12508" lon="7.00546">
        <ele>1948.25</ele>
        <time>2019-09-28T07:38:31Z</time>
      </trkpt>
      <trkpt lat="44.12489" lon="7.00528">
        <ele>1948.73</ele>
        <time>2019-09-28T07:38:42Z</time>
      </trkpt>
      <trkpt lat="44.12472" lon="7.00504">
        <ele>1947.29</ele>
        <time>2019-09-28T07:38:55Z</time>
      </trkpt>
      <trkpt lat="44.12465" lon="7.00498">
        <ele>1949.21</ele>
        <time>2019-09-28T07:39:05Z</time>
      </trkpt>
      <trkpt lat="44.1246" lon="7.00495">
        <ele>1950.17</ele>
        <time>2019-09-28T07:39:13Z</time>
      </trkpt>
      <trkpt lat="44.12459" lon="7.00493">
        <ele>1950.65</ele>
        <time>2019-09-28T07:39:14Z</time>
      </trkpt>
      <trkpt lat="44.12457" lon="7.00492">
        <ele>1950.65</ele>
        <time>2019-09-28T07:39:15Z</time>
      </trkpt>
      <trkpt lat="44.12455" lon="7.0049">
        <ele>1950.65</ele>
        <time>2019-09-28T07:39:16Z</time>
      </trkpt>
      <trkpt lat="44.12453" lon="7.00489">
        <ele>1950.65</ele>
        <time>2019-09-28T07:39:17Z</time>
      </trkpt>
      <trkpt lat="44.12452" lon="7.00487">
        <ele>1951.13</ele>
        <time>2019-09-28T07:39:18Z</time>
      </trkpt>
      <trkpt lat="44.1245" lon="7.00486">
        <ele>1951.13</ele>
        <time>2019-09-28T07:39:19Z</time>
      </trkpt>
      <trkpt lat="44.12448" lon="7.00485">
        <ele>1951.13</ele>
        <time>2019-09-28T07:39:20Z</time>
      </trkpt>
      <trkpt lat="44.12446" lon="7.00483">
        <ele>1951.13</ele>
        <time>2019-09-28T07:39:21Z</time>
      </trkpt>
      <trkpt lat="44.12444" lon="7.00482">
        <ele>1951.61</ele>
        <time>2019-09-28T07:39:22Z</time>
      </trkpt>
      <trkpt lat="44.12442" lon="7.0048">
        <ele>1951.61</ele>
        <time>2019-09-28T07:39:23Z</time>
      </trkpt>
      <trkpt lat="44.12441" lon="7.00479">
        <ele>1951.61</ele>
        <time>2019-09-28T07:39:24Z</time>
      </trkpt>
      <trkpt lat="44.12432" lon="7.00474">
        <ele>1952.09</ele>
        <time>2019-09-28T07:39:34Z</time>
      </trkpt>
      <trkpt lat="44.12411" lon="7.00465">
        <ele>1952.57</ele>
        <time>2019-09-28T07:39:46Z</time>
      </trkpt>
      <trkpt lat="44.1239" lon="7.00453">
        <ele>1953.06</ele>
        <time>2019-09-28T07:39:57Z</time>
      </trkpt>
      <trkpt lat="44.12357" lon="7.00436">
        <ele>1954.5</ele>
        <time>2019-09-28T07:40:12Z</time>
      </trkpt>
      <trkpt lat="44.12325" lon="7.00429">
        <ele>1955.46</ele>
        <time>2019-09-28T07:40:26Z</time>
      </trkpt>
      <trkpt lat="44.12296" lon="7.00435">
        <ele>1954.98</ele>
        <time>2019-09-28T07:40:38Z</time>
      </trkpt>
      <trkpt lat="44.12265" lon="7.00451">
        <ele>1954.02</ele>
        <time>2019-09-28T07:40:51Z</time>
      </trkpt>
      <trkpt lat="44.12242" lon="7.00471">
        <ele>1953.54</ele>
        <time>2019-09-28T07:41:03Z</time>
      </trkpt>
      <trkpt lat="44.12225" lon="7.00484">
        <ele>1952.09</ele>
        <time>2019-09-28T07:41:14Z</time>
      </trkpt>
      <trkpt lat="44.12223" lon="7.00486">
        <ele>1952.09</ele>
        <time>2019-09-28T07:41:24Z</time>
      </trkpt>
      <trkpt lat="44.12218" lon="7.0049">
        <ele>1952.57</ele>
        <time>2019-09-28T07:41:35Z</time>
      </trkpt>
      <trkpt lat="44.12213" lon="7.00492">
        <ele>1952.09</ele>
        <time>2019-09-28T07:41:41Z</time>
      </trkpt>
      <trkpt lat="44.12211" lon="7.00493">
        <ele>1952.09</ele>
        <time>2019-09-28T07:41:42Z</time>
      </trkpt>
      <trkpt lat="44.1221" lon="7.00493">
        <ele>1952.09</ele>
        <time>2019-09-28T07:41:43Z</time>
      </trkpt>
      <trkpt lat="44.12209" lon="7.00494">
        <ele>1952.09</ele>
        <time>2019-09-28T07:41:44Z</time>
      </trkpt>
      <trkpt lat="44.12208" lon="7.00494">
        <ele>1952.09</ele>
        <time>2019-09-28T07:41:45Z</time>
      </trkpt>
      <trkpt lat="44.122" lon="7.00497">
        <ele>1951.61</ele>
        <time>2019-09-28T07:41:53Z</time>
      </trkpt>
      <trkpt lat="44.12188" lon="7.00503">
        <ele>1952.09</ele>
        <time>2019-09-28T07:42:05Z</time>
      </trkpt>
      <trkpt lat="44.12165" lon="7.00517">
        <ele>1952.09</ele>
        <time>2019-09-28T07:42:18Z</time>
      </trkpt>
      <trkpt lat="44.12156" lon="7.00521">
        <ele>1952.09</ele>
        <time>2019-09-28T07:42:28Z</time>
      </trkpt>
      <trkpt lat="44.12142" lon="7.00526">
        <ele>1952.57</ele>
        <time>2019-09-28T07:42:39Z</time>
      </trkpt>
      <trkpt lat="44.12113" lon="7.00537">
        <ele>1954.02</ele>
        <time>2019-09-28T07:42:54Z</time>
      </trkpt>
      <trkpt lat="44.12094" lon="7.00545">
        <ele>1955.46</ele>
        <time>2019-09-28T07:43:04Z</time>
      </trkpt>
      <trkpt lat="44.12075" lon="7.00551">
        <ele>1956.42</ele>
        <time>2019-09-28T07:43:16Z</time>
      </trkpt>
      <trkpt lat="44.12068" lon="7.00555">
        <ele>1956.9</ele>
        <time>2019-09-28T07:43:22Z</time>
      </trkpt>
      <trkpt lat="44.12066" lon="7.00557">
        <ele>1956.9</ele>
        <time>2019-09-28T07:43:26Z</time>
      </trkpt>
      <trkpt lat="44.12057" lon="7.00563">
        <ele>1957.38</ele>
        <time>2019-09-28T07:43:38Z</time>
      </trkpt>
      <trkpt lat="44.12043" lon="7.00571">
        <ele>1958.82</ele>
        <time>2019-09-28T07:43:48Z</time>
      </trkpt>
      <trkpt lat="44.12041" lon="7.00574">
        <ele>1958.82</ele>
        <time>2019-09-28T07:43:56Z</time>
      </trkpt>
      <trkpt lat="44.12028" lon="7.00585">
        <ele>1961.23</ele>
        <time>2019-09-28T07:44:06Z</time>
      </trkpt>
      <trkpt lat="44.12023" lon="7.00589">
        <ele>1961.71</ele>
        <time>2019-09-28T07:44:14Z</time>
      </trkpt>
      <trkpt lat="44.12018" lon="7.00593">
        <ele>1962.19</ele>
        <time>2019-09-28T07:44:23Z</time>
      </trkpt>
      <trkpt lat="44.12014" lon="7.00596">
        <ele>1963.15</ele>
        <time>2019-09-28T07:44:32Z</time>
      </trkpt>
      <trkpt lat="44.12006" lon="7.00603">
        <ele>1964.11</ele>
        <time>2019-09-28T07:44:43Z</time>
      </trkpt>
      <trkpt lat="44.11999" lon="7.00609">
        <ele>1965.07</ele>
        <time>2019-09-28T07:44:53Z</time>
      </trkpt>
      <trkpt lat="44.11997" lon="7.00609">
        <ele>1965.07</ele>
        <time>2019-09-28T07:44:54Z</time>
      </trkpt>
      <trkpt lat="44.11996" lon="7.0061">
        <ele>1965.07</ele>
        <time>2019-09-28T07:44:55Z</time>
      </trkpt>
      <trkpt lat="44.11995" lon="7.00611">
        <ele>1965.07</ele>
        <time>2019-09-28T07:44:56Z</time>
      </trkpt>
      <trkpt lat="44.11994" lon="7.00611">
        <ele>1965.07</ele>
        <time>2019-09-28T07:44:57Z</time>
      </trkpt>
      <trkpt lat="44.11991" lon="7.00613">
        <ele>1965.07</ele>
        <time>2019-09-28T07:44:59Z</time>
      </trkpt>
      <trkpt lat="44.11979" lon="7.00623">
        <ele>1966.51</ele>
        <time>2019-09-28T07:45:14Z</time>
      </trkpt>
      <trkpt lat="44.11968" lon="7.00634">
        <ele>1967.96</ele>
        <time>2019-09-28T07:45:30Z</time>
      </trkpt>
      <trkpt lat="44.11964" lon="7.00642">
        <ele>1967.96</ele>
        <time>2019-09-28T07:45:38Z</time>
      </trkpt>
      <trkpt lat="44.11964" lon="7.00643">
        <ele>1967.96</ele>
        <time>2019-09-28T07:45:39Z</time>
      </trkpt>
      <trkpt lat="44.11961" lon="7.00649">
        <ele>1968.44</ele>
        <time>2019-09-28T07:45:45Z</time>
      </trkpt>
      <trkpt lat="44.1196" lon="7.00649">
        <ele>1968.44</ele>
        <time>2019-09-28T07:45:46Z</time>
      </trkpt>
      <trkpt lat="44.1195" lon="7.00653">
        <ele>1971.32</ele>
        <time>2019-09-28T07:45:59Z</time>
      </trkpt>
      <trkpt lat="44.11936" lon="7.00658">
        <ele>1973.24</ele>
        <time>2019-09-28T07:46:14Z</time>
      </trkpt>
      <trkpt lat="44.1193" lon="7.00667">
        <ele>1974.2</ele>
        <time>2019-09-28T07:46:29Z</time>
      </trkpt>
      <trkpt lat="44.11932" lon="7.00669">
        <ele>1974.69</ele>
        <time>2019-09-28T07:46:33Z</time>
      </trkpt>
      <trkpt lat="44.11936" lon="7.00673">
        <ele>1976.13</ele>
        <time>2019-09-28T07:46:41Z</time>
      </trkpt>
      <trkpt lat="44.11935" lon="7.00674">
        <ele>1976.61</ele>
        <time>2019-09-28T07:46:42Z</time>
      </trkpt>
      <trkpt lat="44.11934" lon="7.00676">
        <ele>1977.57</ele>
        <time>2019-09-28T07:46:56Z</time>
      </trkpt>
      <trkpt lat="44.11921" lon="7.00691">
        <ele>1979.01</ele>
        <time>2019-09-28T07:47:05Z</time>
      </trkpt>
      <trkpt lat="44.1189" lon="7.0071">
        <ele>1977.57</ele>
        <time>2019-09-28T07:47:19Z</time>
      </trkpt>
      <trkpt lat="44.11873" lon="7.00713">
        <ele>1974.69</ele>
        <time>2019-09-28T07:47:24Z</time>
      </trkpt>
      <trkpt lat="44.1187" lon="7.00716">
        <ele>1974.2</ele>
        <time>2019-09-28T07:47:25Z</time>
      </trkpt>
      <trkpt lat="44.1185" lon="7.00729">
        <ele>1970.36</ele>
        <time>2019-09-28T07:47:34Z</time>
      </trkpt>
      <trkpt lat="44.11848" lon="7.00728">
        <ele>1969.88</ele>
        <time>2019-09-28T07:47:35Z</time>
      </trkpt>
      <trkpt lat="44.11845" lon="7.00727">
        <ele>1969.88</ele>
        <time>2019-09-28T07:47:36Z</time>
      </trkpt>
      <trkpt lat="44.11838" lon="7.00725">
        <ele>1969.4</ele>
        <time>2019-09-28T07:47:46Z</time>
      </trkpt>
      <trkpt lat="44.11839" lon="7.00725">
        <ele>1969.4</ele>
        <time>2019-09-28T07:48:14Z</time>
      </trkpt>
      <trkpt lat="44.11839" lon="7.00725">
        <ele>1969.88</ele>
        <time>2019-09-28T07:48:37Z</time>
      </trkpt>
      <trkpt lat="44.11839" lon="7.00725">
        <ele>1969.4</ele>
        <time>2019-09-28T07:49:00Z</time>
      </trkpt>
      <trkpt lat="44.11839" lon="7.00725">
        <ele>1969.88</ele>
        <time>2019-09-28T07:49:25Z</time>
      </trkpt>
      <trkpt lat="44.11839" lon="7.00725">
        <ele>1969.88</ele>
        <time>2019-09-28T07:49:57Z</time>
      </trkpt>
      <trkpt lat="44.11839" lon="7.00725">
        <ele>1969.88</ele>
        <time>2019-09-28T07:50:20Z</time>
      </trkpt>
      <trkpt lat="44.11824" lon="7.00713">
        <ele>1966.51</ele>
        <time>2019-09-28T07:50:32Z</time>
      </trkpt>
      <trkpt lat="44.11815" lon="7.00703">
        <ele>1964.11</ele>
        <time>2019-09-28T07:50:39Z</time>
      </trkpt>
      <trkpt lat="44.11812" lon="7.00701">
        <ele>1962.67</ele>
        <time>2019-09-28T07:50:47Z</time>
      </trkpt>
      <trkpt lat="44.11811" lon="7.007">
        <ele>1962.67</ele>
        <time>2019-09-28T07:50:48Z</time>
      </trkpt>
      <trkpt lat="44.1181" lon="7.007">
        <ele>1962.19</ele>
        <time>2019-09-28T07:50:49Z</time>
      </trkpt>
      <trkpt lat="44.11808" lon="7.00699">
        <ele>1961.71</ele>
        <time>2019-09-28T07:50:50Z</time>
      </trkpt>
      <trkpt lat="44.11796" lon="7.00691">
        <ele>1958.34</ele>
        <time>2019-09-28T07:51:02Z</time>
      </trkpt>
      <trkpt lat="44.11795" lon="7.0069">
        <ele>1957.38</ele>
        <time>2019-09-28T07:51:03Z</time>
      </trkpt>
      <trkpt lat="44.11794" lon="7.0069">
        <ele>1957.38</ele>
        <time>2019-09-28T07:51:04Z</time>
      </trkpt>
      <trkpt lat="44.11781" lon="7.00684">
        <ele>1955.94</ele>
        <time>2019-09-28T07:51:15Z</time>
      </trkpt>
      <trkpt lat="44.1178" lon="7.00682">
        <ele>1955.46</ele>
        <time>2019-09-28T07:51:16Z</time>
      </trkpt>
      <trkpt lat="44.11778" lon="7.00681">
        <ele>1955.46</ele>
        <time>2019-09-28T07:51:17Z</time>
      </trkpt>
      <trkpt lat="44.11769" lon="7.00675">
        <ele>1953.54</ele>
        <time>2019-09-28T07:51:27Z</time>
      </trkpt>
      <trkpt lat="44.11744" lon="7.0066">
        <ele>1950.65</ele>
        <time>2019-09-28T07:51:41Z</time>
      </trkpt>
      <trkpt lat="44.11725" lon="7.00647">
        <ele>1946.33</ele>
        <time>2019-09-28T07:51:51Z</time>
      </trkpt>
      <trkpt lat="44.11703" lon="7.00632">
        <ele>1943.44</ele>
        <time>2019-09-28T07:51:58Z</time>
      </trkpt>
      <trkpt lat="44.11689" lon="7.00627">
        <ele>1941.52</ele>
        <time>2019-09-28T07:52:03Z</time>
      </trkpt>
      <trkpt lat="44.11688" lon="7.00627">
        <ele>1941.52</ele>
        <time>2019-09-28T07:52:04Z</time>
      </trkpt>
      <trkpt lat="44.11687" lon="7.00628">
        <ele>1941.04</ele>
        <time>2019-09-28T07:52:05Z</time>
      </trkpt>
      <trkpt lat="44.11687" lon="7.0063">
        <ele>1941.04</ele>
        <time>2019-09-28T07:52:06Z</time>
      </trkpt>
      <trkpt lat="44.11687" lon="7.00632">
        <ele>1940.56</ele>
        <time>2019-09-28T07:52:17Z</time>
      </trkpt>
      <trkpt lat="44.11687" lon="7.00632">
        <ele>1941.04</ele>
        <time>2019-09-28T07:52:42Z</time>
      </trkpt>
      <trkpt lat="44.11688" lon="7.00632">
        <ele>1939.12</ele>
        <time>2019-09-28T07:53:09Z</time>
      </trkpt>
      <trkpt lat="44.11683" lon="7.0065">
        <ele>1940.08</ele>
        <time>2019-09-28T07:53:27Z</time>
      </trkpt>
      <trkpt lat="44.11674" lon="7.00697">
        <ele>1937.67</ele>
        <time>2019-09-28T07:53:38Z</time>
      </trkpt>
      <trkpt lat="44.11674" lon="7.00729">
        <ele>1934.31</ele>
        <time>2019-09-28T07:53:48Z</time>
      </trkpt>
      <trkpt lat="44.11675" lon="7.00732">
        <ele>1934.31</ele>
        <time>2019-09-28T07:53:49Z</time>
      </trkpt>
      <trkpt lat="44.11675" lon="7.00734">
        <ele>1934.31</ele>
        <time>2019-09-28T07:53:50Z</time>
      </trkpt>
      <trkpt lat="44.11675" lon="7.00737">
        <ele>1934.79</ele>
        <time>2019-09-28T07:53:51Z</time>
      </trkpt>
      <trkpt lat="44.11676" lon="7.00741">
        <ele>1934.79</ele>
        <time>2019-09-28T07:53:52Z</time>
      </trkpt>
      <trkpt lat="44.11677" lon="7.00746">
        <ele>1934.79</ele>
        <time>2019-09-28T07:53:53Z</time>
      </trkpt>
      <trkpt lat="44.11677" lon="7.0075">
        <ele>1934.79</ele>
        <time>2019-09-28T07:53:54Z</time>
      </trkpt>
      <trkpt lat="44.11672" lon="7.00787">
        <ele>1933.35</ele>
        <time>2019-09-28T07:54:04Z</time>
      </trkpt>
      <trkpt lat="44.11671" lon="7.00795">
        <ele>1932.39</ele>
        <time>2019-09-28T07:54:07Z</time>
      </trkpt>
      <trkpt lat="44.11673" lon="7.00807">
        <ele>1931.91</ele>
        <time>2019-09-28T07:54:13Z</time>
      </trkpt>
      <trkpt lat="44.11673" lon="7.00808">
        <ele>1931.91</ele>
        <time>2019-09-28T07:54:14Z</time>
      </trkpt>
      <trkpt lat="44.11673" lon="7.00811">
        <ele>1931.43</ele>
        <time>2019-09-28T07:54:15Z</time>
      </trkpt>
      <trkpt lat="44.11673" lon="7.00816">
        <ele>1930.95</ele>
        <time>2019-09-28T07:54:17Z</time>
      </trkpt>
      <trkpt lat="44.11675" lon="7.00823">
        <ele>1930.46</ele>
        <time>2019-09-28T07:54:20Z</time>
      </trkpt>
      <trkpt lat="44.11674" lon="7.00826">
        <ele>1929.98</ele>
        <time>2019-09-28T07:54:21Z</time>
      </trkpt>
      <trkpt lat="44.11674" lon="7.00828">
        <ele>1929.5</ele>
        <time>2019-09-28T07:54:22Z</time>
      </trkpt>
      <trkpt lat="44.11675" lon="7.00834">
        <ele>1929.02</ele>
        <time>2019-09-28T07:54:25Z</time>
      </trkpt>
      <trkpt lat="44.11676" lon="7.00837">
        <ele>1929.02</ele>
        <time>2019-09-28T07:54:26Z</time>
      </trkpt>
      <trkpt lat="44.11676" lon="7.00839">
        <ele>1929.02</ele>
        <time>2019-09-28T07:54:27Z</time>
      </trkpt>
      <trkpt lat="44.11677" lon="7.00842">
        <ele>1929.02</ele>
        <time>2019-09-28T07:54:28Z</time>
      </trkpt>
      <trkpt lat="44.11678" lon="7.00844">
        <ele>1929.02</ele>
        <time>2019-09-28T07:54:29Z</time>
      </trkpt>
      <trkpt lat="44.11678" lon="7.00847">
        <ele>1929.02</ele>
        <time>2019-09-28T07:54:30Z</time>
      </trkpt>
      <trkpt lat="44.11678" lon="7.0085">
        <ele>1928.54</ele>
        <time>2019-09-28T07:54:32Z</time>
      </trkpt>
      <trkpt lat="44.11677" lon="7.00856">
        <ele>1928.06</ele>
        <time>2019-09-28T07:54:35Z</time>
      </trkpt>
      <trkpt lat="44.11677" lon="7.00858">
        <ele>1927.58</ele>
        <time>2019-09-28T07:54:36Z</time>
      </trkpt>
      <trkpt lat="44.11677" lon="7.0086">
        <ele>1927.1</ele>
        <time>2019-09-28T07:54:37Z</time>
      </trkpt>
      <trkpt lat="44.11677" lon="7.00863">
        <ele>1926.62</ele>
        <time>2019-09-28T07:54:38Z</time>
      </trkpt>
      <trkpt lat="44.11676" lon="7.00866">
        <ele>1925.66</ele>
        <time>2019-09-28T07:54:39Z</time>
      </trkpt>
      <trkpt lat="44.11677" lon="7.0087">
        <ele>1925.18</ele>
        <time>2019-09-28T07:54:40Z</time>
      </trkpt>
      <trkpt lat="44.11678" lon="7.00873">
        <ele>1925.18</ele>
        <time>2019-09-28T07:54:41Z</time>
      </trkpt>
      <trkpt lat="44.11681" lon="7.00915">
        <ele>1923.25</ele>
        <time>2019-09-28T07:54:53Z</time>
      </trkpt>
      <trkpt lat="44.11683" lon="7.00935">
        <ele>1924.22</ele>
        <time>2019-09-28T07:55:04Z</time>
      </trkpt>
      <trkpt lat="44.11683" lon="7.0094">
        <ele>1924.7</ele>
        <time>2019-09-28T07:55:08Z</time>
      </trkpt>
      <trkpt lat="44.11682" lon="7.00941">
        <ele>1924.22</ele>
        <time>2019-09-28T07:55:09Z</time>
      </trkpt>
      <trkpt lat="44.11679" lon="7.00972">
        <ele>1920.85</ele>
        <time>2019-09-28T07:55:21Z</time>
      </trkpt>
      <trkpt lat="44.11678" lon="7.00979">
        <ele>1920.37</ele>
        <time>2019-09-28T07:55:23Z</time>
      </trkpt>
      <trkpt lat="44.11678" lon="7.00983">
        <ele>1920.37</ele>
        <time>2019-09-28T07:55:24Z</time>
      </trkpt>
      <trkpt lat="44.11676" lon="7.01033">
        <ele>1915.56</ele>
        <time>2019-09-28T07:55:36Z</time>
      </trkpt>
      <trkpt lat="44.11675" lon="7.01046">
        <ele>1915.08</ele>
        <time>2019-09-28T07:55:39Z</time>
      </trkpt>
      <trkpt lat="44.11672" lon="7.0105">
        <ele>1914.6</ele>
        <time>2019-09-28T07:55:40Z</time>
      </trkpt>
      <trkpt lat="44.11647" lon="7.01072">
        <ele>1917.01</ele>
        <time>2019-09-28T07:55:52Z</time>
      </trkpt>
      <trkpt lat="44.11622" lon="7.0109">
        <ele>1915.56</ele>
        <time>2019-09-28T07:56:02Z</time>
      </trkpt>
      <trkpt lat="44.1161" lon="7.01108">
        <ele>1917.01</ele>
        <time>2019-09-28T07:56:12Z</time>
      </trkpt>
      <trkpt lat="44.11604" lon="7.01115">
        <ele>1916.53</ele>
        <time>2019-09-28T07:56:25Z</time>
      </trkpt>
      <trkpt lat="44.11601" lon="7.01121">
        <ele>1916.53</ele>
        <time>2019-09-28T07:56:37Z</time>
      </trkpt>
      <trkpt lat="44.11601" lon="7.01122">
        <ele>1916.53</ele>
        <time>2019-09-28T07:56:40Z</time>
      </trkpt>
      <trkpt lat="44.116" lon="7.01124">
        <ele>1917.01</ele>
        <time>2019-09-28T07:56:41Z</time>
      </trkpt>
      <trkpt lat="44.11595" lon="7.01133">
        <ele>1917.01</ele>
        <time>2019-09-28T07:56:46Z</time>
      </trkpt>
      <trkpt lat="44.11594" lon="7.01135">
        <ele>1917.01</ele>
        <time>2019-09-28T07:56:47Z</time>
      </trkpt>
      <trkpt lat="44.11588" lon="7.01143">
        <ele>1916.04</ele>
        <time>2019-09-28T07:56:57Z</time>
      </trkpt>
      <trkpt lat="44.1158" lon="7.01154">
        <ele>1916.04</ele>
        <time>2019-09-28T07:57:08Z</time>
      </trkpt>
      <trkpt lat="44.11575" lon="7.01161">
        <ele>1917.01</ele>
        <time>2019-09-28T07:57:14Z</time>
      </trkpt>
      <trkpt lat="44.11574" lon="7.01162">
        <ele>1917.01</ele>
        <time>2019-09-28T07:57:15Z</time>
      </trkpt>
      <trkpt lat="44.11563" lon="7.01177">
        <ele>1918.45</ele>
        <time>2019-09-28T07:57:28Z</time>
      </trkpt>
      <trkpt lat="44.11561" lon="7.01179">
        <ele>1918.45</ele>
        <time>2019-09-28T07:57:33Z</time>
      </trkpt>
      <trkpt lat="44.1156" lon="7.0118">
        <ele>1918.45</ele>
        <time>2019-09-28T07:57:34Z</time>
      </trkpt>
      <trkpt lat="44.11559" lon="7.01182">
        <ele>1918.45</ele>
        <time>2019-09-28T07:57:35Z</time>
      </trkpt>
      <trkpt lat="44.11547" lon="7.01195">
        <ele>1918.93</ele>
        <time>2019-09-28T07:57:47Z</time>
      </trkpt>
      <trkpt lat="44.11546" lon="7.01203">
        <ele>1920.37</ele>
        <time>2019-09-28T07:57:56Z</time>
      </trkpt>
      <trkpt lat="44.11544" lon="7.0121">
        <ele>1921.33</ele>
        <time>2019-09-28T07:58:04Z</time>
      </trkpt>
      <trkpt lat="44.11544" lon="7.01213">
        <ele>1922.29</ele>
        <time>2019-09-28T07:58:07Z</time>
      </trkpt>
      <trkpt lat="44.11543" lon="7.01214">
        <ele>1922.77</ele>
        <time>2019-09-28T07:58:08Z</time>
      </trkpt>
      <trkpt lat="44.11541" lon="7.01224">
        <ele>1924.22</ele>
        <time>2019-09-28T07:58:21Z</time>
      </trkpt>
      <trkpt lat="44.11541" lon="7.01225">
        <ele>1923.74</ele>
        <time>2019-09-28T07:58:38Z</time>
      </trkpt>
      <trkpt lat="44.1154" lon="7.01226">
        <ele>1923.74</ele>
        <time>2019-09-28T07:58:39Z</time>
      </trkpt>
      <trkpt lat="44.11539" lon="7.01228">
        <ele>1923.74</ele>
        <time>2019-09-28T07:58:40Z</time>
      </trkpt>
      <trkpt lat="44.11536" lon="7.01236">
        <ele>1923.74</ele>
        <time>2019-09-28T07:58:54Z</time>
      </trkpt>
      <trkpt lat="44.11534" lon="7.0124">
        <ele>1923.74</ele>
        <time>2019-09-28T07:59:02Z</time>
      </trkpt>
      <trkpt lat="44.11524" lon="7.01259">
        <ele>1925.18</ele>
        <time>2019-09-28T07:59:11Z</time>
      </trkpt>
      <trkpt lat="44.11519" lon="7.01269">
        <ele>1925.18</ele>
        <time>2019-09-28T07:59:21Z</time>
      </trkpt>
      <trkpt lat="44.11518" lon="7.01272">
        <ele>1925.18</ele>
        <time>2019-09-28T07:59:28Z</time>
      </trkpt>
      <trkpt lat="44.11517" lon="7.01273">
        <ele>1925.18</ele>
        <time>2019-09-28T07:59:29Z</time>
      </trkpt>
      <trkpt lat="44.11515" lon="7.01275">
        <ele>1925.66</ele>
        <time>2019-09-28T07:59:30Z</time>
      </trkpt>
      <trkpt lat="44.11514" lon="7.01277">
        <ele>1925.66</ele>
        <time>2019-09-28T07:59:31Z</time>
      </trkpt>
      <trkpt lat="44.11513" lon="7.01279">
        <ele>1926.14</ele>
        <time>2019-09-28T07:59:32Z</time>
      </trkpt>
      <trkpt lat="44.11512" lon="7.01281">
        <ele>1926.14</ele>
        <time>2019-09-28T07:59:33Z</time>
      </trkpt>
      <trkpt lat="44.11497" lon="7.01308">
        <ele>1925.66</ele>
        <time>2019-09-28T07:59:43Z</time>
      </trkpt>
      <trkpt lat="44.11477" lon="7.0135">
        <ele>1924.22</ele>
        <time>2019-09-28T07:59:53Z</time>
      </trkpt>
      <trkpt lat="44.11476" lon="7.01355">
        <ele>1924.22</ele>
        <time>2019-09-28T07:59:54Z</time>
      </trkpt>
      <trkpt lat="44.11475" lon="7.01359">
        <ele>1924.7</ele>
        <time>2019-09-28T07:59:55Z</time>
      </trkpt>
      <trkpt lat="44.11474" lon="7.01364">
        <ele>1924.7</ele>
        <time>2019-09-28T07:59:56Z</time>
      </trkpt>
      <trkpt lat="44.11474" lon="7.01366">
        <ele>1925.18</ele>
        <time>2019-09-28T07:59:57Z</time>
      </trkpt>
      <trkpt lat="44.11465" lon="7.0142">
        <ele>1925.66</ele>
        <time>2019-09-28T08:00:08Z</time>
      </trkpt>
      <trkpt lat="44.11465" lon="7.01465">
        <ele>1928.54</ele>
        <time>2019-09-28T08:00:20Z</time>
      </trkpt>
      <trkpt lat="44.11463" lon="7.01488">
        <ele>1929.02</ele>
        <time>2019-09-28T08:00:30Z</time>
      </trkpt>
      <trkpt lat="44.11462" lon="7.01486">
        <ele>1929.5</ele>
        <time>2019-09-28T08:01:02Z</time>
      </trkpt>
      <trkpt lat="44.1146" lon="7.01488">
        <ele>1928.06</ele>
        <time>2019-09-28T08:01:35Z</time>
      </trkpt>
      <trkpt lat="44.11461" lon="7.01488">
        <ele>1927.58</ele>
        <time>2019-09-28T08:02:00Z</time>
      </trkpt>
      <trkpt lat="44.11463" lon="7.01499">
        <ele>1927.1</ele>
        <time>2019-09-28T08:02:28Z</time>
      </trkpt>
      <trkpt lat="44.11466" lon="7.0153">
        <ele>1924.22</ele>
        <time>2019-09-28T08:02:33Z</time>
      </trkpt>
      <trkpt lat="44.11468" lon="7.01544">
        <ele>1923.74</ele>
        <time>2019-09-28T08:02:35Z</time>
      </trkpt>
      <trkpt lat="44.11469" lon="7.01579">
        <ele>1923.74</ele>
        <time>2019-09-28T08:02:46Z</time>
      </trkpt>
      <trkpt lat="44.11466" lon="7.01606">
        <ele>1925.66</ele>
        <time>2019-09-28T08:02:58Z</time>
      </trkpt>
      <trkpt lat="44.11463" lon="7.01609">
        <ele>1924.7</ele>
        <time>2019-09-28T08:03:02Z</time>
      </trkpt>
      <trkpt lat="44.11462" lon="7.01609">
        <ele>1924.7</ele>
        <time>2019-09-28T08:03:03Z</time>
      </trkpt>
      <trkpt lat="44.1146" lon="7.01608">
        <ele>1924.7</ele>
        <time>2019-09-28T08:03:19Z</time>
      </trkpt>
      <trkpt lat="44.11459" lon="7.01611">
        <ele>1923.74</ele>
        <time>2019-09-28T08:03:36Z</time>
      </trkpt>
      <trkpt lat="44.11459" lon="7.01614">
        <ele>1923.25</ele>
        <time>2019-09-28T08:03:37Z</time>
      </trkpt>
      <trkpt lat="44.11457" lon="7.01616">
        <ele>1922.77</ele>
        <time>2019-09-28T08:03:38Z</time>
      </trkpt>
      <trkpt lat="44.11451" lon="7.01622">
        <ele>1920.37</ele>
        <time>2019-09-28T08:03:42Z</time>
      </trkpt>
      <trkpt lat="44.11447" lon="7.01618">
        <ele>1918.45</ele>
        <time>2019-09-28T08:03:47Z</time>
      </trkpt>
      <trkpt lat="44.11446" lon="7.01617">
        <ele>1917.97</ele>
        <time>2019-09-28T08:03:48Z</time>
      </trkpt>
      <trkpt lat="44.11444" lon="7.01617">
        <ele>1917.97</ele>
        <time>2019-09-28T08:03:49Z</time>
      </trkpt>
      <trkpt lat="44.11442" lon="7.01618">
        <ele>1917.01</ele>
        <time>2019-09-28T08:03:50Z</time>
      </trkpt>
      <trkpt lat="44.1144" lon="7.0162">
        <ele>1916.53</ele>
        <time>2019-09-28T08:03:51Z</time>
      </trkpt>
      <trkpt lat="44.11438" lon="7.01623">
        <ele>1916.04</ele>
        <time>2019-09-28T08:03:52Z</time>
      </trkpt>
      <trkpt lat="44.11436" lon="7.01626">
        <ele>1915.56</ele>
        <time>2019-09-28T08:03:53Z</time>
      </trkpt>
      <trkpt lat="44.11435" lon="7.0163">
        <ele>1914.6</ele>
        <time>2019-09-28T08:03:54Z</time>
      </trkpt>
      <trkpt lat="44.11433" lon="7.01634">
        <ele>1913.64</ele>
        <time>2019-09-28T08:03:55Z</time>
      </trkpt>
      <trkpt lat="44.1143" lon="7.01637">
        <ele>1912.68</ele>
        <time>2019-09-28T08:03:56Z</time>
      </trkpt>
      <trkpt lat="44.11427" lon="7.01641">
        <ele>1911.24</ele>
        <time>2019-09-28T08:03:57Z</time>
      </trkpt>
      <trkpt lat="44.1142" lon="7.01646">
        <ele>1909.32</ele>
        <time>2019-09-28T08:03:59Z</time>
      </trkpt>
      <trkpt lat="44.11416" lon="7.01646">
        <ele>1908.35</ele>
        <time>2019-09-28T08:04:00Z</time>
      </trkpt>
      <trkpt lat="44.11412" lon="7.01646">
        <ele>1907.39</ele>
        <time>2019-09-28T08:04:01Z</time>
      </trkpt>
      <trkpt lat="44.11408" lon="7.01647">
        <ele>1906.91</ele>
        <time>2019-09-28T08:04:02Z</time>
      </trkpt>
      <trkpt lat="44.11404" lon="7.01648">
        <ele>1906.43</ele>
        <time>2019-09-28T08:04:03Z</time>
      </trkpt>
      <trkpt lat="44.11374" lon="7.01659">
        <ele>1904.51</ele>
        <time>2019-09-28T08:04:13Z</time>
      </trkpt>
      <trkpt lat="44.1135" lon="7.01672">
        <ele>1901.14</ele>
        <time>2019-09-28T08:04:23Z</time>
      </trkpt>
      <trkpt lat="44.1135" lon="7.01673">
        <ele>1899.22</ele>
        <time>2019-09-28T08:04:33Z</time>
      </trkpt>
      <trkpt lat="44.11347" lon="7.0167">
        <ele>1895.38</ele>
        <time>2019-09-28T08:05:03Z</time>
      </trkpt>
      <trkpt lat="44.1135" lon="7.01669">
        <ele>1893.93</ele>
        <time>2019-09-28T08:05:31Z</time>
      </trkpt>
      <trkpt lat="44.11348" lon="7.01671">
        <ele>1899.22</ele>
        <time>2019-09-28T08:06:05Z</time>
      </trkpt>
      <trkpt lat="44.11349" lon="7.0167">
        <ele>1901.14</ele>
        <time>2019-09-28T08:06:36Z</time>
      </trkpt>
      <trkpt lat="44.11347" lon="7.01668">
        <ele>1904.51</ele>
        <time>2019-09-28T08:07:05Z</time>
      </trkpt>
      <trkpt lat="44.11348" lon="7.01669">
        <ele>1903.07</ele>
        <time>2019-09-28T08:07:31Z</time>
      </trkpt>
      <trkpt lat="44.11346" lon="7.01671">
        <ele>1903.55</ele>
        <time>2019-09-28T08:08:03Z</time>
      </trkpt>
      <trkpt lat="44.11348" lon="7.0167">
        <ele>1902.59</ele>
        <time>2019-09-28T08:08:29Z</time>
      </trkpt>
      <trkpt lat="44.11349" lon="7.0167">
        <ele>1902.59</ele>
        <time>2019-09-28T08:08:56Z</time>
      </trkpt>
      <trkpt lat="44.11347" lon="7.01671">
        <ele>1901.63</ele>
        <time>2019-09-28T08:09:23Z</time>
      </trkpt>
      <trkpt lat="44.11347" lon="7.01669">
        <ele>1901.63</ele>
        <time>2019-09-28T08:09:52Z</time>
      </trkpt>
      <trkpt lat="44.11346" lon="7.01671">
        <ele>1901.14</ele>
        <time>2019-09-28T08:10:28Z</time>
      </trkpt>
      <trkpt lat="44.11344" lon="7.01668">
        <ele>1902.59</ele>
        <time>2019-09-28T08:10:57Z</time>
      </trkpt>
      <trkpt lat="44.11345" lon="7.01668">
        <ele>1902.11</ele>
        <time>2019-09-28T08:11:31Z</time>
      </trkpt>
      <trkpt lat="44.11346" lon="7.0167">
        <ele>1901.63</ele>
        <time>2019-09-28T08:12:04Z</time>
      </trkpt>
      <trkpt lat="44.11349" lon="7.01671">
        <ele>1899.22</ele>
        <time>2019-09-28T08:12:44Z</time>
      </trkpt>
      <trkpt lat="44.11346" lon="7.0167">
        <ele>1899.22</ele>
        <time>2019-09-28T08:13:18Z</time>
      </trkpt>
      <trkpt lat="44.11347" lon="7.0167">
        <ele>1898.26</ele>
        <time>2019-09-28T08:13:43Z</time>
      </trkpt>
      <trkpt lat="44.11346" lon="7.01672">
        <ele>1899.22</ele>
        <time>2019-09-28T08:14:17Z</time>
      </trkpt>
      <trkpt lat="44.11344" lon="7.0167">
        <ele>1904.99</ele>
        <time>2019-09-28T08:14:58Z</time>
      </trkpt>
      <trkpt lat="44.11348" lon="7.01672">
        <ele>1903.07</ele>
        <time>2019-09-28T08:15:16Z</time>
      </trkpt>
      <trkpt lat="44.11348" lon="7.01675">
        <ele>1903.55</ele>
        <time>2019-09-28T08:15:28Z</time>
      </trkpt>
      <trkpt lat="44.11348" lon="7.01678">
        <ele>1903.07</ele>
        <time>2019-09-28T08:15:29Z</time>
      </trkpt>
      <trkpt lat="44.11348" lon="7.01681">
        <ele>1902.59</ele>
        <time>2019-09-28T08:15:30Z</time>
      </trkpt>
      <trkpt lat="44.11348" lon="7.01684">
        <ele>1902.11</ele>
        <time>2019-09-28T08:15:31Z</time>
      </trkpt>
      <trkpt lat="44.11348" lon="7.01688">
        <ele>1901.14</ele>
        <time>2019-09-28T08:15:32Z</time>
      </trkpt>
      <trkpt lat="44.11348" lon="7.01692">
        <ele>1900.66</ele>
        <time>2019-09-28T08:15:33Z</time>
      </trkpt>
      <trkpt lat="44.11339" lon="7.01737">
        <ele>1891.53</ele>
        <time>2019-09-28T08:15:43Z</time>
      </trkpt>
      <trkpt lat="44.11338" lon="7.01756">
        <ele>1888.17</ele>
        <time>2019-09-28T08:15:48Z</time>
      </trkpt>
      <trkpt lat="44.11337" lon="7.01759">
        <ele>1887.69</ele>
        <time>2019-09-28T08:15:49Z</time>
      </trkpt>
      <trkpt lat="44.11336" lon="7.01762">
        <ele>1887.21</ele>
        <time>2019-09-28T08:15:50Z</time>
      </trkpt>
      <trkpt lat="44.11332" lon="7.0178">
        <ele>1885.76</ele>
        <time>2019-09-28T08:15:54Z</time>
      </trkpt>
      <trkpt lat="44.11329" lon="7.01798">
        <ele>1883.84</ele>
        <time>2019-09-28T08:15:57Z</time>
      </trkpt>
      <trkpt lat="44.11329" lon="7.01804">
        <ele>1883.36</ele>
        <time>2019-09-28T08:15:58Z</time>
      </trkpt>
      <trkpt lat="44.11328" lon="7.01811">
        <ele>1882.88</ele>
        <time>2019-09-28T08:15:59Z</time>
      </trkpt>
      <trkpt lat="44.11328" lon="7.01818">
        <ele>1881.92</ele>
        <time>2019-09-28T08:16:00Z</time>
      </trkpt>
      <trkpt lat="44.11327" lon="7.01824">
        <ele>1881.44</ele>
        <time>2019-09-28T08:16:01Z</time>
      </trkpt>
      <trkpt lat="44.11326" lon="7.01846">
        <ele>1879.51</ele>
        <time>2019-09-28T08:16:04Z</time>
      </trkpt>
      <trkpt lat="44.11325" lon="7.01852">
        <ele>1879.03</ele>
        <time>2019-09-28T08:16:05Z</time>
      </trkpt>
      <trkpt lat="44.11319" lon="7.01878">
        <ele>1877.59</ele>
        <time>2019-09-28T08:16:09Z</time>
      </trkpt>
      <trkpt lat="44.11317" lon="7.01884">
        <ele>1877.11</ele>
        <time>2019-09-28T08:16:10Z</time>
      </trkpt>
      <trkpt lat="44.11315" lon="7.01889">
        <ele>1876.63</ele>
        <time>2019-09-28T08:16:11Z</time>
      </trkpt>
      <trkpt lat="44.11313" lon="7.01894">
        <ele>1876.15</ele>
        <time>2019-09-28T08:16:12Z</time>
      </trkpt>
      <trkpt lat="44.11311" lon="7.019">
        <ele>1875.67</ele>
        <time>2019-09-28T08:16:13Z</time>
      </trkpt>
      <trkpt lat="44.11309" lon="7.01906">
        <ele>1875.19</ele>
        <time>2019-09-28T08:16:14Z</time>
      </trkpt>
      <trkpt lat="44.11308" lon="7.01912">
        <ele>1874.71</ele>
        <time>2019-09-28T08:16:15Z</time>
      </trkpt>
      <trkpt lat="44.11307" lon="7.01919">
        <ele>1874.23</ele>
        <time>2019-09-28T08:16:16Z</time>
      </trkpt>
      <trkpt lat="44.11305" lon="7.01925">
        <ele>1873.75</ele>
        <time>2019-09-28T08:16:17Z</time>
      </trkpt>
      <trkpt lat="44.11302" lon="7.0193">
        <ele>1873.75</ele>
        <time>2019-09-28T08:16:18Z</time>
      </trkpt>
      <trkpt lat="44.11299" lon="7.01936">
        <ele>1872.79</ele>
        <time>2019-09-28T08:16:19Z</time>
      </trkpt>
      <trkpt lat="44.11293" lon="7.01948">
        <ele>1871.82</ele>
        <time>2019-09-28T08:16:21Z</time>
      </trkpt>
      <trkpt lat="44.1129" lon="7.01953">
        <ele>1871.34</ele>
        <time>2019-09-28T08:16:22Z</time>
      </trkpt>
      <trkpt lat="44.11269" lon="7.01984">
        <ele>1866.06</ele>
        <time>2019-09-28T08:16:32Z</time>
      </trkpt>
      <trkpt lat="44.11263" lon="7.01991">
        <ele>1864.61</ele>
        <time>2019-09-28T08:16:37Z</time>
      </trkpt>
      <trkpt lat="44.11262" lon="7.01994">
        <ele>1864.61</ele>
        <time>2019-09-28T08:16:38Z</time>
      </trkpt>
      <trkpt lat="44.1126" lon="7.01996">
        <ele>1864.13</ele>
        <time>2019-09-28T08:16:39Z</time>
      </trkpt>
      <trkpt lat="44.11238" lon="7.02023">
        <ele>1862.69</ele>
        <time>2019-09-28T08:16:48Z</time>
      </trkpt>
      <trkpt lat="44.11234" lon="7.02028">
        <ele>1862.21</ele>
        <time>2019-09-28T08:16:49Z</time>
      </trkpt>
      <trkpt lat="44.11187" lon="7.02079">
        <ele>1850.19</ele>
        <time>2019-09-28T08:16:58Z</time>
      </trkpt>
      <trkpt lat="44.11162" lon="7.02108">
        <ele>1844.43</ele>
        <time>2019-09-28T08:17:03Z</time>
      </trkpt>
      <trkpt lat="44.11159" lon="7.02115">
        <ele>1843.47</ele>
        <time>2019-09-28T08:17:04Z</time>
      </trkpt>
      <trkpt lat="44.11156" lon="7.0212">
        <ele>1842.5</ele>
        <time>2019-09-28T08:17:05Z</time>
      </trkpt>
      <trkpt lat="44.11149" lon="7.02131">
        <ele>1841.06</ele>
        <time>2019-09-28T08:17:07Z</time>
      </trkpt>
      <trkpt lat="44.11145" lon="7.02135">
        <ele>1840.58</ele>
        <time>2019-09-28T08:17:08Z</time>
      </trkpt>
      <trkpt lat="44.11142" lon="7.02139">
        <ele>1839.62</ele>
        <time>2019-09-28T08:17:09Z</time>
      </trkpt>
      <trkpt lat="44.11139" lon="7.02145">
        <ele>1839.14</ele>
        <time>2019-09-28T08:17:10Z</time>
      </trkpt>
      <trkpt lat="44.11136" lon="7.0215">
        <ele>1838.66</ele>
        <time>2019-09-28T08:17:11Z</time>
      </trkpt>
      <trkpt lat="44.11133" lon="7.02155">
        <ele>1837.7</ele>
        <time>2019-09-28T08:17:12Z</time>
      </trkpt>
      <trkpt lat="44.1113" lon="7.02159">
        <ele>1836.74</ele>
        <time>2019-09-28T08:17:13Z</time>
      </trkpt>
      <trkpt lat="44.11128" lon="7.02162">
        <ele>1836.26</ele>
        <time>2019-09-28T08:17:14Z</time>
      </trkpt>
      <trkpt lat="44.11126" lon="7.02164">
        <ele>1835.77</ele>
        <time>2019-09-28T08:17:15Z</time>
      </trkpt>
      <trkpt lat="44.11122" lon="7.02167">
        <ele>1836.26</ele>
        <time>2019-09-28T08:17:24Z</time>
      </trkpt>
      <trkpt lat="44.11118" lon="7.0217">
        <ele>1836.26</ele>
        <time>2019-09-28T08:17:28Z</time>
      </trkpt>
      <trkpt lat="44.111" lon="7.02189">
        <ele>1834.81</ele>
        <time>2019-09-28T08:17:36Z</time>
      </trkpt>
      <trkpt lat="44.1107" lon="7.02215">
        <ele>1830.01</ele>
        <time>2019-09-28T08:17:46Z</time>
      </trkpt>
      <trkpt lat="44.1106" lon="7.02218">
        <ele>1827.6</ele>
        <time>2019-09-28T08:17:49Z</time>
      </trkpt>
      <trkpt lat="44.11056" lon="7.0222">
        <ele>1826.16</ele>
        <time>2019-09-28T08:17:50Z</time>
      </trkpt>
      <trkpt lat="44.11052" lon="7.02221">
        <ele>1825.2</ele>
        <time>2019-09-28T08:17:51Z</time>
      </trkpt>
      <trkpt lat="44.11049" lon="7.02223">
        <ele>1824.72</ele>
        <time>2019-09-28T08:17:52Z</time>
      </trkpt>
      <trkpt lat="44.11046" lon="7.02224">
        <ele>1823.76</ele>
        <time>2019-09-28T08:17:53Z</time>
      </trkpt>
      <trkpt lat="44.11043" lon="7.02226">
        <ele>1823.28</ele>
        <time>2019-09-28T08:17:54Z</time>
      </trkpt>
      <trkpt lat="44.1104" lon="7.02228">
        <ele>1822.8</ele>
        <time>2019-09-28T08:17:55Z</time>
      </trkpt>
      <trkpt lat="44.11037" lon="7.02229">
        <ele>1821.84</ele>
        <time>2019-09-28T08:17:56Z</time>
      </trkpt>
      <trkpt lat="44.11033" lon="7.02232">
        <ele>1821.35</ele>
        <time>2019-09-28T08:17:57Z</time>
      </trkpt>
      <trkpt lat="44.1103" lon="7.02235">
        <ele>1820.87</ele>
        <time>2019-09-28T08:17:58Z</time>
      </trkpt>
      <trkpt lat="44.11025" lon="7.02237">
        <ele>1819.91</ele>
        <time>2019-09-28T08:17:59Z</time>
      </trkpt>
      <trkpt lat="44.11022" lon="7.02238">
        <ele>1819.91</ele>
        <time>2019-09-28T08:18:00Z</time>
      </trkpt>
      <trkpt lat="44.11019" lon="7.0224">
        <ele>1819.43</ele>
        <time>2019-09-28T08:18:01Z</time>
      </trkpt>
      <trkpt lat="44.11011" lon="7.02243">
        <ele>1818.95</ele>
        <time>2019-09-28T08:18:03Z</time>
      </trkpt>
      <trkpt lat="44.11006" lon="7.02245">
        <ele>1818.47</ele>
        <time>2019-09-28T08:18:04Z</time>
      </trkpt>
      <trkpt lat="44.11002" lon="7.02249">
        <ele>1818.47</ele>
        <time>2019-09-28T08:18:05Z</time>
      </trkpt>
      <trkpt lat="44.10999" lon="7.02252">
        <ele>1818.47</ele>
        <time>2019-09-28T08:18:06Z</time>
      </trkpt>
      <trkpt lat="44.10996" lon="7.02256">
        <ele>1818.47</ele>
        <time>2019-09-28T08:18:07Z</time>
      </trkpt>
      <trkpt lat="44.10993" lon="7.0226">
        <ele>1817.99</ele>
        <time>2019-09-28T08:18:08Z</time>
      </trkpt>
      <trkpt lat="44.10989" lon="7.02266">
        <ele>1817.51</ele>
        <time>2019-09-28T08:18:09Z</time>
      </trkpt>
      <trkpt lat="44.10986" lon="7.02273">
        <ele>1817.03</ele>
        <time>2019-09-28T08:18:10Z</time>
      </trkpt>
      <trkpt lat="44.10982" lon="7.02282">
        <ele>1816.55</ele>
        <time>2019-09-28T08:18:11Z</time>
      </trkpt>
      <trkpt lat="44.10978" lon="7.0229">
        <ele>1816.55</ele>
        <time>2019-09-28T08:18:12Z</time>
      </trkpt>
      <trkpt lat="44.10974" lon="7.02298">
        <ele>1816.07</ele>
        <time>2019-09-28T08:18:13Z</time>
      </trkpt>
      <trkpt lat="44.10971" lon="7.02307">
        <ele>1816.07</ele>
        <time>2019-09-28T08:18:14Z</time>
      </trkpt>
      <trkpt lat="44.10968" lon="7.02315">
        <ele>1815.59</ele>
        <time>2019-09-28T08:18:15Z</time>
      </trkpt>
      <trkpt lat="44.10967" lon="7.02324">
        <ele>1815.59</ele>
        <time>2019-09-28T08:18:16Z</time>
      </trkpt>
      <trkpt lat="44.10966" lon="7.02332">
        <ele>1815.11</ele>
        <time>2019-09-28T08:18:17Z</time>
      </trkpt>
      <trkpt lat="44.10964" lon="7.0234">
        <ele>1815.11</ele>
        <time>2019-09-28T08:18:18Z</time>
      </trkpt>
      <trkpt lat="44.10962" lon="7.02349">
        <ele>1815.11</ele>
        <time>2019-09-28T08:18:19Z</time>
      </trkpt>
      <trkpt lat="44.10918" lon="7.02467">
        <ele>1810.78</ele>
        <time>2019-09-28T08:18:33Z</time>
      </trkpt>
      <trkpt lat="44.1089" lon="7.02519">
        <ele>1806.94</ele>
        <time>2019-09-28T08:18:39Z</time>
      </trkpt>
      <trkpt lat="44.10874" lon="7.02545">
        <ele>1805.01</ele>
        <time>2019-09-28T08:18:42Z</time>
      </trkpt>
      <trkpt lat="44.10868" lon="7.02552">
        <ele>1804.05</ele>
        <time>2019-09-28T08:18:43Z</time>
      </trkpt>
      <trkpt lat="44.10862" lon="7.0256">
        <ele>1802.61</ele>
        <time>2019-09-28T08:18:44Z</time>
      </trkpt>
      <trkpt lat="44.10858" lon="7.0257">
        <ele>1801.17</ele>
        <time>2019-09-28T08:18:45Z</time>
      </trkpt>
      <trkpt lat="44.10857" lon="7.02582">
        <ele>1800.21</ele>
        <time>2019-09-28T08:18:46Z</time>
      </trkpt>
      <trkpt lat="44.10858" lon="7.02595">
        <ele>1798.76</ele>
        <time>2019-09-28T08:18:47Z</time>
      </trkpt>
      <trkpt lat="44.10859" lon="7.02608">
        <ele>1797.32</ele>
        <time>2019-09-28T08:18:48Z</time>
      </trkpt>
      <trkpt lat="44.1086" lon="7.02621">
        <ele>1796.36</ele>
        <time>2019-09-28T08:18:49Z</time>
      </trkpt>
      <trkpt lat="44.10859" lon="7.02633">
        <ele>1794.92</ele>
        <time>2019-09-28T08:18:50Z</time>
      </trkpt>
      <trkpt lat="44.10857" lon="7.02642">
        <ele>1793.96</ele>
        <time>2019-09-28T08:18:51Z</time>
      </trkpt>
      <trkpt lat="44.10853" lon="7.02648">
        <ele>1792.52</ele>
        <time>2019-09-28T08:18:52Z</time>
      </trkpt>
      <trkpt lat="44.10849" lon="7.02655">
        <ele>1791.55</ele>
        <time>2019-09-28T08:18:53Z</time>
      </trkpt>
      <trkpt lat="44.10843" lon="7.02662">
        <ele>1790.11</ele>
        <time>2019-09-28T08:18:54Z</time>
      </trkpt>
      <trkpt lat="44.10836" lon="7.02669">
        <ele>1789.15</ele>
        <time>2019-09-28T08:18:55Z</time>
      </trkpt>
      <trkpt lat="44.10827" lon="7.02673">
        <ele>1787.71</ele>
        <time>2019-09-28T08:18:56Z</time>
      </trkpt>
      <trkpt lat="44.10819" lon="7.02677">
        <ele>1785.79</ele>
        <time>2019-09-28T08:18:57Z</time>
      </trkpt>
      <trkpt lat="44.10811" lon="7.0268">
        <ele>1784.34</ele>
        <time>2019-09-28T08:18:58Z</time>
      </trkpt>
      <trkpt lat="44.10795" lon="7.02685">
        <ele>1780.98</ele>
        <time>2019-09-28T08:19:00Z</time>
      </trkpt>
      <trkpt lat="44.10764" lon="7.02689">
        <ele>1775.21</ele>
        <time>2019-09-28T08:19:04Z</time>
      </trkpt>
      <trkpt lat="44.1074" lon="7.02684">
        <ele>1772.33</ele>
        <time>2019-09-28T08:19:07Z</time>
      </trkpt>
      <trkpt lat="44.10733" lon="7.02681">
        <ele>1771.85</ele>
        <time>2019-09-28T08:19:08Z</time>
      </trkpt>
      <trkpt lat="44.10727" lon="7.02678">
        <ele>1770.89</ele>
        <time>2019-09-28T08:19:09Z</time>
      </trkpt>
      <trkpt lat="44.10722" lon="7.02676">
        <ele>1769.92</ele>
        <time>2019-09-28T08:19:10Z</time>
      </trkpt>
      <trkpt lat="44.10718" lon="7.02676">
        <ele>1769.44</ele>
        <time>2019-09-28T08:19:11Z</time>
      </trkpt>
      <trkpt lat="44.10713" lon="7.02677">
        <ele>1768.48</ele>
        <time>2019-09-28T08:19:12Z</time>
      </trkpt>
      <trkpt lat="44.10709" lon="7.02678">
        <ele>1768</ele>
        <time>2019-09-28T08:19:13Z</time>
      </trkpt>
      <trkpt lat="44.10704" lon="7.02679">
        <ele>1767.52</ele>
        <time>2019-09-28T08:19:14Z</time>
      </trkpt>
      <trkpt lat="44.10688" lon="7.0268">
        <ele>1764.64</ele>
        <time>2019-09-28T08:19:18Z</time>
      </trkpt>
      <trkpt lat="44.10684" lon="7.0268">
        <ele>1763.68</ele>
        <time>2019-09-28T08:19:19Z</time>
      </trkpt>
      <trkpt lat="44.1068" lon="7.0268">
        <ele>1763.2</ele>
        <time>2019-09-28T08:19:20Z</time>
      </trkpt>
      <trkpt lat="44.10675" lon="7.02679">
        <ele>1762.71</ele>
        <time>2019-09-28T08:19:21Z</time>
      </trkpt>
      <trkpt lat="44.10671" lon="7.02678">
        <ele>1762.23</ele>
        <time>2019-09-28T08:19:22Z</time>
      </trkpt>
      <trkpt lat="44.10667" lon="7.02677">
        <ele>1761.75</ele>
        <time>2019-09-28T08:19:23Z</time>
      </trkpt>
      <trkpt lat="44.10663" lon="7.02675">
        <ele>1760.79</ele>
        <time>2019-09-28T08:19:24Z</time>
      </trkpt>
      <trkpt lat="44.10649" lon="7.02664">
        <ele>1757.43</ele>
        <time>2019-09-28T08:19:29Z</time>
      </trkpt>
      <trkpt lat="44.10647" lon="7.02664">
        <ele>1756.95</ele>
        <time>2019-09-28T08:19:30Z</time>
      </trkpt>
      <trkpt lat="44.10644" lon="7.02664">
        <ele>1755.99</ele>
        <time>2019-09-28T08:19:31Z</time>
      </trkpt>
      <trkpt lat="44.10643" lon="7.02663">
        <ele>1755.5</ele>
        <time>2019-09-28T08:19:32Z</time>
      </trkpt>
      <trkpt lat="44.10641" lon="7.0266">
        <ele>1754.06</ele>
        <time>2019-09-28T08:19:43Z</time>
      </trkpt>
      <trkpt lat="44.1064" lon="7.02659">
        <ele>1753.58</ele>
        <time>2019-09-28T08:19:47Z</time>
      </trkpt>
      <trkpt lat="44.10638" lon="7.02657">
        <ele>1753.1</ele>
        <time>2019-09-28T08:19:48Z</time>
      </trkpt>
      <trkpt lat="44.10635" lon="7.02655">
        <ele>1752.62</ele>
        <time>2019-09-28T08:19:49Z</time>
      </trkpt>
      <trkpt lat="44.10632" lon="7.02654">
        <ele>1752.62</ele>
        <time>2019-09-28T08:19:50Z</time>
      </trkpt>
      <trkpt lat="44.10629" lon="7.02653">
        <ele>1752.14</ele>
        <time>2019-09-28T08:19:51Z</time>
      </trkpt>
      <trkpt lat="44.10625" lon="7.0265">
        <ele>1751.66</ele>
        <time>2019-09-28T08:19:52Z</time>
      </trkpt>
      <trkpt lat="44.10608" lon="7.02642">
        <ele>1750.7</ele>
        <time>2019-09-28T08:19:55Z</time>
      </trkpt>
      <trkpt lat="44.10603" lon="7.02639">
        <ele>1750.22</ele>
        <time>2019-09-28T08:19:56Z</time>
      </trkpt>
      <trkpt lat="44.10577" lon="7.02628">
        <ele>1747.33</ele>
        <time>2019-09-28T08:20:01Z</time>
      </trkpt>
      <trkpt lat="44.10556" lon="7.0262">
        <ele>1744.45</ele>
        <time>2019-09-28T08:20:05Z</time>
      </trkpt>
      <trkpt lat="44.1055" lon="7.02618">
        <ele>1743.97</ele>
        <time>2019-09-28T08:20:06Z</time>
      </trkpt>
      <trkpt lat="44.10539" lon="7.02615">
        <ele>1742.05</ele>
        <time>2019-09-28T08:20:08Z</time>
      </trkpt>
      <trkpt lat="44.10533" lon="7.02615">
        <ele>1741.08</ele>
        <time>2019-09-28T08:20:09Z</time>
      </trkpt>
      <trkpt lat="44.10528" lon="7.02614">
        <ele>1740.12</ele>
        <time>2019-09-28T08:20:10Z</time>
      </trkpt>
      <trkpt lat="44.10522" lon="7.02614">
        <ele>1739.16</ele>
        <time>2019-09-28T08:20:11Z</time>
      </trkpt>
      <trkpt lat="44.10516" lon="7.02614">
        <ele>1738.68</ele>
        <time>2019-09-28T08:20:12Z</time>
      </trkpt>
      <trkpt lat="44.10512" lon="7.02615">
        <ele>1738.2</ele>
        <time>2019-09-28T08:20:13Z</time>
      </trkpt>
      <trkpt lat="44.10504" lon="7.02616">
        <ele>1736.76</ele>
        <time>2019-09-28T08:20:15Z</time>
      </trkpt>
      <trkpt lat="44.10499" lon="7.02618">
        <ele>1736.28</ele>
        <time>2019-09-28T08:20:16Z</time>
      </trkpt>
      <trkpt lat="44.10489" lon="7.0262">
        <ele>1734.84</ele>
        <time>2019-09-28T08:20:18Z</time>
      </trkpt>
      <trkpt lat="44.10483" lon="7.02621">
        <ele>1734.36</ele>
        <time>2019-09-28T08:20:19Z</time>
      </trkpt>
      <trkpt lat="44.10469" lon="7.02625">
        <ele>1733.39</ele>
        <time>2019-09-28T08:20:21Z</time>
      </trkpt>
      <trkpt lat="44.10462" lon="7.02625">
        <ele>1732.91</ele>
        <time>2019-09-28T08:20:22Z</time>
      </trkpt>
      <trkpt lat="44.10445" lon="7.02625">
        <ele>1730.51</ele>
        <time>2019-09-28T08:20:24Z</time>
      </trkpt>
      <trkpt lat="44.10437" lon="7.02623">
        <ele>1729.55</ele>
        <time>2019-09-28T08:20:25Z</time>
      </trkpt>
      <trkpt lat="44.10427" lon="7.02619">
        <ele>1728.11</ele>
        <time>2019-09-28T08:20:26Z</time>
      </trkpt>
      <trkpt lat="44.10418" lon="7.02614">
        <ele>1726.67</ele>
        <time>2019-09-28T08:20:27Z</time>
      </trkpt>
      <trkpt lat="44.10409" lon="7.02607">
        <ele>1725.7</ele>
        <time>2019-09-28T08:20:28Z</time>
      </trkpt>
      <trkpt lat="44.10401" lon="7.02597">
        <ele>1724.74</ele>
        <time>2019-09-28T08:20:29Z</time>
      </trkpt>
      <trkpt lat="44.10395" lon="7.02585">
        <ele>1723.78</ele>
        <time>2019-09-28T08:20:30Z</time>
      </trkpt>
      <trkpt lat="44.10392" lon="7.02574">
        <ele>1723.3</ele>
        <time>2019-09-28T08:20:31Z</time>
      </trkpt>
      <trkpt lat="44.10389" lon="7.02561">
        <ele>1722.82</ele>
        <time>2019-09-28T08:20:32Z</time>
      </trkpt>
      <trkpt lat="44.10385" lon="7.02538">
        <ele>1722.82</ele>
        <time>2019-09-28T08:20:34Z</time>
      </trkpt>
      <trkpt lat="44.10384" lon="7.02528">
        <ele>1722.82</ele>
        <time>2019-09-28T08:20:35Z</time>
      </trkpt>
      <trkpt lat="44.10379" lon="7.02506">
        <ele>1722.82</ele>
        <time>2019-09-28T08:20:38Z</time>
      </trkpt>
      <trkpt lat="44.10377" lon="7.02501">
        <ele>1722.82</ele>
        <time>2019-09-28T08:20:39Z</time>
      </trkpt>
      <trkpt lat="44.10375" lon="7.02498">
        <ele>1722.82</ele>
        <time>2019-09-28T08:20:40Z</time>
      </trkpt>
      <trkpt lat="44.10374" lon="7.02495">
        <ele>1723.3</ele>
        <time>2019-09-28T08:20:41Z</time>
      </trkpt>
      <trkpt lat="44.10373" lon="7.02492">
        <ele>1723.3</ele>
        <time>2019-09-28T08:20:42Z</time>
      </trkpt>
      <trkpt lat="44.10359" lon="7.02461">
        <ele>1721.86</ele>
        <time>2019-09-28T08:20:48Z</time>
      </trkpt>
      <trkpt lat="44.10352" lon="7.02451">
        <ele>1721.38</ele>
        <time>2019-09-28T08:20:50Z</time>
      </trkpt>
      <trkpt lat="44.10344" lon="7.02439">
        <ele>1720.9</ele>
        <time>2019-09-28T08:20:52Z</time>
      </trkpt>
      <trkpt lat="44.10341" lon="7.02432">
        <ele>1720.9</ele>
        <time>2019-09-28T08:20:53Z</time>
      </trkpt>
      <trkpt lat="44.10331" lon="7.02418">
        <ele>1719.46</ele>
        <time>2019-09-28T08:20:55Z</time>
      </trkpt>
      <trkpt lat="44.10326" lon="7.02411">
        <ele>1718.97</ele>
        <time>2019-09-28T08:20:56Z</time>
      </trkpt>
      <trkpt lat="44.1032" lon="7.02402">
        <ele>1718.01</ele>
        <time>2019-09-28T08:20:57Z</time>
      </trkpt>
      <trkpt lat="44.10311" lon="7.0239">
        <ele>1716.57</ele>
        <time>2019-09-28T08:20:59Z</time>
      </trkpt>
      <trkpt lat="44.10304" lon="7.02384">
        <ele>1716.09</ele>
        <time>2019-09-28T08:21:00Z</time>
      </trkpt>
      <trkpt lat="44.10299" lon="7.0238">
        <ele>1715.61</ele>
        <time>2019-09-28T08:21:01Z</time>
      </trkpt>
      <trkpt lat="44.10281" lon="7.02364">
        <ele>1713.69</ele>
        <time>2019-09-28T08:21:04Z</time>
      </trkpt>
      <trkpt lat="44.10276" lon="7.02361">
        <ele>1713.21</ele>
        <time>2019-09-28T08:21:05Z</time>
      </trkpt>
      <trkpt lat="44.10271" lon="7.02357">
        <ele>1712.73</ele>
        <time>2019-09-28T08:21:06Z</time>
      </trkpt>
      <trkpt lat="44.10266" lon="7.02352">
        <ele>1711.76</ele>
        <time>2019-09-28T08:21:07Z</time>
      </trkpt>
      <trkpt lat="44.1026" lon="7.02346">
        <ele>1711.28</ele>
        <time>2019-09-28T08:21:08Z</time>
      </trkpt>
      <trkpt lat="44.10242" lon="7.0233">
        <ele>1709.36</ele>
        <time>2019-09-28T08:21:11Z</time>
      </trkpt>
      <trkpt lat="44.10237" lon="7.02325">
        <ele>1708.88</ele>
        <time>2019-09-28T08:21:12Z</time>
      </trkpt>
      <trkpt lat="44.10232" lon="7.0232">
        <ele>1708.4</ele>
        <time>2019-09-28T08:21:13Z</time>
      </trkpt>
      <trkpt lat="44.10227" lon="7.02316">
        <ele>1707.44</ele>
        <time>2019-09-28T08:21:14Z</time>
      </trkpt>
      <trkpt lat="44.1022" lon="7.02313">
        <ele>1706.48</ele>
        <time>2019-09-28T08:21:15Z</time>
      </trkpt>
      <trkpt lat="44.10214" lon="7.02311">
        <ele>1705.52</ele>
        <time>2019-09-28T08:21:16Z</time>
      </trkpt>
      <trkpt lat="44.10208" lon="7.02308">
        <ele>1704.55</ele>
        <time>2019-09-28T08:21:17Z</time>
      </trkpt>
      <trkpt lat="44.10203" lon="7.02307">
        <ele>1703.59</ele>
        <time>2019-09-28T08:21:18Z</time>
      </trkpt>
      <trkpt lat="44.10198" lon="7.02306">
        <ele>1702.63</ele>
        <time>2019-09-28T08:21:19Z</time>
      </trkpt>
      <trkpt lat="44.10193" lon="7.02305">
        <ele>1701.67</ele>
        <time>2019-09-28T08:21:20Z</time>
      </trkpt>
      <trkpt lat="44.10189" lon="7.02303">
        <ele>1700.23</ele>
        <time>2019-09-28T08:21:21Z</time>
      </trkpt>
      <trkpt lat="44.10184" lon="7.02301">
        <ele>1699.27</ele>
        <time>2019-09-28T08:21:22Z</time>
      </trkpt>
      <trkpt lat="44.1015" lon="7.02307">
        <ele>1692.54</ele>
        <time>2019-09-28T08:21:31Z</time>
      </trkpt>
      <trkpt lat="44.10126" lon="7.02317">
        <ele>1689.17</ele>
        <time>2019-09-28T08:21:38Z</time>
      </trkpt>
      <trkpt lat="44.10109" lon="7.02315">
        <ele>1688.21</ele>
        <time>2019-09-28T08:21:42Z</time>
      </trkpt>
      <trkpt lat="44.10105" lon="7.02315">
        <ele>1688.21</ele>
        <time>2019-09-28T08:21:43Z</time>
      </trkpt>
      <trkpt lat="44.101" lon="7.02316">
        <ele>1688.21</ele>
        <time>2019-09-28T08:21:44Z</time>
      </trkpt>
      <trkpt lat="44.10086" lon="7.02319">
        <ele>1688.21</ele>
        <time>2019-09-28T08:21:47Z</time>
      </trkpt>
      <trkpt lat="44.10082" lon="7.02319">
        <ele>1688.21</ele>
        <time>2019-09-28T08:21:48Z</time>
      </trkpt>
      <trkpt lat="44.10078" lon="7.02318">
        <ele>1688.21</ele>
        <time>2019-09-28T08:21:49Z</time>
      </trkpt>
      <trkpt lat="44.10073" lon="7.02314">
        <ele>1687.25</ele>
        <time>2019-09-28T08:21:50Z</time>
      </trkpt>
      <trkpt lat="44.10069" lon="7.02312">
        <ele>1686.77</ele>
        <time>2019-09-28T08:21:51Z</time>
      </trkpt>
      <trkpt lat="44.10064" lon="7.0231">
        <ele>1686.29</ele>
        <time>2019-09-28T08:21:52Z</time>
      </trkpt>
      <trkpt lat="44.1006" lon="7.0231">
        <ele>1685.81</ele>
        <time>2019-09-28T08:21:53Z</time>
      </trkpt>
      <trkpt lat="44.10056" lon="7.0231">
        <ele>1685.33</ele>
        <time>2019-09-28T08:21:54Z</time>
      </trkpt>
      <trkpt lat="44.10053" lon="7.02311">
        <ele>1685.33</ele>
        <time>2019-09-28T08:21:55Z</time>
      </trkpt>
      <trkpt lat="44.1005" lon="7.0231">
        <ele>1684.85</ele>
        <time>2019-09-28T08:21:56Z</time>
      </trkpt>
      <trkpt lat="44.10047" lon="7.02311">
        <ele>1684.85</ele>
        <time>2019-09-28T08:21:57Z</time>
      </trkpt>
      <trkpt lat="44.10044" lon="7.02312">
        <ele>1684.37</ele>
        <time>2019-09-28T08:21:58Z</time>
      </trkpt>
      <trkpt lat="44.10042" lon="7.02313">
        <ele>1683.89</ele>
        <time>2019-09-28T08:21:59Z</time>
      </trkpt>
      <trkpt lat="44.10036" lon="7.02319">
        <ele>1682.44</ele>
        <time>2019-09-28T08:22:07Z</time>
      </trkpt>
      <trkpt lat="44.10032" lon="7.02325">
        <ele>1681</ele>
        <time>2019-09-28T08:22:11Z</time>
      </trkpt>
      <trkpt lat="44.10033" lon="7.02327">
        <ele>1681</ele>
        <time>2019-09-28T08:22:12Z</time>
      </trkpt>
      <trkpt lat="44.10033" lon="7.0233">
        <ele>1680.52</ele>
        <time>2019-09-28T08:22:13Z</time>
      </trkpt>
      <trkpt lat="44.10034" lon="7.02332">
        <ele>1680.52</ele>
        <time>2019-09-28T08:22:14Z</time>
      </trkpt>
      <trkpt lat="44.10034" lon="7.02334">
        <ele>1680.52</ele>
        <time>2019-09-28T08:22:15Z</time>
      </trkpt>
      <trkpt lat="44.10035" lon="7.02339">
        <ele>1681</ele>
        <time>2019-09-28T08:22:18Z</time>
      </trkpt>
      <trkpt lat="44.10034" lon="7.02341">
        <ele>1681</ele>
        <time>2019-09-28T08:22:19Z</time>
      </trkpt>
      <trkpt lat="44.10033" lon="7.02343">
        <ele>1680.52</ele>
        <time>2019-09-28T08:22:20Z</time>
      </trkpt>
      <trkpt lat="44.10033" lon="7.02344">
        <ele>1680.04</ele>
        <time>2019-09-28T08:22:34Z</time>
      </trkpt>
      <trkpt lat="44.10033" lon="7.02347">
        <ele>1680.52</ele>
        <time>2019-09-28T08:22:44Z</time>
      </trkpt>
      <trkpt lat="44.10033" lon="7.02347">
        <ele>1681</ele>
        <time>2019-09-28T08:23:20Z</time>
      </trkpt>
      <trkpt lat="44.10034" lon="7.02346">
        <ele>1680.52</ele>
        <time>2019-09-28T08:23:36Z</time>
      </trkpt>
      <trkpt lat="44.10036" lon="7.02347">
        <ele>1681.96</ele>
        <time>2019-09-28T08:24:01Z</time>
      </trkpt>
      <trkpt lat="44.10036" lon="7.02347">
        <ele>1681</ele>
        <time>2019-09-28T08:24:29Z</time>
      </trkpt>
      <trkpt lat="44.10035" lon="7.02347">
        <ele>1681</ele>
        <time>2019-09-28T08:24:59Z</time>
      </trkpt>
      <trkpt lat="44.10034" lon="7.02346">
        <ele>1681.48</ele>
        <time>2019-09-28T08:25:19Z</time>
      </trkpt>
      <trkpt lat="44.10034" lon="7.02346">
        <ele>1681.48</ele>
        <time>2019-09-28T08:25:41Z</time>
      </trkpt>
      <trkpt lat="44.10035" lon="7.02346">
        <ele>1682.44</ele>
        <time>2019-09-28T08:25:59Z</time>
      </trkpt>
      <trkpt lat="44.10035" lon="7.02348">
        <ele>1682.44</ele>
        <time>2019-09-28T08:26:19Z</time>
      </trkpt>
      <trkpt lat="44.10037" lon="7.02351">
        <ele>1682.44</ele>
        <time>2019-09-28T08:26:21Z</time>
      </trkpt>
      <trkpt lat="44.10039" lon="7.02354">
        <ele>1682.44</ele>
        <time>2019-09-28T08:26:22Z</time>
      </trkpt>
      <trkpt lat="44.10046" lon="7.02365">
        <ele>1682.93</ele>
        <time>2019-09-28T08:26:25Z</time>
      </trkpt>
      <trkpt lat="44.1005" lon="7.02369">
        <ele>1683.41</ele>
        <time>2019-09-28T08:26:26Z</time>
      </trkpt>
      <trkpt lat="44.10055" lon="7.02372">
        <ele>1683.41</ele>
        <time>2019-09-28T08:26:27Z</time>
      </trkpt>
      <trkpt lat="44.10059" lon="7.02374">
        <ele>1683.89</ele>
        <time>2019-09-28T08:26:28Z</time>
      </trkpt>
      <trkpt lat="44.10064" lon="7.02375">
        <ele>1683.89</ele>
        <time>2019-09-28T08:26:29Z</time>
      </trkpt>
      <trkpt lat="44.10068" lon="7.02376">
        <ele>1683.89</ele>
        <time>2019-09-28T08:26:30Z</time>
      </trkpt>
      <trkpt lat="44.10077" lon="7.02378">
        <ele>1684.37</ele>
        <time>2019-09-28T08:26:32Z</time>
      </trkpt>
      <trkpt lat="44.10081" lon="7.02381">
        <ele>1684.37</ele>
        <time>2019-09-28T08:26:33Z</time>
      </trkpt>
      <trkpt lat="44.10084" lon="7.02385">
        <ele>1684.85</ele>
        <time>2019-09-28T08:26:34Z</time>
      </trkpt>
      <trkpt lat="44.10086" lon="7.0239">
        <ele>1685.33</ele>
        <time>2019-09-28T08:26:35Z</time>
      </trkpt>
      <trkpt lat="44.10089" lon="7.02395">
        <ele>1685.33</ele>
        <time>2019-09-28T08:26:36Z</time>
      </trkpt>
      <trkpt lat="44.10099" lon="7.02415">
        <ele>1685.81</ele>
        <time>2019-09-28T08:26:40Z</time>
      </trkpt>
      <trkpt lat="44.10101" lon="7.02421">
        <ele>1685.81</ele>
        <time>2019-09-28T08:26:41Z</time>
      </trkpt>
      <trkpt lat="44.10102" lon="7.02426">
        <ele>1686.29</ele>
        <time>2019-09-28T08:26:42Z</time>
      </trkpt>
      <trkpt lat="44.10102" lon="7.02432">
        <ele>1686.29</ele>
        <time>2019-09-28T08:26:43Z</time>
      </trkpt>
      <trkpt lat="44.10101" lon="7.02437">
        <ele>1686.29</ele>
        <time>2019-09-28T08:26:44Z</time>
      </trkpt>
      <trkpt lat="44.10099" lon="7.02443">
        <ele>1686.77</ele>
        <time>2019-09-28T08:26:45Z</time>
      </trkpt>
      <trkpt lat="44.10097" lon="7.02447">
        <ele>1686.77</ele>
        <time>2019-09-28T08:26:46Z</time>
      </trkpt>
      <trkpt lat="44.10095" lon="7.02451">
        <ele>1687.25</ele>
        <time>2019-09-28T08:26:47Z</time>
      </trkpt>
      <trkpt lat="44.10092" lon="7.02454">
        <ele>1687.25</ele>
        <time>2019-09-28T08:26:48Z</time>
      </trkpt>
      <trkpt lat="44.10088" lon="7.02457">
        <ele>1687.73</ele>
        <time>2019-09-28T08:26:49Z</time>
      </trkpt>
      <trkpt lat="44.10085" lon="7.02461">
        <ele>1688.21</ele>
        <time>2019-09-28T08:26:50Z</time>
      </trkpt>
      <trkpt lat="44.10082" lon="7.02464">
        <ele>1688.21</ele>
        <time>2019-09-28T08:26:51Z</time>
      </trkpt>
      <trkpt lat="44.10039" lon="7.02506">
        <ele>1692.06</ele>
        <time>2019-09-28T08:27:05Z</time>
      </trkpt>
      <trkpt lat="44.10034" lon="7.02569">
        <ele>1693.02</ele>
        <time>2019-09-28T08:27:17Z</time>
      </trkpt>
      <trkpt lat="44.10034" lon="7.02632">
        <ele>1693.5</ele>
        <time>2019-09-28T08:27:28Z</time>
      </trkpt>
      <trkpt lat="44.10034" lon="7.02638">
        <ele>1693.5</ele>
        <time>2019-09-28T08:27:29Z</time>
      </trkpt>
      <trkpt lat="44.10044" lon="7.02708">
        <ele>1691.58</ele>
        <time>2019-09-28T08:27:43Z</time>
      </trkpt>
      <trkpt lat="44.10057" lon="7.02723">
        <ele>1690.14</ele>
        <time>2019-09-28T08:27:51Z</time>
      </trkpt>
      <trkpt lat="44.10057" lon="7.02726">
        <ele>1689.65</ele>
        <time>2019-09-28T08:27:53Z</time>
      </trkpt>
      <trkpt lat="44.10044" lon="7.02735">
        <ele>1690.14</ele>
        <time>2019-09-28T08:27:59Z</time>
      </trkpt>
      <trkpt lat="44.10039" lon="7.02742">
        <ele>1690.62</ele>
        <time>2019-09-28T08:28:08Z</time>
      </trkpt>
      <trkpt lat="44.10038" lon="7.02741">
        <ele>1691.58</ele>
        <time>2019-09-28T08:28:32Z</time>
      </trkpt>
      <trkpt lat="44.10037" lon="7.02741">
        <ele>1692.54</ele>
        <time>2019-09-28T08:29:01Z</time>
      </trkpt>
      <trkpt lat="44.10039" lon="7.02742">
        <ele>1692.06</ele>
        <time>2019-09-28T08:29:25Z</time>
      </trkpt>
      <trkpt lat="44.10036" lon="7.0274">
        <ele>1691.58</ele>
        <time>2019-09-28T08:29:51Z</time>
      </trkpt>
      <trkpt lat="44.10034" lon="7.02739">
        <ele>1693.98</ele>
        <time>2019-09-28T08:30:15Z</time>
      </trkpt>
      <trkpt lat="44.1004" lon="7.02739">
        <ele>1692.54</ele>
        <time>2019-09-28T08:30:24Z</time>
      </trkpt>
      <trkpt lat="44.10041" lon="7.02738">
        <ele>1690.62</ele>
        <time>2019-09-28T08:30:30Z</time>
      </trkpt>
      <trkpt lat="44.10041" lon="7.0273">
        <ele>1690.62</ele>
        <time>2019-09-28T08:30:33Z</time>
      </trkpt>
      <trkpt lat="44.10043" lon="7.02729">
        <ele>1690.62</ele>
        <time>2019-09-28T08:30:34Z</time>
      </trkpt>
      <trkpt lat="44.10045" lon="7.02728">
        <ele>1690.62</ele>
        <time>2019-09-28T08:30:35Z</time>
      </trkpt>
      <trkpt lat="44.10047" lon="7.02727">
        <ele>1690.62</ele>
        <time>2019-09-28T08:30:36Z</time>
      </trkpt>
      <trkpt lat="44.10049" lon="7.02726">
        <ele>1690.14</ele>
        <time>2019-09-28T08:30:37Z</time>
      </trkpt>
      <trkpt lat="44.1005" lon="7.02725">
        <ele>1690.14</ele>
        <time>2019-09-28T08:30:38Z</time>
      </trkpt>
      <trkpt lat="44.10052" lon="7.02724">
        <ele>1690.14</ele>
        <time>2019-09-28T08:30:39Z</time>
      </trkpt>
      <trkpt lat="44.10054" lon="7.02723">
        <ele>1690.14</ele>
        <time>2019-09-28T08:30:40Z</time>
      </trkpt>
      <trkpt lat="44.10056" lon="7.02722">
        <ele>1690.14</ele>
        <time>2019-09-28T08:30:41Z</time>
      </trkpt>
      <trkpt lat="44.10059" lon="7.02721">
        <ele>1690.14</ele>
        <time>2019-09-28T08:30:42Z</time>
      </trkpt>
      <trkpt lat="44.10063" lon="7.02721">
        <ele>1690.14</ele>
        <time>2019-09-28T08:30:43Z</time>
      </trkpt>
      <trkpt lat="44.10066" lon="7.02721">
        <ele>1690.14</ele>
        <time>2019-09-28T08:30:44Z</time>
      </trkpt>
      <trkpt lat="44.10076" lon="7.0272">
        <ele>1690.14</ele>
        <time>2019-09-28T08:30:46Z</time>
      </trkpt>
      <trkpt lat="44.10081" lon="7.02718">
        <ele>1690.62</ele>
        <time>2019-09-28T08:30:47Z</time>
      </trkpt>
      <trkpt lat="44.10085" lon="7.02715">
        <ele>1690.62</ele>
        <time>2019-09-28T08:30:48Z</time>
      </trkpt>
      <trkpt lat="44.1009" lon="7.02711">
        <ele>1690.62</ele>
        <time>2019-09-28T08:30:49Z</time>
      </trkpt>
      <trkpt lat="44.10093" lon="7.02708">
        <ele>1690.62</ele>
        <time>2019-09-28T08:30:50Z</time>
      </trkpt>
      <trkpt lat="44.10098" lon="7.02703">
        <ele>1690.62</ele>
        <time>2019-09-28T08:30:51Z</time>
      </trkpt>
      <trkpt lat="44.10136" lon="7.0266">
        <ele>1692.06</ele>
        <time>2019-09-28T08:31:01Z</time>
      </trkpt>
      <trkpt lat="44.1014" lon="7.02656">
        <ele>1692.06</ele>
        <time>2019-09-28T08:31:02Z</time>
      </trkpt>
      <trkpt lat="44.10145" lon="7.02654">
        <ele>1692.06</ele>
        <time>2019-09-28T08:31:03Z</time>
      </trkpt>
      <trkpt lat="44.10149" lon="7.02654">
        <ele>1692.06</ele>
        <time>2019-09-28T08:31:04Z</time>
      </trkpt>
      <trkpt lat="44.10153" lon="7.02656">
        <ele>1692.06</ele>
        <time>2019-09-28T08:31:05Z</time>
      </trkpt>
      <trkpt lat="44.10158" lon="7.02658">
        <ele>1692.06</ele>
        <time>2019-09-28T08:31:06Z</time>
      </trkpt>
      <trkpt lat="44.10162" lon="7.02659">
        <ele>1692.06</ele>
        <time>2019-09-28T08:31:07Z</time>
      </trkpt>
      <trkpt lat="44.10168" lon="7.02659">
        <ele>1692.06</ele>
        <time>2019-09-28T08:31:08Z</time>
      </trkpt>
      <trkpt lat="44.10174" lon="7.02659">
        <ele>1692.06</ele>
        <time>2019-09-28T08:31:09Z</time>
      </trkpt>
      <trkpt lat="44.1018" lon="7.02657">
        <ele>1692.06</ele>
        <time>2019-09-28T08:31:10Z</time>
      </trkpt>
      <trkpt lat="44.10185" lon="7.02655">
        <ele>1692.54</ele>
        <time>2019-09-28T08:31:11Z</time>
      </trkpt>
      <trkpt lat="44.1019" lon="7.02652">
        <ele>1692.54</ele>
        <time>2019-09-28T08:31:12Z</time>
      </trkpt>
      <trkpt lat="44.10196" lon="7.02651">
        <ele>1692.54</ele>
        <time>2019-09-28T08:31:13Z</time>
      </trkpt>
      <trkpt lat="44.102" lon="7.02652">
        <ele>1692.54</ele>
        <time>2019-09-28T08:31:14Z</time>
      </trkpt>
      <trkpt lat="44.10205" lon="7.02655">
        <ele>1692.54</ele>
        <time>2019-09-28T08:31:15Z</time>
      </trkpt>
      <trkpt lat="44.10209" lon="7.0266">
        <ele>1692.54</ele>
        <time>2019-09-28T08:31:16Z</time>
      </trkpt>
      <trkpt lat="44.10212" lon="7.02664">
        <ele>1692.54</ele>
        <time>2019-09-28T08:31:17Z</time>
      </trkpt>
      <trkpt lat="44.10215" lon="7.02669">
        <ele>1692.06</ele>
        <time>2019-09-28T08:31:18Z</time>
      </trkpt>
      <trkpt lat="44.10218" lon="7.02675">
        <ele>1692.06</ele>
        <time>2019-09-28T08:31:19Z</time>
      </trkpt>
      <trkpt lat="44.1022" lon="7.0268">
        <ele>1691.58</ele>
        <time>2019-09-28T08:31:20Z</time>
      </trkpt>
      <trkpt lat="44.10232" lon="7.02702">
        <ele>1691.1</ele>
        <time>2019-09-28T08:31:24Z</time>
      </trkpt>
      <trkpt lat="44.10237" lon="7.02707">
        <ele>1690.62</ele>
        <time>2019-09-28T08:31:25Z</time>
      </trkpt>
      <trkpt lat="44.10241" lon="7.02708">
        <ele>1690.62</ele>
        <time>2019-09-28T08:31:26Z</time>
      </trkpt>
      <trkpt lat="44.10247" lon="7.02707">
        <ele>1690.14</ele>
        <time>2019-09-28T08:31:27Z</time>
      </trkpt>
      <trkpt lat="44.10252" lon="7.02706">
        <ele>1690.14</ele>
        <time>2019-09-28T08:31:28Z</time>
      </trkpt>
      <trkpt lat="44.10277" lon="7.027">
        <ele>1688.69</ele>
        <time>2019-09-28T08:31:32Z</time>
      </trkpt>
      <trkpt lat="44.10283" lon="7.02701">
        <ele>1688.69</ele>
        <time>2019-09-28T08:31:33Z</time>
      </trkpt>
      <trkpt lat="44.10289" lon="7.02703">
        <ele>1688.21</ele>
        <time>2019-09-28T08:31:34Z</time>
      </trkpt>
      <trkpt lat="44.10301" lon="7.0271">
        <ele>1687.73</ele>
        <time>2019-09-28T08:31:36Z</time>
      </trkpt>
      <trkpt lat="44.10305" lon="7.02714">
        <ele>1687.73</ele>
        <time>2019-09-28T08:31:37Z</time>
      </trkpt>
      <trkpt lat="44.10308" lon="7.02719">
        <ele>1687.73</ele>
        <time>2019-09-28T08:31:38Z</time>
      </trkpt>
      <trkpt lat="44.10308" lon="7.02725">
        <ele>1687.73</ele>
        <time>2019-09-28T08:31:39Z</time>
      </trkpt>
      <trkpt lat="44.10306" lon="7.02729">
        <ele>1687.73</ele>
        <time>2019-09-28T08:31:40Z</time>
      </trkpt>
      <trkpt lat="44.10304" lon="7.02733">
        <ele>1687.73</ele>
        <time>2019-09-28T08:31:41Z</time>
      </trkpt>
      <trkpt lat="44.103" lon="7.02737">
        <ele>1687.25</ele>
        <time>2019-09-28T08:31:42Z</time>
      </trkpt>
      <trkpt lat="44.10296" lon="7.0274">
        <ele>1687.25</ele>
        <time>2019-09-28T08:31:43Z</time>
      </trkpt>
      <trkpt lat="44.10293" lon="7.02745">
        <ele>1686.77</ele>
        <time>2019-09-28T08:31:44Z</time>
      </trkpt>
      <trkpt lat="44.1029" lon="7.0275">
        <ele>1686.77</ele>
        <time>2019-09-28T08:31:45Z</time>
      </trkpt>
      <trkpt lat="44.10287" lon="7.02756">
        <ele>1686.29</ele>
        <time>2019-09-28T08:31:46Z</time>
      </trkpt>
      <trkpt lat="44.10232" lon="7.02833">
        <ele>1683.41</ele>
        <time>2019-09-28T08:32:01Z</time>
      </trkpt>
      <trkpt lat="44.10229" lon="7.02839">
        <ele>1683.41</ele>
        <time>2019-09-28T08:32:02Z</time>
      </trkpt>
      <trkpt lat="44.10223" lon="7.02851">
        <ele>1682.93</ele>
        <time>2019-09-28T08:32:04Z</time>
      </trkpt>
      <trkpt lat="44.10211" lon="7.02901">
        <ele>1681.96</ele>
        <time>2019-09-28T08:32:11Z</time>
      </trkpt>
      <trkpt lat="44.10209" lon="7.02909">
        <ele>1681.48</ele>
        <time>2019-09-28T08:32:12Z</time>
      </trkpt>
      <trkpt lat="44.10209" lon="7.02916">
        <ele>1681.48</ele>
        <time>2019-09-28T08:32:13Z</time>
      </trkpt>
      <trkpt lat="44.10208" lon="7.02923">
        <ele>1681.48</ele>
        <time>2019-09-28T08:32:14Z</time>
      </trkpt>
      <trkpt lat="44.10208" lon="7.02928">
        <ele>1681.48</ele>
        <time>2019-09-28T08:32:15Z</time>
      </trkpt>
      <trkpt lat="44.10208" lon="7.02931">
        <ele>1681.48</ele>
        <time>2019-09-28T08:32:16Z</time>
      </trkpt>
      <trkpt lat="44.10204" lon="7.02977">
        <ele>1686.29</ele>
        <time>2019-09-28T08:32:29Z</time>
      </trkpt>
      <trkpt lat="44.10208" lon="7.03018">
        <ele>1689.17</ele>
        <time>2019-09-28T08:32:39Z</time>
      </trkpt>
      <trkpt lat="44.10225" lon="7.03054">
        <ele>1690.14</ele>
        <time>2019-09-28T08:32:51Z</time>
      </trkpt>
      <trkpt lat="44.10241" lon="7.03097">
        <ele>1694.46</ele>
        <time>2019-09-28T08:33:05Z</time>
      </trkpt>
      <trkpt lat="44.10255" lon="7.03138">
        <ele>1699.27</ele>
        <time>2019-09-28T08:33:18Z</time>
      </trkpt>
      <trkpt lat="44.10277" lon="7.03175">
        <ele>1701.67</ele>
        <time>2019-09-28T08:33:33Z</time>
      </trkpt>
      <trkpt lat="44.10306" lon="7.03208">
        <ele>1703.59</ele>
        <time>2019-09-28T08:33:47Z</time>
      </trkpt>
      <trkpt lat="44.10338" lon="7.03256">
        <ele>1704.07</ele>
        <time>2019-09-28T08:34:00Z</time>
      </trkpt>
      <trkpt lat="44.10351" lon="7.03311">
        <ele>1705.04</ele>
        <time>2019-09-28T08:34:12Z</time>
      </trkpt>
      <trkpt lat="44.10341" lon="7.0335">
        <ele>1705.52</ele>
        <time>2019-09-28T08:34:20Z</time>
      </trkpt>
      <trkpt lat="44.10339" lon="7.03355">
        <ele>1705.52</ele>
        <time>2019-09-28T08:34:21Z</time>
      </trkpt>
      <trkpt lat="44.10328" lon="7.03384">
        <ele>1704.07</ele>
        <time>2019-09-28T08:34:26Z</time>
      </trkpt>
      <trkpt lat="44.1031" lon="7.03414">
        <ele>1702.63</ele>
        <time>2019-09-28T08:34:36Z</time>
      </trkpt>
      <trkpt lat="44.10301" lon="7.03434">
        <ele>1702.15</ele>
        <time>2019-09-28T08:34:48Z</time>
      </trkpt>
      <trkpt lat="44.10293" lon="7.03451">
        <ele>1701.67</ele>
        <time>2019-09-28T08:35:00Z</time>
      </trkpt>
      <trkpt lat="44.10264" lon="7.03505">
        <ele>1699.75</ele>
        <time>2019-09-28T08:35:09Z</time>
      </trkpt>
      <trkpt lat="44.10261" lon="7.03518">
        <ele>1699.75</ele>
        <time>2019-09-28T08:35:11Z</time>
      </trkpt>
      <trkpt lat="44.10254" lon="7.03555">
        <ele>1697.34</ele>
        <time>2019-09-28T08:35:16Z</time>
      </trkpt>
      <trkpt lat="44.1025" lon="7.03563">
        <ele>1696.86</ele>
        <time>2019-09-28T08:35:17Z</time>
      </trkpt>
      <trkpt lat="44.10246" lon="7.03572">
        <ele>1695.9</ele>
        <time>2019-09-28T08:35:18Z</time>
      </trkpt>
      <trkpt lat="44.10235" lon="7.03597">
        <ele>1693.98</ele>
        <time>2019-09-28T08:35:21Z</time>
      </trkpt>
      <trkpt lat="44.10233" lon="7.03605">
        <ele>1693.5</ele>
        <time>2019-09-28T08:35:22Z</time>
      </trkpt>
      <trkpt lat="44.10233" lon="7.03615">
        <ele>1692.54</ele>
        <time>2019-09-28T08:35:23Z</time>
      </trkpt>
      <trkpt lat="44.10232" lon="7.03632">
        <ele>1691.58</ele>
        <time>2019-09-28T08:35:25Z</time>
      </trkpt>
      <trkpt lat="44.10231" lon="7.03642">
        <ele>1691.1</ele>
        <time>2019-09-28T08:35:26Z</time>
      </trkpt>
      <trkpt lat="44.10222" lon="7.03693">
        <ele>1687.73</ele>
        <time>2019-09-28T08:35:31Z</time>
      </trkpt>
      <trkpt lat="44.10215" lon="7.03713">
        <ele>1686.77</ele>
        <time>2019-09-28T08:35:33Z</time>
      </trkpt>
      <trkpt lat="44.1021" lon="7.03728">
        <ele>1685.81</ele>
        <time>2019-09-28T08:35:35Z</time>
      </trkpt>
      <trkpt lat="44.10209" lon="7.03733">
        <ele>1685.81</ele>
        <time>2019-09-28T08:35:36Z</time>
      </trkpt>
      <trkpt lat="44.1021" lon="7.03737">
        <ele>1685.33</ele>
        <time>2019-09-28T08:35:37Z</time>
      </trkpt>
      <trkpt lat="44.10212" lon="7.0374">
        <ele>1685.33</ele>
        <time>2019-09-28T08:35:38Z</time>
      </trkpt>
      <trkpt lat="44.10215" lon="7.03742">
        <ele>1685.33</ele>
        <time>2019-09-28T08:35:39Z</time>
      </trkpt>
      <trkpt lat="44.10218" lon="7.03744">
        <ele>1684.85</ele>
        <time>2019-09-28T08:35:40Z</time>
      </trkpt>
      <trkpt lat="44.1022" lon="7.03746">
        <ele>1684.85</ele>
        <time>2019-09-28T08:35:41Z</time>
      </trkpt>
      <trkpt lat="44.10223" lon="7.03747">
        <ele>1684.85</ele>
        <time>2019-09-28T08:35:42Z</time>
      </trkpt>
      <trkpt lat="44.10225" lon="7.03748">
        <ele>1684.85</ele>
        <time>2019-09-28T08:35:43Z</time>
      </trkpt>
      <trkpt lat="44.10227" lon="7.03748">
        <ele>1684.85</ele>
        <time>2019-09-28T08:35:44Z</time>
      </trkpt>
      <trkpt lat="44.1023" lon="7.03748">
        <ele>1684.85</ele>
        <time>2019-09-28T08:35:45Z</time>
      </trkpt>
      <trkpt lat="44.10232" lon="7.03749">
        <ele>1684.85</ele>
        <time>2019-09-28T08:35:46Z</time>
      </trkpt>
      <trkpt lat="44.10234" lon="7.03749">
        <ele>1684.85</ele>
        <time>2019-09-28T08:35:47Z</time>
      </trkpt>
      <trkpt lat="44.10237" lon="7.03748">
        <ele>1685.33</ele>
        <time>2019-09-28T08:35:48Z</time>
      </trkpt>
      <trkpt lat="44.10242" lon="7.03748">
        <ele>1685.33</ele>
        <time>2019-09-28T08:35:49Z</time>
      </trkpt>
      <trkpt lat="44.10253" lon="7.03747">
        <ele>1685.33</ele>
        <time>2019-09-28T08:35:51Z</time>
      </trkpt>
      <trkpt lat="44.10273" lon="7.03743">
        <ele>1685.81</ele>
        <time>2019-09-28T08:35:54Z</time>
      </trkpt>
      <trkpt lat="44.10279" lon="7.03739">
        <ele>1685.81</ele>
        <time>2019-09-28T08:35:55Z</time>
      </trkpt>
      <trkpt lat="44.10285" lon="7.03734">
        <ele>1685.81</ele>
        <time>2019-09-28T08:35:56Z</time>
      </trkpt>
      <trkpt lat="44.10294" lon="7.03722">
        <ele>1685.81</ele>
        <time>2019-09-28T08:35:58Z</time>
      </trkpt>
      <trkpt lat="44.10298" lon="7.03714">
        <ele>1685.81</ele>
        <time>2019-09-28T08:35:59Z</time>
      </trkpt>
      <trkpt lat="44.10312" lon="7.03676">
        <ele>1685.81</ele>
        <time>2019-09-28T08:36:04Z</time>
      </trkpt>
      <trkpt lat="44.10316" lon="7.03661">
        <ele>1685.81</ele>
        <time>2019-09-28T08:36:06Z</time>
      </trkpt>
      <trkpt lat="44.10318" lon="7.03653">
        <ele>1685.81</ele>
        <time>2019-09-28T08:36:07Z</time>
      </trkpt>
      <trkpt lat="44.10349" lon="7.03563">
        <ele>1682.93</ele>
        <time>2019-09-28T08:36:18Z</time>
      </trkpt>
      <trkpt lat="44.10358" lon="7.03548">
        <ele>1681.96</ele>
        <time>2019-09-28T08:36:20Z</time>
      </trkpt>
      <trkpt lat="44.1042" lon="7.03479">
        <ele>1679.56</ele>
        <time>2019-09-28T08:36:31Z</time>
      </trkpt>
      <trkpt lat="44.10468" lon="7.03427">
        <ele>1678.6</ele>
        <time>2019-09-28T08:36:41Z</time>
      </trkpt>
      <trkpt lat="44.10488" lon="7.03395">
        <ele>1676.68</ele>
        <time>2019-09-28T08:36:46Z</time>
      </trkpt>
      <trkpt lat="44.10513" lon="7.03346">
        <ele>1674.27</ele>
        <time>2019-09-28T08:36:52Z</time>
      </trkpt>
      <trkpt lat="44.10523" lon="7.03333">
        <ele>1673.31</ele>
        <time>2019-09-28T08:36:54Z</time>
      </trkpt>
      <trkpt lat="44.10573" lon="7.03282">
        <ele>1671.39</ele>
        <time>2019-09-28T08:37:04Z</time>
      </trkpt>
      <trkpt lat="44.10589" lon="7.03263">
        <ele>1670.43</ele>
        <time>2019-09-28T08:37:08Z</time>
      </trkpt>
      <trkpt lat="44.10594" lon="7.0326">
        <ele>1670.43</ele>
        <time>2019-09-28T08:37:09Z</time>
      </trkpt>
      <trkpt lat="44.106" lon="7.03259">
        <ele>1670.43</ele>
        <time>2019-09-28T08:37:10Z</time>
      </trkpt>
      <trkpt lat="44.10605" lon="7.0326">
        <ele>1669.95</ele>
        <time>2019-09-28T08:37:11Z</time>
      </trkpt>
      <trkpt lat="44.10611" lon="7.03263">
        <ele>1669.95</ele>
        <time>2019-09-28T08:37:12Z</time>
      </trkpt>
      <trkpt lat="44.10615" lon="7.03269">
        <ele>1669.47</ele>
        <time>2019-09-28T08:37:13Z</time>
      </trkpt>
      <trkpt lat="44.10618" lon="7.03275">
        <ele>1669.47</ele>
        <time>2019-09-28T08:37:14Z</time>
      </trkpt>
      <trkpt lat="44.10656" lon="7.03348">
        <ele>1664.66</ele>
        <time>2019-09-28T08:37:24Z</time>
      </trkpt>
      <trkpt lat="44.10659" lon="7.03353">
        <ele>1664.18</ele>
        <time>2019-09-28T08:37:25Z</time>
      </trkpt>
      <trkpt lat="44.10664" lon="7.03358">
        <ele>1664.18</ele>
        <time>2019-09-28T08:37:26Z</time>
      </trkpt>
      <trkpt lat="44.10669" lon="7.03361">
        <ele>1663.7</ele>
        <time>2019-09-28T08:37:27Z</time>
      </trkpt>
      <trkpt lat="44.10674" lon="7.03365">
        <ele>1663.22</ele>
        <time>2019-09-28T08:37:28Z</time>
      </trkpt>
      <trkpt lat="44.10679" lon="7.03369">
        <ele>1662.74</ele>
        <time>2019-09-28T08:37:29Z</time>
      </trkpt>
      <trkpt lat="44.10687" lon="7.03378">
        <ele>1661.78</ele>
        <time>2019-09-28T08:37:31Z</time>
      </trkpt>
      <trkpt lat="44.10692" lon="7.03385">
        <ele>1661.3</ele>
        <time>2019-09-28T08:37:32Z</time>
      </trkpt>
      <trkpt lat="44.10712" lon="7.03427">
        <ele>1659.85</ele>
        <time>2019-09-28T08:37:38Z</time>
      </trkpt>
      <trkpt lat="44.10715" lon="7.03432">
        <ele>1659.37</ele>
        <time>2019-09-28T08:37:39Z</time>
      </trkpt>
      <trkpt lat="44.10719" lon="7.03434">
        <ele>1659.37</ele>
        <time>2019-09-28T08:37:40Z</time>
      </trkpt>
      <trkpt lat="44.10722" lon="7.03435">
        <ele>1659.37</ele>
        <time>2019-09-28T08:37:41Z</time>
      </trkpt>
      <trkpt lat="44.10725" lon="7.03434">
        <ele>1659.37</ele>
        <time>2019-09-28T08:37:42Z</time>
      </trkpt>
      <trkpt lat="44.10728" lon="7.03433">
        <ele>1658.89</ele>
        <time>2019-09-28T08:37:43Z</time>
      </trkpt>
      <trkpt lat="44.10745" lon="7.0343">
        <ele>1658.89</ele>
        <time>2019-09-28T08:37:47Z</time>
      </trkpt>
      <trkpt lat="44.1075" lon="7.03428">
        <ele>1658.89</ele>
        <time>2019-09-28T08:37:48Z</time>
      </trkpt>
      <trkpt lat="44.10772" lon="7.03422">
        <ele>1657.93</ele>
        <time>2019-09-28T08:37:52Z</time>
      </trkpt>
      <trkpt lat="44.10789" lon="7.03423">
        <ele>1657.45</ele>
        <time>2019-09-28T08:37:55Z</time>
      </trkpt>
      <trkpt lat="44.10837" lon="7.0341">
        <ele>1654.09</ele>
        <time>2019-09-28T08:38:03Z</time>
      </trkpt>
      <trkpt lat="44.1085" lon="7.03406">
        <ele>1653.12</ele>
        <time>2019-09-28T08:38:05Z</time>
      </trkpt>
      <trkpt lat="44.10857" lon="7.03405">
        <ele>1652.64</ele>
        <time>2019-09-28T08:38:06Z</time>
      </trkpt>
      <trkpt lat="44.10871" lon="7.03404">
        <ele>1652.16</ele>
        <time>2019-09-28T08:38:08Z</time>
      </trkpt>
      <trkpt lat="44.10878" lon="7.03403">
        <ele>1651.68</ele>
        <time>2019-09-28T08:38:09Z</time>
      </trkpt>
      <trkpt lat="44.10884" lon="7.034">
        <ele>1651.2</ele>
        <time>2019-09-28T08:38:10Z</time>
      </trkpt>
      <trkpt lat="44.10891" lon="7.03396">
        <ele>1651.2</ele>
        <time>2019-09-28T08:38:11Z</time>
      </trkpt>
      <trkpt lat="44.10897" lon="7.03391">
        <ele>1650.72</ele>
        <time>2019-09-28T08:38:12Z</time>
      </trkpt>
      <trkpt lat="44.10904" lon="7.03385">
        <ele>1650.24</ele>
        <time>2019-09-28T08:38:13Z</time>
      </trkpt>
      <trkpt lat="44.10946" lon="7.03345">
        <ele>1646.4</ele>
        <time>2019-09-28T08:38:20Z</time>
      </trkpt>
      <trkpt lat="44.10952" lon="7.0334">
        <ele>1645.91</ele>
        <time>2019-09-28T08:38:21Z</time>
      </trkpt>
      <trkpt lat="44.10958" lon="7.03337">
        <ele>1645.43</ele>
        <time>2019-09-28T08:38:22Z</time>
      </trkpt>
      <trkpt lat="44.10965" lon="7.03336">
        <ele>1644.95</ele>
        <time>2019-09-28T08:38:23Z</time>
      </trkpt>
      <trkpt lat="44.10972" lon="7.03335">
        <ele>1644.47</ele>
        <time>2019-09-28T08:38:24Z</time>
      </trkpt>
      <trkpt lat="44.10978" lon="7.03332">
        <ele>1643.99</ele>
        <time>2019-09-28T08:38:25Z</time>
      </trkpt>
      <trkpt lat="44.10983" lon="7.03331">
        <ele>1643.51</ele>
        <time>2019-09-28T08:38:26Z</time>
      </trkpt>
      <trkpt lat="44.10989" lon="7.03327">
        <ele>1643.03</ele>
        <time>2019-09-28T08:38:27Z</time>
      </trkpt>
      <trkpt lat="44.10993" lon="7.03322">
        <ele>1642.55</ele>
        <time>2019-09-28T08:38:28Z</time>
      </trkpt>
      <trkpt lat="44.10996" lon="7.03316">
        <ele>1642.07</ele>
        <time>2019-09-28T08:38:29Z</time>
      </trkpt>
      <trkpt lat="44.10999" lon="7.03312">
        <ele>1641.11</ele>
        <time>2019-09-28T08:38:30Z</time>
      </trkpt>
      <trkpt lat="44.11001" lon="7.03311">
        <ele>1640.63</ele>
        <time>2019-09-28T08:38:31Z</time>
      </trkpt>
      <trkpt lat="44.11002" lon="7.03311">
        <ele>1640.63</ele>
        <time>2019-09-28T08:38:32Z</time>
      </trkpt>
      <trkpt lat="44.11011" lon="7.03315">
        <ele>1640.63</ele>
        <time>2019-09-28T08:38:42Z</time>
      </trkpt>
      <trkpt lat="44.11009" lon="7.03315">
        <ele>1640.15</ele>
        <time>2019-09-28T08:38:56Z</time>
      </trkpt>
      <trkpt lat="44.11011" lon="7.03316">
        <ele>1642.07</ele>
        <time>2019-09-28T08:39:08Z</time>
      </trkpt>
      <trkpt lat="44.11013" lon="7.03315">
        <ele>1641.59</ele>
        <time>2019-09-28T08:39:09Z</time>
      </trkpt>
      <trkpt lat="44.11015" lon="7.03315">
        <ele>1641.11</ele>
        <time>2019-09-28T08:39:10Z</time>
      </trkpt>
      <trkpt lat="44.11017" lon="7.03313">
        <ele>1640.63</ele>
        <time>2019-09-28T08:39:11Z</time>
      </trkpt>
      <trkpt lat="44.11021" lon="7.03312">
        <ele>1640.63</ele>
        <time>2019-09-28T08:39:12Z</time>
      </trkpt>
      <trkpt lat="44.11025" lon="7.03311">
        <ele>1640.15</ele>
        <time>2019-09-28T08:39:13Z</time>
      </trkpt>
      <trkpt lat="44.1103" lon="7.03309">
        <ele>1640.15</ele>
        <time>2019-09-28T08:39:14Z</time>
      </trkpt>
      <trkpt lat="44.11036" lon="7.03306">
        <ele>1640.15</ele>
        <time>2019-09-28T08:39:15Z</time>
      </trkpt>
      <trkpt lat="44.11058" lon="7.03298">
        <ele>1640.63</ele>
        <time>2019-09-28T08:39:19Z</time>
      </trkpt>
      <trkpt lat="44.11064" lon="7.03298">
        <ele>1640.63</ele>
        <time>2019-09-28T08:39:20Z</time>
      </trkpt>
      <trkpt lat="44.11071" lon="7.03298">
        <ele>1640.63</ele>
        <time>2019-09-28T08:39:21Z</time>
      </trkpt>
      <trkpt lat="44.11078" lon="7.033">
        <ele>1640.15</ele>
        <time>2019-09-28T08:39:22Z</time>
      </trkpt>
      <trkpt lat="44.11085" lon="7.03303">
        <ele>1640.15</ele>
        <time>2019-09-28T08:39:23Z</time>
      </trkpt>
      <trkpt lat="44.11089" lon="7.03305">
        <ele>1640.15</ele>
        <time>2019-09-28T08:39:24Z</time>
      </trkpt>
      <trkpt lat="44.11095" lon="7.03305">
        <ele>1639.67</ele>
        <time>2019-09-28T08:39:25Z</time>
      </trkpt>
      <trkpt lat="44.111" lon="7.03305">
        <ele>1639.19</ele>
        <time>2019-09-28T08:39:26Z</time>
      </trkpt>
      <trkpt lat="44.11104" lon="7.03305">
        <ele>1638.7</ele>
        <time>2019-09-28T08:39:27Z</time>
      </trkpt>
      <trkpt lat="44.11107" lon="7.03303">
        <ele>1638.22</ele>
        <time>2019-09-28T08:39:28Z</time>
      </trkpt>
      <trkpt lat="44.11111" lon="7.03301">
        <ele>1638.22</ele>
        <time>2019-09-28T08:39:29Z</time>
      </trkpt>
      <trkpt lat="44.11123" lon="7.03291">
        <ele>1635.82</ele>
        <time>2019-09-28T08:39:32Z</time>
      </trkpt>
      <trkpt lat="44.1113" lon="7.03282">
        <ele>1634.38</ele>
        <time>2019-09-28T08:39:34Z</time>
      </trkpt>
      <trkpt lat="44.11134" lon="7.03276">
        <ele>1633.42</ele>
        <time>2019-09-28T08:39:35Z</time>
      </trkpt>
      <trkpt lat="44.11137" lon="7.03269">
        <ele>1632.94</ele>
        <time>2019-09-28T08:39:36Z</time>
      </trkpt>
      <trkpt lat="44.11163" lon="7.03205">
        <ele>1627.17</ele>
        <time>2019-09-28T08:39:44Z</time>
      </trkpt>
      <trkpt lat="44.11167" lon="7.03195">
        <ele>1626.21</ele>
        <time>2019-09-28T08:39:45Z</time>
      </trkpt>
      <trkpt lat="44.1117" lon="7.03185">
        <ele>1625.25</ele>
        <time>2019-09-28T08:39:46Z</time>
      </trkpt>
      <trkpt lat="44.11172" lon="7.03175">
        <ele>1624.28</ele>
        <time>2019-09-28T08:39:47Z</time>
      </trkpt>
      <trkpt lat="44.11175" lon="7.03163">
        <ele>1623.32</ele>
        <time>2019-09-28T08:39:48Z</time>
      </trkpt>
      <trkpt lat="44.1118" lon="7.0315">
        <ele>1621.88</ele>
        <time>2019-09-28T08:39:50Z</time>
      </trkpt>
      <trkpt lat="44.11184" lon="7.03145">
        <ele>1621.88</ele>
        <time>2019-09-28T08:39:51Z</time>
      </trkpt>
      <trkpt lat="44.11189" lon="7.03141">
        <ele>1621.4</ele>
        <time>2019-09-28T08:39:52Z</time>
      </trkpt>
      <trkpt lat="44.11194" lon="7.03138">
        <ele>1621.4</ele>
        <time>2019-09-28T08:39:53Z</time>
      </trkpt>
      <trkpt lat="44.11198" lon="7.03135">
        <ele>1620.92</ele>
        <time>2019-09-28T08:39:54Z</time>
      </trkpt>
      <trkpt lat="44.11203" lon="7.03131">
        <ele>1620.92</ele>
        <time>2019-09-28T08:39:55Z</time>
      </trkpt>
      <trkpt lat="44.11206" lon="7.03127">
        <ele>1620.44</ele>
        <time>2019-09-28T08:39:56Z</time>
      </trkpt>
      <trkpt lat="44.11209" lon="7.03122">
        <ele>1620.44</ele>
        <time>2019-09-28T08:39:57Z</time>
      </trkpt>
      <trkpt lat="44.11215" lon="7.03112">
        <ele>1619.48</ele>
        <time>2019-09-28T08:39:59Z</time>
      </trkpt>
      <trkpt lat="44.11219" lon="7.03107">
        <ele>1619</ele>
        <time>2019-09-28T08:40:00Z</time>
      </trkpt>
      <trkpt lat="44.11223" lon="7.03104">
        <ele>1618.52</ele>
        <time>2019-09-28T08:40:01Z</time>
      </trkpt>
      <trkpt lat="44.11228" lon="7.03101">
        <ele>1618.52</ele>
        <time>2019-09-28T08:40:02Z</time>
      </trkpt>
      <trkpt lat="44.11233" lon="7.031">
        <ele>1618.04</ele>
        <time>2019-09-28T08:40:03Z</time>
      </trkpt>
      <trkpt lat="44.11238" lon="7.03099">
        <ele>1618.04</ele>
        <time>2019-09-28T08:40:04Z</time>
      </trkpt>
      <trkpt lat="44.11247" lon="7.03095">
        <ele>1618.04</ele>
        <time>2019-09-28T08:40:06Z</time>
      </trkpt>
      <trkpt lat="44.11252" lon="7.03091">
        <ele>1618.04</ele>
        <time>2019-09-28T08:40:07Z</time>
      </trkpt>
      <trkpt lat="44.11257" lon="7.03087">
        <ele>1617.56</ele>
        <time>2019-09-28T08:40:08Z</time>
      </trkpt>
      <trkpt lat="44.11306" lon="7.03043">
        <ele>1615.15</ele>
        <time>2019-09-28T08:40:18Z</time>
      </trkpt>
      <trkpt lat="44.11321" lon="7.03033">
        <ele>1615.15</ele>
        <time>2019-09-28T08:40:21Z</time>
      </trkpt>
      <trkpt lat="44.11325" lon="7.03029">
        <ele>1614.67</ele>
        <time>2019-09-28T08:40:22Z</time>
      </trkpt>
      <trkpt lat="44.11329" lon="7.03024">
        <ele>1614.67</ele>
        <time>2019-09-28T08:40:23Z</time>
      </trkpt>
      <trkpt lat="44.11331" lon="7.03017">
        <ele>1614.19</ele>
        <time>2019-09-28T08:40:24Z</time>
      </trkpt>
      <trkpt lat="44.11333" lon="7.0301">
        <ele>1613.71</ele>
        <time>2019-09-28T08:40:25Z</time>
      </trkpt>
      <trkpt lat="44.11335" lon="7.03003">
        <ele>1613.71</ele>
        <time>2019-09-28T08:40:26Z</time>
      </trkpt>
      <trkpt lat="44.11336" lon="7.02995">
        <ele>1613.71</ele>
        <time>2019-09-28T08:40:27Z</time>
      </trkpt>
      <trkpt lat="44.11337" lon="7.02962">
        <ele>1613.71</ele>
        <time>2019-09-28T08:40:32Z</time>
      </trkpt>
      <trkpt lat="44.11336" lon="7.02956">
        <ele>1613.71</ele>
        <time>2019-09-28T08:40:33Z</time>
      </trkpt>
      <trkpt lat="44.11335" lon="7.0295">
        <ele>1613.71</ele>
        <time>2019-09-28T08:40:34Z</time>
      </trkpt>
      <trkpt lat="44.11333" lon="7.02944">
        <ele>1613.71</ele>
        <time>2019-09-28T08:40:35Z</time>
      </trkpt>
      <trkpt lat="44.11332" lon="7.02939">
        <ele>1613.71</ele>
        <time>2019-09-28T08:40:36Z</time>
      </trkpt>
      <trkpt lat="44.11328" lon="7.02927">
        <ele>1613.71</ele>
        <time>2019-09-28T08:40:38Z</time>
      </trkpt>
      <trkpt lat="44.11328" lon="7.0292">
        <ele>1613.71</ele>
        <time>2019-09-28T08:40:39Z</time>
      </trkpt>
      <trkpt lat="44.11329" lon="7.02914">
        <ele>1613.71</ele>
        <time>2019-09-28T08:40:40Z</time>
      </trkpt>
      <trkpt lat="44.11332" lon="7.0291">
        <ele>1613.71</ele>
        <time>2019-09-28T08:40:41Z</time>
      </trkpt>
      <trkpt lat="44.11336" lon="7.02908">
        <ele>1613.71</ele>
        <time>2019-09-28T08:40:42Z</time>
      </trkpt>
      <trkpt lat="44.1134" lon="7.02907">
        <ele>1613.71</ele>
        <time>2019-09-28T08:40:43Z</time>
      </trkpt>
      <trkpt lat="44.11345" lon="7.02906">
        <ele>1614.19</ele>
        <time>2019-09-28T08:40:44Z</time>
      </trkpt>
      <trkpt lat="44.11349" lon="7.02906">
        <ele>1614.19</ele>
        <time>2019-09-28T08:40:45Z</time>
      </trkpt>
      <trkpt lat="44.11353" lon="7.02906">
        <ele>1614.19</ele>
        <time>2019-09-28T08:40:46Z</time>
      </trkpt>
      <trkpt lat="44.11357" lon="7.02906">
        <ele>1614.67</ele>
        <time>2019-09-28T08:40:47Z</time>
      </trkpt>
      <trkpt lat="44.1136" lon="7.02905">
        <ele>1614.67</ele>
        <time>2019-09-28T08:40:48Z</time>
      </trkpt>
      <trkpt lat="44.11364" lon="7.02903">
        <ele>1615.15</ele>
        <time>2019-09-28T08:40:49Z</time>
      </trkpt>
      <trkpt lat="44.11367" lon="7.029">
        <ele>1615.15</ele>
        <time>2019-09-28T08:40:50Z</time>
      </trkpt>
      <trkpt lat="44.1137" lon="7.02898">
        <ele>1615.15</ele>
        <time>2019-09-28T08:40:51Z</time>
      </trkpt>
      <trkpt lat="44.11372" lon="7.02894">
        <ele>1615.15</ele>
        <time>2019-09-28T08:40:52Z</time>
      </trkpt>
      <trkpt lat="44.11398" lon="7.02854">
        <ele>1615.15</ele>
        <time>2019-09-28T08:41:05Z</time>
      </trkpt>
      <trkpt lat="44.11419" lon="7.02801">
        <ele>1619.48</ele>
        <time>2019-09-28T08:41:19Z</time>
      </trkpt>
      <trkpt lat="44.11442" lon="7.02773">
        <ele>1619.48</ele>
        <time>2019-09-28T08:41:28Z</time>
      </trkpt>
      <trkpt lat="44.11476" lon="7.02732">
        <ele>1615.15</ele>
        <time>2019-09-28T08:41:40Z</time>
      </trkpt>
      <trkpt lat="44.11481" lon="7.02734">
        <ele>1615.15</ele>
        <time>2019-09-28T08:41:41Z</time>
      </trkpt>
      <trkpt lat="44.11484" lon="7.02735">
        <ele>1615.63</ele>
        <time>2019-09-28T08:41:42Z</time>
      </trkpt>
      <trkpt lat="44.11488" lon="7.02737">
        <ele>1615.63</ele>
        <time>2019-09-28T08:41:43Z</time>
      </trkpt>
      <trkpt lat="44.11491" lon="7.02739">
        <ele>1616.59</ele>
        <time>2019-09-28T08:41:44Z</time>
      </trkpt>
      <trkpt lat="44.11495" lon="7.02741">
        <ele>1617.07</ele>
        <time>2019-09-28T08:41:45Z</time>
      </trkpt>
      <trkpt lat="44.11539" lon="7.0275">
        <ele>1621.88</ele>
        <time>2019-09-28T08:41:57Z</time>
      </trkpt>
      <trkpt lat="44.11579" lon="7.02765">
        <ele>1624.28</ele>
        <time>2019-09-28T08:42:10Z</time>
      </trkpt>
      <trkpt lat="44.11592" lon="7.0277">
        <ele>1625.25</ele>
        <time>2019-09-28T08:42:15Z</time>
      </trkpt>
      <trkpt lat="44.11614" lon="7.02755">
        <ele>1624.77</ele>
        <time>2019-09-28T08:42:27Z</time>
      </trkpt>
      <trkpt lat="44.11618" lon="7.0275">
        <ele>1622.84</ele>
        <time>2019-09-28T08:42:33Z</time>
      </trkpt>
      <trkpt lat="44.11628" lon="7.02735">
        <ele>1622.84</ele>
        <time>2019-09-28T08:42:46Z</time>
      </trkpt>
      <trkpt lat="44.11627" lon="7.02729">
        <ele>1629.57</ele>
        <time>2019-09-28T08:43:18Z</time>
      </trkpt>
      <trkpt lat="44.11622" lon="7.02725">
        <ele>1631.01</ele>
        <time>2019-09-28T08:43:42Z</time>
      </trkpt>
      <trkpt lat="44.11624" lon="7.02724">
        <ele>1631.01</ele>
        <time>2019-09-28T08:44:01Z</time>
      </trkpt>
      <trkpt lat="44.11625" lon="7.02722">
        <ele>1631.49</ele>
        <time>2019-09-28T08:44:03Z</time>
      </trkpt>
      <trkpt lat="44.11626" lon="7.0272">
        <ele>1631.49</ele>
        <time>2019-09-28T08:44:04Z</time>
      </trkpt>
      <trkpt lat="44.11636" lon="7.0271">
        <ele>1632.46</ele>
        <time>2019-09-28T08:44:07Z</time>
      </trkpt>
      <trkpt lat="44.1164" lon="7.02708">
        <ele>1632.46</ele>
        <time>2019-09-28T08:44:08Z</time>
      </trkpt>
      <trkpt lat="44.11655" lon="7.02699">
        <ele>1632.46</ele>
        <time>2019-09-28T08:44:11Z</time>
      </trkpt>
      <trkpt lat="44.11683" lon="7.02673">
        <ele>1631.01</ele>
        <time>2019-09-28T08:44:17Z</time>
      </trkpt>
      <trkpt lat="44.11686" lon="7.02668">
        <ele>1630.53</ele>
        <time>2019-09-28T08:44:18Z</time>
      </trkpt>
      <trkpt lat="44.1169" lon="7.02665">
        <ele>1630.53</ele>
        <time>2019-09-28T08:44:19Z</time>
      </trkpt>
      <trkpt lat="44.11694" lon="7.02661">
        <ele>1630.05</ele>
        <time>2019-09-28T08:44:20Z</time>
      </trkpt>
      <trkpt lat="44.11699" lon="7.02658">
        <ele>1629.57</ele>
        <time>2019-09-28T08:44:21Z</time>
      </trkpt>
      <trkpt lat="44.11704" lon="7.02656">
        <ele>1629.09</ele>
        <time>2019-09-28T08:44:22Z</time>
      </trkpt>
      <trkpt lat="44.1171" lon="7.02655">
        <ele>1629.09</ele>
        <time>2019-09-28T08:44:23Z</time>
      </trkpt>
      <trkpt lat="44.11727" lon="7.0265">
        <ele>1628.13</ele>
        <time>2019-09-28T08:44:26Z</time>
      </trkpt>
      <trkpt lat="44.11739" lon="7.02644">
        <ele>1627.17</ele>
        <time>2019-09-28T08:44:28Z</time>
      </trkpt>
      <trkpt lat="44.11745" lon="7.02638">
        <ele>1626.69</ele>
        <time>2019-09-28T08:44:29Z</time>
      </trkpt>
      <trkpt lat="44.1175" lon="7.02631">
        <ele>1625.73</ele>
        <time>2019-09-28T08:44:30Z</time>
      </trkpt>
      <trkpt lat="44.11776" lon="7.0258">
        <ele>1622.36</ele>
        <time>2019-09-28T08:44:37Z</time>
      </trkpt>
      <trkpt lat="44.11781" lon="7.02568">
        <ele>1620.92</ele>
        <time>2019-09-28T08:44:39Z</time>
      </trkpt>
      <trkpt lat="44.11783" lon="7.02564">
        <ele>1620.92</ele>
        <time>2019-09-28T08:44:40Z</time>
      </trkpt>
      <trkpt lat="44.11787" lon="7.02561">
        <ele>1620.44</ele>
        <time>2019-09-28T08:44:41Z</time>
      </trkpt>
      <trkpt lat="44.11792" lon="7.0256">
        <ele>1619.96</ele>
        <time>2019-09-28T08:44:42Z</time>
      </trkpt>
      <trkpt lat="44.11797" lon="7.02562">
        <ele>1619.48</ele>
        <time>2019-09-28T08:44:43Z</time>
      </trkpt>
      <trkpt lat="44.11801" lon="7.02563">
        <ele>1619</ele>
        <time>2019-09-28T08:44:44Z</time>
      </trkpt>
      <trkpt lat="44.11805" lon="7.02565">
        <ele>1618.52</ele>
        <time>2019-09-28T08:44:45Z</time>
      </trkpt>
      <trkpt lat="44.11809" lon="7.02568">
        <ele>1618.04</ele>
        <time>2019-09-28T08:44:46Z</time>
      </trkpt>
      <trkpt lat="44.11814" lon="7.02571">
        <ele>1617.56</ele>
        <time>2019-09-28T08:44:47Z</time>
      </trkpt>
      <trkpt lat="44.11879" lon="7.02626">
        <ele>1612.27</ele>
        <time>2019-09-28T08:45:00Z</time>
      </trkpt>
      <trkpt lat="44.11905" lon="7.0265">
        <ele>1608.9</ele>
        <time>2019-09-28T08:45:06Z</time>
      </trkpt>
      <trkpt lat="44.11909" lon="7.02653">
        <ele>1608.42</ele>
        <time>2019-09-28T08:45:07Z</time>
      </trkpt>
      <trkpt lat="44.11913" lon="7.02657">
        <ele>1607.94</ele>
        <time>2019-09-28T08:45:08Z</time>
      </trkpt>
      <trkpt lat="44.11917" lon="7.0266">
        <ele>1607.46</ele>
        <time>2019-09-28T08:45:09Z</time>
      </trkpt>
      <trkpt lat="44.1192" lon="7.02663">
        <ele>1606.5</ele>
        <time>2019-09-28T08:45:10Z</time>
      </trkpt>
      <trkpt lat="44.11927" lon="7.02666">
        <ele>1603.14</ele>
        <time>2019-09-28T08:45:19Z</time>
      </trkpt>
      <trkpt lat="44.11931" lon="7.02663">
        <ele>1601.21</ele>
        <time>2019-09-28T08:45:38Z</time>
      </trkpt>
      <trkpt lat="44.11939" lon="7.02652">
        <ele>1598.81</ele>
        <time>2019-09-28T08:45:48Z</time>
      </trkpt>
      <trkpt lat="44.11939" lon="7.02651">
        <ele>1596.89</ele>
        <time>2019-09-28T08:46:00Z</time>
      </trkpt>
      <trkpt lat="44.11938" lon="7.02656">
        <ele>1594.96</ele>
        <time>2019-09-28T08:46:10Z</time>
      </trkpt>
      <trkpt lat="44.11938" lon="7.02656">
        <ele>1595.45</ele>
        <time>2019-09-28T08:46:29Z</time>
      </trkpt>
      <trkpt lat="44.11937" lon="7.02654">
        <ele>1593.04</ele>
        <time>2019-09-28T08:46:51Z</time>
      </trkpt>
      <trkpt lat="44.11936" lon="7.02655">
        <ele>1594.48</ele>
        <time>2019-09-28T08:47:10Z</time>
      </trkpt>
      <trkpt lat="44.11936" lon="7.02654">
        <ele>1594.96</ele>
        <time>2019-09-28T08:47:34Z</time>
      </trkpt>
      <trkpt lat="44.11936" lon="7.02654">
        <ele>1596.89</ele>
        <time>2019-09-28T08:47:55Z</time>
      </trkpt>
      <trkpt lat="44.11938" lon="7.02655">
        <ele>1597.85</ele>
        <time>2019-09-28T08:48:18Z</time>
      </trkpt>
      <trkpt lat="44.1194" lon="7.02654">
        <ele>1598.33</ele>
        <time>2019-09-28T08:48:41Z</time>
      </trkpt>
      <trkpt lat="44.1194" lon="7.02653">
        <ele>1598.33</ele>
        <time>2019-09-28T08:48:53Z</time>
      </trkpt>
      <trkpt lat="44.11941" lon="7.02654">
        <ele>1597.85</ele>
        <time>2019-09-28T08:49:21Z</time>
      </trkpt>
      <trkpt lat="44.11941" lon="7.02654">
        <ele>1595.93</ele>
        <time>2019-09-28T08:49:48Z</time>
      </trkpt>
      <trkpt lat="44.11941" lon="7.02654">
        <ele>1594.96</ele>
        <time>2019-09-28T08:50:06Z</time>
      </trkpt>
      <trkpt lat="44.1194" lon="7.02653">
        <ele>1594.96</ele>
        <time>2019-09-28T08:50:31Z</time>
      </trkpt>
      <trkpt lat="44.11939" lon="7.02653">
        <ele>1594</ele>
        <time>2019-09-28T08:50:55Z</time>
      </trkpt>
      <trkpt lat="44.11936" lon="7.02658">
        <ele>1595.93</ele>
        <time>2019-09-28T08:51:18Z</time>
      </trkpt>
      <trkpt lat="44.11938" lon="7.02665">
        <ele>1591.6</ele>
        <time>2019-09-28T08:51:31Z</time>
      </trkpt>
      <trkpt lat="44.11942" lon="7.02661">
        <ele>1589.68</ele>
        <time>2019-09-28T08:51:39Z</time>
      </trkpt>
      <trkpt lat="44.11956" lon="7.02658">
        <ele>1585.35</ele>
        <time>2019-09-28T08:51:51Z</time>
      </trkpt>
      <trkpt lat="44.11964" lon="7.02652">
        <ele>1583.43</ele>
        <time>2019-09-28T08:51:59Z</time>
      </trkpt>
      <trkpt lat="44.11971" lon="7.02648">
        <ele>1582.47</ele>
        <time>2019-09-28T08:52:06Z</time>
      </trkpt>
      <trkpt lat="44.11984" lon="7.02637">
        <ele>1578.14</ele>
        <time>2019-09-28T08:52:19Z</time>
      </trkpt>
      <trkpt lat="44.11986" lon="7.02635">
        <ele>1577.66</ele>
        <time>2019-09-28T08:52:33Z</time>
      </trkpt>
      <trkpt lat="44.11986" lon="7.02629">
        <ele>1578.14</ele>
        <time>2019-09-28T08:52:57Z</time>
      </trkpt>
      <trkpt lat="44.1199" lon="7.02625">
        <ele>1578.14</ele>
        <time>2019-09-28T08:53:00Z</time>
      </trkpt>
      <trkpt lat="44.11991" lon="7.02623">
        <ele>1577.66</ele>
        <time>2019-09-28T08:53:01Z</time>
      </trkpt>
      <trkpt lat="44.11992" lon="7.02621">
        <ele>1577.18</ele>
        <time>2019-09-28T08:53:02Z</time>
      </trkpt>
      <trkpt lat="44.11994" lon="7.02619">
        <ele>1576.7</ele>
        <time>2019-09-28T08:53:03Z</time>
      </trkpt>
      <trkpt lat="44.11996" lon="7.02617">
        <ele>1576.22</ele>
        <time>2019-09-28T08:53:04Z</time>
      </trkpt>
      <trkpt lat="44.12" lon="7.0261">
        <ele>1574.3</ele>
        <time>2019-09-28T08:53:08Z</time>
      </trkpt>
      <trkpt lat="44.12002" lon="7.02605">
        <ele>1573.33</ele>
        <time>2019-09-28T08:53:10Z</time>
      </trkpt>
      <trkpt lat="44.12004" lon="7.02603">
        <ele>1572.85</ele>
        <time>2019-09-28T08:53:11Z</time>
      </trkpt>
      <trkpt lat="44.12006" lon="7.026">
        <ele>1572.37</ele>
        <time>2019-09-28T08:53:12Z</time>
      </trkpt>
      <trkpt lat="44.12008" lon="7.02597">
        <ele>1571.89</ele>
        <time>2019-09-28T08:53:13Z</time>
      </trkpt>
      <trkpt lat="44.1201" lon="7.02594">
        <ele>1571.41</ele>
        <time>2019-09-28T08:53:14Z</time>
      </trkpt>
      <trkpt lat="44.12011" lon="7.02592">
        <ele>1570.93</ele>
        <time>2019-09-28T08:53:15Z</time>
      </trkpt>
      <trkpt lat="44.12033" lon="7.02572">
        <ele>1570.45</ele>
        <time>2019-09-28T08:53:26Z</time>
      </trkpt>
      <trkpt lat="44.12042" lon="7.02567">
        <ele>1569.97</ele>
        <time>2019-09-28T08:53:30Z</time>
      </trkpt>
      <trkpt lat="44.12044" lon="7.02567">
        <ele>1570.45</ele>
        <time>2019-09-28T08:53:31Z</time>
      </trkpt>
      <trkpt lat="44.12046" lon="7.02566">
        <ele>1570.45</ele>
        <time>2019-09-28T08:53:32Z</time>
      </trkpt>
      <trkpt lat="44.12075" lon="7.0255">
        <ele>1563.24</ele>
        <time>2019-09-28T08:53:42Z</time>
      </trkpt>
      <trkpt lat="44.12096" lon="7.0255">
        <ele>1553.63</ele>
        <time>2019-09-28T08:53:52Z</time>
      </trkpt>
      <trkpt lat="44.12098" lon="7.02551">
        <ele>1552.67</ele>
        <time>2019-09-28T08:53:53Z</time>
      </trkpt>
      <trkpt lat="44.12101" lon="7.02551">
        <ele>1548.82</ele>
        <time>2019-09-28T08:54:06Z</time>
      </trkpt>
      <trkpt lat="44.12095" lon="7.02542">
        <ele>1552.67</ele>
        <time>2019-09-28T08:54:35Z</time>
      </trkpt>
      <trkpt lat="44.12102" lon="7.02543">
        <ele>1547.38</ele>
        <time>2019-09-28T08:54:59Z</time>
      </trkpt>
      <trkpt lat="44.12103" lon="7.02541">
        <ele>1547.86</ele>
        <time>2019-09-28T08:55:01Z</time>
      </trkpt>
      <trkpt lat="44.12105" lon="7.02537">
        <ele>1547.86</ele>
        <time>2019-09-28T08:55:02Z</time>
      </trkpt>
      <trkpt lat="44.12106" lon="7.02536">
        <ele>1547.38</ele>
        <time>2019-09-28T08:55:03Z</time>
      </trkpt>
      <trkpt lat="44.12107" lon="7.02533">
        <ele>1547.38</ele>
        <time>2019-09-28T08:55:04Z</time>
      </trkpt>
      <trkpt lat="44.12108" lon="7.02531">
        <ele>1546.9</ele>
        <time>2019-09-28T08:55:05Z</time>
      </trkpt>
      <trkpt lat="44.1211" lon="7.02529">
        <ele>1546.42</ele>
        <time>2019-09-28T08:55:06Z</time>
      </trkpt>
      <trkpt lat="44.12111" lon="7.02527">
        <ele>1545.94</ele>
        <time>2019-09-28T08:55:07Z</time>
      </trkpt>
      <trkpt lat="44.12112" lon="7.02524">
        <ele>1544.98</ele>
        <time>2019-09-28T08:55:08Z</time>
      </trkpt>
      <trkpt lat="44.12113" lon="7.02522">
        <ele>1544.01</ele>
        <time>2019-09-28T08:55:09Z</time>
      </trkpt>
      <trkpt lat="44.12116" lon="7.02518">
        <ele>1542.09</ele>
        <time>2019-09-28T08:55:11Z</time>
      </trkpt>
      <trkpt lat="44.12117" lon="7.02516">
        <ele>1541.13</ele>
        <time>2019-09-28T08:55:12Z</time>
      </trkpt>
      <trkpt lat="44.12118" lon="7.02513">
        <ele>1540.17</ele>
        <time>2019-09-28T08:55:13Z</time>
      </trkpt>
      <trkpt lat="44.12119" lon="7.0251">
        <ele>1539.69</ele>
        <time>2019-09-28T08:55:14Z</time>
      </trkpt>
      <trkpt lat="44.1212" lon="7.02507">
        <ele>1538.25</ele>
        <time>2019-09-28T08:55:15Z</time>
      </trkpt>
      <trkpt lat="44.1212" lon="7.02504">
        <ele>1537.29</ele>
        <time>2019-09-28T08:55:16Z</time>
      </trkpt>
      <trkpt lat="44.12119" lon="7.02501">
        <ele>1536.32</ele>
        <time>2019-09-28T08:55:17Z</time>
      </trkpt>
      <trkpt lat="44.1212" lon="7.02498">
        <ele>1535.36</ele>
        <time>2019-09-28T08:55:18Z</time>
      </trkpt>
      <trkpt lat="44.1212" lon="7.02495">
        <ele>1534.4</ele>
        <time>2019-09-28T08:55:19Z</time>
      </trkpt>
      <trkpt lat="44.12121" lon="7.02491">
        <ele>1532.48</ele>
        <time>2019-09-28T08:55:21Z</time>
      </trkpt>
      <trkpt lat="44.12121" lon="7.02481">
        <ele>1528.15</ele>
        <time>2019-09-28T08:55:25Z</time>
      </trkpt>
      <trkpt lat="44.12122" lon="7.02478">
        <ele>1527.19</ele>
        <time>2019-09-28T08:55:26Z</time>
      </trkpt>
      <trkpt lat="44.12124" lon="7.02437">
        <ele>1521.42</ele>
        <time>2019-09-28T08:55:36Z</time>
      </trkpt>
      <trkpt lat="44.12133" lon="7.0242">
        <ele>1518.54</ele>
        <time>2019-09-28T08:55:46Z</time>
      </trkpt>
      <trkpt lat="44.1214" lon="7.02412">
        <ele>1519.02</ele>
        <time>2019-09-28T08:55:57Z</time>
      </trkpt>
      <trkpt lat="44.1214" lon="7.02409">
        <ele>1519.5</ele>
        <time>2019-09-28T08:55:58Z</time>
      </trkpt>
      <trkpt lat="44.12139" lon="7.02407">
        <ele>1519.5</ele>
        <time>2019-09-28T08:55:59Z</time>
      </trkpt>
      <trkpt lat="44.12142" lon="7.02399">
        <ele>1519.98</ele>
        <time>2019-09-28T08:56:02Z</time>
      </trkpt>
      <trkpt lat="44.12171" lon="7.02384">
        <ele>1522.39</ele>
        <time>2019-09-28T08:56:11Z</time>
      </trkpt>
      <trkpt lat="44.12179" lon="7.02379">
        <ele>1522.39</ele>
        <time>2019-09-28T08:56:14Z</time>
      </trkpt>
      <trkpt lat="44.12181" lon="7.02376">
        <ele>1521.9</ele>
        <time>2019-09-28T08:56:15Z</time>
      </trkpt>
      <trkpt lat="44.12188" lon="7.02369">
        <ele>1521.42</ele>
        <time>2019-09-28T08:56:19Z</time>
      </trkpt>
      <trkpt lat="44.12194" lon="7.02366">
        <ele>1521.9</ele>
        <time>2019-09-28T08:56:30Z</time>
      </trkpt>
      <trkpt lat="44.12201" lon="7.02365">
        <ele>1521.9</ele>
        <time>2019-09-28T08:56:40Z</time>
      </trkpt>
      <trkpt lat="44.12203" lon="7.02364">
        <ele>1521.42</ele>
        <time>2019-09-28T08:56:41Z</time>
      </trkpt>
      <trkpt lat="44.12204" lon="7.02363">
        <ele>1520.94</ele>
        <time>2019-09-28T08:56:42Z</time>
      </trkpt>
      <trkpt lat="44.12205" lon="7.02362">
        <ele>1520.46</ele>
        <time>2019-09-28T08:56:43Z</time>
      </trkpt>
      <trkpt lat="44.12207" lon="7.02362">
        <ele>1520.46</ele>
        <time>2019-09-28T08:56:44Z</time>
      </trkpt>
      <trkpt lat="44.12209" lon="7.02361">
        <ele>1519.5</ele>
        <time>2019-09-28T08:56:45Z</time>
      </trkpt>
      <trkpt lat="44.12211" lon="7.02359">
        <ele>1518.54</ele>
        <time>2019-09-28T08:56:46Z</time>
      </trkpt>
      <trkpt lat="44.12233" lon="7.02351">
        <ele>1516.62</ele>
        <time>2019-09-28T08:56:53Z</time>
      </trkpt>
      <trkpt lat="44.12235" lon="7.02351">
        <ele>1516.14</ele>
        <time>2019-09-28T08:56:54Z</time>
      </trkpt>
      <trkpt lat="44.12237" lon="7.02352">
        <ele>1515.66</ele>
        <time>2019-09-28T08:56:55Z</time>
      </trkpt>
      <trkpt lat="44.12238" lon="7.02359">
        <ele>1511.81</ele>
        <time>2019-09-28T08:57:05Z</time>
      </trkpt>
      <trkpt lat="44.12241" lon="7.02359">
        <ele>1511.81</ele>
        <time>2019-09-28T08:57:17Z</time>
      </trkpt>
      <trkpt lat="44.12239" lon="7.02359">
        <ele>1510.85</ele>
        <time>2019-09-28T08:57:21Z</time>
      </trkpt>
      <trkpt lat="44.12235" lon="7.02359">
        <ele>1508.45</ele>
        <time>2019-09-28T08:57:32Z</time>
      </trkpt>
      <trkpt lat="44.12234" lon="7.02358">
        <ele>1504.6</ele>
        <time>2019-09-28T08:58:00Z</time>
      </trkpt>
      <trkpt lat="44.12237" lon="7.0236">
        <ele>1505.56</ele>
        <time>2019-09-28T08:58:12Z</time>
      </trkpt>
      <trkpt lat="44.12237" lon="7.02361">
        <ele>1506.52</ele>
        <time>2019-09-28T08:58:30Z</time>
      </trkpt>
      <trkpt lat="44.12236" lon="7.02365">
        <ele>1505.56</ele>
        <time>2019-09-28T08:58:38Z</time>
      </trkpt>
      <trkpt lat="44.12236" lon="7.02368">
        <ele>1505.08</ele>
        <time>2019-09-28T08:58:40Z</time>
      </trkpt>
      <trkpt lat="44.1223" lon="7.0237">
        <ele>1505.08</ele>
        <time>2019-09-28T08:58:44Z</time>
      </trkpt>
      <trkpt lat="44.12224" lon="7.02371">
        <ele>1504.12</ele>
        <time>2019-09-28T08:58:48Z</time>
      </trkpt>
      <trkpt lat="44.12205" lon="7.02397">
        <ele>1496.43</ele>
        <time>2019-09-28T08:59:04Z</time>
      </trkpt>
      <trkpt lat="44.122" lon="7.02399">
        <ele>1494.51</ele>
        <time>2019-09-28T08:59:06Z</time>
      </trkpt>
      <trkpt lat="44.12198" lon="7.024">
        <ele>1493.55</ele>
        <time>2019-09-28T08:59:07Z</time>
      </trkpt>
      <trkpt lat="44.12196" lon="7.02402">
        <ele>1492.58</ele>
        <time>2019-09-28T08:59:09Z</time>
      </trkpt>
      <trkpt lat="44.12196" lon="7.02404">
        <ele>1489.7</ele>
        <time>2019-09-28T08:59:20Z</time>
      </trkpt>
      <trkpt lat="44.12199" lon="7.02404">
        <ele>1490.18</ele>
        <time>2019-09-28T08:59:29Z</time>
      </trkpt>
      <trkpt lat="44.122" lon="7.02405">
        <ele>1490.18</ele>
        <time>2019-09-28T08:59:30Z</time>
      </trkpt>
      <trkpt lat="44.12205" lon="7.02408">
        <ele>1489.7</ele>
        <time>2019-09-28T08:59:34Z</time>
      </trkpt>
      <trkpt lat="44.12207" lon="7.0241">
        <ele>1489.7</ele>
        <time>2019-09-28T08:59:35Z</time>
      </trkpt>
      <trkpt lat="44.12218" lon="7.02418">
        <ele>1487.3</ele>
        <time>2019-09-28T08:59:41Z</time>
      </trkpt>
      <trkpt lat="44.12221" lon="7.02419">
        <ele>1486.82</ele>
        <time>2019-09-28T08:59:42Z</time>
      </trkpt>
      <trkpt lat="44.12224" lon="7.0242">
        <ele>1486.82</ele>
        <time>2019-09-28T08:59:43Z</time>
      </trkpt>
      <trkpt lat="44.12236" lon="7.02425">
        <ele>1483.45</ele>
        <time>2019-09-28T08:59:53Z</time>
      </trkpt>
      <trkpt lat="44.12242" lon="7.02424">
        <ele>1481.05</ele>
        <time>2019-09-28T09:00:05Z</time>
      </trkpt>
      <trkpt lat="44.12248" lon="7.02425">
        <ele>1479.61</ele>
        <time>2019-09-28T09:00:19Z</time>
      </trkpt>
      <trkpt lat="44.12246" lon="7.02434">
        <ele>1475.76</ele>
        <time>2019-09-28T09:00:28Z</time>
      </trkpt>
      <trkpt lat="44.12247" lon="7.02438">
        <ele>1474.8</ele>
        <time>2019-09-28T09:00:31Z</time>
      </trkpt>
      <trkpt lat="44.1225" lon="7.02444">
        <ele>1473.36</ele>
        <time>2019-09-28T09:00:44Z</time>
      </trkpt>
      <trkpt lat="44.12249" lon="7.02444">
        <ele>1473.36</ele>
        <time>2019-09-28T09:00:46Z</time>
      </trkpt>
      <trkpt lat="44.12248" lon="7.02445">
        <ele>1473.84</ele>
        <time>2019-09-28T09:00:52Z</time>
      </trkpt>
      <trkpt lat="44.12249" lon="7.02448">
        <ele>1472.88</ele>
        <time>2019-09-28T09:00:56Z</time>
      </trkpt>
      <trkpt lat="44.12249" lon="7.02451">
        <ele>1471.44</ele>
        <time>2019-09-28T09:01:03Z</time>
      </trkpt>
      <trkpt lat="44.12242" lon="7.02461">
        <ele>1468.07</ele>
        <time>2019-09-28T09:01:13Z</time>
      </trkpt>
      <trkpt lat="44.12241" lon="7.02465">
        <ele>1466.15</ele>
        <time>2019-09-28T09:01:16Z</time>
      </trkpt>
      <trkpt lat="44.1224" lon="7.02468">
        <ele>1464.71</ele>
        <time>2019-09-28T09:01:18Z</time>
      </trkpt>
      <trkpt lat="44.12235" lon="7.02472">
        <ele>1460.86</ele>
        <time>2019-09-28T09:01:24Z</time>
      </trkpt>
      <trkpt lat="44.12234" lon="7.02482">
        <ele>1459.9</ele>
        <time>2019-09-28T09:01:28Z</time>
      </trkpt>
      <trkpt lat="44.12236" lon="7.02486">
        <ele>1459.9</ele>
        <time>2019-09-28T09:01:29Z</time>
      </trkpt>
      <trkpt lat="44.12237" lon="7.02487">
        <ele>1459.9</ele>
        <time>2019-09-28T09:01:30Z</time>
      </trkpt>
      <trkpt lat="44.12244" lon="7.02508">
        <ele>1459.9</ele>
        <time>2019-09-28T09:01:41Z</time>
      </trkpt>
      <trkpt lat="44.12241" lon="7.02513">
        <ele>1458.46</ele>
        <time>2019-09-28T09:01:50Z</time>
      </trkpt>
      <trkpt lat="44.1224" lon="7.02514">
        <ele>1458.46</ele>
        <time>2019-09-28T09:01:51Z</time>
      </trkpt>
      <trkpt lat="44.12239" lon="7.02516">
        <ele>1458.46</ele>
        <time>2019-09-28T09:01:52Z</time>
      </trkpt>
      <trkpt lat="44.12238" lon="7.02518">
        <ele>1457.98</ele>
        <time>2019-09-28T09:01:53Z</time>
      </trkpt>
      <trkpt lat="44.12237" lon="7.0252">
        <ele>1457.5</ele>
        <time>2019-09-28T09:01:54Z</time>
      </trkpt>
      <trkpt lat="44.12235" lon="7.02521">
        <ele>1457.5</ele>
        <time>2019-09-28T09:01:55Z</time>
      </trkpt>
      <trkpt lat="44.12234" lon="7.02522">
        <ele>1457.02</ele>
        <time>2019-09-28T09:01:56Z</time>
      </trkpt>
      <trkpt lat="44.12231" lon="7.02524">
        <ele>1454.61</ele>
        <time>2019-09-28T09:02:05Z</time>
      </trkpt>
      <trkpt lat="44.12229" lon="7.02524">
        <ele>1453.17</ele>
        <time>2019-09-28T09:02:11Z</time>
      </trkpt>
      <trkpt lat="44.12218" lon="7.02531">
        <ele>1451.73</ele>
        <time>2019-09-28T09:02:19Z</time>
      </trkpt>
      <trkpt lat="44.12218" lon="7.02533">
        <ele>1451.25</ele>
        <time>2019-09-28T09:02:20Z</time>
      </trkpt>
      <trkpt lat="44.12218" lon="7.02542">
        <ele>1449.81</ele>
        <time>2019-09-28T09:02:23Z</time>
      </trkpt>
      <trkpt lat="44.12217" lon="7.02544">
        <ele>1449.32</ele>
        <time>2019-09-28T09:02:24Z</time>
      </trkpt>
      <trkpt lat="44.12212" lon="7.02551">
        <ele>1445.48</ele>
        <time>2019-09-28T09:02:37Z</time>
      </trkpt>
      <trkpt lat="44.12212" lon="7.02556">
        <ele>1445.48</ele>
        <time>2019-09-28T09:02:40Z</time>
      </trkpt>
      <trkpt lat="44.12211" lon="7.02559">
        <ele>1445</ele>
        <time>2019-09-28T09:02:41Z</time>
      </trkpt>
      <trkpt lat="44.1221" lon="7.02564">
        <ele>1443.56</ele>
        <time>2019-09-28T09:02:44Z</time>
      </trkpt>
      <trkpt lat="44.12203" lon="7.02588">
        <ele>1440.19</ele>
        <time>2019-09-28T09:02:55Z</time>
      </trkpt>
      <trkpt lat="44.1219" lon="7.02625">
        <ele>1432.02</ele>
        <time>2019-09-28T09:03:04Z</time>
      </trkpt>
      <trkpt lat="44.12188" lon="7.02648">
        <ele>1426.73</ele>
        <time>2019-09-28T09:03:09Z</time>
      </trkpt>
      <trkpt lat="44.12179" lon="7.02677">
        <ele>1425.77</ele>
        <time>2019-09-28T09:03:16Z</time>
      </trkpt>
      <trkpt lat="44.12177" lon="7.02684">
        <ele>1425.29</ele>
        <time>2019-09-28T09:03:17Z</time>
      </trkpt>
      <trkpt lat="44.12174" lon="7.02698">
        <ele>1423.85</ele>
        <time>2019-09-28T09:03:19Z</time>
      </trkpt>
      <trkpt lat="44.12172" lon="7.02702">
        <ele>1423.37</ele>
        <time>2019-09-28T09:03:20Z</time>
      </trkpt>
      <trkpt lat="44.1217" lon="7.02709">
        <ele>1422.89</ele>
        <time>2019-09-28T09:03:21Z</time>
      </trkpt>
      <trkpt lat="44.12168" lon="7.02714">
        <ele>1422.41</ele>
        <time>2019-09-28T09:03:22Z</time>
      </trkpt>
      <trkpt lat="44.12167" lon="7.0272">
        <ele>1421.93</ele>
        <time>2019-09-28T09:03:23Z</time>
      </trkpt>
      <trkpt lat="44.12167" lon="7.02726">
        <ele>1420.97</ele>
        <time>2019-09-28T09:03:24Z</time>
      </trkpt>
      <trkpt lat="44.12167" lon="7.02731">
        <ele>1420.49</ele>
        <time>2019-09-28T09:03:25Z</time>
      </trkpt>
      <trkpt lat="44.12166" lon="7.02736">
        <ele>1419.04</ele>
        <time>2019-09-28T09:03:26Z</time>
      </trkpt>
      <trkpt lat="44.12165" lon="7.02741">
        <ele>1418.56</ele>
        <time>2019-09-28T09:03:27Z</time>
      </trkpt>
      <trkpt lat="44.12162" lon="7.02746">
        <ele>1417.6</ele>
        <time>2019-09-28T09:03:28Z</time>
      </trkpt>
      <trkpt lat="44.12157" lon="7.02757">
        <ele>1416.16</ele>
        <time>2019-09-28T09:03:30Z</time>
      </trkpt>
      <trkpt lat="44.12155" lon="7.02764">
        <ele>1415.68</ele>
        <time>2019-09-28T09:03:31Z</time>
      </trkpt>
      <trkpt lat="44.12155" lon="7.02771">
        <ele>1414.72</ele>
        <time>2019-09-28T09:03:32Z</time>
      </trkpt>
      <trkpt lat="44.12156" lon="7.02777">
        <ele>1414.24</ele>
        <time>2019-09-28T09:03:33Z</time>
      </trkpt>
      <trkpt lat="44.12157" lon="7.02783">
        <ele>1413.28</ele>
        <time>2019-09-28T09:03:34Z</time>
      </trkpt>
      <trkpt lat="44.12158" lon="7.02787">
        <ele>1412.31</ele>
        <time>2019-09-28T09:03:35Z</time>
      </trkpt>
      <trkpt lat="44.1216" lon="7.0279">
        <ele>1411.83</ele>
        <time>2019-09-28T09:03:36Z</time>
      </trkpt>
      <trkpt lat="44.12162" lon="7.02791">
        <ele>1411.35</ele>
        <time>2019-09-28T09:03:37Z</time>
      </trkpt>
      <trkpt lat="44.12163" lon="7.02792">
        <ele>1410.87</ele>
        <time>2019-09-28T09:03:38Z</time>
      </trkpt>
      <trkpt lat="44.12164" lon="7.02792">
        <ele>1410.87</ele>
        <time>2019-09-28T09:03:39Z</time>
      </trkpt>
      <trkpt lat="44.1217" lon="7.02792">
        <ele>1410.87</ele>
        <time>2019-09-28T09:03:50Z</time>
      </trkpt>
      <trkpt lat="44.12172" lon="7.02787">
        <ele>1404.14</ele>
        <time>2019-09-28T09:04:24Z</time>
      </trkpt>
      <trkpt lat="44.12172" lon="7.02789">
        <ele>1405.1</ele>
        <time>2019-09-28T09:04:52Z</time>
      </trkpt>
      <trkpt lat="44.12168" lon="7.02788">
        <ele>1408.47</ele>
        <time>2019-09-28T09:05:20Z</time>
      </trkpt>
      <trkpt lat="44.12169" lon="7.0279">
        <ele>1411.83</ele>
        <time>2019-09-28T09:05:49Z</time>
      </trkpt>
      <trkpt lat="44.12168" lon="7.02787">
        <ele>1414.24</ele>
        <time>2019-09-28T09:06:19Z</time>
      </trkpt>
      <trkpt lat="44.12167" lon="7.02784">
        <ele>1414.72</ele>
        <time>2019-09-28T09:06:49Z</time>
      </trkpt>
      <trkpt lat="44.12165" lon="7.02788">
        <ele>1418.56</ele>
        <time>2019-09-28T09:07:26Z</time>
      </trkpt>
      <trkpt lat="44.12168" lon="7.02792">
        <ele>1419.52</ele>
        <time>2019-09-28T09:07:53Z</time>
      </trkpt>
      <trkpt lat="44.12167" lon="7.02794">
        <ele>1417.12</ele>
        <time>2019-09-28T09:08:13Z</time>
      </trkpt>
      <trkpt lat="44.12169" lon="7.02794">
        <ele>1416.64</ele>
        <time>2019-09-28T09:08:23Z</time>
      </trkpt>
      <trkpt lat="44.1217" lon="7.02793">
        <ele>1415.68</ele>
        <time>2019-09-28T09:08:44Z</time>
      </trkpt>
      <trkpt lat="44.12183" lon="7.02793">
        <ele>1416.16</ele>
        <time>2019-09-28T09:08:55Z</time>
      </trkpt>
      <trkpt lat="44.12203" lon="7.02812">
        <ele>1418.08</ele>
        <time>2019-09-28T09:09:08Z</time>
      </trkpt>
      <trkpt lat="44.12207" lon="7.02845">
        <ele>1421.45</ele>
        <time>2019-09-28T09:09:20Z</time>
      </trkpt>
      <trkpt lat="44.12212" lon="7.02876">
        <ele>1424.81</ele>
        <time>2019-09-28T09:09:31Z</time>
      </trkpt>
      <trkpt lat="44.12212" lon="7.02878">
        <ele>1424.81</ele>
        <time>2019-09-28T09:09:32Z</time>
      </trkpt>
      <trkpt lat="44.12228" lon="7.02898">
        <ele>1428.18</ele>
        <time>2019-09-28T09:09:44Z</time>
      </trkpt>
      <trkpt lat="44.1223" lon="7.02899">
        <ele>1428.66</ele>
        <time>2019-09-28T09:09:45Z</time>
      </trkpt>
      <trkpt lat="44.12231" lon="7.02899">
        <ele>1429.14</ele>
        <time>2019-09-28T09:09:46Z</time>
      </trkpt>
      <trkpt lat="44.1225" lon="7.02896">
        <ele>1430.58</ele>
        <time>2019-09-28T09:09:57Z</time>
      </trkpt>
      <trkpt lat="44.1226" lon="7.0289">
        <ele>1432.02</ele>
        <time>2019-09-28T09:10:03Z</time>
      </trkpt>
      <trkpt lat="44.12281" lon="7.0288">
        <ele>1433.46</ele>
        <time>2019-09-28T09:10:15Z</time>
      </trkpt>
      <trkpt lat="44.12297" lon="7.02869">
        <ele>1434.91</ele>
        <time>2019-09-28T09:10:26Z</time>
      </trkpt>
      <trkpt lat="44.12306" lon="7.02864">
        <ele>1436.35</ele>
        <time>2019-09-28T09:10:33Z</time>
      </trkpt>
      <trkpt lat="44.12308" lon="7.02862">
        <ele>1436.83</ele>
        <time>2019-09-28T09:10:34Z</time>
      </trkpt>
      <trkpt lat="44.12308" lon="7.02861">
        <ele>1436.83</ele>
        <time>2019-09-28T09:10:35Z</time>
      </trkpt>
      <trkpt lat="44.12308" lon="7.0286">
        <ele>1436.83</ele>
        <time>2019-09-28T09:10:36Z</time>
      </trkpt>
      <trkpt lat="44.12307" lon="7.02859">
        <ele>1436.83</ele>
        <time>2019-09-28T09:10:37Z</time>
      </trkpt>
      <trkpt lat="44.12305" lon="7.02858">
        <ele>1437.31</ele>
        <time>2019-09-28T09:10:52Z</time>
      </trkpt>
      <trkpt lat="44.12307" lon="7.02857">
        <ele>1437.31</ele>
        <time>2019-09-28T09:11:10Z</time>
      </trkpt>
      <trkpt lat="44.12301" lon="7.02856">
        <ele>1436.35</ele>
        <time>2019-09-28T09:11:23Z</time>
      </trkpt>
      <trkpt lat="44.12299" lon="7.02858">
        <ele>1436.35</ele>
        <time>2019-09-28T09:11:24Z</time>
      </trkpt>
      <trkpt lat="44.12297" lon="7.0286">
        <ele>1436.83</ele>
        <time>2019-09-28T09:11:25Z</time>
      </trkpt>
      <trkpt lat="44.12269" lon="7.02866">
        <ele>1442.11</ele>
        <time>2019-09-28T09:11:38Z</time>
      </trkpt>
      <trkpt lat="44.12246" lon="7.02869">
        <ele>1448.84</ele>
        <time>2019-09-28T09:11:49Z</time>
      </trkpt>
      <trkpt lat="44.12242" lon="7.02863">
        <ele>1449.32</ele>
        <time>2019-09-28T09:11:52Z</time>
      </trkpt>
      <trkpt lat="44.12242" lon="7.0286">
        <ele>1448.84</ele>
        <time>2019-09-28T09:11:53Z</time>
      </trkpt>
      <trkpt lat="44.12246" lon="7.02817">
        <ele>1446.44</ele>
        <time>2019-09-28T09:12:07Z</time>
      </trkpt>
      <trkpt lat="44.12245" lon="7.02794">
        <ele>1446.44</ele>
        <time>2019-09-28T09:12:14Z</time>
      </trkpt>
      <trkpt lat="44.12246" lon="7.02792">
        <ele>1446.44</ele>
        <time>2019-09-28T09:12:15Z</time>
      </trkpt>
      <trkpt lat="44.12266" lon="7.02757">
        <ele>1449.32</ele>
        <time>2019-09-28T09:12:30Z</time>
      </trkpt>
      <trkpt lat="44.12276" lon="7.02729">
        <ele>1451.73</ele>
        <time>2019-09-28T09:12:40Z</time>
      </trkpt>
      <trkpt lat="44.12287" lon="7.02684">
        <ele>1452.69</ele>
        <time>2019-09-28T09:12:55Z</time>
      </trkpt>
      <trkpt lat="44.12295" lon="7.02633">
        <ele>1455.09</ele>
        <time>2019-09-28T09:13:12Z</time>
      </trkpt>
      <trkpt lat="44.123" lon="7.02612">
        <ele>1455.09</ele>
        <time>2019-09-28T09:13:21Z</time>
      </trkpt>
      <trkpt lat="44.12302" lon="7.02611">
        <ele>1455.09</ele>
        <time>2019-09-28T09:13:22Z</time>
      </trkpt>
      <trkpt lat="44.12303" lon="7.02612">
        <ele>1455.09</ele>
        <time>2019-09-28T09:13:23Z</time>
      </trkpt>
      <trkpt lat="44.12305" lon="7.02612">
        <ele>1455.09</ele>
        <time>2019-09-28T09:13:24Z</time>
      </trkpt>
      <trkpt lat="44.12306" lon="7.02613">
        <ele>1455.57</ele>
        <time>2019-09-28T09:13:25Z</time>
      </trkpt>
      <trkpt lat="44.12306" lon="7.02615">
        <ele>1455.57</ele>
        <time>2019-09-28T09:13:26Z</time>
      </trkpt>
      <trkpt lat="44.12307" lon="7.02617">
        <ele>1456.05</ele>
        <time>2019-09-28T09:13:27Z</time>
      </trkpt>
      <trkpt lat="44.12307" lon="7.02619">
        <ele>1456.05</ele>
        <time>2019-09-28T09:13:28Z</time>
      </trkpt>
      <trkpt lat="44.12306" lon="7.02621">
        <ele>1456.05</ele>
        <time>2019-09-28T09:13:29Z</time>
      </trkpt>
      <trkpt lat="44.12306" lon="7.02624">
        <ele>1456.05</ele>
        <time>2019-09-28T09:13:30Z</time>
      </trkpt>
      <trkpt lat="44.12305" lon="7.02626">
        <ele>1456.05</ele>
        <time>2019-09-28T09:13:31Z</time>
      </trkpt>
      <trkpt lat="44.12304" lon="7.02628">
        <ele>1456.53</ele>
        <time>2019-09-28T09:13:32Z</time>
      </trkpt>
      <trkpt lat="44.12304" lon="7.0263">
        <ele>1456.53</ele>
        <time>2019-09-28T09:13:33Z</time>
      </trkpt>
      <trkpt lat="44.12303" lon="7.02633">
        <ele>1457.02</ele>
        <time>2019-09-28T09:13:34Z</time>
      </trkpt>
      <trkpt lat="44.12302" lon="7.02636">
        <ele>1457.5</ele>
        <time>2019-09-28T09:13:35Z</time>
      </trkpt>
      <trkpt lat="44.12302" lon="7.0264">
        <ele>1457.5</ele>
        <time>2019-09-28T09:13:36Z</time>
      </trkpt>
      <trkpt lat="44.12302" lon="7.02643">
        <ele>1457.5</ele>
        <time>2019-09-28T09:13:37Z</time>
      </trkpt>
      <trkpt lat="44.12301" lon="7.02645">
        <ele>1457.5</ele>
        <time>2019-09-28T09:13:38Z</time>
      </trkpt>
      <trkpt lat="44.12301" lon="7.02649">
        <ele>1457.5</ele>
        <time>2019-09-28T09:13:39Z</time>
      </trkpt>
      <trkpt lat="44.12301" lon="7.02653">
        <ele>1457.98</ele>
        <time>2019-09-28T09:13:40Z</time>
      </trkpt>
      <trkpt lat="44.12304" lon="7.0268">
        <ele>1458.46</ele>
        <time>2019-09-28T09:13:49Z</time>
      </trkpt>
      <trkpt lat="44.12305" lon="7.02682">
        <ele>1458.46</ele>
        <time>2019-09-28T09:13:50Z</time>
      </trkpt>
      <trkpt lat="44.12306" lon="7.02685">
        <ele>1458.94</ele>
        <time>2019-09-28T09:13:51Z</time>
      </trkpt>
      <trkpt lat="44.12307" lon="7.02687">
        <ele>1458.94</ele>
        <time>2019-09-28T09:13:52Z</time>
      </trkpt>
      <trkpt lat="44.12308" lon="7.0269">
        <ele>1458.94</ele>
        <time>2019-09-28T09:13:53Z</time>
      </trkpt>
      <trkpt lat="44.12309" lon="7.02693">
        <ele>1458.94</ele>
        <time>2019-09-28T09:13:54Z</time>
      </trkpt>
      <trkpt lat="44.1231" lon="7.02695">
        <ele>1458.94</ele>
        <time>2019-09-28T09:13:55Z</time>
      </trkpt>
      <trkpt lat="44.12316" lon="7.02716">
        <ele>1460.86</ele>
        <time>2019-09-28T09:14:04Z</time>
      </trkpt>
      <trkpt lat="44.12316" lon="7.02718">
        <ele>1460.86</ele>
        <time>2019-09-28T09:14:05Z</time>
      </trkpt>
      <trkpt lat="44.12318" lon="7.0272">
        <ele>1461.34</ele>
        <time>2019-09-28T09:14:14Z</time>
      </trkpt>
      <trkpt lat="44.12323" lon="7.02722">
        <ele>1461.34</ele>
        <time>2019-09-28T09:14:17Z</time>
      </trkpt>
      <trkpt lat="44.12325" lon="7.0272">
        <ele>1461.82</ele>
        <time>2019-09-28T09:14:18Z</time>
      </trkpt>
      <trkpt lat="44.12327" lon="7.02718">
        <ele>1461.82</ele>
        <time>2019-09-28T09:14:19Z</time>
      </trkpt>
      <trkpt lat="44.12328" lon="7.02716">
        <ele>1461.82</ele>
        <time>2019-09-28T09:14:20Z</time>
      </trkpt>
      <trkpt lat="44.12329" lon="7.02713">
        <ele>1462.3</ele>
        <time>2019-09-28T09:14:21Z</time>
      </trkpt>
      <trkpt lat="44.1233" lon="7.02711">
        <ele>1462.78</ele>
        <time>2019-09-28T09:14:22Z</time>
      </trkpt>
      <trkpt lat="44.12331" lon="7.02708">
        <ele>1463.26</ele>
        <time>2019-09-28T09:14:23Z</time>
      </trkpt>
      <trkpt lat="44.12357" lon="7.02679">
        <ele>1467.59</ele>
        <time>2019-09-28T09:14:39Z</time>
      </trkpt>
      <trkpt lat="44.12384" lon="7.02656">
        <ele>1471.92</ele>
        <time>2019-09-28T09:14:54Z</time>
      </trkpt>
      <trkpt lat="44.12401" lon="7.02635">
        <ele>1473.84</ele>
        <time>2019-09-28T09:15:05Z</time>
      </trkpt>
      <trkpt lat="44.12419" lon="7.02604">
        <ele>1476.72</ele>
        <time>2019-09-28T09:15:18Z</time>
      </trkpt>
      <trkpt lat="44.12444" lon="7.02578">
        <ele>1480.09</ele>
        <time>2019-09-28T09:15:31Z</time>
      </trkpt>
      <trkpt lat="44.12466" lon="7.0255">
        <ele>1484.41</ele>
        <time>2019-09-28T09:15:45Z</time>
      </trkpt>
      <trkpt lat="44.1249" lon="7.02524">
        <ele>1487.78</ele>
        <time>2019-09-28T09:15:58Z</time>
      </trkpt>
      <trkpt lat="44.12515" lon="7.02512">
        <ele>1488.74</ele>
        <time>2019-09-28T09:16:11Z</time>
      </trkpt>
      <trkpt lat="44.12547" lon="7.02503">
        <ele>1491.14</ele>
        <time>2019-09-28T09:16:25Z</time>
      </trkpt>
      <trkpt lat="44.12579" lon="7.02494">
        <ele>1495.95</ele>
        <time>2019-09-28T09:16:41Z</time>
      </trkpt>
      <trkpt lat="44.12596" lon="7.0249">
        <ele>1497.39</ele>
        <time>2019-09-28T09:16:49Z</time>
      </trkpt>
      <trkpt lat="44.12598" lon="7.02491">
        <ele>1497.39</ele>
        <time>2019-09-28T09:16:50Z</time>
      </trkpt>
      <trkpt lat="44.126" lon="7.02491">
        <ele>1497.87</ele>
        <time>2019-09-28T09:16:51Z</time>
      </trkpt>
      <trkpt lat="44.12602" lon="7.0249">
        <ele>1497.87</ele>
        <time>2019-09-28T09:16:52Z</time>
      </trkpt>
      <trkpt lat="44.12604" lon="7.02489">
        <ele>1498.35</ele>
        <time>2019-09-28T09:16:53Z</time>
      </trkpt>
      <trkpt lat="44.12617" lon="7.02478">
        <ele>1498.83</ele>
        <time>2019-09-28T09:17:00Z</time>
      </trkpt>
      <trkpt lat="44.12618" lon="7.02476">
        <ele>1498.83</ele>
        <time>2019-09-28T09:17:01Z</time>
      </trkpt>
      <trkpt lat="44.1262" lon="7.02475">
        <ele>1498.83</ele>
        <time>2019-09-28T09:17:02Z</time>
      </trkpt>
      <trkpt lat="44.12638" lon="7.02446">
        <ele>1501.72</ele>
        <time>2019-09-28T09:17:16Z</time>
      </trkpt>
      <trkpt lat="44.12661" lon="7.02428">
        <ele>1505.56</ele>
        <time>2019-09-28T09:17:29Z</time>
      </trkpt>
      <trkpt lat="44.12672" lon="7.02422">
        <ele>1508.45</ele>
        <time>2019-09-28T09:17:37Z</time>
      </trkpt>
      <trkpt lat="44.12673" lon="7.02422">
        <ele>1508.93</ele>
        <time>2019-09-28T09:17:38Z</time>
      </trkpt>
      <trkpt lat="44.12675" lon="7.02421">
        <ele>1508.93</ele>
        <time>2019-09-28T09:17:39Z</time>
      </trkpt>
      <trkpt lat="44.12676" lon="7.0242">
        <ele>1508.93</ele>
        <time>2019-09-28T09:17:40Z</time>
      </trkpt>
      <trkpt lat="44.12677" lon="7.0242">
        <ele>1509.41</ele>
        <time>2019-09-28T09:17:41Z</time>
      </trkpt>
      <trkpt lat="44.12678" lon="7.02419">
        <ele>1509.41</ele>
        <time>2019-09-28T09:17:42Z</time>
      </trkpt>
      <trkpt lat="44.1268" lon="7.02418">
        <ele>1509.89</ele>
        <time>2019-09-28T09:17:43Z</time>
      </trkpt>
      <trkpt lat="44.12681" lon="7.02417">
        <ele>1510.37</ele>
        <time>2019-09-28T09:17:44Z</time>
      </trkpt>
      <trkpt lat="44.12682" lon="7.02417">
        <ele>1511.33</ele>
        <time>2019-09-28T09:17:45Z</time>
      </trkpt>
      <trkpt lat="44.12692" lon="7.02416">
        <ele>1511.33</ele>
        <time>2019-09-28T09:17:58Z</time>
      </trkpt>
      <trkpt lat="44.12691" lon="7.02416">
        <ele>1510.37</ele>
        <time>2019-09-28T09:18:14Z</time>
      </trkpt>
      <trkpt lat="44.12691" lon="7.02414">
        <ele>1509.89</ele>
        <time>2019-09-28T09:18:41Z</time>
      </trkpt>
      <trkpt lat="44.1269" lon="7.02409">
        <ele>1506.52</ele>
        <time>2019-09-28T09:19:08Z</time>
      </trkpt>
      <trkpt lat="44.1269" lon="7.02408">
        <ele>1504.6</ele>
        <time>2019-09-28T09:19:42Z</time>
      </trkpt>
      <trkpt lat="44.12692" lon="7.02411">
        <ele>1507</ele>
        <time>2019-09-28T09:20:03Z</time>
      </trkpt>
      <trkpt lat="44.12689" lon="7.02411">
        <ele>1507</ele>
        <time>2019-09-28T09:20:26Z</time>
      </trkpt>
      <trkpt lat="44.12692" lon="7.02411">
        <ele>1506.04</ele>
        <time>2019-09-28T09:20:43Z</time>
      </trkpt>
      <trkpt lat="44.12691" lon="7.02414">
        <ele>1504.12</ele>
        <time>2019-09-28T09:21:05Z</time>
      </trkpt>
      <trkpt lat="44.12694" lon="7.02411">
        <ele>1507.48</ele>
        <time>2019-09-28T09:21:32Z</time>
      </trkpt>
      <trkpt lat="44.12692" lon="7.0241">
        <ele>1506.52</ele>
        <time>2019-09-28T09:22:00Z</time>
      </trkpt>
      <trkpt lat="44.12691" lon="7.02414">
        <ele>1506.04</ele>
        <time>2019-09-28T09:22:28Z</time>
      </trkpt>
      <trkpt lat="44.12691" lon="7.02413">
        <ele>1507</ele>
        <time>2019-09-28T09:22:55Z</time>
      </trkpt>
      <trkpt lat="44.12692" lon="7.02413">
        <ele>1506.04</ele>
        <time>2019-09-28T09:23:23Z</time>
      </trkpt>
      <trkpt lat="44.12692" lon="7.02411">
        <ele>1505.56</ele>
        <time>2019-09-28T09:23:47Z</time>
      </trkpt>
      <trkpt lat="44.12691" lon="7.02412">
        <ele>1505.56</ele>
        <time>2019-09-28T09:23:48Z</time>
      </trkpt>
      <trkpt lat="44.12688" lon="7.02415">
        <ele>1505.56</ele>
        <time>2019-09-28T09:24:01Z</time>
      </trkpt>
      <trkpt lat="44.12665" lon="7.02423">
        <ele>1505.08</ele>
        <time>2019-09-28T09:24:07Z</time>
      </trkpt>
      <trkpt lat="44.12661" lon="7.02425">
        <ele>1504.6</ele>
        <time>2019-09-28T09:24:08Z</time>
      </trkpt>
      <trkpt lat="44.12652" lon="7.02433">
        <ele>1504.12</ele>
        <time>2019-09-28T09:24:10Z</time>
      </trkpt>
      <trkpt lat="44.12648" lon="7.02438">
        <ele>1503.64</ele>
        <time>2019-09-28T09:24:11Z</time>
      </trkpt>
      <trkpt lat="44.12643" lon="7.02442">
        <ele>1503.16</ele>
        <time>2019-09-28T09:24:12Z</time>
      </trkpt>
      <trkpt lat="44.12635" lon="7.02452">
        <ele>1502.68</ele>
        <time>2019-09-28T09:24:14Z</time>
      </trkpt>
      <trkpt lat="44.12632" lon="7.02457">
        <ele>1502.2</ele>
        <time>2019-09-28T09:24:15Z</time>
      </trkpt>
      <trkpt lat="44.12615" lon="7.02479">
        <ele>1500.27</ele>
        <time>2019-09-28T09:24:21Z</time>
      </trkpt>
      <trkpt lat="44.12616" lon="7.02477">
        <ele>1498.83</ele>
        <time>2019-09-28T09:24:30Z</time>
      </trkpt>
      <trkpt lat="44.12613" lon="7.02476">
        <ele>1498.83</ele>
        <time>2019-09-28T09:24:53Z</time>
      </trkpt>
      <trkpt lat="44.12613" lon="7.02477">
        <ele>1498.83</ele>
        <time>2019-09-28T09:25:10Z</time>
      </trkpt>
      <trkpt lat="44.12615" lon="7.02478">
        <ele>1501.24</ele>
        <time>2019-09-28T09:25:27Z</time>
      </trkpt>
      <trkpt lat="44.12616" lon="7.02477">
        <ele>1502.2</ele>
        <time>2019-09-28T09:25:33Z</time>
      </trkpt>
      <trkpt lat="44.12617" lon="7.02475">
        <ele>1502.2</ele>
        <time>2019-09-28T09:25:34Z</time>
      </trkpt>
      <trkpt lat="44.12639" lon="7.02445">
        <ele>1505.56</ele>
        <time>2019-09-28T09:25:46Z</time>
      </trkpt>
      <trkpt lat="44.12666" lon="7.02422">
        <ele>1507.97</ele>
        <time>2019-09-28T09:25:58Z</time>
      </trkpt>
      <trkpt lat="44.12695" lon="7.02416">
        <ele>1512.29</ele>
        <time>2019-09-28T09:26:12Z</time>
      </trkpt>
      <trkpt lat="44.12691" lon="7.02412">
        <ele>1507</ele>
        <time>2019-09-28T09:26:34Z</time>
      </trkpt>
      <trkpt lat="44.12694" lon="7.0241">
        <ele>1504.12</ele>
        <time>2019-09-28T09:27:06Z</time>
      </trkpt>
      <trkpt lat="44.12695" lon="7.02413">
        <ele>1506.52</ele>
        <time>2019-09-28T09:27:27Z</time>
      </trkpt>
      <trkpt lat="44.12696" lon="7.02414">
        <ele>1507</ele>
        <time>2019-09-28T09:27:37Z</time>
      </trkpt>
      <trkpt lat="44.12697" lon="7.02415">
        <ele>1507</ele>
        <time>2019-09-28T09:27:38Z</time>
      </trkpt>
      <trkpt lat="44.12698" lon="7.02416">
        <ele>1507.48</ele>
        <time>2019-09-28T09:27:39Z</time>
      </trkpt>
      <trkpt lat="44.12699" lon="7.02418">
        <ele>1507.48</ele>
        <time>2019-09-28T09:27:40Z</time>
      </trkpt>
      <trkpt lat="44.12699" lon="7.0242">
        <ele>1507.48</ele>
        <time>2019-09-28T09:27:41Z</time>
      </trkpt>
      <trkpt lat="44.127" lon="7.02422">
        <ele>1507.48</ele>
        <time>2019-09-28T09:27:42Z</time>
      </trkpt>
      <trkpt lat="44.12715" lon="7.0246">
        <ele>1510.37</ele>
        <time>2019-09-28T09:27:56Z</time>
      </trkpt>
      <trkpt lat="44.12721" lon="7.02466">
        <ele>1511.81</ele>
        <time>2019-09-28T09:28:00Z</time>
      </trkpt>
      <trkpt lat="44.12723" lon="7.02466">
        <ele>1512.29</ele>
        <time>2019-09-28T09:28:01Z</time>
      </trkpt>
      <trkpt lat="44.12726" lon="7.02467">
        <ele>1512.77</ele>
        <time>2019-09-28T09:28:02Z</time>
      </trkpt>
      <trkpt lat="44.12728" lon="7.02468">
        <ele>1513.25</ele>
        <time>2019-09-28T09:28:03Z</time>
      </trkpt>
      <trkpt lat="44.1273" lon="7.02468">
        <ele>1514.21</ele>
        <time>2019-09-28T09:28:04Z</time>
      </trkpt>
      <trkpt lat="44.12732" lon="7.02469">
        <ele>1514.69</ele>
        <time>2019-09-28T09:28:05Z</time>
      </trkpt>
      <trkpt lat="44.12734" lon="7.0247">
        <ele>1515.18</ele>
        <time>2019-09-28T09:28:06Z</time>
      </trkpt>
      <trkpt lat="44.12736" lon="7.02471">
        <ele>1516.14</ele>
        <time>2019-09-28T09:28:07Z</time>
      </trkpt>
      <trkpt lat="44.12738" lon="7.02471">
        <ele>1516.62</ele>
        <time>2019-09-28T09:28:08Z</time>
      </trkpt>
      <trkpt lat="44.1274" lon="7.02472">
        <ele>1517.1</ele>
        <time>2019-09-28T09:28:09Z</time>
      </trkpt>
      <trkpt lat="44.12767" lon="7.0248">
        <ele>1524.31</ele>
        <time>2019-09-28T09:28:22Z</time>
      </trkpt>
      <trkpt lat="44.12772" lon="7.02481">
        <ele>1525.27</ele>
        <time>2019-09-28T09:28:24Z</time>
      </trkpt>
      <trkpt lat="44.12773" lon="7.02482">
        <ele>1525.75</ele>
        <time>2019-09-28T09:28:25Z</time>
      </trkpt>
      <trkpt lat="44.12806" lon="7.02486">
        <ele>1529.59</ele>
        <time>2019-09-28T09:28:40Z</time>
      </trkpt>
      <trkpt lat="44.12836" lon="7.02488">
        <ele>1535.36</ele>
        <time>2019-09-28T09:28:53Z</time>
      </trkpt>
      <trkpt lat="44.12863" lon="7.02468">
        <ele>1534.4</ele>
        <time>2019-09-28T09:29:07Z</time>
      </trkpt>
      <trkpt lat="44.12865" lon="7.02467">
        <ele>1534.4</ele>
        <time>2019-09-28T09:29:08Z</time>
      </trkpt>
      <trkpt lat="44.12867" lon="7.02466">
        <ele>1534.4</ele>
        <time>2019-09-28T09:29:09Z</time>
      </trkpt>
      <trkpt lat="44.12869" lon="7.02466">
        <ele>1533.92</ele>
        <time>2019-09-28T09:29:10Z</time>
      </trkpt>
      <trkpt lat="44.12872" lon="7.02466">
        <ele>1533.92</ele>
        <time>2019-09-28T09:29:11Z</time>
      </trkpt>
      <trkpt lat="44.12874" lon="7.02466">
        <ele>1533.92</ele>
        <time>2019-09-28T09:29:12Z</time>
      </trkpt>
      <trkpt lat="44.12895" lon="7.02453">
        <ele>1535.84</ele>
        <time>2019-09-28T09:29:24Z</time>
      </trkpt>
      <trkpt lat="44.12905" lon="7.02434">
        <ele>1537.77</ele>
        <time>2019-09-28T09:29:36Z</time>
      </trkpt>
      <trkpt lat="44.12908" lon="7.02432">
        <ele>1538.25</ele>
        <time>2019-09-28T09:29:38Z</time>
      </trkpt>
      <trkpt lat="44.12909" lon="7.02431">
        <ele>1538.25</ele>
        <time>2019-09-28T09:29:39Z</time>
      </trkpt>
      <trkpt lat="44.12911" lon="7.02431">
        <ele>1538.73</ele>
        <time>2019-09-28T09:29:41Z</time>
      </trkpt>
      <trkpt lat="44.12912" lon="7.02431">
        <ele>1538.73</ele>
        <time>2019-09-28T09:29:42Z</time>
      </trkpt>
      <trkpt lat="44.12918" lon="7.02433">
        <ele>1540.65</ele>
        <time>2019-09-28T09:29:49Z</time>
      </trkpt>
      <trkpt lat="44.12919" lon="7.02433">
        <ele>1541.13</ele>
        <time>2019-09-28T09:29:50Z</time>
      </trkpt>
      <trkpt lat="44.1292" lon="7.02433">
        <ele>1541.61</ele>
        <time>2019-09-28T09:29:51Z</time>
      </trkpt>
      <trkpt lat="44.12929" lon="7.02439">
        <ele>1543.53</ele>
        <time>2019-09-28T09:30:01Z</time>
      </trkpt>
      <trkpt lat="44.12936" lon="7.02445">
        <ele>1544.01</ele>
        <time>2019-09-28T09:30:17Z</time>
      </trkpt>
      <trkpt lat="44.12965" lon="7.02438">
        <ele>1544.98</ele>
        <time>2019-09-28T09:30:30Z</time>
      </trkpt>
      <trkpt lat="44.12993" lon="7.02436">
        <ele>1549.78</ele>
        <time>2019-09-28T09:30:43Z</time>
      </trkpt>
      <trkpt lat="44.13019" lon="7.02435">
        <ele>1555.55</ele>
        <time>2019-09-28T09:30:56Z</time>
      </trkpt>
      <trkpt lat="44.13029" lon="7.02431">
        <ele>1556.99</ele>
        <time>2019-09-28T09:31:01Z</time>
      </trkpt>
      <trkpt lat="44.13031" lon="7.02431">
        <ele>1556.99</ele>
        <time>2019-09-28T09:31:02Z</time>
      </trkpt>
      <trkpt lat="44.13034" lon="7.02431">
        <ele>1557.47</ele>
        <time>2019-09-28T09:31:03Z</time>
      </trkpt>
      <trkpt lat="44.13036" lon="7.02431">
        <ele>1557.95</ele>
        <time>2019-09-28T09:31:04Z</time>
      </trkpt>
      <trkpt lat="44.13039" lon="7.02431">
        <ele>1558.43</ele>
        <time>2019-09-28T09:31:05Z</time>
      </trkpt>
      <trkpt lat="44.13041" lon="7.02431">
        <ele>1558.92</ele>
        <time>2019-09-28T09:31:06Z</time>
      </trkpt>
      <trkpt lat="44.13043" lon="7.02431">
        <ele>1559.4</ele>
        <time>2019-09-28T09:31:07Z</time>
      </trkpt>
      <trkpt lat="44.13045" lon="7.02432">
        <ele>1559.88</ele>
        <time>2019-09-28T09:31:08Z</time>
      </trkpt>
      <trkpt lat="44.13047" lon="7.02432">
        <ele>1560.84</ele>
        <time>2019-09-28T09:31:09Z</time>
      </trkpt>
      <trkpt lat="44.13048" lon="7.02432">
        <ele>1560.84</ele>
        <time>2019-09-28T09:31:10Z</time>
      </trkpt>
      <trkpt lat="44.1305" lon="7.02432">
        <ele>1561.32</ele>
        <time>2019-09-28T09:31:11Z</time>
      </trkpt>
      <trkpt lat="44.13052" lon="7.02431">
        <ele>1561.32</ele>
        <time>2019-09-28T09:31:12Z</time>
      </trkpt>
      <trkpt lat="44.13073" lon="7.02411">
        <ele>1557.95</ele>
        <time>2019-09-28T09:31:22Z</time>
      </trkpt>
      <trkpt lat="44.13075" lon="7.02408">
        <ele>1557.47</ele>
        <time>2019-09-28T09:31:23Z</time>
      </trkpt>
      <trkpt lat="44.13077" lon="7.02407">
        <ele>1557.47</ele>
        <time>2019-09-28T09:31:24Z</time>
      </trkpt>
      <trkpt lat="44.13079" lon="7.02404">
        <ele>1557.47</ele>
        <time>2019-09-28T09:31:25Z</time>
      </trkpt>
      <trkpt lat="44.1308" lon="7.02403">
        <ele>1556.99</ele>
        <time>2019-09-28T09:31:26Z</time>
      </trkpt>
      <trkpt lat="44.13082" lon="7.02402">
        <ele>1557.47</ele>
        <time>2019-09-28T09:31:27Z</time>
      </trkpt>
      <trkpt lat="44.13084" lon="7.02401">
        <ele>1557.47</ele>
        <time>2019-09-28T09:31:28Z</time>
      </trkpt>
      <trkpt lat="44.13086" lon="7.02399">
        <ele>1557.95</ele>
        <time>2019-09-28T09:31:29Z</time>
      </trkpt>
      <trkpt lat="44.13088" lon="7.02397">
        <ele>1558.43</ele>
        <time>2019-09-28T09:31:30Z</time>
      </trkpt>
      <trkpt lat="44.1309" lon="7.02396">
        <ele>1558.92</ele>
        <time>2019-09-28T09:31:31Z</time>
      </trkpt>
      <trkpt lat="44.13096" lon="7.02394">
        <ele>1560.36</ele>
        <time>2019-09-28T09:31:34Z</time>
      </trkpt>
      <trkpt lat="44.13099" lon="7.02394">
        <ele>1561.32</ele>
        <time>2019-09-28T09:31:35Z</time>
      </trkpt>
      <trkpt lat="44.13101" lon="7.02393">
        <ele>1561.8</ele>
        <time>2019-09-28T09:31:36Z</time>
      </trkpt>
      <trkpt lat="44.13103" lon="7.02393">
        <ele>1562.76</ele>
        <time>2019-09-28T09:31:37Z</time>
      </trkpt>
      <trkpt lat="44.13105" lon="7.02393">
        <ele>1563.24</ele>
        <time>2019-09-28T09:31:38Z</time>
      </trkpt>
      <trkpt lat="44.13132" lon="7.02373">
        <ele>1561.8</ele>
        <time>2019-09-28T09:31:50Z</time>
      </trkpt>
      <trkpt lat="44.13152" lon="7.02365">
        <ele>1562.76</ele>
        <time>2019-09-28T09:31:59Z</time>
      </trkpt>
      <trkpt lat="44.13154" lon="7.02366">
        <ele>1563.24</ele>
        <time>2019-09-28T09:32:00Z</time>
      </trkpt>
      <trkpt lat="44.13157" lon="7.02367">
        <ele>1563.24</ele>
        <time>2019-09-28T09:32:01Z</time>
      </trkpt>
      <trkpt lat="44.13182" lon="7.02366">
        <ele>1565.16</ele>
        <time>2019-09-28T09:32:13Z</time>
      </trkpt>
      <trkpt lat="44.13196" lon="7.02348">
        <ele>1563.72</ele>
        <time>2019-09-28T09:32:23Z</time>
      </trkpt>
      <trkpt lat="44.13216" lon="7.02331">
        <ele>1565.16</ele>
        <time>2019-09-28T09:32:36Z</time>
      </trkpt>
      <trkpt lat="44.1322" lon="7.02321">
        <ele>1565.16</ele>
        <time>2019-09-28T09:32:40Z</time>
      </trkpt>
      <trkpt lat="44.13238" lon="7.02281">
        <ele>1568.05</ele>
        <time>2019-09-28T09:32:56Z</time>
      </trkpt>
      <trkpt lat="44.13262" lon="7.02265">
        <ele>1571.89</ele>
        <time>2019-09-28T09:33:09Z</time>
      </trkpt>
      <trkpt lat="44.13285" lon="7.02236">
        <ele>1574.78</ele>
        <time>2019-09-28T09:33:23Z</time>
      </trkpt>
      <trkpt lat="44.13292" lon="7.02218">
        <ele>1577.18</ele>
        <time>2019-09-28T09:33:30Z</time>
      </trkpt>
      <trkpt lat="44.13302" lon="7.02205">
        <ele>1578.62</ele>
        <time>2019-09-28T09:33:37Z</time>
      </trkpt>
      <trkpt lat="44.13304" lon="7.02203">
        <ele>1578.62</ele>
        <time>2019-09-28T09:33:38Z</time>
      </trkpt>
      <trkpt lat="44.13312" lon="7.02195">
        <ele>1579.58</ele>
        <time>2019-09-28T09:33:43Z</time>
      </trkpt>
      <trkpt lat="44.13314" lon="7.02193">
        <ele>1579.58</ele>
        <time>2019-09-28T09:33:44Z</time>
      </trkpt>
      <trkpt lat="44.13315" lon="7.02191">
        <ele>1580.06</ele>
        <time>2019-09-28T09:33:45Z</time>
      </trkpt>
      <trkpt lat="44.13333" lon="7.02152">
        <ele>1582.47</ele>
        <time>2019-09-28T09:34:02Z</time>
      </trkpt>
      <trkpt lat="44.13335" lon="7.02131">
        <ele>1583.91</ele>
        <time>2019-09-28T09:34:10Z</time>
      </trkpt>
      <trkpt lat="44.13337" lon="7.02129">
        <ele>1583.91</ele>
        <time>2019-09-28T09:34:11Z</time>
      </trkpt>
      <trkpt lat="44.13338" lon="7.02127">
        <ele>1583.43</ele>
        <time>2019-09-28T09:34:12Z</time>
      </trkpt>
      <trkpt lat="44.13343" lon="7.02122">
        <ele>1584.39</ele>
        <time>2019-09-28T09:34:15Z</time>
      </trkpt>
      <trkpt lat="44.13361" lon="7.02098">
        <ele>1588.24</ele>
        <time>2019-09-28T09:34:28Z</time>
      </trkpt>
      <trkpt lat="44.13364" lon="7.02091">
        <ele>1588.72</ele>
        <time>2019-09-28T09:34:31Z</time>
      </trkpt>
      <trkpt lat="44.13365" lon="7.02089">
        <ele>1588.72</ele>
        <time>2019-09-28T09:34:32Z</time>
      </trkpt>
      <trkpt lat="44.1338" lon="7.02057">
        <ele>1593.52</ele>
        <time>2019-09-28T09:34:45Z</time>
      </trkpt>
      <trkpt lat="44.13398" lon="7.02038">
        <ele>1594.96</ele>
        <time>2019-09-28T09:34:56Z</time>
      </trkpt>
      <trkpt lat="44.13416" lon="7.0201">
        <ele>1597.85</ele>
        <time>2019-09-28T09:35:08Z</time>
      </trkpt>
      <trkpt lat="44.13428" lon="7.01989">
        <ele>1596.89</ele>
        <time>2019-09-28T09:35:20Z</time>
      </trkpt>
      <trkpt lat="44.13433" lon="7.01971">
        <ele>1597.37</ele>
        <time>2019-09-28T09:35:41Z</time>
      </trkpt>
      <trkpt lat="44.13445" lon="7.01935">
        <ele>1599.77</ele>
        <time>2019-09-28T09:35:54Z</time>
      </trkpt>
      <trkpt lat="44.13457" lon="7.01902">
        <ele>1600.25</ele>
        <time>2019-09-28T09:36:07Z</time>
      </trkpt>
      <trkpt lat="44.13468" lon="7.01877">
        <ele>1601.69</ele>
        <time>2019-09-28T09:36:18Z</time>
      </trkpt>
      <trkpt lat="44.13487" lon="7.01851">
        <ele>1604.1</ele>
        <time>2019-09-28T09:36:31Z</time>
      </trkpt>
      <trkpt lat="44.13505" lon="7.01813">
        <ele>1603.62</ele>
        <time>2019-09-28T09:36:46Z</time>
      </trkpt>
      <trkpt lat="44.13522" lon="7.01785">
        <ele>1605.06</ele>
        <time>2019-09-28T09:36:58Z</time>
      </trkpt>
      <trkpt lat="44.13531" lon="7.01746">
        <ele>1605.06</ele>
        <time>2019-09-28T09:37:10Z</time>
      </trkpt>
      <trkpt lat="44.13539" lon="7.01715">
        <ele>1604.1</ele>
        <time>2019-09-28T09:37:20Z</time>
      </trkpt>
      <trkpt lat="44.1354" lon="7.01712">
        <ele>1604.1</ele>
        <time>2019-09-28T09:37:21Z</time>
      </trkpt>
      <trkpt lat="44.1354" lon="7.01709">
        <ele>1604.1</ele>
        <time>2019-09-28T09:37:22Z</time>
      </trkpt>
      <trkpt lat="44.1354" lon="7.01658">
        <ele>1605.06</ele>
        <time>2019-09-28T09:37:36Z</time>
      </trkpt>
      <trkpt lat="44.1353" lon="7.01622">
        <ele>1605.06</ele>
        <time>2019-09-28T09:37:46Z</time>
      </trkpt>
      <trkpt lat="44.1352" lon="7.01596">
        <ele>1606.98</ele>
        <time>2019-09-28T09:37:54Z</time>
      </trkpt>
      <trkpt lat="44.1352" lon="7.01592">
        <ele>1606.98</ele>
        <time>2019-09-28T09:37:55Z</time>
      </trkpt>
      <trkpt lat="44.13522" lon="7.01588">
        <ele>1606.98</ele>
        <time>2019-09-28T09:37:56Z</time>
      </trkpt>
      <trkpt lat="44.13523" lon="7.01584">
        <ele>1607.46</ele>
        <time>2019-09-28T09:37:57Z</time>
      </trkpt>
      <trkpt lat="44.13526" lon="7.01581">
        <ele>1607.46</ele>
        <time>2019-09-28T09:37:58Z</time>
      </trkpt>
      <trkpt lat="44.13528" lon="7.01579">
        <ele>1607.46</ele>
        <time>2019-09-28T09:37:59Z</time>
      </trkpt>
      <trkpt lat="44.13543" lon="7.01547">
        <ele>1611.79</ele>
        <time>2019-09-28T09:38:10Z</time>
      </trkpt>
      <trkpt lat="44.1356" lon="7.01511">
        <ele>1614.19</ele>
        <time>2019-09-28T09:38:22Z</time>
      </trkpt>
      <trkpt lat="44.13573" lon="7.01469">
        <ele>1616.59</ele>
        <time>2019-09-28T09:38:36Z</time>
      </trkpt>
      <trkpt lat="44.13577" lon="7.01424">
        <ele>1616.11</ele>
        <time>2019-09-28T09:38:49Z</time>
      </trkpt>
      <trkpt lat="44.13576" lon="7.01384">
        <ele>1616.59</ele>
        <time>2019-09-28T09:39:00Z</time>
      </trkpt>
      <trkpt lat="44.13579" lon="7.01327">
        <ele>1618.04</ele>
        <time>2019-09-28T09:39:14Z</time>
      </trkpt>
      <trkpt lat="44.1359" lon="7.01289">
        <ele>1620.44</ele>
        <time>2019-09-28T09:39:27Z</time>
      </trkpt>
      <trkpt lat="44.1359" lon="7.01286">
        <ele>1620.44</ele>
        <time>2019-09-28T09:39:28Z</time>
      </trkpt>
      <trkpt lat="44.1359" lon="7.01283">
        <ele>1620.92</ele>
        <time>2019-09-28T09:39:29Z</time>
      </trkpt>
      <trkpt lat="44.1359" lon="7.01281">
        <ele>1620.92</ele>
        <time>2019-09-28T09:39:30Z</time>
      </trkpt>
      <trkpt lat="44.13591" lon="7.01278">
        <ele>1621.4</ele>
        <time>2019-09-28T09:39:31Z</time>
      </trkpt>
      <trkpt lat="44.1359" lon="7.01272">
        <ele>1622.84</ele>
        <time>2019-09-28T09:39:45Z</time>
      </trkpt>
      <trkpt lat="44.13593" lon="7.01264">
        <ele>1625.73</ele>
        <time>2019-09-28T09:40:01Z</time>
      </trkpt>
      <trkpt lat="44.13592" lon="7.0124">
        <ele>1626.69</ele>
        <time>2019-09-28T09:40:17Z</time>
      </trkpt>
      <trkpt lat="44.13596" lon="7.01223">
        <ele>1627.65</ele>
        <time>2019-09-28T09:40:29Z</time>
      </trkpt>
      <trkpt lat="44.13597" lon="7.01221">
        <ele>1627.65</ele>
        <time>2019-09-28T09:40:30Z</time>
      </trkpt>
      <trkpt lat="44.13597" lon="7.0122">
        <ele>1627.17</ele>
        <time>2019-09-28T09:40:31Z</time>
      </trkpt>
      <trkpt lat="44.13611" lon="7.0121">
        <ele>1627.17</ele>
        <time>2019-09-28T09:40:45Z</time>
      </trkpt>
      <trkpt lat="44.13623" lon="7.012">
        <ele>1627.65</ele>
        <time>2019-09-28T09:41:00Z</time>
      </trkpt>
      <trkpt lat="44.13624" lon="7.01195">
        <ele>1628.61</ele>
        <time>2019-09-28T09:41:04Z</time>
      </trkpt>
      <trkpt lat="44.13625" lon="7.01195">
        <ele>1629.09</ele>
        <time>2019-09-28T09:41:05Z</time>
      </trkpt>
      <trkpt lat="44.13631" lon="7.01189">
        <ele>1631.49</ele>
        <time>2019-09-28T09:41:14Z</time>
      </trkpt>
      <trkpt lat="44.13649" lon="7.01186">
        <ele>1635.34</ele>
        <time>2019-09-28T09:41:34Z</time>
      </trkpt>
      <trkpt lat="44.13655" lon="7.01188">
        <ele>1636.3</ele>
        <time>2019-09-28T09:41:41Z</time>
      </trkpt>
      <trkpt lat="44.13659" lon="7.01193">
        <ele>1636.3</ele>
        <time>2019-09-28T09:41:47Z</time>
      </trkpt>
      <trkpt lat="44.13658" lon="7.01197">
        <ele>1635.34</ele>
        <time>2019-09-28T09:41:50Z</time>
      </trkpt>
      <trkpt lat="44.13657" lon="7.01198">
        <ele>1635.34</ele>
        <time>2019-09-28T09:41:51Z</time>
      </trkpt>
      <trkpt lat="44.13655" lon="7.012">
        <ele>1635.34</ele>
        <time>2019-09-28T09:41:53Z</time>
      </trkpt>
      <trkpt lat="44.13651" lon="7.01204">
        <ele>1635.34</ele>
        <time>2019-09-28T09:42:05Z</time>
      </trkpt>
      <trkpt lat="44.13651" lon="7.01206">
        <ele>1637.74</ele>
        <time>2019-09-28T09:42:30Z</time>
      </trkpt>
      <trkpt lat="44.13651" lon="7.01206">
        <ele>1640.15</ele>
        <time>2019-09-28T09:42:47Z</time>
      </trkpt>
      <trkpt lat="44.13652" lon="7.01205">
        <ele>1639.67</ele>
        <time>2019-09-28T09:43:13Z</time>
      </trkpt>
      <trkpt lat="44.13656" lon="7.01206">
        <ele>1642.07</ele>
        <time>2019-09-28T09:43:38Z</time>
      </trkpt>
      <trkpt lat="44.13656" lon="7.01204">
        <ele>1644.47</ele>
        <time>2019-09-28T09:44:02Z</time>
      </trkpt>
      <trkpt lat="44.13658" lon="7.01203">
        <ele>1644.47</ele>
        <time>2019-09-28T09:44:31Z</time>
      </trkpt>
      <trkpt lat="44.13657" lon="7.01204">
        <ele>1643.99</ele>
        <time>2019-09-28T09:44:58Z</time>
      </trkpt>
      <trkpt lat="44.13654" lon="7.01205">
        <ele>1644.47</ele>
        <time>2019-09-28T09:45:24Z</time>
      </trkpt>
      <trkpt lat="44.13655" lon="7.01205">
        <ele>1642.55</ele>
        <time>2019-09-28T09:45:56Z</time>
      </trkpt>
      <trkpt lat="44.13653" lon="7.01205">
        <ele>1642.55</ele>
        <time>2019-09-28T09:46:19Z</time>
      </trkpt>
      <trkpt lat="44.13653" lon="7.01206">
        <ele>1643.51</ele>
        <time>2019-09-28T09:46:38Z</time>
      </trkpt>
      <trkpt lat="44.13656" lon="7.01204">
        <ele>1643.51</ele>
        <time>2019-09-28T09:47:00Z</time>
      </trkpt>
      <trkpt lat="44.13657" lon="7.01206">
        <ele>1644.95</ele>
        <time>2019-09-28T09:47:25Z</time>
      </trkpt>
      <trkpt lat="44.13656" lon="7.01206">
        <ele>1645.91</ele>
        <time>2019-09-28T09:47:53Z</time>
      </trkpt>
      <trkpt lat="44.13657" lon="7.01206">
        <ele>1643.51</ele>
        <time>2019-09-28T09:48:20Z</time>
      </trkpt>
      <trkpt lat="44.13657" lon="7.01206">
        <ele>1643.99</ele>
        <time>2019-09-28T09:48:57Z</time>
      </trkpt>
      <trkpt lat="44.13658" lon="7.01204">
        <ele>1640.63</ele>
        <time>2019-09-28T09:49:25Z</time>
      </trkpt>
      <trkpt lat="44.13656" lon="7.01203">
        <ele>1641.11</ele>
        <time>2019-09-28T09:49:52Z</time>
      </trkpt>
      <trkpt lat="44.13657" lon="7.01203">
        <ele>1639.19</ele>
        <time>2019-09-28T09:50:18Z</time>
      </trkpt>
      <trkpt lat="44.13657" lon="7.01204">
        <ele>1639.67</ele>
        <time>2019-09-28T09:50:40Z</time>
      </trkpt>
      <trkpt lat="44.13656" lon="7.01205">
        <ele>1642.55</ele>
        <time>2019-09-28T09:51:03Z</time>
      </trkpt>
      <trkpt lat="44.13656" lon="7.01205">
        <ele>1642.07</ele>
        <time>2019-09-28T09:51:21Z</time>
      </trkpt>
      <trkpt lat="44.13658" lon="7.01203">
        <ele>1642.07</ele>
        <time>2019-09-28T09:51:50Z</time>
      </trkpt>
      <trkpt lat="44.13662" lon="7.01202">
        <ele>1641.11</ele>
        <time>2019-09-28T09:52:26Z</time>
      </trkpt>
      <trkpt lat="44.13664" lon="7.01202">
        <ele>1641.59</ele>
        <time>2019-09-28T09:52:50Z</time>
      </trkpt>
      <trkpt lat="44.13659" lon="7.01204">
        <ele>1647.36</ele>
        <time>2019-09-28T09:53:20Z</time>
      </trkpt>
      <trkpt lat="44.13659" lon="7.01204">
        <ele>1646.88</ele>
        <time>2019-09-28T09:53:49Z</time>
      </trkpt>
      <trkpt lat="44.13661" lon="7.01204">
        <ele>1648.32</ele>
        <time>2019-09-28T09:54:19Z</time>
      </trkpt>
      <trkpt lat="44.1366" lon="7.01207">
        <ele>1645.91</ele>
        <time>2019-09-28T09:54:52Z</time>
      </trkpt>
      <trkpt lat="44.13659" lon="7.01206">
        <ele>1644.47</ele>
        <time>2019-09-28T09:55:14Z</time>
      </trkpt>
      <trkpt lat="44.13656" lon="7.01205">
        <ele>1642.55</ele>
        <time>2019-09-28T09:55:32Z</time>
      </trkpt>
      <trkpt lat="44.13657" lon="7.01203">
        <ele>1642.55</ele>
        <time>2019-09-28T09:55:34Z</time>
      </trkpt>
      <trkpt lat="44.13657" lon="7.01201">
        <ele>1642.55</ele>
        <time>2019-09-28T09:55:35Z</time>
      </trkpt>
      <trkpt lat="44.13657" lon="7.01198">
        <ele>1642.07</ele>
        <time>2019-09-28T09:55:36Z</time>
      </trkpt>
      <trkpt lat="44.13656" lon="7.01195">
        <ele>1641.59</ele>
        <time>2019-09-28T09:55:37Z</time>
      </trkpt>
      <trkpt lat="44.13653" lon="7.01194">
        <ele>1641.11</ele>
        <time>2019-09-28T09:55:39Z</time>
      </trkpt>
      <trkpt lat="44.13648" lon="7.01194">
        <ele>1639.67</ele>
        <time>2019-09-28T09:55:40Z</time>
      </trkpt>
      <trkpt lat="44.13625" lon="7.01203">
        <ele>1632.46</ele>
        <time>2019-09-28T09:55:49Z</time>
      </trkpt>
      <trkpt lat="44.13596" lon="7.01223">
        <ele>1627.65</ele>
        <time>2019-09-28T09:55:59Z</time>
      </trkpt>
      <trkpt lat="44.13594" lon="7.01227">
        <ele>1627.17</ele>
        <time>2019-09-28T09:56:00Z</time>
      </trkpt>
      <trkpt lat="44.13592" lon="7.01233">
        <ele>1627.17</ele>
        <time>2019-09-28T09:56:01Z</time>
      </trkpt>
      <trkpt lat="44.13591" lon="7.01239">
        <ele>1627.17</ele>
        <time>2019-09-28T09:56:02Z</time>
      </trkpt>
      <trkpt lat="44.13591" lon="7.01245">
        <ele>1626.69</ele>
        <time>2019-09-28T09:56:03Z</time>
      </trkpt>
      <trkpt lat="44.13591" lon="7.01251">
        <ele>1626.69</ele>
        <time>2019-09-28T09:56:04Z</time>
      </trkpt>
      <trkpt lat="44.13591" lon="7.01272">
        <ele>1625.73</ele>
        <time>2019-09-28T09:56:07Z</time>
      </trkpt>
      <trkpt lat="44.1359" lon="7.01278">
        <ele>1625.25</ele>
        <time>2019-09-28T09:56:08Z</time>
      </trkpt>
      <trkpt lat="44.13585" lon="7.01301">
        <ele>1624.77</ele>
        <time>2019-09-28T09:56:12Z</time>
      </trkpt>
      <trkpt lat="44.13583" lon="7.01314">
        <ele>1624.28</ele>
        <time>2019-09-28T09:56:14Z</time>
      </trkpt>
      <trkpt lat="44.13581" lon="7.0132">
        <ele>1624.28</ele>
        <time>2019-09-28T09:56:15Z</time>
      </trkpt>
      <trkpt lat="44.13579" lon="7.01324">
        <ele>1623.8</ele>
        <time>2019-09-28T09:56:16Z</time>
      </trkpt>
      <trkpt lat="44.13579" lon="7.01329">
        <ele>1623.8</ele>
        <time>2019-09-28T09:56:17Z</time>
      </trkpt>
      <trkpt lat="44.13579" lon="7.01333">
        <ele>1623.8</ele>
        <time>2019-09-28T09:56:18Z</time>
      </trkpt>
      <trkpt lat="44.1358" lon="7.01338">
        <ele>1623.8</ele>
        <time>2019-09-28T09:56:19Z</time>
      </trkpt>
      <trkpt lat="44.1358" lon="7.01342">
        <ele>1623.32</ele>
        <time>2019-09-28T09:56:20Z</time>
      </trkpt>
      <trkpt lat="44.13578" lon="7.01385">
        <ele>1620.44</ele>
        <time>2019-09-28T09:56:29Z</time>
      </trkpt>
      <trkpt lat="44.13578" lon="7.01391">
        <ele>1619.96</ele>
        <time>2019-09-28T09:56:30Z</time>
      </trkpt>
      <trkpt lat="44.13579" lon="7.01418">
        <ele>1618.52</ele>
        <time>2019-09-28T09:56:34Z</time>
      </trkpt>
      <trkpt lat="44.13578" lon="7.01425">
        <ele>1618.52</ele>
        <time>2019-09-28T09:56:35Z</time>
      </trkpt>
      <trkpt lat="44.13573" lon="7.01467">
        <ele>1616.11</ele>
        <time>2019-09-28T09:56:41Z</time>
      </trkpt>
      <trkpt lat="44.13571" lon="7.01475">
        <ele>1615.63</ele>
        <time>2019-09-28T09:56:42Z</time>
      </trkpt>
      <trkpt lat="44.13569" lon="7.01487">
        <ele>1614.67</ele>
        <time>2019-09-28T09:56:44Z</time>
      </trkpt>
      <trkpt lat="44.13567" lon="7.01494">
        <ele>1614.19</ele>
        <time>2019-09-28T09:56:45Z</time>
      </trkpt>
      <trkpt lat="44.13565" lon="7.01501">
        <ele>1613.71</ele>
        <time>2019-09-28T09:56:46Z</time>
      </trkpt>
      <trkpt lat="44.13562" lon="7.01507">
        <ele>1613.71</ele>
        <time>2019-09-28T09:56:47Z</time>
      </trkpt>
      <trkpt lat="44.13558" lon="7.01513">
        <ele>1613.23</ele>
        <time>2019-09-28T09:56:48Z</time>
      </trkpt>
      <trkpt lat="44.13549" lon="7.01532">
        <ele>1611.79</ele>
        <time>2019-09-28T09:56:51Z</time>
      </trkpt>
      <trkpt lat="44.13546" lon="7.01538">
        <ele>1611.31</ele>
        <time>2019-09-28T09:56:52Z</time>
      </trkpt>
      <trkpt lat="44.13544" lon="7.01544">
        <ele>1611.31</ele>
        <time>2019-09-28T09:56:53Z</time>
      </trkpt>
      <trkpt lat="44.13543" lon="7.0155">
        <ele>1610.83</ele>
        <time>2019-09-28T09:56:54Z</time>
      </trkpt>
      <trkpt lat="44.13542" lon="7.01557">
        <ele>1610.83</ele>
        <time>2019-09-28T09:56:55Z</time>
      </trkpt>
      <trkpt lat="44.13541" lon="7.01563">
        <ele>1610.83</ele>
        <time>2019-09-28T09:56:56Z</time>
      </trkpt>
      <trkpt lat="44.13539" lon="7.01568">
        <ele>1610.35</ele>
        <time>2019-09-28T09:56:57Z</time>
      </trkpt>
      <trkpt lat="44.13537" lon="7.01572">
        <ele>1609.86</ele>
        <time>2019-09-28T09:56:58Z</time>
      </trkpt>
      <trkpt lat="44.13533" lon="7.01575">
        <ele>1609.38</ele>
        <time>2019-09-28T09:56:59Z</time>
      </trkpt>
      <trkpt lat="44.13528" lon="7.01579">
        <ele>1608.9</ele>
        <time>2019-09-28T09:57:00Z</time>
      </trkpt>
      <trkpt lat="44.13524" lon="7.01584">
        <ele>1608.9</ele>
        <time>2019-09-28T09:57:01Z</time>
      </trkpt>
      <trkpt lat="44.13521" lon="7.0159">
        <ele>1608.42</ele>
        <time>2019-09-28T09:57:02Z</time>
      </trkpt>
      <trkpt lat="44.13519" lon="7.01595">
        <ele>1607.94</ele>
        <time>2019-09-28T09:57:03Z</time>
      </trkpt>
      <trkpt lat="44.13518" lon="7.01599">
        <ele>1607.46</ele>
        <time>2019-09-28T09:57:04Z</time>
      </trkpt>
      <trkpt lat="44.13518" lon="7.01602">
        <ele>1607.46</ele>
        <time>2019-09-28T09:57:05Z</time>
      </trkpt>
      <trkpt lat="44.13519" lon="7.01605">
        <ele>1607.46</ele>
        <time>2019-09-28T09:57:06Z</time>
      </trkpt>
      <trkpt lat="44.1352" lon="7.01607">
        <ele>1607.46</ele>
        <time>2019-09-28T09:57:07Z</time>
      </trkpt>
      <trkpt lat="44.13522" lon="7.0161">
        <ele>1607.46</ele>
        <time>2019-09-28T09:57:08Z</time>
      </trkpt>
      <trkpt lat="44.1354" lon="7.01645">
        <ele>1605.06</ele>
        <time>2019-09-28T09:57:16Z</time>
      </trkpt>
      <trkpt lat="44.1354" lon="7.01651">
        <ele>1605.06</ele>
        <time>2019-09-28T09:57:17Z</time>
      </trkpt>
      <trkpt lat="44.13539" lon="7.01663">
        <ele>1605.06</ele>
        <time>2019-09-28T09:57:19Z</time>
      </trkpt>
      <trkpt lat="44.13538" lon="7.0167">
        <ele>1605.06</ele>
        <time>2019-09-28T09:57:20Z</time>
      </trkpt>
      <trkpt lat="44.13538" lon="7.01677">
        <ele>1605.06</ele>
        <time>2019-09-28T09:57:21Z</time>
      </trkpt>
      <trkpt lat="44.13539" lon="7.01685">
        <ele>1605.06</ele>
        <time>2019-09-28T09:57:22Z</time>
      </trkpt>
      <trkpt lat="44.13539" lon="7.01692">
        <ele>1604.58</ele>
        <time>2019-09-28T09:57:23Z</time>
      </trkpt>
      <trkpt lat="44.13541" lon="7.01707">
        <ele>1604.1</ele>
        <time>2019-09-28T09:57:25Z</time>
      </trkpt>
      <trkpt lat="44.13539" lon="7.01715">
        <ele>1603.62</ele>
        <time>2019-09-28T09:57:26Z</time>
      </trkpt>
      <trkpt lat="44.13538" lon="7.01722">
        <ele>1603.14</ele>
        <time>2019-09-28T09:57:27Z</time>
      </trkpt>
      <trkpt lat="44.13513" lon="7.018">
        <ele>1597.85</ele>
        <time>2019-09-28T09:57:38Z</time>
      </trkpt>
      <trkpt lat="44.13509" lon="7.01804">
        <ele>1597.37</ele>
        <time>2019-09-28T09:57:39Z</time>
      </trkpt>
      <trkpt lat="44.13505" lon="7.01807">
        <ele>1596.89</ele>
        <time>2019-09-28T09:57:40Z</time>
      </trkpt>
      <trkpt lat="44.13496" lon="7.01816">
        <ele>1595.93</ele>
        <time>2019-09-28T09:57:42Z</time>
      </trkpt>
      <trkpt lat="44.13493" lon="7.01821">
        <ele>1595.93</ele>
        <time>2019-09-28T09:57:43Z</time>
      </trkpt>
      <trkpt lat="44.1349" lon="7.01828">
        <ele>1595.45</ele>
        <time>2019-09-28T09:57:44Z</time>
      </trkpt>
      <trkpt lat="44.13485" lon="7.01846">
        <ele>1594.96</ele>
        <time>2019-09-28T09:57:47Z</time>
      </trkpt>
      <trkpt lat="44.13483" lon="7.01852">
        <ele>1594.48</ele>
        <time>2019-09-28T09:57:48Z</time>
      </trkpt>
      <trkpt lat="44.13482" lon="7.01856">
        <ele>1594</ele>
        <time>2019-09-28T09:57:49Z</time>
      </trkpt>
      <trkpt lat="44.1348" lon="7.01859">
        <ele>1593.52</ele>
        <time>2019-09-28T09:57:50Z</time>
      </trkpt>
      <trkpt lat="44.13477" lon="7.01862">
        <ele>1593.04</ele>
        <time>2019-09-28T09:57:51Z</time>
      </trkpt>
      <trkpt lat="44.13474" lon="7.01865">
        <ele>1593.04</ele>
        <time>2019-09-28T09:57:52Z</time>
      </trkpt>
      <trkpt lat="44.13449" lon="7.01914">
        <ele>1588.72</ele>
        <time>2019-09-28T09:58:02Z</time>
      </trkpt>
      <trkpt lat="44.13437" lon="7.01955">
        <ele>1587.27</ele>
        <time>2019-09-28T09:58:07Z</time>
      </trkpt>
      <trkpt lat="44.13434" lon="7.01963">
        <ele>1587.27</ele>
        <time>2019-09-28T09:58:08Z</time>
      </trkpt>
      <trkpt lat="44.13431" lon="7.01968">
        <ele>1587.27</ele>
        <time>2019-09-28T09:58:09Z</time>
      </trkpt>
      <trkpt lat="44.1343" lon="7.01973">
        <ele>1587.27</ele>
        <time>2019-09-28T09:58:10Z</time>
      </trkpt>
      <trkpt lat="44.13428" lon="7.01978">
        <ele>1587.27</ele>
        <time>2019-09-28T09:58:11Z</time>
      </trkpt>
      <trkpt lat="44.13428" lon="7.01983">
        <ele>1586.79</ele>
        <time>2019-09-28T09:58:12Z</time>
      </trkpt>
      <trkpt lat="44.13426" lon="7.01989">
        <ele>1586.31</ele>
        <time>2019-09-28T09:58:13Z</time>
      </trkpt>
      <trkpt lat="44.13425" lon="7.01995">
        <ele>1586.31</ele>
        <time>2019-09-28T09:58:14Z</time>
      </trkpt>
      <trkpt lat="44.13422" lon="7.02">
        <ele>1585.83</ele>
        <time>2019-09-28T09:58:15Z</time>
      </trkpt>
      <trkpt lat="44.13419" lon="7.02006">
        <ele>1585.83</ele>
        <time>2019-09-28T09:58:16Z</time>
      </trkpt>
      <trkpt lat="44.13416" lon="7.02013">
        <ele>1585.35</ele>
        <time>2019-09-28T09:58:17Z</time>
      </trkpt>
      <trkpt lat="44.13413" lon="7.02019">
        <ele>1585.35</ele>
        <time>2019-09-28T09:58:18Z</time>
      </trkpt>
      <trkpt lat="44.13409" lon="7.02024">
        <ele>1585.35</ele>
        <time>2019-09-28T09:58:19Z</time>
      </trkpt>
      <trkpt lat="44.13406" lon="7.02028">
        <ele>1584.87</ele>
        <time>2019-09-28T09:58:20Z</time>
      </trkpt>
      <trkpt lat="44.13402" lon="7.02032">
        <ele>1584.87</ele>
        <time>2019-09-28T09:58:21Z</time>
      </trkpt>
      <trkpt lat="44.13397" lon="7.02034">
        <ele>1584.87</ele>
        <time>2019-09-28T09:58:22Z</time>
      </trkpt>
      <trkpt lat="44.13392" lon="7.02036">
        <ele>1584.39</ele>
        <time>2019-09-28T09:58:23Z</time>
      </trkpt>
      <trkpt lat="44.13387" lon="7.02041">
        <ele>1584.39</ele>
        <time>2019-09-28T09:58:24Z</time>
      </trkpt>
      <trkpt lat="44.13384" lon="7.02047">
        <ele>1584.39</ele>
        <time>2019-09-28T09:58:25Z</time>
      </trkpt>
      <trkpt lat="44.13372" lon="7.02079">
        <ele>1583.91</ele>
        <time>2019-09-28T09:58:30Z</time>
      </trkpt>
      <trkpt lat="44.13364" lon="7.02092">
        <ele>1583.91</ele>
        <time>2019-09-28T09:58:33Z</time>
      </trkpt>
      <trkpt lat="44.13362" lon="7.02097">
        <ele>1583.91</ele>
        <time>2019-09-28T09:58:34Z</time>
      </trkpt>
      <trkpt lat="44.13359" lon="7.02103">
        <ele>1583.43</ele>
        <time>2019-09-28T09:58:35Z</time>
      </trkpt>
      <trkpt lat="44.1334" lon="7.02121">
        <ele>1581.99</ele>
        <time>2019-09-28T09:58:41Z</time>
      </trkpt>
      <trkpt lat="44.13336" lon="7.02126">
        <ele>1581.99</ele>
        <time>2019-09-28T09:58:42Z</time>
      </trkpt>
      <trkpt lat="44.13333" lon="7.02132">
        <ele>1581.99</ele>
        <time>2019-09-28T09:58:43Z</time>
      </trkpt>
      <trkpt lat="44.13333" lon="7.02137">
        <ele>1581.51</ele>
        <time>2019-09-28T09:58:44Z</time>
      </trkpt>
      <trkpt lat="44.13333" lon="7.02143">
        <ele>1581.51</ele>
        <time>2019-09-28T09:58:45Z</time>
      </trkpt>
      <trkpt lat="44.13326" lon="7.02169">
        <ele>1578.62</ele>
        <time>2019-09-28T09:58:52Z</time>
      </trkpt>
      <trkpt lat="44.13324" lon="7.02174">
        <ele>1578.14</ele>
        <time>2019-09-28T09:58:53Z</time>
      </trkpt>
      <trkpt lat="44.13295" lon="7.02218">
        <ele>1572.85</ele>
        <time>2019-09-28T09:59:05Z</time>
      </trkpt>
      <trkpt lat="44.13278" lon="7.02247">
        <ele>1570.93</ele>
        <time>2019-09-28T09:59:12Z</time>
      </trkpt>
      <trkpt lat="44.13261" lon="7.02265">
        <ele>1569.97</ele>
        <time>2019-09-28T09:59:17Z</time>
      </trkpt>
      <trkpt lat="44.13256" lon="7.02268">
        <ele>1569.97</ele>
        <time>2019-09-28T09:59:18Z</time>
      </trkpt>
      <trkpt lat="44.13241" lon="7.02279">
        <ele>1569.49</ele>
        <time>2019-09-28T09:59:21Z</time>
      </trkpt>
      <trkpt lat="44.13235" lon="7.02285">
        <ele>1569.49</ele>
        <time>2019-09-28T09:59:22Z</time>
      </trkpt>
      <trkpt lat="44.13231" lon="7.02292">
        <ele>1569.49</ele>
        <time>2019-09-28T09:59:23Z</time>
      </trkpt>
      <trkpt lat="44.13227" lon="7.02301">
        <ele>1569.49</ele>
        <time>2019-09-28T09:59:24Z</time>
      </trkpt>
      <trkpt lat="44.13224" lon="7.0231">
        <ele>1569.01</ele>
        <time>2019-09-28T09:59:25Z</time>
      </trkpt>
      <trkpt lat="44.13222" lon="7.02317">
        <ele>1569.01</ele>
        <time>2019-09-28T09:59:26Z</time>
      </trkpt>
      <trkpt lat="44.13221" lon="7.02323">
        <ele>1569.01</ele>
        <time>2019-09-28T09:59:27Z</time>
      </trkpt>
      <trkpt lat="44.13219" lon="7.02328">
        <ele>1568.05</ele>
        <time>2019-09-28T09:59:28Z</time>
      </trkpt>
      <trkpt lat="44.13217" lon="7.02332">
        <ele>1567.57</ele>
        <time>2019-09-28T09:59:29Z</time>
      </trkpt>
      <trkpt lat="44.13215" lon="7.02335">
        <ele>1567.09</ele>
        <time>2019-09-28T09:59:30Z</time>
      </trkpt>
      <trkpt lat="44.13212" lon="7.02338">
        <ele>1566.12</ele>
        <time>2019-09-28T09:59:31Z</time>
      </trkpt>
      <trkpt lat="44.13207" lon="7.02341">
        <ele>1565.64</ele>
        <time>2019-09-28T09:59:32Z</time>
      </trkpt>
      <trkpt lat="44.13194" lon="7.02351">
        <ele>1564.2</ele>
        <time>2019-09-28T09:59:35Z</time>
      </trkpt>
      <trkpt lat="44.13179" lon="7.02365">
        <ele>1563.24</ele>
        <time>2019-09-28T09:59:38Z</time>
      </trkpt>
      <trkpt lat="44.13173" lon="7.02368">
        <ele>1563.24</ele>
        <time>2019-09-28T09:59:39Z</time>
      </trkpt>
      <trkpt lat="44.13167" lon="7.02368">
        <ele>1563.24</ele>
        <time>2019-09-28T09:59:40Z</time>
      </trkpt>
      <trkpt lat="44.13162" lon="7.02366">
        <ele>1562.76</ele>
        <time>2019-09-28T09:59:41Z</time>
      </trkpt>
      <trkpt lat="44.13156" lon="7.02364">
        <ele>1562.76</ele>
        <time>2019-09-28T09:59:42Z</time>
      </trkpt>
      <trkpt lat="44.13151" lon="7.02363">
        <ele>1562.76</ele>
        <time>2019-09-28T09:59:43Z</time>
      </trkpt>
      <trkpt lat="44.13146" lon="7.02364">
        <ele>1562.28</ele>
        <time>2019-09-28T09:59:44Z</time>
      </trkpt>
      <trkpt lat="44.13141" lon="7.02366">
        <ele>1561.8</ele>
        <time>2019-09-28T09:59:45Z</time>
      </trkpt>
      <trkpt lat="44.1313" lon="7.02372">
        <ele>1560.84</ele>
        <time>2019-09-28T09:59:47Z</time>
      </trkpt>
      <trkpt lat="44.13108" lon="7.02387">
        <ele>1557.95</ele>
        <time>2019-09-28T09:59:51Z</time>
      </trkpt>
      <trkpt lat="44.13105" lon="7.02388">
        <ele>1557.47</ele>
        <time>2019-09-28T09:59:52Z</time>
      </trkpt>
      <trkpt lat="44.13102" lon="7.02389">
        <ele>1556.51</ele>
        <time>2019-09-28T09:59:53Z</time>
      </trkpt>
      <trkpt lat="44.13099" lon="7.0239">
        <ele>1556.03</ele>
        <time>2019-09-28T09:59:54Z</time>
      </trkpt>
      <trkpt lat="44.13096" lon="7.02392">
        <ele>1555.07</ele>
        <time>2019-09-28T09:59:55Z</time>
      </trkpt>
      <trkpt lat="44.13093" lon="7.02392">
        <ele>1549.3</ele>
        <time>2019-09-28T10:00:07Z</time>
      </trkpt>
      <trkpt lat="44.1309" lon="7.02392">
        <ele>1545.94</ele>
        <time>2019-09-28T10:00:35Z</time>
      </trkpt>
      <trkpt lat="44.13091" lon="7.02393">
        <ele>1544.98</ele>
        <time>2019-09-28T10:00:59Z</time>
      </trkpt>
      <trkpt lat="44.1309" lon="7.02395">
        <ele>1546.42</ele>
        <time>2019-09-28T10:01:13Z</time>
      </trkpt>
      <trkpt lat="44.1309" lon="7.02395">
        <ele>1545.94</ele>
        <time>2019-09-28T10:01:31Z</time>
      </trkpt>
      <trkpt lat="44.13091" lon="7.02393">
        <ele>1544.01</ele>
        <time>2019-09-28T10:01:51Z</time>
      </trkpt>
      <trkpt lat="44.13089" lon="7.02397">
        <ele>1542.09</ele>
        <time>2019-09-28T10:02:05Z</time>
      </trkpt>
      <trkpt lat="44.13087" lon="7.02399">
        <ele>1542.09</ele>
        <time>2019-09-28T10:02:06Z</time>
      </trkpt>
      <trkpt lat="44.13085" lon="7.02401">
        <ele>1541.61</ele>
        <time>2019-09-28T10:02:07Z</time>
      </trkpt>
      <trkpt lat="44.13082" lon="7.02403">
        <ele>1541.13</ele>
        <time>2019-09-28T10:02:08Z</time>
      </trkpt>
      <trkpt lat="44.13078" lon="7.02406">
        <ele>1541.13</ele>
        <time>2019-09-28T10:02:09Z</time>
      </trkpt>
      <trkpt lat="44.13074" lon="7.0241">
        <ele>1540.65</ele>
        <time>2019-09-28T10:02:10Z</time>
      </trkpt>
      <trkpt lat="44.1306" lon="7.02421">
        <ele>1538.73</ele>
        <time>2019-09-28T10:02:14Z</time>
      </trkpt>
      <trkpt lat="44.13056" lon="7.02421">
        <ele>1538.25</ele>
        <time>2019-09-28T10:02:15Z</time>
      </trkpt>
      <trkpt lat="44.13051" lon="7.02421">
        <ele>1538.25</ele>
        <time>2019-09-28T10:02:16Z</time>
      </trkpt>
      <trkpt lat="44.1304" lon="7.02421">
        <ele>1537.77</ele>
        <time>2019-09-28T10:02:18Z</time>
      </trkpt>
      <trkpt lat="44.13034" lon="7.02422">
        <ele>1537.29</ele>
        <time>2019-09-28T10:02:19Z</time>
      </trkpt>
      <trkpt lat="44.13029" lon="7.02424">
        <ele>1536.8</ele>
        <time>2019-09-28T10:02:20Z</time>
      </trkpt>
      <trkpt lat="44.13023" lon="7.02427">
        <ele>1536.32</ele>
        <time>2019-09-28T10:02:21Z</time>
      </trkpt>
      <trkpt lat="44.13019" lon="7.02428">
        <ele>1535.84</ele>
        <time>2019-09-28T10:02:22Z</time>
      </trkpt>
      <trkpt lat="44.13014" lon="7.02429">
        <ele>1534.88</ele>
        <time>2019-09-28T10:02:23Z</time>
      </trkpt>
      <trkpt lat="44.13008" lon="7.02429">
        <ele>1534.4</ele>
        <time>2019-09-28T10:02:24Z</time>
      </trkpt>
      <trkpt lat="44.12995" lon="7.0243">
        <ele>1533.44</ele>
        <time>2019-09-28T10:02:26Z</time>
      </trkpt>
      <trkpt lat="44.12985" lon="7.02433">
        <ele>1532</ele>
        <time>2019-09-28T10:02:28Z</time>
      </trkpt>
      <trkpt lat="44.12968" lon="7.02433">
        <ele>1530.08</ele>
        <time>2019-09-28T10:02:31Z</time>
      </trkpt>
      <trkpt lat="44.12961" lon="7.02433">
        <ele>1529.59</ele>
        <time>2019-09-28T10:02:32Z</time>
      </trkpt>
      <trkpt lat="44.12957" lon="7.02435">
        <ele>1528.63</ele>
        <time>2019-09-28T10:02:33Z</time>
      </trkpt>
      <trkpt lat="44.12947" lon="7.02439">
        <ele>1527.67</ele>
        <time>2019-09-28T10:02:35Z</time>
      </trkpt>
      <trkpt lat="44.12943" lon="7.02439">
        <ele>1527.19</ele>
        <time>2019-09-28T10:02:36Z</time>
      </trkpt>
      <trkpt lat="44.12938" lon="7.02439">
        <ele>1527.19</ele>
        <time>2019-09-28T10:02:37Z</time>
      </trkpt>
      <trkpt lat="44.12933" lon="7.02437">
        <ele>1526.71</ele>
        <time>2019-09-28T10:02:38Z</time>
      </trkpt>
      <trkpt lat="44.12929" lon="7.02434">
        <ele>1526.23</ele>
        <time>2019-09-28T10:02:39Z</time>
      </trkpt>
      <trkpt lat="44.12924" lon="7.0243">
        <ele>1525.75</ele>
        <time>2019-09-28T10:02:40Z</time>
      </trkpt>
      <trkpt lat="44.12919" lon="7.02428">
        <ele>1525.27</ele>
        <time>2019-09-28T10:02:41Z</time>
      </trkpt>
      <trkpt lat="44.12913" lon="7.02428">
        <ele>1524.79</ele>
        <time>2019-09-28T10:02:42Z</time>
      </trkpt>
      <trkpt lat="44.12907" lon="7.02431">
        <ele>1524.31</ele>
        <time>2019-09-28T10:02:43Z</time>
      </trkpt>
      <trkpt lat="44.12902" lon="7.02436">
        <ele>1523.83</ele>
        <time>2019-09-28T10:02:44Z</time>
      </trkpt>
      <trkpt lat="44.12899" lon="7.0244">
        <ele>1523.35</ele>
        <time>2019-09-28T10:02:45Z</time>
      </trkpt>
      <trkpt lat="44.12897" lon="7.02446">
        <ele>1522.87</ele>
        <time>2019-09-28T10:02:46Z</time>
      </trkpt>
      <trkpt lat="44.12895" lon="7.02453">
        <ele>1522.39</ele>
        <time>2019-09-28T10:02:47Z</time>
      </trkpt>
      <trkpt lat="44.12893" lon="7.02457">
        <ele>1521.9</ele>
        <time>2019-09-28T10:02:48Z</time>
      </trkpt>
      <trkpt lat="44.12888" lon="7.02461">
        <ele>1521.42</ele>
        <time>2019-09-28T10:02:49Z</time>
      </trkpt>
      <trkpt lat="44.12871" lon="7.02461">
        <ele>1519.98</ele>
        <time>2019-09-28T10:02:52Z</time>
      </trkpt>
      <trkpt lat="44.12865" lon="7.02463">
        <ele>1519.5</ele>
        <time>2019-09-28T10:02:53Z</time>
      </trkpt>
      <trkpt lat="44.12862" lon="7.02466">
        <ele>1519.02</ele>
        <time>2019-09-28T10:02:54Z</time>
      </trkpt>
      <trkpt lat="44.12858" lon="7.02472">
        <ele>1518.54</ele>
        <time>2019-09-28T10:02:55Z</time>
      </trkpt>
      <trkpt lat="44.12855" lon="7.02476">
        <ele>1518.06</ele>
        <time>2019-09-28T10:02:56Z</time>
      </trkpt>
      <trkpt lat="44.12844" lon="7.02485">
        <ele>1515.66</ele>
        <time>2019-09-28T10:02:59Z</time>
      </trkpt>
      <trkpt lat="44.12812" lon="7.02484">
        <ele>1512.77</ele>
        <time>2019-09-28T10:03:05Z</time>
      </trkpt>
      <trkpt lat="44.12806" lon="7.02484">
        <ele>1512.29</ele>
        <time>2019-09-28T10:03:06Z</time>
      </trkpt>
      <trkpt lat="44.128" lon="7.02484">
        <ele>1511.81</ele>
        <time>2019-09-28T10:03:07Z</time>
      </trkpt>
      <trkpt lat="44.12793" lon="7.02483">
        <ele>1511.33</ele>
        <time>2019-09-28T10:03:08Z</time>
      </trkpt>
      <trkpt lat="44.12787" lon="7.02483">
        <ele>1510.85</ele>
        <time>2019-09-28T10:03:09Z</time>
      </trkpt>
      <trkpt lat="44.12775" lon="7.0248">
        <ele>1509.89</ele>
        <time>2019-09-28T10:03:11Z</time>
      </trkpt>
      <trkpt lat="44.12768" lon="7.02477">
        <ele>1509.41</ele>
        <time>2019-09-28T10:03:12Z</time>
      </trkpt>
      <trkpt lat="44.12724" lon="7.02466">
        <ele>1507.97</ele>
        <time>2019-09-28T10:03:19Z</time>
      </trkpt>
      <trkpt lat="44.1272" lon="7.02463">
        <ele>1507.97</ele>
        <time>2019-09-28T10:03:20Z</time>
      </trkpt>
      <trkpt lat="44.12715" lon="7.02458">
        <ele>1507.48</ele>
        <time>2019-09-28T10:03:21Z</time>
      </trkpt>
      <trkpt lat="44.12713" lon="7.02452">
        <ele>1507.48</ele>
        <time>2019-09-28T10:03:22Z</time>
      </trkpt>
      <trkpt lat="44.1271" lon="7.02445">
        <ele>1507</ele>
        <time>2019-09-28T10:03:23Z</time>
      </trkpt>
      <trkpt lat="44.12707" lon="7.02438">
        <ele>1506.52</ele>
        <time>2019-09-28T10:03:24Z</time>
      </trkpt>
      <trkpt lat="44.12705" lon="7.0243">
        <ele>1506.04</ele>
        <time>2019-09-28T10:03:25Z</time>
      </trkpt>
      <trkpt lat="44.12699" lon="7.02417">
        <ele>1505.08</ele>
        <time>2019-09-28T10:03:27Z</time>
      </trkpt>
      <trkpt lat="44.12696" lon="7.02414">
        <ele>1504.12</ele>
        <time>2019-09-28T10:03:28Z</time>
      </trkpt>
      <trkpt lat="44.12693" lon="7.02412">
        <ele>1503.64</ele>
        <time>2019-09-28T10:03:29Z</time>
      </trkpt>
      <trkpt lat="44.12689" lon="7.02411">
        <ele>1503.64</ele>
        <time>2019-09-28T10:03:30Z</time>
      </trkpt>
      <trkpt lat="44.12685" lon="7.02412">
        <ele>1503.16</ele>
        <time>2019-09-28T10:03:31Z</time>
      </trkpt>
      <trkpt lat="44.1268" lon="7.02414">
        <ele>1503.16</ele>
        <time>2019-09-28T10:03:32Z</time>
      </trkpt>
      <trkpt lat="44.12675" lon="7.02416">
        <ele>1502.68</ele>
        <time>2019-09-28T10:03:33Z</time>
      </trkpt>
      <trkpt lat="44.12669" lon="7.02418">
        <ele>1502.68</ele>
        <time>2019-09-28T10:03:34Z</time>
      </trkpt>
      <trkpt lat="44.12663" lon="7.02422">
        <ele>1502.68</ele>
        <time>2019-09-28T10:03:35Z</time>
      </trkpt>
      <trkpt lat="44.12657" lon="7.02427">
        <ele>1502.2</ele>
        <time>2019-09-28T10:03:36Z</time>
      </trkpt>
      <trkpt lat="44.12651" lon="7.02432">
        <ele>1502.2</ele>
        <time>2019-09-28T10:03:37Z</time>
      </trkpt>
      <trkpt lat="44.12646" lon="7.02437">
        <ele>1501.72</ele>
        <time>2019-09-28T10:03:38Z</time>
      </trkpt>
      <trkpt lat="44.12637" lon="7.02447">
        <ele>1500.76</ele>
        <time>2019-09-28T10:03:40Z</time>
      </trkpt>
      <trkpt lat="44.12632" lon="7.02454">
        <ele>1500.27</ele>
        <time>2019-09-28T10:03:41Z</time>
      </trkpt>
      <trkpt lat="44.12616" lon="7.02477">
        <ele>1497.87</ele>
        <time>2019-09-28T10:03:45Z</time>
      </trkpt>
      <trkpt lat="44.12611" lon="7.02481">
        <ele>1497.39</ele>
        <time>2019-09-28T10:03:46Z</time>
      </trkpt>
      <trkpt lat="44.12605" lon="7.02484">
        <ele>1496.91</ele>
        <time>2019-09-28T10:03:47Z</time>
      </trkpt>
      <trkpt lat="44.12599" lon="7.02486">
        <ele>1496.43</ele>
        <time>2019-09-28T10:03:48Z</time>
      </trkpt>
      <trkpt lat="44.12593" lon="7.02487">
        <ele>1495.95</ele>
        <time>2019-09-28T10:03:49Z</time>
      </trkpt>
      <trkpt lat="44.12509" lon="7.02512">
        <ele>1488.26</ele>
        <time>2019-09-28T10:04:00Z</time>
      </trkpt>
      <trkpt lat="44.12495" lon="7.02518">
        <ele>1487.3</ele>
        <time>2019-09-28T10:04:02Z</time>
      </trkpt>
      <trkpt lat="44.12488" lon="7.02523">
        <ele>1486.82</ele>
        <time>2019-09-28T10:04:03Z</time>
      </trkpt>
      <trkpt lat="44.12481" lon="7.02529">
        <ele>1485.85</ele>
        <time>2019-09-28T10:04:04Z</time>
      </trkpt>
      <trkpt lat="44.12429" lon="7.02591">
        <ele>1480.09</ele>
        <time>2019-09-28T10:04:12Z</time>
      </trkpt>
      <trkpt lat="44.12423" lon="7.026">
        <ele>1479.61</ele>
        <time>2019-09-28T10:04:13Z</time>
      </trkpt>
      <trkpt lat="44.12403" lon="7.02632">
        <ele>1477.2</ele>
        <time>2019-09-28T10:04:17Z</time>
      </trkpt>
      <trkpt lat="44.12358" lon="7.02678">
        <ele>1470.95</ele>
        <time>2019-09-28T10:04:28Z</time>
      </trkpt>
      <trkpt lat="44.12347" lon="7.02686">
        <ele>1468.55</ele>
        <time>2019-09-28T10:04:39Z</time>
      </trkpt>
      <trkpt lat="44.12329" lon="7.02712">
        <ele>1466.15</ele>
        <time>2019-09-28T10:04:48Z</time>
      </trkpt>
      <trkpt lat="44.12326" lon="7.02716">
        <ele>1465.67</ele>
        <time>2019-09-28T10:04:49Z</time>
      </trkpt>
      <trkpt lat="44.12323" lon="7.02719">
        <ele>1465.19</ele>
        <time>2019-09-28T10:04:50Z</time>
      </trkpt>
      <trkpt lat="44.12318" lon="7.02719">
        <ele>1464.71</ele>
        <time>2019-09-28T10:04:52Z</time>
      </trkpt>
      <trkpt lat="44.12316" lon="7.02716">
        <ele>1464.23</ele>
        <time>2019-09-28T10:04:53Z</time>
      </trkpt>
      <trkpt lat="44.12316" lon="7.02713">
        <ele>1463.74</ele>
        <time>2019-09-28T10:04:54Z</time>
      </trkpt>
      <trkpt lat="44.12315" lon="7.0271">
        <ele>1463.74</ele>
        <time>2019-09-28T10:04:55Z</time>
      </trkpt>
      <trkpt lat="44.12315" lon="7.02706">
        <ele>1463.74</ele>
        <time>2019-09-28T10:04:56Z</time>
      </trkpt>
      <trkpt lat="44.12314" lon="7.02701">
        <ele>1463.74</ele>
        <time>2019-09-28T10:04:57Z</time>
      </trkpt>
      <trkpt lat="44.12313" lon="7.02695">
        <ele>1463.26</ele>
        <time>2019-09-28T10:04:58Z</time>
      </trkpt>
      <trkpt lat="44.12312" lon="7.02691">
        <ele>1462.78</ele>
        <time>2019-09-28T10:04:59Z</time>
      </trkpt>
      <trkpt lat="44.1231" lon="7.02687">
        <ele>1462.78</ele>
        <time>2019-09-28T10:05:00Z</time>
      </trkpt>
      <trkpt lat="44.12308" lon="7.02682">
        <ele>1462.78</ele>
        <time>2019-09-28T10:05:01Z</time>
      </trkpt>
      <trkpt lat="44.12302" lon="7.02661">
        <ele>1462.3</ele>
        <time>2019-09-28T10:05:05Z</time>
      </trkpt>
      <trkpt lat="44.12302" lon="7.02656">
        <ele>1461.82</ele>
        <time>2019-09-28T10:05:06Z</time>
      </trkpt>
      <trkpt lat="44.12303" lon="7.02642">
        <ele>1461.34</ele>
        <time>2019-09-28T10:05:08Z</time>
      </trkpt>
      <trkpt lat="44.12303" lon="7.02637">
        <ele>1460.86</ele>
        <time>2019-09-28T10:05:09Z</time>
      </trkpt>
      <trkpt lat="44.12304" lon="7.02632">
        <ele>1460.86</ele>
        <time>2019-09-28T10:05:10Z</time>
      </trkpt>
      <trkpt lat="44.12306" lon="7.02627">
        <ele>1460.38</ele>
        <time>2019-09-28T10:05:11Z</time>
      </trkpt>
      <trkpt lat="44.12307" lon="7.02624">
        <ele>1460.38</ele>
        <time>2019-09-28T10:05:12Z</time>
      </trkpt>
      <trkpt lat="44.12308" lon="7.0262">
        <ele>1459.9</ele>
        <time>2019-09-28T10:05:13Z</time>
      </trkpt>
      <trkpt lat="44.12307" lon="7.02615">
        <ele>1459.9</ele>
        <time>2019-09-28T10:05:14Z</time>
      </trkpt>
      <trkpt lat="44.12307" lon="7.02613">
        <ele>1459.9</ele>
        <time>2019-09-28T10:05:15Z</time>
      </trkpt>
      <trkpt lat="44.12305" lon="7.02611">
        <ele>1459.9</ele>
        <time>2019-09-28T10:05:16Z</time>
      </trkpt>
      <trkpt lat="44.12303" lon="7.0261">
        <ele>1459.9</ele>
        <time>2019-09-28T10:05:17Z</time>
      </trkpt>
      <trkpt lat="44.12301" lon="7.02611">
        <ele>1459.9</ele>
        <time>2019-09-28T10:05:18Z</time>
      </trkpt>
      <trkpt lat="44.12299" lon="7.02614">
        <ele>1459.42</ele>
        <time>2019-09-28T10:05:19Z</time>
      </trkpt>
      <trkpt lat="44.12298" lon="7.02618">
        <ele>1459.42</ele>
        <time>2019-09-28T10:05:20Z</time>
      </trkpt>
      <trkpt lat="44.12298" lon="7.02621">
        <ele>1459.42</ele>
        <time>2019-09-28T10:05:21Z</time>
      </trkpt>
      <trkpt lat="44.12286" lon="7.02694">
        <ele>1456.53</ele>
        <time>2019-09-28T10:05:32Z</time>
      </trkpt>
      <trkpt lat="44.12282" lon="7.02718">
        <ele>1454.61</ele>
        <time>2019-09-28T10:05:35Z</time>
      </trkpt>
      <trkpt lat="44.12279" lon="7.02726">
        <ele>1454.13</ele>
        <time>2019-09-28T10:05:36Z</time>
      </trkpt>
      <trkpt lat="44.12256" lon="7.0278">
        <ele>1448.84</ele>
        <time>2019-09-28T10:05:44Z</time>
      </trkpt>
      <trkpt lat="44.12252" lon="7.02785">
        <ele>1448.36</ele>
        <time>2019-09-28T10:05:45Z</time>
      </trkpt>
      <trkpt lat="44.12243" lon="7.02801">
        <ele>1445.96</ele>
        <time>2019-09-28T10:05:49Z</time>
      </trkpt>
      <trkpt lat="44.12244" lon="7.02806">
        <ele>1445.48</ele>
        <time>2019-09-28T10:05:50Z</time>
      </trkpt>
      <trkpt lat="44.12246" lon="7.02819">
        <ele>1444.52</ele>
        <time>2019-09-28T10:05:52Z</time>
      </trkpt>
      <trkpt lat="44.12246" lon="7.02825">
        <ele>1444.52</ele>
        <time>2019-09-28T10:05:53Z</time>
      </trkpt>
      <trkpt lat="44.12244" lon="7.02832">
        <ele>1444.04</ele>
        <time>2019-09-28T10:05:54Z</time>
      </trkpt>
      <trkpt lat="44.1224" lon="7.02849">
        <ele>1443.56</ele>
        <time>2019-09-28T10:05:57Z</time>
      </trkpt>
      <trkpt lat="44.12241" lon="7.02855">
        <ele>1443.08</ele>
        <time>2019-09-28T10:05:58Z</time>
      </trkpt>
      <trkpt lat="44.12242" lon="7.02862">
        <ele>1442.6</ele>
        <time>2019-09-28T10:05:59Z</time>
      </trkpt>
      <trkpt lat="44.12244" lon="7.02866">
        <ele>1442.11</ele>
        <time>2019-09-28T10:06:00Z</time>
      </trkpt>
      <trkpt lat="44.12246" lon="7.02869">
        <ele>1442.11</ele>
        <time>2019-09-28T10:06:01Z</time>
      </trkpt>
      <trkpt lat="44.12249" lon="7.02869">
        <ele>1441.63</ele>
        <time>2019-09-28T10:06:02Z</time>
      </trkpt>
      <trkpt lat="44.12253" lon="7.02869">
        <ele>1441.15</ele>
        <time>2019-09-28T10:06:03Z</time>
      </trkpt>
      <trkpt lat="44.12257" lon="7.02867">
        <ele>1440.67</ele>
        <time>2019-09-28T10:06:04Z</time>
      </trkpt>
      <trkpt lat="44.12261" lon="7.02866">
        <ele>1440.67</ele>
        <time>2019-09-28T10:06:05Z</time>
      </trkpt>
      <trkpt lat="44.12278" lon="7.02862">
        <ele>1438.75</ele>
        <time>2019-09-28T10:06:09Z</time>
      </trkpt>
      <trkpt lat="44.12283" lon="7.02862">
        <ele>1438.27</ele>
        <time>2019-09-28T10:06:10Z</time>
      </trkpt>
      <trkpt lat="44.12288" lon="7.02861">
        <ele>1437.79</ele>
        <time>2019-09-28T10:06:11Z</time>
      </trkpt>
      <trkpt lat="44.12292" lon="7.02859">
        <ele>1437.79</ele>
        <time>2019-09-28T10:06:12Z</time>
      </trkpt>
      <trkpt lat="44.12296" lon="7.02856">
        <ele>1437.31</ele>
        <time>2019-09-28T10:06:13Z</time>
      </trkpt>
      <trkpt lat="44.123" lon="7.02854">
        <ele>1437.31</ele>
        <time>2019-09-28T10:06:14Z</time>
      </trkpt>
      <trkpt lat="44.12304" lon="7.02854">
        <ele>1436.83</ele>
        <time>2019-09-28T10:06:15Z</time>
      </trkpt>
      <trkpt lat="44.12305" lon="7.02856">
        <ele>1436.83</ele>
        <time>2019-09-28T10:06:16Z</time>
      </trkpt>
      <trkpt lat="44.12306" lon="7.0286">
        <ele>1435.87</ele>
        <time>2019-09-28T10:06:17Z</time>
      </trkpt>
      <trkpt lat="44.12304" lon="7.02864">
        <ele>1435.87</ele>
        <time>2019-09-28T10:06:18Z</time>
      </trkpt>
      <trkpt lat="44.12302" lon="7.02867">
        <ele>1435.39</ele>
        <time>2019-09-28T10:06:19Z</time>
      </trkpt>
      <trkpt lat="44.12299" lon="7.02869">
        <ele>1434.91</ele>
        <time>2019-09-28T10:06:20Z</time>
      </trkpt>
      <trkpt lat="44.12294" lon="7.0287">
        <ele>1434.91</ele>
        <time>2019-09-28T10:06:21Z</time>
      </trkpt>
      <trkpt lat="44.12289" lon="7.02872">
        <ele>1434.91</ele>
        <time>2019-09-28T10:06:22Z</time>
      </trkpt>
      <trkpt lat="44.12253" lon="7.02893">
        <ele>1433.46</ele>
        <time>2019-09-28T10:06:29Z</time>
      </trkpt>
      <trkpt lat="44.12247" lon="7.02894">
        <ele>1432.98</ele>
        <time>2019-09-28T10:06:30Z</time>
      </trkpt>
      <trkpt lat="44.12235" lon="7.02898">
        <ele>1431.54</ele>
        <time>2019-09-28T10:06:33Z</time>
      </trkpt>
      <trkpt lat="44.12231" lon="7.02896">
        <ele>1431.06</ele>
        <time>2019-09-28T10:06:34Z</time>
      </trkpt>
      <trkpt lat="44.12221" lon="7.02886">
        <ele>1429.14</ele>
        <time>2019-09-28T10:06:37Z</time>
      </trkpt>
      <trkpt lat="44.12218" lon="7.02883">
        <ele>1428.66</ele>
        <time>2019-09-28T10:06:38Z</time>
      </trkpt>
      <trkpt lat="44.12215" lon="7.02877">
        <ele>1427.7</ele>
        <time>2019-09-28T10:06:39Z</time>
      </trkpt>
      <trkpt lat="44.12214" lon="7.02873">
        <ele>1427.21</ele>
        <time>2019-09-28T10:06:40Z</time>
      </trkpt>
      <trkpt lat="44.12213" lon="7.02868">
        <ele>1426.25</ele>
        <time>2019-09-28T10:06:41Z</time>
      </trkpt>
      <trkpt lat="44.12212" lon="7.02861">
        <ele>1425.29</ele>
        <time>2019-09-28T10:06:42Z</time>
      </trkpt>
      <trkpt lat="44.1221" lon="7.02848">
        <ele>1423.37</ele>
        <time>2019-09-28T10:06:44Z</time>
      </trkpt>
      <trkpt lat="44.12209" lon="7.0284">
        <ele>1422.41</ele>
        <time>2019-09-28T10:06:45Z</time>
      </trkpt>
      <trkpt lat="44.12206" lon="7.02818">
        <ele>1420</ele>
        <time>2019-09-28T10:06:48Z</time>
      </trkpt>
      <trkpt lat="44.12204" lon="7.02812">
        <ele>1419.04</ele>
        <time>2019-09-28T10:06:49Z</time>
      </trkpt>
      <trkpt lat="44.12202" lon="7.02805">
        <ele>1418.08</ele>
        <time>2019-09-28T10:06:50Z</time>
      </trkpt>
      <trkpt lat="44.12198" lon="7.028">
        <ele>1417.6</ele>
        <time>2019-09-28T10:06:51Z</time>
      </trkpt>
      <trkpt lat="44.12192" lon="7.02797">
        <ele>1416.64</ele>
        <time>2019-09-28T10:06:52Z</time>
      </trkpt>
      <trkpt lat="44.12186" lon="7.02795">
        <ele>1416.16</ele>
        <time>2019-09-28T10:06:53Z</time>
      </trkpt>
      <trkpt lat="44.1218" lon="7.02794">
        <ele>1415.68</ele>
        <time>2019-09-28T10:06:54Z</time>
      </trkpt>
      <trkpt lat="44.12143" lon="7.02812">
        <ele>1412.31</ele>
        <time>2019-09-28T10:07:03Z</time>
      </trkpt>
      <trkpt lat="44.12136" lon="7.02819">
        <ele>1410.87</ele>
        <time>2019-09-28T10:07:05Z</time>
      </trkpt>
      <trkpt lat="44.1212" lon="7.02834">
        <ele>1409.91</ele>
        <time>2019-09-28T10:07:09Z</time>
      </trkpt>
      <trkpt lat="44.12093" lon="7.02887">
        <ele>1409.43</ele>
        <time>2019-09-28T10:07:17Z</time>
      </trkpt>
      <trkpt lat="44.1209" lon="7.02895">
        <ele>1409.43</ele>
        <time>2019-09-28T10:07:18Z</time>
      </trkpt>
      <trkpt lat="44.12087" lon="7.02901">
        <ele>1409.43</ele>
        <time>2019-09-28T10:07:19Z</time>
      </trkpt>
      <trkpt lat="44.12067" lon="7.0294">
        <ele>1408.47</ele>
        <time>2019-09-28T10:07:25Z</time>
      </trkpt>
      <trkpt lat="44.12057" lon="7.0295">
        <ele>1407.99</ele>
        <time>2019-09-28T10:07:27Z</time>
      </trkpt>
      <trkpt lat="44.12052" lon="7.02954">
        <ele>1407.51</ele>
        <time>2019-09-28T10:07:28Z</time>
      </trkpt>
      <trkpt lat="44.12048" lon="7.02958">
        <ele>1407.51</ele>
        <time>2019-09-28T10:07:29Z</time>
      </trkpt>
      <trkpt lat="44.12039" lon="7.02965">
        <ele>1406.07</ele>
        <time>2019-09-28T10:07:31Z</time>
      </trkpt>
      <trkpt lat="44.11969" lon="7.03004">
        <ele>1398.86</ele>
        <time>2019-09-28T10:07:44Z</time>
      </trkpt>
      <trkpt lat="44.1195" lon="7.03017">
        <ele>1396.45</ele>
        <time>2019-09-28T10:07:47Z</time>
      </trkpt>
      <trkpt lat="44.11944" lon="7.03022">
        <ele>1395.97</ele>
        <time>2019-09-28T10:07:48Z</time>
      </trkpt>
      <trkpt lat="44.11938" lon="7.03027">
        <ele>1394.53</ele>
        <time>2019-09-28T10:07:49Z</time>
      </trkpt>
      <trkpt lat="44.11931" lon="7.0303">
        <ele>1393.57</ele>
        <time>2019-09-28T10:07:50Z</time>
      </trkpt>
      <trkpt lat="44.11925" lon="7.03034">
        <ele>1392.13</ele>
        <time>2019-09-28T10:07:51Z</time>
      </trkpt>
      <trkpt lat="44.11918" lon="7.03039">
        <ele>1391.17</ele>
        <time>2019-09-28T10:07:52Z</time>
      </trkpt>
      <trkpt lat="44.11912" lon="7.03044">
        <ele>1390.2</ele>
        <time>2019-09-28T10:07:53Z</time>
      </trkpt>
      <trkpt lat="44.11906" lon="7.03049">
        <ele>1389.24</ele>
        <time>2019-09-28T10:07:54Z</time>
      </trkpt>
      <trkpt lat="44.11901" lon="7.03053">
        <ele>1388.28</ele>
        <time>2019-09-28T10:07:55Z</time>
      </trkpt>
      <trkpt lat="44.11895" lon="7.03055">
        <ele>1387.32</ele>
        <time>2019-09-28T10:07:56Z</time>
      </trkpt>
      <trkpt lat="44.11889" lon="7.03057">
        <ele>1386.36</ele>
        <time>2019-09-28T10:07:57Z</time>
      </trkpt>
      <trkpt lat="44.11883" lon="7.03058">
        <ele>1385.88</ele>
        <time>2019-09-28T10:07:58Z</time>
      </trkpt>
      <trkpt lat="44.11863" lon="7.03061">
        <ele>1383.96</ele>
        <time>2019-09-28T10:08:02Z</time>
      </trkpt>
      <trkpt lat="44.1186" lon="7.03059">
        <ele>1383.96</ele>
        <time>2019-09-28T10:08:03Z</time>
      </trkpt>
      <trkpt lat="44.11858" lon="7.03056">
        <ele>1383.47</ele>
        <time>2019-09-28T10:08:04Z</time>
      </trkpt>
      <trkpt lat="44.11855" lon="7.03052">
        <ele>1382.99</ele>
        <time>2019-09-28T10:08:05Z</time>
      </trkpt>
      <trkpt lat="44.11852" lon="7.03048">
        <ele>1382.99</ele>
        <time>2019-09-28T10:08:06Z</time>
      </trkpt>
      <trkpt lat="44.11848" lon="7.03044">
        <ele>1382.51</ele>
        <time>2019-09-28T10:08:07Z</time>
      </trkpt>
      <trkpt lat="44.11844" lon="7.03041">
        <ele>1382.03</ele>
        <time>2019-09-28T10:08:08Z</time>
      </trkpt>
      <trkpt lat="44.11839" lon="7.03038">
        <ele>1381.55</ele>
        <time>2019-09-28T10:08:09Z</time>
      </trkpt>
      <trkpt lat="44.11827" lon="7.03032">
        <ele>1381.07</ele>
        <time>2019-09-28T10:08:11Z</time>
      </trkpt>
      <trkpt lat="44.11822" lon="7.03032">
        <ele>1381.07</ele>
        <time>2019-09-28T10:08:12Z</time>
      </trkpt>
      <trkpt lat="44.11816" lon="7.03035">
        <ele>1380.59</ele>
        <time>2019-09-28T10:08:13Z</time>
      </trkpt>
      <trkpt lat="44.11812" lon="7.03039">
        <ele>1380.59</ele>
        <time>2019-09-28T10:08:14Z</time>
      </trkpt>
      <trkpt lat="44.11808" lon="7.03046">
        <ele>1380.11</ele>
        <time>2019-09-28T10:08:15Z</time>
      </trkpt>
      <trkpt lat="44.11806" lon="7.03053">
        <ele>1380.11</ele>
        <time>2019-09-28T10:08:16Z</time>
      </trkpt>
      <trkpt lat="44.11804" lon="7.03062">
        <ele>1379.63</ele>
        <time>2019-09-28T10:08:17Z</time>
      </trkpt>
      <trkpt lat="44.11799" lon="7.03085">
        <ele>1378.19</ele>
        <time>2019-09-28T10:08:20Z</time>
      </trkpt>
      <trkpt lat="44.11795" lon="7.03096">
        <ele>1377.23</ele>
        <time>2019-09-28T10:08:22Z</time>
      </trkpt>
      <trkpt lat="44.11792" lon="7.031">
        <ele>1376.75</ele>
        <time>2019-09-28T10:08:23Z</time>
      </trkpt>
      <trkpt lat="44.11783" lon="7.03107">
        <ele>1375.3</ele>
        <time>2019-09-28T10:08:25Z</time>
      </trkpt>
      <trkpt lat="44.11778" lon="7.03109">
        <ele>1374.34</ele>
        <time>2019-09-28T10:08:26Z</time>
      </trkpt>
      <trkpt lat="44.11755" lon="7.03122">
        <ele>1371.46</ele>
        <time>2019-09-28T10:08:30Z</time>
      </trkpt>
      <trkpt lat="44.1173" lon="7.03141">
        <ele>1368.57</ele>
        <time>2019-09-28T10:08:34Z</time>
      </trkpt>
      <trkpt lat="44.11686" lon="7.03185">
        <ele>1363.29</ele>
        <time>2019-09-28T10:08:43Z</time>
      </trkpt>
      <trkpt lat="44.11681" lon="7.03187">
        <ele>1362.81</ele>
        <time>2019-09-28T10:08:44Z</time>
      </trkpt>
      <trkpt lat="44.11675" lon="7.03185">
        <ele>1362.81</ele>
        <time>2019-09-28T10:08:45Z</time>
      </trkpt>
      <trkpt lat="44.11671" lon="7.03183">
        <ele>1362.81</ele>
        <time>2019-09-28T10:08:46Z</time>
      </trkpt>
      <trkpt lat="44.11666" lon="7.0318">
        <ele>1362.33</ele>
        <time>2019-09-28T10:08:47Z</time>
      </trkpt>
      <trkpt lat="44.1166" lon="7.03177">
        <ele>1362.33</ele>
        <time>2019-09-28T10:08:48Z</time>
      </trkpt>
      <trkpt lat="44.11654" lon="7.03176">
        <ele>1361.84</ele>
        <time>2019-09-28T10:08:49Z</time>
      </trkpt>
      <trkpt lat="44.11633" lon="7.03172">
        <ele>1360.4</ele>
        <time>2019-09-28T10:08:53Z</time>
      </trkpt>
      <trkpt lat="44.11629" lon="7.03176">
        <ele>1359.92</ele>
        <time>2019-09-28T10:08:54Z</time>
      </trkpt>
      <trkpt lat="44.11627" lon="7.03182">
        <ele>1359.92</ele>
        <time>2019-09-28T10:08:55Z</time>
      </trkpt>
      <trkpt lat="44.11628" lon="7.03188">
        <ele>1359.92</ele>
        <time>2019-09-28T10:08:56Z</time>
      </trkpt>
      <trkpt lat="44.11629" lon="7.03194">
        <ele>1359.44</ele>
        <time>2019-09-28T10:08:57Z</time>
      </trkpt>
      <trkpt lat="44.11631" lon="7.03199">
        <ele>1359.44</ele>
        <time>2019-09-28T10:08:58Z</time>
      </trkpt>
      <trkpt lat="44.11634" lon="7.03204">
        <ele>1358.96</ele>
        <time>2019-09-28T10:08:59Z</time>
      </trkpt>
      <trkpt lat="44.1164" lon="7.03214">
        <ele>1358</ele>
        <time>2019-09-28T10:09:01Z</time>
      </trkpt>
      <trkpt lat="44.11641" lon="7.0322">
        <ele>1357.52</ele>
        <time>2019-09-28T10:09:02Z</time>
      </trkpt>
      <trkpt lat="44.1164" lon="7.03232">
        <ele>1356.56</ele>
        <time>2019-09-28T10:09:04Z</time>
      </trkpt>
      <trkpt lat="44.11638" lon="7.03238">
        <ele>1356.08</ele>
        <time>2019-09-28T10:09:05Z</time>
      </trkpt>
      <trkpt lat="44.11635" lon="7.03244">
        <ele>1355.12</ele>
        <time>2019-09-28T10:09:06Z</time>
      </trkpt>
      <trkpt lat="44.11632" lon="7.03249">
        <ele>1355.12</ele>
        <time>2019-09-28T10:09:07Z</time>
      </trkpt>
      <trkpt lat="44.11628" lon="7.03254">
        <ele>1354.63</ele>
        <time>2019-09-28T10:09:08Z</time>
      </trkpt>
      <trkpt lat="44.11625" lon="7.03259">
        <ele>1354.15</ele>
        <time>2019-09-28T10:09:09Z</time>
      </trkpt>
      <trkpt lat="44.11621" lon="7.03263">
        <ele>1354.15</ele>
        <time>2019-09-28T10:09:10Z</time>
      </trkpt>
      <trkpt lat="44.11603" lon="7.03308">
        <ele>1356.08</ele>
        <time>2019-09-28T10:09:19Z</time>
      </trkpt>
      <trkpt lat="44.116" lon="7.03313">
        <ele>1356.08</ele>
        <time>2019-09-28T10:09:20Z</time>
      </trkpt>
      <trkpt lat="44.11595" lon="7.03318">
        <ele>1356.08</ele>
        <time>2019-09-28T10:09:21Z</time>
      </trkpt>
      <trkpt lat="44.11591" lon="7.03322">
        <ele>1355.6</ele>
        <time>2019-09-28T10:09:22Z</time>
      </trkpt>
      <trkpt lat="44.11582" lon="7.03329">
        <ele>1355.12</ele>
        <time>2019-09-28T10:09:24Z</time>
      </trkpt>
      <trkpt lat="44.1156" lon="7.03342">
        <ele>1354.63</ele>
        <time>2019-09-28T10:09:28Z</time>
      </trkpt>
      <trkpt lat="44.11555" lon="7.03347">
        <ele>1354.63</ele>
        <time>2019-09-28T10:09:29Z</time>
      </trkpt>
      <trkpt lat="44.11551" lon="7.03354">
        <ele>1354.63</ele>
        <time>2019-09-28T10:09:30Z</time>
      </trkpt>
      <trkpt lat="44.11547" lon="7.03362">
        <ele>1354.63</ele>
        <time>2019-09-28T10:09:31Z</time>
      </trkpt>
      <trkpt lat="44.11544" lon="7.0337">
        <ele>1354.15</ele>
        <time>2019-09-28T10:09:32Z</time>
      </trkpt>
      <trkpt lat="44.11541" lon="7.03378">
        <ele>1354.15</ele>
        <time>2019-09-28T10:09:33Z</time>
      </trkpt>
      <trkpt lat="44.11534" lon="7.03388">
        <ele>1353.67</ele>
        <time>2019-09-28T10:09:35Z</time>
      </trkpt>
      <trkpt lat="44.1153" lon="7.03393">
        <ele>1353.19</ele>
        <time>2019-09-28T10:09:36Z</time>
      </trkpt>
      <trkpt lat="44.11521" lon="7.03404">
        <ele>1352.71</ele>
        <time>2019-09-28T10:09:38Z</time>
      </trkpt>
      <trkpt lat="44.11518" lon="7.03412">
        <ele>1352.23</ele>
        <time>2019-09-28T10:09:39Z</time>
      </trkpt>
      <trkpt lat="44.11516" lon="7.0342">
        <ele>1352.23</ele>
        <time>2019-09-28T10:09:40Z</time>
      </trkpt>
      <trkpt lat="44.11514" lon="7.03428">
        <ele>1352.23</ele>
        <time>2019-09-28T10:09:41Z</time>
      </trkpt>
      <trkpt lat="44.11512" lon="7.03435">
        <ele>1352.23</ele>
        <time>2019-09-28T10:09:42Z</time>
      </trkpt>
      <trkpt lat="44.11509" lon="7.03441">
        <ele>1351.75</ele>
        <time>2019-09-28T10:09:43Z</time>
      </trkpt>
      <trkpt lat="44.11505" lon="7.03445">
        <ele>1351.75</ele>
        <time>2019-09-28T10:09:44Z</time>
      </trkpt>
      <trkpt lat="44.115" lon="7.03448">
        <ele>1351.75</ele>
        <time>2019-09-28T10:09:45Z</time>
      </trkpt>
      <trkpt lat="44.11495" lon="7.0345">
        <ele>1351.75</ele>
        <time>2019-09-28T10:09:46Z</time>
      </trkpt>
      <trkpt lat="44.11488" lon="7.03453">
        <ele>1351.75</ele>
        <time>2019-09-28T10:09:47Z</time>
      </trkpt>
      <trkpt lat="44.11469" lon="7.0346">
        <ele>1352.23</ele>
        <time>2019-09-28T10:09:50Z</time>
      </trkpt>
      <trkpt lat="44.11465" lon="7.03462">
        <ele>1352.23</ele>
        <time>2019-09-28T10:09:51Z</time>
      </trkpt>
      <trkpt lat="44.11461" lon="7.03468">
        <ele>1352.23</ele>
        <time>2019-09-28T10:09:52Z</time>
      </trkpt>
      <trkpt lat="44.1146" lon="7.03476">
        <ele>1352.23</ele>
        <time>2019-09-28T10:09:53Z</time>
      </trkpt>
      <trkpt lat="44.11459" lon="7.03483">
        <ele>1352.23</ele>
        <time>2019-09-28T10:09:54Z</time>
      </trkpt>
      <trkpt lat="44.11457" lon="7.0349">
        <ele>1352.23</ele>
        <time>2019-09-28T10:09:55Z</time>
      </trkpt>
      <trkpt lat="44.11454" lon="7.03498">
        <ele>1352.23</ele>
        <time>2019-09-28T10:09:56Z</time>
      </trkpt>
      <trkpt lat="44.11449" lon="7.03506">
        <ele>1352.23</ele>
        <time>2019-09-28T10:09:57Z</time>
      </trkpt>
      <trkpt lat="44.11445" lon="7.03511">
        <ele>1352.23</ele>
        <time>2019-09-28T10:09:58Z</time>
      </trkpt>
      <trkpt lat="44.1144" lon="7.03517">
        <ele>1352.23</ele>
        <time>2019-09-28T10:09:59Z</time>
      </trkpt>
      <trkpt lat="44.11434" lon="7.03523">
        <ele>1352.23</ele>
        <time>2019-09-28T10:10:00Z</time>
      </trkpt>
      <trkpt lat="44.11428" lon="7.03528">
        <ele>1352.23</ele>
        <time>2019-09-28T10:10:01Z</time>
      </trkpt>
      <trkpt lat="44.11423" lon="7.03533">
        <ele>1352.23</ele>
        <time>2019-09-28T10:10:02Z</time>
      </trkpt>
      <trkpt lat="44.11417" lon="7.03536">
        <ele>1352.23</ele>
        <time>2019-09-28T10:10:03Z</time>
      </trkpt>
      <trkpt lat="44.1141" lon="7.03538">
        <ele>1352.71</ele>
        <time>2019-09-28T10:10:04Z</time>
      </trkpt>
      <trkpt lat="44.11403" lon="7.03539">
        <ele>1352.71</ele>
        <time>2019-09-28T10:10:05Z</time>
      </trkpt>
      <trkpt lat="44.1139" lon="7.03544">
        <ele>1352.71</ele>
        <time>2019-09-28T10:10:07Z</time>
      </trkpt>
      <trkpt lat="44.11384" lon="7.03548">
        <ele>1352.23</ele>
        <time>2019-09-28T10:10:08Z</time>
      </trkpt>
      <trkpt lat="44.11381" lon="7.03555">
        <ele>1352.23</ele>
        <time>2019-09-28T10:10:09Z</time>
      </trkpt>
      <trkpt lat="44.11379" lon="7.03563">
        <ele>1352.23</ele>
        <time>2019-09-28T10:10:10Z</time>
      </trkpt>
      <trkpt lat="44.11378" lon="7.03572">
        <ele>1351.75</ele>
        <time>2019-09-28T10:10:11Z</time>
      </trkpt>
      <trkpt lat="44.11376" lon="7.0358">
        <ele>1351.75</ele>
        <time>2019-09-28T10:10:12Z</time>
      </trkpt>
      <trkpt lat="44.11374" lon="7.03587">
        <ele>1351.75</ele>
        <time>2019-09-28T10:10:13Z</time>
      </trkpt>
      <trkpt lat="44.11371" lon="7.03594">
        <ele>1351.27</ele>
        <time>2019-09-28T10:10:14Z</time>
      </trkpt>
      <trkpt lat="44.11368" lon="7.036">
        <ele>1351.27</ele>
        <time>2019-09-28T10:10:15Z</time>
      </trkpt>
      <trkpt lat="44.11364" lon="7.03607">
        <ele>1351.27</ele>
        <time>2019-09-28T10:10:16Z</time>
      </trkpt>
      <trkpt lat="44.1136" lon="7.03615">
        <ele>1351.27</ele>
        <time>2019-09-28T10:10:17Z</time>
      </trkpt>
      <trkpt lat="44.11357" lon="7.03622">
        <ele>1351.27</ele>
        <time>2019-09-28T10:10:18Z</time>
      </trkpt>
      <trkpt lat="44.11353" lon="7.03629">
        <ele>1350.79</ele>
        <time>2019-09-28T10:10:19Z</time>
      </trkpt>
      <trkpt lat="44.11347" lon="7.03642">
        <ele>1350.79</ele>
        <time>2019-09-28T10:10:21Z</time>
      </trkpt>
      <trkpt lat="44.11344" lon="7.03648">
        <ele>1350.79</ele>
        <time>2019-09-28T10:10:22Z</time>
      </trkpt>
      <trkpt lat="44.11339" lon="7.03661">
        <ele>1350.31</ele>
        <time>2019-09-28T10:10:24Z</time>
      </trkpt>
      <trkpt lat="44.11337" lon="7.03668">
        <ele>1350.31</ele>
        <time>2019-09-28T10:10:25Z</time>
      </trkpt>
      <trkpt lat="44.11334" lon="7.03682">
        <ele>1350.31</ele>
        <time>2019-09-28T10:10:27Z</time>
      </trkpt>
      <trkpt lat="44.11331" lon="7.03688">
        <ele>1349.83</ele>
        <time>2019-09-28T10:10:28Z</time>
      </trkpt>
      <trkpt lat="44.11329" lon="7.03693">
        <ele>1349.83</ele>
        <time>2019-09-28T10:10:29Z</time>
      </trkpt>
      <trkpt lat="44.11325" lon="7.03699">
        <ele>1349.35</ele>
        <time>2019-09-28T10:10:30Z</time>
      </trkpt>
      <trkpt lat="44.1132" lon="7.03704">
        <ele>1348.87</ele>
        <time>2019-09-28T10:10:31Z</time>
      </trkpt>
      <trkpt lat="44.11289" lon="7.03738">
        <ele>1347.91</ele>
        <time>2019-09-28T10:10:38Z</time>
      </trkpt>
      <trkpt lat="44.11285" lon="7.03742">
        <ele>1347.43</ele>
        <time>2019-09-28T10:10:39Z</time>
      </trkpt>
      <trkpt lat="44.11275" lon="7.03749">
        <ele>1347.43</ele>
        <time>2019-09-28T10:10:41Z</time>
      </trkpt>
      <trkpt lat="44.11262" lon="7.03762">
        <ele>1346.94</ele>
        <time>2019-09-28T10:10:44Z</time>
      </trkpt>
      <trkpt lat="44.11257" lon="7.03765">
        <ele>1346.46</ele>
        <time>2019-09-28T10:10:45Z</time>
      </trkpt>
      <trkpt lat="44.11253" lon="7.03768">
        <ele>1346.46</ele>
        <time>2019-09-28T10:10:46Z</time>
      </trkpt>
      <trkpt lat="44.11247" lon="7.03768">
        <ele>1346.46</ele>
        <time>2019-09-28T10:10:47Z</time>
      </trkpt>
      <trkpt lat="44.11241" lon="7.03768">
        <ele>1346.46</ele>
        <time>2019-09-28T10:10:48Z</time>
      </trkpt>
      <trkpt lat="44.11236" lon="7.03767">
        <ele>1346.46</ele>
        <time>2019-09-28T10:10:49Z</time>
      </trkpt>
      <trkpt lat="44.1123" lon="7.03766">
        <ele>1346.46</ele>
        <time>2019-09-28T10:10:50Z</time>
      </trkpt>
      <trkpt lat="44.11226" lon="7.03764">
        <ele>1346.46</ele>
        <time>2019-09-28T10:10:51Z</time>
      </trkpt>
      <trkpt lat="44.11221" lon="7.03761">
        <ele>1346.46</ele>
        <time>2019-09-28T10:10:52Z</time>
      </trkpt>
      <trkpt lat="44.11215" lon="7.03759">
        <ele>1346.46</ele>
        <time>2019-09-28T10:10:53Z</time>
      </trkpt>
      <trkpt lat="44.11208" lon="7.03759">
        <ele>1346.46</ele>
        <time>2019-09-28T10:10:54Z</time>
      </trkpt>
      <trkpt lat="44.11202" lon="7.0376">
        <ele>1346.46</ele>
        <time>2019-09-28T10:10:55Z</time>
      </trkpt>
      <trkpt lat="44.11197" lon="7.03762">
        <ele>1346.46</ele>
        <time>2019-09-28T10:10:56Z</time>
      </trkpt>
      <trkpt lat="44.11191" lon="7.03763">
        <ele>1346.46</ele>
        <time>2019-09-28T10:10:57Z</time>
      </trkpt>
      <trkpt lat="44.11185" lon="7.03763">
        <ele>1346.46</ele>
        <time>2019-09-28T10:10:58Z</time>
      </trkpt>
      <trkpt lat="44.11174" lon="7.03766">
        <ele>1346.94</ele>
        <time>2019-09-28T10:11:00Z</time>
      </trkpt>
      <trkpt lat="44.1117" lon="7.03771">
        <ele>1346.94</ele>
        <time>2019-09-28T10:11:01Z</time>
      </trkpt>
      <trkpt lat="44.1117" lon="7.03777">
        <ele>1346.94</ele>
        <time>2019-09-28T10:11:02Z</time>
      </trkpt>
      <trkpt lat="44.11171" lon="7.03784">
        <ele>1346.94</ele>
        <time>2019-09-28T10:11:03Z</time>
      </trkpt>
      <trkpt lat="44.11173" lon="7.03788">
        <ele>1346.94</ele>
        <time>2019-09-28T10:11:04Z</time>
      </trkpt>
      <trkpt lat="44.11177" lon="7.03795">
        <ele>1346.46</ele>
        <time>2019-09-28T10:11:05Z</time>
      </trkpt>
      <trkpt lat="44.11178" lon="7.038">
        <ele>1346.46</ele>
        <time>2019-09-28T10:11:06Z</time>
      </trkpt>
      <trkpt lat="44.11179" lon="7.03806">
        <ele>1346.46</ele>
        <time>2019-09-28T10:11:07Z</time>
      </trkpt>
      <trkpt lat="44.11178" lon="7.03811">
        <ele>1345.98</ele>
        <time>2019-09-28T10:11:08Z</time>
      </trkpt>
      <trkpt lat="44.11176" lon="7.03815">
        <ele>1345.02</ele>
        <time>2019-09-28T10:11:09Z</time>
      </trkpt>
      <trkpt lat="44.11173" lon="7.03819">
        <ele>1344.54</ele>
        <time>2019-09-28T10:11:10Z</time>
      </trkpt>
      <trkpt lat="44.11138" lon="7.03861">
        <ele>1342.14</ele>
        <time>2019-09-28T10:11:22Z</time>
      </trkpt>
      <trkpt lat="44.11133" lon="7.03865">
        <ele>1342.14</ele>
        <time>2019-09-28T10:11:24Z</time>
      </trkpt>
      <trkpt lat="44.11132" lon="7.03869">
        <ele>1342.14</ele>
        <time>2019-09-28T10:11:25Z</time>
      </trkpt>
      <trkpt lat="44.11131" lon="7.03872">
        <ele>1342.14</ele>
        <time>2019-09-28T10:11:26Z</time>
      </trkpt>
      <trkpt lat="44.1113" lon="7.03875">
        <ele>1341.66</ele>
        <time>2019-09-28T10:11:27Z</time>
      </trkpt>
      <trkpt lat="44.11129" lon="7.03878">
        <ele>1342.14</ele>
        <time>2019-09-28T10:11:28Z</time>
      </trkpt>
      <trkpt lat="44.11128" lon="7.03881">
        <ele>1341.66</ele>
        <time>2019-09-28T10:11:29Z</time>
      </trkpt>
      <trkpt lat="44.11127" lon="7.03884">
        <ele>1341.66</ele>
        <time>2019-09-28T10:11:30Z</time>
      </trkpt>
      <trkpt lat="44.11127" lon="7.03887">
        <ele>1341.66</ele>
        <time>2019-09-28T10:11:31Z</time>
      </trkpt>
      <trkpt lat="44.11127" lon="7.0389">
        <ele>1341.66</ele>
        <time>2019-09-28T10:11:32Z</time>
      </trkpt>
      <trkpt lat="44.11125" lon="7.03896">
        <ele>1342.14</ele>
        <time>2019-09-28T10:11:34Z</time>
      </trkpt>
      <trkpt lat="44.11124" lon="7.03899">
        <ele>1342.62</ele>
        <time>2019-09-28T10:11:35Z</time>
      </trkpt>
      <trkpt lat="44.11123" lon="7.03901">
        <ele>1342.62</ele>
        <time>2019-09-28T10:11:36Z</time>
      </trkpt>
      <trkpt lat="44.11122" lon="7.03904">
        <ele>1343.1</ele>
        <time>2019-09-28T10:11:37Z</time>
      </trkpt>
      <trkpt lat="44.11121" lon="7.03906">
        <ele>1343.1</ele>
        <time>2019-09-28T10:11:38Z</time>
      </trkpt>
      <trkpt lat="44.11095" lon="7.03925">
        <ele>1343.1</ele>
        <time>2019-09-28T10:11:52Z</time>
      </trkpt>
      <trkpt lat="44.11069" lon="7.03929">
        <ele>1343.58</ele>
        <time>2019-09-28T10:12:01Z</time>
      </trkpt>
      <trkpt lat="44.11067" lon="7.03933">
        <ele>1343.58</ele>
        <time>2019-09-28T10:12:02Z</time>
      </trkpt>
      <trkpt lat="44.11064" lon="7.03937">
        <ele>1343.58</ele>
        <time>2019-09-28T10:12:03Z</time>
      </trkpt>
      <trkpt lat="44.11064" lon="7.03942">
        <ele>1343.58</ele>
        <time>2019-09-28T10:12:04Z</time>
      </trkpt>
      <trkpt lat="44.11064" lon="7.03946">
        <ele>1343.58</ele>
        <time>2019-09-28T10:12:05Z</time>
      </trkpt>
      <trkpt lat="44.11058" lon="7.03972">
        <ele>1344.06</ele>
        <time>2019-09-28T10:12:14Z</time>
      </trkpt>
      <trkpt lat="44.11056" lon="7.03974">
        <ele>1344.06</ele>
        <time>2019-09-28T10:12:15Z</time>
      </trkpt>
      <trkpt lat="44.11054" lon="7.03976">
        <ele>1344.06</ele>
        <time>2019-09-28T10:12:16Z</time>
      </trkpt>
      <trkpt lat="44.11029" lon="7.04007">
        <ele>1345.98</ele>
        <time>2019-09-28T10:12:31Z</time>
      </trkpt>
      <trkpt lat="44.11009" lon="7.04029">
        <ele>1347.91</ele>
        <time>2019-09-28T10:12:43Z</time>
      </trkpt>
      <trkpt lat="44.1098" lon="7.04047">
        <ele>1347.43</ele>
        <time>2019-09-28T10:12:57Z</time>
      </trkpt>
      <trkpt lat="44.10952" lon="7.04063">
        <ele>1348.39</ele>
        <time>2019-09-28T10:13:08Z</time>
      </trkpt>
      <trkpt lat="44.1092" lon="7.04096">
        <ele>1351.27</ele>
        <time>2019-09-28T10:13:21Z</time>
      </trkpt>
      <trkpt lat="44.10889" lon="7.04118">
        <ele>1357.52</ele>
        <time>2019-09-28T10:13:35Z</time>
      </trkpt>
      <trkpt lat="44.10884" lon="7.04127">
        <ele>1358.48</ele>
        <time>2019-09-28T10:13:39Z</time>
      </trkpt>
      <trkpt lat="44.10883" lon="7.04129">
        <ele>1358.96</ele>
        <time>2019-09-28T10:13:40Z</time>
      </trkpt>
      <trkpt lat="44.10881" lon="7.04131">
        <ele>1358.96</ele>
        <time>2019-09-28T10:13:41Z</time>
      </trkpt>
      <trkpt lat="44.1088" lon="7.04132">
        <ele>1358.96</ele>
        <time>2019-09-28T10:13:42Z</time>
      </trkpt>
      <trkpt lat="44.10879" lon="7.04134">
        <ele>1358.96</ele>
        <time>2019-09-28T10:13:43Z</time>
      </trkpt>
      <trkpt lat="44.10878" lon="7.04136">
        <ele>1360.88</ele>
        <time>2019-09-28T10:13:56Z</time>
      </trkpt>
      <trkpt lat="44.10878" lon="7.04136">
        <ele>1361.36</ele>
        <time>2019-09-28T10:14:24Z</time>
      </trkpt>
      <trkpt lat="44.10876" lon="7.04138">
        <ele>1361.84</ele>
        <time>2019-09-28T10:14:26Z</time>
      </trkpt>
      <trkpt lat="44.10875" lon="7.04139">
        <ele>1362.33</ele>
        <time>2019-09-28T10:14:27Z</time>
      </trkpt>
      <trkpt lat="44.10874" lon="7.04141">
        <ele>1362.81</ele>
        <time>2019-09-28T10:14:28Z</time>
      </trkpt>
      <trkpt lat="44.10871" lon="7.04146">
        <ele>1363.77</ele>
        <time>2019-09-28T10:14:40Z</time>
      </trkpt>
      <trkpt lat="44.1087" lon="7.04147">
        <ele>1362.81</ele>
        <time>2019-09-28T10:15:02Z</time>
      </trkpt>
      <trkpt lat="44.10868" lon="7.04148">
        <ele>1360.88</ele>
        <time>2019-09-28T10:15:30Z</time>
      </trkpt>
      <trkpt lat="44.10866" lon="7.0415">
        <ele>1360.88</ele>
        <time>2019-09-28T10:15:31Z</time>
      </trkpt>
      <trkpt lat="44.10864" lon="7.04151">
        <ele>1360.88</ele>
        <time>2019-09-28T10:15:32Z</time>
      </trkpt>
      <trkpt lat="44.10862" lon="7.04153">
        <ele>1360.88</ele>
        <time>2019-09-28T10:15:33Z</time>
      </trkpt>
      <trkpt lat="44.10859" lon="7.04155">
        <ele>1360.88</ele>
        <time>2019-09-28T10:15:34Z</time>
      </trkpt>
      <trkpt lat="44.10857" lon="7.04156">
        <ele>1360.88</ele>
        <time>2019-09-28T10:15:35Z</time>
      </trkpt>
      <trkpt lat="44.10855" lon="7.04158">
        <ele>1360.4</ele>
        <time>2019-09-28T10:15:36Z</time>
      </trkpt>
      <trkpt lat="44.10824" lon="7.04179">
        <ele>1359.44</ele>
        <time>2019-09-28T10:15:49Z</time>
      </trkpt>
      <trkpt lat="44.10807" lon="7.04203">
        <ele>1359.44</ele>
        <time>2019-09-28T10:15:59Z</time>
      </trkpt>
      <trkpt lat="44.10803" lon="7.04212">
        <ele>1359.44</ele>
        <time>2019-09-28T10:16:02Z</time>
      </trkpt>
      <trkpt lat="44.10802" lon="7.04216">
        <ele>1359.92</ele>
        <time>2019-09-28T10:16:13Z</time>
      </trkpt>
      <trkpt lat="44.10802" lon="7.04219">
        <ele>1359.92</ele>
        <time>2019-09-28T10:16:14Z</time>
      </trkpt>
      <trkpt lat="44.108" lon="7.04223">
        <ele>1359.92</ele>
        <time>2019-09-28T10:16:15Z</time>
      </trkpt>
      <trkpt lat="44.10798" lon="7.04225">
        <ele>1360.4</ele>
        <time>2019-09-28T10:16:16Z</time>
      </trkpt>
      <trkpt lat="44.10797" lon="7.04229">
        <ele>1360.4</ele>
        <time>2019-09-28T10:16:17Z</time>
      </trkpt>
      <trkpt lat="44.10795" lon="7.04232">
        <ele>1360.4</ele>
        <time>2019-09-28T10:16:18Z</time>
      </trkpt>
      <trkpt lat="44.10794" lon="7.04236">
        <ele>1360.4</ele>
        <time>2019-09-28T10:16:19Z</time>
      </trkpt>
      <trkpt lat="44.10793" lon="7.04239">
        <ele>1359.92</ele>
        <time>2019-09-28T10:16:20Z</time>
      </trkpt>
      <trkpt lat="44.10792" lon="7.04243">
        <ele>1359.44</ele>
        <time>2019-09-28T10:16:21Z</time>
      </trkpt>
      <trkpt lat="44.10791" lon="7.04246">
        <ele>1359.44</ele>
        <time>2019-09-28T10:16:22Z</time>
      </trkpt>
      <trkpt lat="44.10789" lon="7.0425">
        <ele>1359.44</ele>
        <time>2019-09-28T10:16:23Z</time>
      </trkpt>
      <trkpt lat="44.10787" lon="7.04253">
        <ele>1359.44</ele>
        <time>2019-09-28T10:16:24Z</time>
      </trkpt>
      <trkpt lat="44.10785" lon="7.04256">
        <ele>1358.96</ele>
        <time>2019-09-28T10:16:25Z</time>
      </trkpt>
      <trkpt lat="44.10783" lon="7.04259">
        <ele>1358.48</ele>
        <time>2019-09-28T10:16:26Z</time>
      </trkpt>
      <trkpt lat="44.10781" lon="7.04263">
        <ele>1358.48</ele>
        <time>2019-09-28T10:16:27Z</time>
      </trkpt>
      <trkpt lat="44.10779" lon="7.04266">
        <ele>1358</ele>
        <time>2019-09-28T10:16:28Z</time>
      </trkpt>
      <trkpt lat="44.10768" lon="7.04285">
        <ele>1357.52</ele>
        <time>2019-09-28T10:16:35Z</time>
      </trkpt>
      <trkpt lat="44.10766" lon="7.04285">
        <ele>1357.04</ele>
        <time>2019-09-28T10:16:36Z</time>
      </trkpt>
      <trkpt lat="44.10731" lon="7.04309">
        <ele>1360.88</ele>
        <time>2019-09-28T10:16:49Z</time>
      </trkpt>
      <trkpt lat="44.1071" lon="7.04338">
        <ele>1362.81</ele>
        <time>2019-09-28T10:16:59Z</time>
      </trkpt>
      <trkpt lat="44.10698" lon="7.04388">
        <ele>1364.25</ele>
        <time>2019-09-28T10:17:11Z</time>
      </trkpt>
      <trkpt lat="44.1067" lon="7.04421">
        <ele>1364.73</ele>
        <time>2019-09-28T10:17:22Z</time>
      </trkpt>
      <trkpt lat="44.10656" lon="7.04422">
        <ele>1362.81</ele>
        <time>2019-09-28T10:17:27Z</time>
      </trkpt>
      <trkpt lat="44.10654" lon="7.0442">
        <ele>1362.33</ele>
        <time>2019-09-28T10:17:28Z</time>
      </trkpt>
      <trkpt lat="44.10652" lon="7.04418">
        <ele>1362.33</ele>
        <time>2019-09-28T10:17:29Z</time>
      </trkpt>
      <trkpt lat="44.10619" lon="7.04383">
        <ele>1363.77</ele>
        <time>2019-09-28T10:17:42Z</time>
      </trkpt>
      <trkpt lat="44.1058" lon="7.04348">
        <ele>1368.09</ele>
        <time>2019-09-28T10:17:55Z</time>
      </trkpt>
      <trkpt lat="44.10567" lon="7.04339">
        <ele>1370.98</ele>
        <time>2019-09-28T10:18:01Z</time>
      </trkpt>
      <trkpt lat="44.10566" lon="7.0434">
        <ele>1370.98</ele>
        <time>2019-09-28T10:18:02Z</time>
      </trkpt>
      <trkpt lat="44.10565" lon="7.04342">
        <ele>1370.98</ele>
        <time>2019-09-28T10:18:03Z</time>
      </trkpt>
      <trkpt lat="44.10564" lon="7.04343">
        <ele>1370.98</ele>
        <time>2019-09-28T10:18:04Z</time>
      </trkpt>
      <trkpt lat="44.10564" lon="7.04345">
        <ele>1370.98</ele>
        <time>2019-09-28T10:18:05Z</time>
      </trkpt>
      <trkpt lat="44.10564" lon="7.04346">
        <ele>1370.5</ele>
        <time>2019-09-28T10:18:06Z</time>
      </trkpt>
      <trkpt lat="44.10563" lon="7.04351">
        <ele>1370.98</ele>
        <time>2019-09-28T10:18:11Z</time>
      </trkpt>
      <trkpt lat="44.10563" lon="7.04353">
        <ele>1370.98</ele>
        <time>2019-09-28T10:18:12Z</time>
      </trkpt>
      <trkpt lat="44.10561" lon="7.04359">
        <ele>1373.86</ele>
        <time>2019-09-28T10:18:28Z</time>
      </trkpt>
      <trkpt lat="44.10556" lon="7.04384">
        <ele>1374.82</ele>
        <time>2019-09-28T10:18:38Z</time>
      </trkpt>
      <trkpt lat="44.10538" lon="7.04425">
        <ele>1374.34</ele>
        <time>2019-09-28T10:18:48Z</time>
      </trkpt>
      <trkpt lat="44.10515" lon="7.04464">
        <ele>1374.34</ele>
        <time>2019-09-28T10:18:58Z</time>
      </trkpt>
      <trkpt lat="44.10483" lon="7.04486">
        <ele>1376.26</ele>
        <time>2019-09-28T10:19:09Z</time>
      </trkpt>
      <trkpt lat="44.10451" lon="7.04477">
        <ele>1378.67</ele>
        <time>2019-09-28T10:19:19Z</time>
      </trkpt>
      <trkpt lat="44.10412" lon="7.04483">
        <ele>1377.23</ele>
        <time>2019-09-28T10:19:31Z</time>
      </trkpt>
      <trkpt lat="44.10374" lon="7.04495">
        <ele>1380.59</ele>
        <time>2019-09-28T10:19:44Z</time>
      </trkpt>
      <trkpt lat="44.10355" lon="7.04529">
        <ele>1379.15</ele>
        <time>2019-09-28T10:19:54Z</time>
      </trkpt>
      <trkpt lat="44.10347" lon="7.04542">
        <ele>1379.15</ele>
        <time>2019-09-28T10:19:57Z</time>
      </trkpt>
      <trkpt lat="44.10344" lon="7.04546">
        <ele>1379.63</ele>
        <time>2019-09-28T10:19:58Z</time>
      </trkpt>
      <trkpt lat="44.10317" lon="7.04567">
        <ele>1380.11</ele>
        <time>2019-09-28T10:20:08Z</time>
      </trkpt>
      <trkpt lat="44.10291" lon="7.0457">
        <ele>1381.55</ele>
        <time>2019-09-28T10:20:17Z</time>
      </trkpt>
      <trkpt lat="44.10288" lon="7.04572">
        <ele>1382.03</ele>
        <time>2019-09-28T10:20:18Z</time>
      </trkpt>
      <trkpt lat="44.10286" lon="7.04574">
        <ele>1382.03</ele>
        <time>2019-09-28T10:20:19Z</time>
      </trkpt>
      <trkpt lat="44.10283" lon="7.04577">
        <ele>1382.03</ele>
        <time>2019-09-28T10:20:20Z</time>
      </trkpt>
      <trkpt lat="44.10282" lon="7.04581">
        <ele>1382.03</ele>
        <time>2019-09-28T10:20:21Z</time>
      </trkpt>
      <trkpt lat="44.10281" lon="7.04585">
        <ele>1382.03</ele>
        <time>2019-09-28T10:20:22Z</time>
      </trkpt>
      <trkpt lat="44.10281" lon="7.04589">
        <ele>1382.51</ele>
        <time>2019-09-28T10:20:23Z</time>
      </trkpt>
      <trkpt lat="44.10279" lon="7.04626">
        <ele>1383.47</ele>
        <time>2019-09-28T10:20:32Z</time>
      </trkpt>
      <trkpt lat="44.10251" lon="7.04635">
        <ele>1383.47</ele>
        <time>2019-09-28T10:20:41Z</time>
      </trkpt>
      <trkpt lat="44.10247" lon="7.04637">
        <ele>1382.99</ele>
        <time>2019-09-28T10:20:42Z</time>
      </trkpt>
      <trkpt lat="44.10244" lon="7.04638">
        <ele>1382.99</ele>
        <time>2019-09-28T10:20:43Z</time>
      </trkpt>
      <trkpt lat="44.10241" lon="7.0464">
        <ele>1382.99</ele>
        <time>2019-09-28T10:20:44Z</time>
      </trkpt>
      <trkpt lat="44.10238" lon="7.04643">
        <ele>1382.99</ele>
        <time>2019-09-28T10:20:45Z</time>
      </trkpt>
      <trkpt lat="44.10235" lon="7.04646">
        <ele>1382.99</ele>
        <time>2019-09-28T10:20:46Z</time>
      </trkpt>
      <trkpt lat="44.10195" lon="7.04671">
        <ele>1383.96</ele>
        <time>2019-09-28T10:20:59Z</time>
      </trkpt>
      <trkpt lat="44.10187" lon="7.04694">
        <ele>1384.44</ele>
        <time>2019-09-28T10:21:05Z</time>
      </trkpt>
      <trkpt lat="44.10189" lon="7.04699">
        <ele>1384.44</ele>
        <time>2019-09-28T10:21:06Z</time>
      </trkpt>
      <trkpt lat="44.1019" lon="7.04705">
        <ele>1384.44</ele>
        <time>2019-09-28T10:21:07Z</time>
      </trkpt>
      <trkpt lat="44.10191" lon="7.04711">
        <ele>1384.44</ele>
        <time>2019-09-28T10:21:08Z</time>
      </trkpt>
      <trkpt lat="44.1019" lon="7.04718">
        <ele>1384.92</ele>
        <time>2019-09-28T10:21:09Z</time>
      </trkpt>
      <trkpt lat="44.10189" lon="7.04725">
        <ele>1384.92</ele>
        <time>2019-09-28T10:21:10Z</time>
      </trkpt>
      <trkpt lat="44.10187" lon="7.04732">
        <ele>1384.92</ele>
        <time>2019-09-28T10:21:11Z</time>
      </trkpt>
      <trkpt lat="44.10185" lon="7.04739">
        <ele>1384.92</ele>
        <time>2019-09-28T10:21:12Z</time>
      </trkpt>
      <trkpt lat="44.10182" lon="7.04747">
        <ele>1384.92</ele>
        <time>2019-09-28T10:21:13Z</time>
      </trkpt>
      <trkpt lat="44.1018" lon="7.04753">
        <ele>1384.92</ele>
        <time>2019-09-28T10:21:14Z</time>
      </trkpt>
      <trkpt lat="44.10176" lon="7.0476">
        <ele>1384.92</ele>
        <time>2019-09-28T10:21:15Z</time>
      </trkpt>
      <trkpt lat="44.10172" lon="7.04767">
        <ele>1384.44</ele>
        <time>2019-09-28T10:21:16Z</time>
      </trkpt>
      <trkpt lat="44.1017" lon="7.04773">
        <ele>1384.44</ele>
        <time>2019-09-28T10:21:17Z</time>
      </trkpt>
      <trkpt lat="44.10168" lon="7.0478">
        <ele>1383.96</ele>
        <time>2019-09-28T10:21:18Z</time>
      </trkpt>
      <trkpt lat="44.10165" lon="7.04786">
        <ele>1383.96</ele>
        <time>2019-09-28T10:21:19Z</time>
      </trkpt>
      <trkpt lat="44.10161" lon="7.04791">
        <ele>1383.47</ele>
        <time>2019-09-28T10:21:20Z</time>
      </trkpt>
      <trkpt lat="44.10157" lon="7.04795">
        <ele>1382.99</ele>
        <time>2019-09-28T10:21:21Z</time>
      </trkpt>
      <trkpt lat="44.10152" lon="7.04798">
        <ele>1382.99</ele>
        <time>2019-09-28T10:21:22Z</time>
      </trkpt>
      <trkpt lat="44.10147" lon="7.04799">
        <ele>1382.99</ele>
        <time>2019-09-28T10:21:23Z</time>
      </trkpt>
      <trkpt lat="44.10141" lon="7.04802">
        <ele>1382.99</ele>
        <time>2019-09-28T10:21:24Z</time>
      </trkpt>
      <trkpt lat="44.10082" lon="7.04833">
        <ele>1381.07</ele>
        <time>2019-09-28T10:21:35Z</time>
      </trkpt>
      <trkpt lat="44.10078" lon="7.04838">
        <ele>1380.59</ele>
        <time>2019-09-28T10:21:36Z</time>
      </trkpt>
      <trkpt lat="44.10075" lon="7.04845">
        <ele>1380.59</ele>
        <time>2019-09-28T10:21:37Z</time>
      </trkpt>
      <trkpt lat="44.10062" lon="7.04876">
        <ele>1377.71</ele>
        <time>2019-09-28T10:21:42Z</time>
      </trkpt>
      <trkpt lat="44.1006" lon="7.04882">
        <ele>1377.71</ele>
        <time>2019-09-28T10:21:43Z</time>
      </trkpt>
      <trkpt lat="44.10054" lon="7.04909">
        <ele>1377.71</ele>
        <time>2019-09-28T10:21:47Z</time>
      </trkpt>
      <trkpt lat="44.10054" lon="7.04916">
        <ele>1377.71</ele>
        <time>2019-09-28T10:21:48Z</time>
      </trkpt>
      <trkpt lat="44.10054" lon="7.04929">
        <ele>1377.71</ele>
        <time>2019-09-28T10:21:50Z</time>
      </trkpt>
      <trkpt lat="44.10053" lon="7.04936">
        <ele>1378.19</ele>
        <time>2019-09-28T10:21:51Z</time>
      </trkpt>
      <trkpt lat="44.10051" lon="7.04942">
        <ele>1378.19</ele>
        <time>2019-09-28T10:21:52Z</time>
      </trkpt>
      <trkpt lat="44.10049" lon="7.04948">
        <ele>1377.71</ele>
        <time>2019-09-28T10:21:53Z</time>
      </trkpt>
      <trkpt lat="44.10045" lon="7.04954">
        <ele>1377.71</ele>
        <time>2019-09-28T10:21:54Z</time>
      </trkpt>
      <trkpt lat="44.10042" lon="7.0496">
        <ele>1377.71</ele>
        <time>2019-09-28T10:21:55Z</time>
      </trkpt>
      <trkpt lat="44.1003" lon="7.04977">
        <ele>1377.71</ele>
        <time>2019-09-28T10:21:58Z</time>
      </trkpt>
      <trkpt lat="44.10019" lon="7.04987">
        <ele>1377.23</ele>
        <time>2019-09-28T10:22:00Z</time>
      </trkpt>
      <trkpt lat="44.10015" lon="7.0499">
        <ele>1376.75</ele>
        <time>2019-09-28T10:22:01Z</time>
      </trkpt>
      <trkpt lat="44.10004" lon="7.04999">
        <ele>1375.3</ele>
        <time>2019-09-28T10:22:03Z</time>
      </trkpt>
      <trkpt lat="44.09998" lon="7.05001">
        <ele>1374.82</ele>
        <time>2019-09-28T10:22:04Z</time>
      </trkpt>
      <trkpt lat="44.09991" lon="7.05003">
        <ele>1373.86</ele>
        <time>2019-09-28T10:22:05Z</time>
      </trkpt>
      <trkpt lat="44.09986" lon="7.05004">
        <ele>1372.9</ele>
        <time>2019-09-28T10:22:06Z</time>
      </trkpt>
      <trkpt lat="44.09981" lon="7.05003">
        <ele>1372.42</ele>
        <time>2019-09-28T10:22:07Z</time>
      </trkpt>
      <trkpt lat="44.09975" lon="7.05004">
        <ele>1371.94</ele>
        <time>2019-09-28T10:22:08Z</time>
      </trkpt>
      <trkpt lat="44.0997" lon="7.05006">
        <ele>1370.98</ele>
        <time>2019-09-28T10:22:09Z</time>
      </trkpt>
      <trkpt lat="44.09964" lon="7.05008">
        <ele>1370.5</ele>
        <time>2019-09-28T10:22:10Z</time>
      </trkpt>
      <trkpt lat="44.09959" lon="7.05012">
        <ele>1370.02</ele>
        <time>2019-09-28T10:22:11Z</time>
      </trkpt>
      <trkpt lat="44.09942" lon="7.05026">
        <ele>1368.57</ele>
        <time>2019-09-28T10:22:14Z</time>
      </trkpt>
      <trkpt lat="44.09937" lon="7.05032">
        <ele>1368.09</ele>
        <time>2019-09-28T10:22:15Z</time>
      </trkpt>
      <trkpt lat="44.09933" lon="7.05036">
        <ele>1367.61</ele>
        <time>2019-09-28T10:22:16Z</time>
      </trkpt>
      <trkpt lat="44.09928" lon="7.0504">
        <ele>1367.13</ele>
        <time>2019-09-28T10:22:17Z</time>
      </trkpt>
      <trkpt lat="44.09923" lon="7.05042">
        <ele>1366.65</ele>
        <time>2019-09-28T10:22:18Z</time>
      </trkpt>
      <trkpt lat="44.09919" lon="7.05042">
        <ele>1366.17</ele>
        <time>2019-09-28T10:22:19Z</time>
      </trkpt>
      <trkpt lat="44.09912" lon="7.0504">
        <ele>1365.69</ele>
        <time>2019-09-28T10:22:20Z</time>
      </trkpt>
      <trkpt lat="44.09908" lon="7.0504">
        <ele>1365.21</ele>
        <time>2019-09-28T10:22:21Z</time>
      </trkpt>
      <trkpt lat="44.09901" lon="7.05039">
        <ele>1364.73</ele>
        <time>2019-09-28T10:22:22Z</time>
      </trkpt>
      <trkpt lat="44.09896" lon="7.0504">
        <ele>1364.25</ele>
        <time>2019-09-28T10:22:23Z</time>
      </trkpt>
      <trkpt lat="44.0989" lon="7.0504">
        <ele>1363.77</ele>
        <time>2019-09-28T10:22:24Z</time>
      </trkpt>
      <trkpt lat="44.09884" lon="7.05041">
        <ele>1363.77</ele>
        <time>2019-09-28T10:22:25Z</time>
      </trkpt>
      <trkpt lat="44.09879" lon="7.05043">
        <ele>1363.77</ele>
        <time>2019-09-28T10:22:26Z</time>
      </trkpt>
      <trkpt lat="44.09874" lon="7.05047">
        <ele>1363.77</ele>
        <time>2019-09-28T10:22:27Z</time>
      </trkpt>
      <trkpt lat="44.09869" lon="7.05053">
        <ele>1363.29</ele>
        <time>2019-09-28T10:22:28Z</time>
      </trkpt>
      <trkpt lat="44.09865" lon="7.05058">
        <ele>1363.29</ele>
        <time>2019-09-28T10:22:29Z</time>
      </trkpt>
      <trkpt lat="44.0986" lon="7.05063">
        <ele>1363.29</ele>
        <time>2019-09-28T10:22:30Z</time>
      </trkpt>
      <trkpt lat="44.09856" lon="7.05068">
        <ele>1363.29</ele>
        <time>2019-09-28T10:22:31Z</time>
      </trkpt>
      <trkpt lat="44.09851" lon="7.05071">
        <ele>1362.81</ele>
        <time>2019-09-28T10:22:32Z</time>
      </trkpt>
      <trkpt lat="44.09845" lon="7.05074">
        <ele>1362.33</ele>
        <time>2019-09-28T10:22:33Z</time>
      </trkpt>
      <trkpt lat="44.09839" lon="7.05076">
        <ele>1362.33</ele>
        <time>2019-09-28T10:22:34Z</time>
      </trkpt>
      <trkpt lat="44.09833" lon="7.05078">
        <ele>1361.84</ele>
        <time>2019-09-28T10:22:35Z</time>
      </trkpt>
      <trkpt lat="44.09827" lon="7.0508">
        <ele>1361.36</ele>
        <time>2019-09-28T10:22:36Z</time>
      </trkpt>
      <trkpt lat="44.09822" lon="7.05082">
        <ele>1360.88</ele>
        <time>2019-09-28T10:22:37Z</time>
      </trkpt>
      <trkpt lat="44.09819" lon="7.05084">
        <ele>1360.4</ele>
        <time>2019-09-28T10:22:38Z</time>
      </trkpt>
      <trkpt lat="44.09812" lon="7.05088">
        <ele>1359.92</ele>
        <time>2019-09-28T10:22:40Z</time>
      </trkpt>
      <trkpt lat="44.09809" lon="7.05087">
        <ele>1359.44</ele>
        <time>2019-09-28T10:22:41Z</time>
      </trkpt>
      <trkpt lat="44.09806" lon="7.05084">
        <ele>1359.44</ele>
        <time>2019-09-28T10:22:42Z</time>
      </trkpt>
      <trkpt lat="44.09804" lon="7.0508">
        <ele>1359.44</ele>
        <time>2019-09-28T10:22:43Z</time>
      </trkpt>
      <trkpt lat="44.09803" lon="7.05075">
        <ele>1359.44</ele>
        <time>2019-09-28T10:22:44Z</time>
      </trkpt>
      <trkpt lat="44.09789" lon="7.05023">
        <ele>1360.88</ele>
        <time>2019-09-28T10:22:53Z</time>
      </trkpt>
      <trkpt lat="44.09786" lon="7.05018">
        <ele>1360.88</ele>
        <time>2019-09-28T10:22:54Z</time>
      </trkpt>
      <trkpt lat="44.09783" lon="7.05015">
        <ele>1360.88</ele>
        <time>2019-09-28T10:22:55Z</time>
      </trkpt>
      <trkpt lat="44.09779" lon="7.05013">
        <ele>1360.88</ele>
        <time>2019-09-28T10:22:56Z</time>
      </trkpt>
      <trkpt lat="44.09776" lon="7.05013">
        <ele>1360.88</ele>
        <time>2019-09-28T10:22:57Z</time>
      </trkpt>
      <trkpt lat="44.0977" lon="7.05012">
        <ele>1361.84</ele>
        <time>2019-09-28T10:23:07Z</time>
      </trkpt>
      <trkpt lat="44.09768" lon="7.05014">
        <ele>1362.33</ele>
        <time>2019-09-28T10:23:12Z</time>
      </trkpt>
      <trkpt lat="44.09767" lon="7.05015">
        <ele>1362.33</ele>
        <time>2019-09-28T10:23:13Z</time>
      </trkpt>
      <trkpt lat="44.09765" lon="7.05015">
        <ele>1362.33</ele>
        <time>2019-09-28T10:23:14Z</time>
      </trkpt>
      <trkpt lat="44.09763" lon="7.05015">
        <ele>1362.33</ele>
        <time>2019-09-28T10:23:15Z</time>
      </trkpt>
      <trkpt lat="44.0976" lon="7.05016">
        <ele>1362.81</ele>
        <time>2019-09-28T10:23:16Z</time>
      </trkpt>
      <trkpt lat="44.09724" lon="7.05017">
        <ele>1362.81</ele>
        <time>2019-09-28T10:23:27Z</time>
      </trkpt>
      <trkpt lat="44.0972" lon="7.05017">
        <ele>1362.81</ele>
        <time>2019-09-28T10:23:28Z</time>
      </trkpt>
      <trkpt lat="44.09716" lon="7.05018">
        <ele>1362.33</ele>
        <time>2019-09-28T10:23:29Z</time>
      </trkpt>
      <trkpt lat="44.09711" lon="7.05021">
        <ele>1362.33</ele>
        <time>2019-09-28T10:23:30Z</time>
      </trkpt>
      <trkpt lat="44.09707" lon="7.05024">
        <ele>1362.81</ele>
        <time>2019-09-28T10:23:31Z</time>
      </trkpt>
      <trkpt lat="44.09703" lon="7.05027">
        <ele>1362.81</ele>
        <time>2019-09-28T10:23:32Z</time>
      </trkpt>
      <trkpt lat="44.09699" lon="7.0503">
        <ele>1362.33</ele>
        <time>2019-09-28T10:23:33Z</time>
      </trkpt>
      <trkpt lat="44.09695" lon="7.05032">
        <ele>1362.33</ele>
        <time>2019-09-28T10:23:34Z</time>
      </trkpt>
      <trkpt lat="44.09691" lon="7.05034">
        <ele>1362.33</ele>
        <time>2019-09-28T10:23:35Z</time>
      </trkpt>
      <trkpt lat="44.09682" lon="7.05035">
        <ele>1361.84</ele>
        <time>2019-09-28T10:23:37Z</time>
      </trkpt>
      <trkpt lat="44.09677" lon="7.05035">
        <ele>1361.84</ele>
        <time>2019-09-28T10:23:38Z</time>
      </trkpt>
      <trkpt lat="44.09672" lon="7.05034">
        <ele>1361.84</ele>
        <time>2019-09-28T10:23:39Z</time>
      </trkpt>
      <trkpt lat="44.09667" lon="7.05033">
        <ele>1361.36</ele>
        <time>2019-09-28T10:23:40Z</time>
      </trkpt>
      <trkpt lat="44.09663" lon="7.05031">
        <ele>1361.36</ele>
        <time>2019-09-28T10:23:41Z</time>
      </trkpt>
      <trkpt lat="44.09658" lon="7.05029">
        <ele>1360.88</ele>
        <time>2019-09-28T10:23:42Z</time>
      </trkpt>
      <trkpt lat="44.09653" lon="7.05027">
        <ele>1360.4</ele>
        <time>2019-09-28T10:23:43Z</time>
      </trkpt>
      <trkpt lat="44.09648" lon="7.05027">
        <ele>1359.92</ele>
        <time>2019-09-28T10:23:44Z</time>
      </trkpt>
      <trkpt lat="44.09644" lon="7.05028">
        <ele>1359.92</ele>
        <time>2019-09-28T10:23:45Z</time>
      </trkpt>
      <trkpt lat="44.0964" lon="7.05029">
        <ele>1359.92</ele>
        <time>2019-09-28T10:23:46Z</time>
      </trkpt>
      <trkpt lat="44.09637" lon="7.05032">
        <ele>1359.44</ele>
        <time>2019-09-28T10:23:47Z</time>
      </trkpt>
      <trkpt lat="44.09634" lon="7.05035">
        <ele>1359.44</ele>
        <time>2019-09-28T10:23:48Z</time>
      </trkpt>
      <trkpt lat="44.0962" lon="7.05047">
        <ele>1358.48</ele>
        <time>2019-09-28T10:23:52Z</time>
      </trkpt>
      <trkpt lat="44.09615" lon="7.0505">
        <ele>1358</ele>
        <time>2019-09-28T10:23:53Z</time>
      </trkpt>
      <trkpt lat="44.09611" lon="7.0505">
        <ele>1358</ele>
        <time>2019-09-28T10:23:54Z</time>
      </trkpt>
      <trkpt lat="44.09606" lon="7.05049">
        <ele>1358</ele>
        <time>2019-09-28T10:23:55Z</time>
      </trkpt>
      <trkpt lat="44.09601" lon="7.05048">
        <ele>1358</ele>
        <time>2019-09-28T10:23:56Z</time>
      </trkpt>
      <trkpt lat="44.09596" lon="7.05047">
        <ele>1357.52</ele>
        <time>2019-09-28T10:23:57Z</time>
      </trkpt>
      <trkpt lat="44.09585" lon="7.05044">
        <ele>1357.52</ele>
        <time>2019-09-28T10:24:00Z</time>
      </trkpt>
      <trkpt lat="44.09584" lon="7.05041">
        <ele>1357.52</ele>
        <time>2019-09-28T10:24:01Z</time>
      </trkpt>
      <trkpt lat="44.09583" lon="7.05037">
        <ele>1357.04</ele>
        <time>2019-09-28T10:24:02Z</time>
      </trkpt>
      <trkpt lat="44.09578" lon="7.05017">
        <ele>1356.08</ele>
        <time>2019-09-28T10:24:14Z</time>
      </trkpt>
      <trkpt lat="44.09575" lon="7.05014">
        <ele>1357.52</ele>
        <time>2019-09-28T10:24:32Z</time>
      </trkpt>
      <trkpt lat="44.09573" lon="7.05013">
        <ele>1358</ele>
        <time>2019-09-28T10:24:54Z</time>
      </trkpt>
      <trkpt lat="44.09572" lon="7.05013">
        <ele>1357.04</ele>
        <time>2019-09-28T10:25:16Z</time>
      </trkpt>
      <trkpt lat="44.09566" lon="7.05">
        <ele>1357.04</ele>
        <time>2019-09-28T10:25:36Z</time>
      </trkpt>
      <trkpt lat="44.09565" lon="7.04999">
        <ele>1357.04</ele>
        <time>2019-09-28T10:25:37Z</time>
      </trkpt>
      <trkpt lat="44.0954" lon="7.04975">
        <ele>1353.67</ele>
        <time>2019-09-28T10:25:51Z</time>
      </trkpt>
      <trkpt lat="44.09523" lon="7.04948">
        <ele>1348.87</ele>
        <time>2019-09-28T10:26:02Z</time>
      </trkpt>
      <trkpt lat="44.09487" lon="7.04948">
        <ele>1347.43</ele>
        <time>2019-09-28T10:26:13Z</time>
      </trkpt>
      <trkpt lat="44.09454" lon="7.04963">
        <ele>1345.5</ele>
        <time>2019-09-28T10:26:26Z</time>
      </trkpt>
      <trkpt lat="44.0942" lon="7.04985">
        <ele>1346.94</ele>
        <time>2019-09-28T10:26:37Z</time>
      </trkpt>
      <trkpt lat="44.09402" lon="7.05007">
        <ele>1347.43</ele>
        <time>2019-09-28T10:26:43Z</time>
      </trkpt>
      <trkpt lat="44.09383" lon="7.05052">
        <ele>1344.06</ele>
        <time>2019-09-28T10:26:54Z</time>
      </trkpt>
      <trkpt lat="44.09369" lon="7.05078">
        <ele>1342.62</ele>
        <time>2019-09-28T10:27:00Z</time>
      </trkpt>
      <trkpt lat="44.09362" lon="7.05114">
        <ele>1343.1</ele>
        <time>2019-09-28T10:27:08Z</time>
      </trkpt>
      <trkpt lat="44.09338" lon="7.05145">
        <ele>1342.14</ele>
        <time>2019-09-28T10:27:16Z</time>
      </trkpt>
      <trkpt lat="44.09314" lon="7.05143">
        <ele>1340.7</ele>
        <time>2019-09-28T10:27:27Z</time>
      </trkpt>
      <trkpt lat="44.09313" lon="7.05141">
        <ele>1340.7</ele>
        <time>2019-09-28T10:27:28Z</time>
      </trkpt>
      <trkpt lat="44.09311" lon="7.05139">
        <ele>1341.18</ele>
        <time>2019-09-28T10:27:40Z</time>
      </trkpt>
      <trkpt lat="44.09309" lon="7.05135">
        <ele>1346.94</ele>
        <time>2019-09-28T10:28:09Z</time>
      </trkpt>
      <trkpt lat="44.09306" lon="7.05134">
        <ele>1357.04</ele>
        <time>2019-09-28T10:28:35Z</time>
      </trkpt>
      <trkpt lat="44.09308" lon="7.05135">
        <ele>1357.04</ele>
        <time>2019-09-28T10:28:38Z</time>
      </trkpt>
      <trkpt lat="44.09314" lon="7.05131">
        <ele>1353.19</ele>
        <time>2019-09-28T10:28:51Z</time>
      </trkpt>
      <trkpt lat="44.09317" lon="7.05131">
        <ele>1351.75</ele>
        <time>2019-09-28T10:28:55Z</time>
      </trkpt>
      <trkpt lat="44.09321" lon="7.05131">
        <ele>1348.39</ele>
        <time>2019-09-28T10:29:09Z</time>
      </trkpt>
      <trkpt lat="44.09326" lon="7.05133">
        <ele>1347.91</ele>
        <time>2019-09-28T10:29:37Z</time>
      </trkpt>
      <trkpt lat="44.09326" lon="7.05138">
        <ele>1352.71</ele>
        <time>2019-09-28T10:30:17Z</time>
      </trkpt>
      <trkpt lat="44.09323" lon="7.05134">
        <ele>1350.31</ele>
        <time>2019-09-28T10:31:00Z</time>
      </trkpt>
      <trkpt lat="44.09331" lon="7.05138">
        <ele>1347.43</ele>
        <time>2019-09-28T10:31:39Z</time>
      </trkpt>
      <trkpt lat="44.09324" lon="7.05134">
        <ele>1345.98</ele>
        <time>2019-09-28T10:32:14Z</time>
      </trkpt>
      <trkpt lat="44.09328" lon="7.05131">
        <ele>1348.87</ele>
        <time>2019-09-28T10:33:05Z</time>
      </trkpt>
      <trkpt lat="44.09331" lon="7.05133">
        <ele>1351.27</ele>
        <time>2019-09-28T10:33:53Z</time>
      </trkpt>
      <trkpt lat="44.09327" lon="7.05137">
        <ele>1354.63</ele>
        <time>2019-09-28T10:34:34Z</time>
      </trkpt>
      <trkpt lat="44.09331" lon="7.05135">
        <ele>1359.44</ele>
        <time>2019-09-28T10:35:11Z</time>
      </trkpt>
      <trkpt lat="44.09329" lon="7.05135">
        <ele>1358.48</ele>
        <time>2019-09-28T10:35:53Z</time>
      </trkpt>
      <trkpt lat="44.09328" lon="7.0514">
        <ele>1362.33</ele>
        <time>2019-09-28T10:36:30Z</time>
      </trkpt>
      <trkpt lat="44.09329" lon="7.05134">
        <ele>1356.56</ele>
        <time>2019-09-28T10:37:09Z</time>
      </trkpt>
      <trkpt lat="44.09325" lon="7.05135">
        <ele>1353.19</ele>
        <time>2019-09-28T10:37:37Z</time>
      </trkpt>
      <trkpt lat="44.09325" lon="7.05133">
        <ele>1350.79</ele>
        <time>2019-09-28T10:38:10Z</time>
      </trkpt>
      <trkpt lat="44.09326" lon="7.05137">
        <ele>1352.23</ele>
        <time>2019-09-28T10:38:54Z</time>
      </trkpt>
      <trkpt lat="44.0933" lon="7.05131">
        <ele>1351.75</ele>
        <time>2019-09-28T10:39:26Z</time>
      </trkpt>
      <trkpt lat="44.09328" lon="7.05131">
        <ele>1351.75</ele>
        <time>2019-09-28T10:40:09Z</time>
      </trkpt>
      <trkpt lat="44.09331" lon="7.05134">
        <ele>1353.19</ele>
        <time>2019-09-28T10:40:45Z</time>
      </trkpt>
      <trkpt lat="44.09329" lon="7.05135">
        <ele>1354.63</ele>
        <time>2019-09-28T10:41:20Z</time>
      </trkpt>
      <trkpt lat="44.09331" lon="7.05131">
        <ele>1358.48</ele>
        <time>2019-09-28T10:42:02Z</time>
      </trkpt>
      <trkpt lat="44.09336" lon="7.05138">
        <ele>1365.21</ele>
        <time>2019-09-28T10:42:28Z</time>
      </trkpt>
      <trkpt lat="44.09338" lon="7.05139">
        <ele>1369.05</ele>
        <time>2019-09-28T10:43:00Z</time>
      </trkpt>
      <trkpt lat="44.09332" lon="7.05141">
        <ele>1366.17</ele>
        <time>2019-09-28T10:43:29Z</time>
      </trkpt>
      <trkpt lat="44.09334" lon="7.05138">
        <ele>1367.61</ele>
        <time>2019-09-28T10:44:00Z</time>
      </trkpt>
      <trkpt lat="44.09334" lon="7.05139">
        <ele>1368.57</ele>
        <time>2019-09-28T10:44:30Z</time>
      </trkpt>
      <trkpt lat="44.09334" lon="7.05142">
        <ele>1362.33</ele>
        <time>2019-09-28T10:45:05Z</time>
      </trkpt>
      <trkpt lat="44.09335" lon="7.05139">
        <ele>1363.29</ele>
        <time>2019-09-28T10:45:37Z</time>
      </trkpt>
      <trkpt lat="44.09334" lon="7.05137">
        <ele>1364.73</ele>
        <time>2019-09-28T10:46:08Z</time>
      </trkpt>
      <trkpt lat="44.09331" lon="7.0514">
        <ele>1366.17</ele>
        <time>2019-09-28T10:46:41Z</time>
      </trkpt>
      <trkpt lat="44.09335" lon="7.05141">
        <ele>1369.54</ele>
        <time>2019-09-28T10:47:12Z</time>
      </trkpt>
      <trkpt lat="44.09335" lon="7.05143">
        <ele>1369.54</ele>
        <time>2019-09-28T10:47:52Z</time>
      </trkpt>
      <trkpt lat="44.09336" lon="7.05139">
        <ele>1366.65</ele>
        <time>2019-09-28T10:48:42Z</time>
      </trkpt>
      <trkpt lat="44.09339" lon="7.05135">
        <ele>1368.57</ele>
        <time>2019-09-28T10:49:19Z</time>
      </trkpt>
      <trkpt lat="44.09341" lon="7.0514">
        <ele>1371.46</ele>
        <time>2019-09-28T10:49:58Z</time>
      </trkpt>
      <trkpt lat="44.0934" lon="7.05141">
        <ele>1371.94</ele>
        <time>2019-09-28T10:50:27Z</time>
      </trkpt>
      <trkpt lat="44.09342" lon="7.05141">
        <ele>1375.78</ele>
        <time>2019-09-28T10:50:54Z</time>
      </trkpt>
      <trkpt lat="44.09344" lon="7.0514">
        <ele>1375.3</ele>
        <time>2019-09-28T10:51:21Z</time>
      </trkpt>
      <trkpt lat="44.09339" lon="7.05141">
        <ele>1369.05</ele>
        <time>2019-09-28T10:51:45Z</time>
      </trkpt>
      <trkpt lat="44.09337" lon="7.05138">
        <ele>1365.69</ele>
        <time>2019-09-28T10:52:17Z</time>
      </trkpt>
      <trkpt lat="44.09336" lon="7.05138">
        <ele>1367.61</ele>
        <time>2019-09-28T10:52:50Z</time>
      </trkpt>
      <trkpt lat="44.09335" lon="7.05139">
        <ele>1367.61</ele>
        <time>2019-09-28T10:53:17Z</time>
      </trkpt>
      <trkpt lat="44.09333" lon="7.05139">
        <ele>1365.21</ele>
        <time>2019-09-28T10:53:51Z</time>
      </trkpt>
      <trkpt lat="44.09335" lon="7.05136">
        <ele>1359.92</ele>
        <time>2019-09-28T10:54:22Z</time>
      </trkpt>
      <trkpt lat="44.09333" lon="7.05139">
        <ele>1364.25</ele>
        <time>2019-09-28T10:54:45Z</time>
      </trkpt>
      <trkpt lat="44.09336" lon="7.05137">
        <ele>1368.09</ele>
        <time>2019-09-28T10:55:09Z</time>
      </trkpt>
      <trkpt lat="44.09337" lon="7.05136">
        <ele>1368.09</ele>
        <time>2019-09-28T10:55:40Z</time>
      </trkpt>
      <trkpt lat="44.0934" lon="7.0514">
        <ele>1367.61</ele>
        <time>2019-09-28T10:56:14Z</time>
      </trkpt>
      <trkpt lat="44.0934" lon="7.05138">
        <ele>1367.13</ele>
        <time>2019-09-28T10:56:41Z</time>
      </trkpt>
      <trkpt lat="44.09337" lon="7.05136">
        <ele>1367.13</ele>
        <time>2019-09-28T10:57:18Z</time>
      </trkpt>
      <trkpt lat="44.09334" lon="7.05133">
        <ele>1360.4</ele>
        <time>2019-09-28T10:57:44Z</time>
      </trkpt>
      <trkpt lat="44.0933" lon="7.05138">
        <ele>1361.84</ele>
        <time>2019-09-28T10:58:19Z</time>
      </trkpt>
      <trkpt lat="44.09332" lon="7.05141">
        <ele>1358.48</ele>
        <time>2019-09-28T10:58:49Z</time>
      </trkpt>
      <trkpt lat="44.09333" lon="7.05131">
        <ele>1360.4</ele>
        <time>2019-09-28T10:59:21Z</time>
      </trkpt>
      <trkpt lat="44.09331" lon="7.05134">
        <ele>1357.04</ele>
        <time>2019-09-28T10:59:52Z</time>
      </trkpt>
      <trkpt lat="44.0933" lon="7.05138">
        <ele>1356.56</ele>
        <time>2019-09-28T11:00:19Z</time>
      </trkpt>
      <trkpt lat="44.09335" lon="7.05129">
        <ele>1355.12</ele>
        <time>2019-09-28T11:00:51Z</time>
      </trkpt>
      <trkpt lat="44.09335" lon="7.05133">
        <ele>1356.56</ele>
        <time>2019-09-28T11:01:20Z</time>
      </trkpt>
      <trkpt lat="44.09331" lon="7.05133">
        <ele>1356.08</ele>
        <time>2019-09-28T11:01:54Z</time>
      </trkpt>
      <trkpt lat="44.0933" lon="7.05134">
        <ele>1356.56</ele>
        <time>2019-09-28T11:02:23Z</time>
      </trkpt>
      <trkpt lat="44.09329" lon="7.05134">
        <ele>1358.48</ele>
        <time>2019-09-28T11:02:55Z</time>
      </trkpt>
      <trkpt lat="44.09331" lon="7.05134">
        <ele>1356.56</ele>
        <time>2019-09-28T11:03:29Z</time>
      </trkpt>
      <trkpt lat="44.09329" lon="7.05136">
        <ele>1355.12</ele>
        <time>2019-09-28T11:04:03Z</time>
      </trkpt>
      <trkpt lat="44.0933" lon="7.05133">
        <ele>1355.12</ele>
        <time>2019-09-28T11:04:26Z</time>
      </trkpt>
      <trkpt lat="44.09328" lon="7.05135">
        <ele>1351.75</ele>
        <time>2019-09-28T11:04:53Z</time>
      </trkpt>
      <trkpt lat="44.09328" lon="7.05139">
        <ele>1352.23</ele>
        <time>2019-09-28T11:05:18Z</time>
      </trkpt>
      <trkpt lat="44.09327" lon="7.05137">
        <ele>1353.19</ele>
        <time>2019-09-28T11:05:48Z</time>
      </trkpt>
      <trkpt lat="44.0933" lon="7.05132">
        <ele>1358</ele>
        <time>2019-09-28T11:06:22Z</time>
      </trkpt>
      <trkpt lat="44.09329" lon="7.05133">
        <ele>1356.08</ele>
        <time>2019-09-28T11:06:50Z</time>
      </trkpt>
      <trkpt lat="44.09331" lon="7.05126">
        <ele>1354.15</ele>
        <time>2019-09-28T11:07:19Z</time>
      </trkpt>
      <trkpt lat="44.09328" lon="7.05133">
        <ele>1349.83</ele>
        <time>2019-09-28T11:07:45Z</time>
      </trkpt>
      <trkpt lat="44.09324" lon="7.05132">
        <ele>1346.46</ele>
        <time>2019-09-28T11:08:10Z</time>
      </trkpt>
      <trkpt lat="44.09326" lon="7.05131">
        <ele>1347.43</ele>
        <time>2019-09-28T11:08:33Z</time>
      </trkpt>
      <trkpt lat="44.09331" lon="7.05129">
        <ele>1354.15</ele>
        <time>2019-09-28T11:08:54Z</time>
      </trkpt>
      <trkpt lat="44.09331" lon="7.05132">
        <ele>1353.67</ele>
        <time>2019-09-28T11:09:19Z</time>
      </trkpt>
      <trkpt lat="44.09332" lon="7.05125">
        <ele>1348.39</ele>
        <time>2019-09-28T11:09:54Z</time>
      </trkpt>
      <trkpt lat="44.09328" lon="7.05128">
        <ele>1343.58</ele>
        <time>2019-09-28T11:10:25Z</time>
      </trkpt>
      <trkpt lat="44.09328" lon="7.05126">
        <ele>1341.66</ele>
        <time>2019-09-28T11:10:56Z</time>
      </trkpt>
      <trkpt lat="44.09326" lon="7.05125">
        <ele>1338.77</ele>
        <time>2019-09-28T11:11:31Z</time>
      </trkpt>
      <trkpt lat="44.09322" lon="7.0513">
        <ele>1343.1</ele>
        <time>2019-09-28T11:12:00Z</time>
      </trkpt>
      <trkpt lat="44.09324" lon="7.05126">
        <ele>1342.62</ele>
        <time>2019-09-28T11:12:28Z</time>
      </trkpt>
      <trkpt lat="44.09325" lon="7.05125">
        <ele>1343.58</ele>
        <time>2019-09-28T11:12:55Z</time>
      </trkpt>
      <trkpt lat="44.09325" lon="7.05127">
        <ele>1344.06</ele>
        <time>2019-09-28T11:13:02Z</time>
      </trkpt>
      <trkpt lat="44.09319" lon="7.05138">
        <ele>1345.02</ele>
        <time>2019-09-28T11:13:10Z</time>
      </trkpt>
      <trkpt lat="44.09318" lon="7.05138">
        <ele>1345.02</ele>
        <time>2019-09-28T11:13:11Z</time>
      </trkpt>
      <trkpt lat="44.09302" lon="7.05117">
        <ele>1346.46</ele>
        <time>2019-09-28T11:13:20Z</time>
      </trkpt>
      <trkpt lat="44.09298" lon="7.05106">
        <ele>1346.94</ele>
        <time>2019-09-28T11:13:32Z</time>
      </trkpt>
      <trkpt lat="44.09296" lon="7.05103">
        <ele>1347.91</ele>
        <time>2019-09-28T11:13:43Z</time>
      </trkpt>
      <trkpt lat="44.09295" lon="7.051">
        <ele>1347.91</ele>
        <time>2019-09-28T11:13:44Z</time>
      </trkpt>
      <trkpt lat="44.0928" lon="7.05068">
        <ele>1346.94</ele>
        <time>2019-09-28T11:13:55Z</time>
      </trkpt>
      <trkpt lat="44.09269" lon="7.05056">
        <ele>1345.5</ele>
        <time>2019-09-28T11:14:09Z</time>
      </trkpt>
      <trkpt lat="44.09259" lon="7.05047">
        <ele>1343.1</ele>
        <time>2019-09-28T11:14:22Z</time>
      </trkpt>
      <trkpt lat="44.09239" lon="7.05029">
        <ele>1336.85</ele>
        <time>2019-09-28T11:14:37Z</time>
      </trkpt>
      <trkpt lat="44.09214" lon="7.04994">
        <ele>1332.52</ele>
        <time>2019-09-28T11:14:49Z</time>
      </trkpt>
      <trkpt lat="44.0921" lon="7.04984">
        <ele>1331.56</ele>
        <time>2019-09-28T11:14:59Z</time>
      </trkpt>
      <trkpt lat="44.09207" lon="7.04983">
        <ele>1330.12</ele>
        <time>2019-09-28T11:15:23Z</time>
      </trkpt>
      <trkpt lat="44.09209" lon="7.04984">
        <ele>1330.6</ele>
        <time>2019-09-28T11:15:49Z</time>
      </trkpt>
      <trkpt lat="44.09206" lon="7.04987">
        <ele>1331.08</ele>
        <time>2019-09-28T11:16:14Z</time>
      </trkpt>
      <trkpt lat="44.09206" lon="7.04986">
        <ele>1333.97</ele>
        <time>2019-09-28T11:16:41Z</time>
      </trkpt>
      <trkpt lat="44.09206" lon="7.04986">
        <ele>1333.97</ele>
        <time>2019-09-28T11:17:16Z</time>
      </trkpt>
      <trkpt lat="44.09205" lon="7.04987">
        <ele>1334.93</ele>
        <time>2019-09-28T11:17:43Z</time>
      </trkpt>
      <trkpt lat="44.09207" lon="7.04986">
        <ele>1334.93</ele>
        <time>2019-09-28T11:18:14Z</time>
      </trkpt>
      <trkpt lat="44.09205" lon="7.04986">
        <ele>1332.52</ele>
        <time>2019-09-28T11:18:40Z</time>
      </trkpt>
      <trkpt lat="44.09209" lon="7.04982">
        <ele>1333.01</ele>
        <time>2019-09-28T11:19:25Z</time>
      </trkpt>
      <trkpt lat="44.09208" lon="7.04986">
        <ele>1332.04</ele>
        <time>2019-09-28T11:19:59Z</time>
      </trkpt>
      <trkpt lat="44.09206" lon="7.04984">
        <ele>1333.01</ele>
        <time>2019-09-28T11:20:36Z</time>
      </trkpt>
      <trkpt lat="44.09209" lon="7.04985">
        <ele>1331.56</ele>
        <time>2019-09-28T11:21:13Z</time>
      </trkpt>
      <trkpt lat="44.09206" lon="7.04985">
        <ele>1331.08</ele>
        <time>2019-09-28T11:21:47Z</time>
      </trkpt>
      <trkpt lat="44.09208" lon="7.04986">
        <ele>1332.04</ele>
        <time>2019-09-28T11:22:32Z</time>
      </trkpt>
      <trkpt lat="44.09206" lon="7.04986">
        <ele>1333.01</ele>
        <time>2019-09-28T11:23:13Z</time>
      </trkpt>
      <trkpt lat="44.09207" lon="7.04984">
        <ele>1333.97</ele>
        <time>2019-09-28T11:23:44Z</time>
      </trkpt>
      <trkpt lat="44.09207" lon="7.04984">
        <ele>1332.52</ele>
        <time>2019-09-28T11:24:27Z</time>
      </trkpt>
      <trkpt lat="44.09208" lon="7.04985">
        <ele>1331.56</ele>
        <time>2019-09-28T11:25:18Z</time>
      </trkpt>
      <trkpt lat="44.09208" lon="7.04986">
        <ele>1331.56</ele>
        <time>2019-09-28T11:25:55Z</time>
      </trkpt>
      <trkpt lat="44.09206" lon="7.04988">
        <ele>1335.41</ele>
        <time>2019-09-28T11:26:44Z</time>
      </trkpt>
      <trkpt lat="44.09208" lon="7.04986">
        <ele>1332.04</ele>
        <time>2019-09-28T11:27:19Z</time>
      </trkpt>
      <trkpt lat="44.09206" lon="7.04985">
        <ele>1331.08</ele>
        <time>2019-09-28T11:28:01Z</time>
      </trkpt>
      <trkpt lat="44.09205" lon="7.04987">
        <ele>1330.12</ele>
        <time>2019-09-28T11:28:39Z</time>
      </trkpt>
      <trkpt lat="44.09205" lon="7.04984">
        <ele>1331.56</ele>
        <time>2019-09-28T11:29:12Z</time>
      </trkpt>
      <trkpt lat="44.09208" lon="7.04987">
        <ele>1331.56</ele>
        <time>2019-09-28T11:29:47Z</time>
      </trkpt>
      <trkpt lat="44.09206" lon="7.04984">
        <ele>1332.52</ele>
        <time>2019-09-28T11:30:28Z</time>
      </trkpt>
      <trkpt lat="44.09206" lon="7.04983">
        <ele>1332.04</ele>
        <time>2019-09-28T11:31:02Z</time>
      </trkpt>
      <trkpt lat="44.09208" lon="7.04984">
        <ele>1329.16</ele>
        <time>2019-09-28T11:31:46Z</time>
      </trkpt>
      <trkpt lat="44.09207" lon="7.04972">
        <ele>1329.16</ele>
        <time>2019-09-28T11:32:01Z</time>
      </trkpt>
      <trkpt lat="44.09204" lon="7.04963">
        <ele>1328.68</ele>
        <time>2019-09-28T11:32:03Z</time>
      </trkpt>
      <trkpt lat="44.09193" lon="7.04928">
        <ele>1325.8</ele>
        <time>2019-09-28T11:32:08Z</time>
      </trkpt>
      <trkpt lat="44.09191" lon="7.04919">
        <ele>1325.31</ele>
        <time>2019-09-28T11:32:09Z</time>
      </trkpt>
      <trkpt lat="44.0919" lon="7.0491">
        <ele>1324.83</ele>
        <time>2019-09-28T11:32:10Z</time>
      </trkpt>
      <trkpt lat="44.09188" lon="7.04899">
        <ele>1324.35</ele>
        <time>2019-09-28T11:32:11Z</time>
      </trkpt>
      <trkpt lat="44.09185" lon="7.04889">
        <ele>1323.87</ele>
        <time>2019-09-28T11:32:12Z</time>
      </trkpt>
      <trkpt lat="44.09182" lon="7.04879">
        <ele>1323.87</ele>
        <time>2019-09-28T11:32:13Z</time>
      </trkpt>
      <trkpt lat="44.0918" lon="7.04874">
        <ele>1323.87</ele>
        <time>2019-09-28T11:32:14Z</time>
      </trkpt>
      <trkpt lat="44.09178" lon="7.04867">
        <ele>1324.35</ele>
        <time>2019-09-28T11:32:15Z</time>
      </trkpt>
      <trkpt lat="44.09165" lon="7.04791">
        <ele>1329.16</ele>
        <time>2019-09-28T11:32:29Z</time>
      </trkpt>
      <trkpt lat="44.0916" lon="7.04701">
        <ele>1335.41</ele>
        <time>2019-09-28T11:32:48Z</time>
      </trkpt>
      <trkpt lat="44.09161" lon="7.04639">
        <ele>1339.73</ele>
        <time>2019-09-28T11:33:02Z</time>
      </trkpt>
      <trkpt lat="44.09165" lon="7.04563">
        <ele>1345.02</ele>
        <time>2019-09-28T11:33:21Z</time>
      </trkpt>
      <trkpt lat="44.0917" lon="7.0446">
        <ele>1351.27</ele>
        <time>2019-09-28T11:33:47Z</time>
      </trkpt>
      <trkpt lat="44.09179" lon="7.04388">
        <ele>1355.12</ele>
        <time>2019-09-28T11:34:06Z</time>
      </trkpt>
      <trkpt lat="44.09193" lon="7.0432">
        <ele>1359.44</ele>
        <time>2019-09-28T11:34:25Z</time>
      </trkpt>
      <trkpt lat="44.09204" lon="7.04259">
        <ele>1363.77</ele>
        <time>2019-09-28T11:34:42Z</time>
      </trkpt>
      <trkpt lat="44.092" lon="7.04197">
        <ele>1367.13</ele>
        <time>2019-09-28T11:34:59Z</time>
      </trkpt>
      <trkpt lat="44.09209" lon="7.04147">
        <ele>1370.5</ele>
        <time>2019-09-28T11:35:14Z</time>
      </trkpt>
      <trkpt lat="44.0921" lon="7.041">
        <ele>1373.86</ele>
        <time>2019-09-28T11:35:28Z</time>
      </trkpt>
      <trkpt lat="44.09221" lon="7.04037">
        <ele>1376.26</ele>
        <time>2019-09-28T11:35:47Z</time>
      </trkpt>
      <trkpt lat="44.0923" lon="7.0398">
        <ele>1378.19</ele>
        <time>2019-09-28T11:36:04Z</time>
      </trkpt>
      <trkpt lat="44.09227" lon="7.03942">
        <ele>1380.11</ele>
        <time>2019-09-28T11:36:16Z</time>
      </trkpt>
      <trkpt lat="44.09202" lon="7.03938">
        <ele>1380.59</ele>
        <time>2019-09-28T11:36:26Z</time>
      </trkpt>
      <trkpt lat="44.09182" lon="7.03986">
        <ele>1381.55</ele>
        <time>2019-09-28T11:36:39Z</time>
      </trkpt>
      <trkpt lat="44.0916" lon="7.04037">
        <ele>1383.96</ele>
        <time>2019-09-28T11:36:55Z</time>
      </trkpt>
      <trkpt lat="44.09149" lon="7.04074">
        <ele>1385.4</ele>
        <time>2019-09-28T11:37:07Z</time>
      </trkpt>
      <trkpt lat="44.09128" lon="7.04114">
        <ele>1384.44</ele>
        <time>2019-09-28T11:37:21Z</time>
      </trkpt>
      <trkpt lat="44.09102" lon="7.04166">
        <ele>1385.4</ele>
        <time>2019-09-28T11:37:39Z</time>
      </trkpt>
      <trkpt lat="44.09074" lon="7.04217">
        <ele>1391.65</ele>
        <time>2019-09-28T11:37:57Z</time>
      </trkpt>
      <trkpt lat="44.09039" lon="7.04247">
        <ele>1398.37</ele>
        <time>2019-09-28T11:38:14Z</time>
      </trkpt>
      <trkpt lat="44.0901" lon="7.04284">
        <ele>1401.74</ele>
        <time>2019-09-28T11:38:30Z</time>
      </trkpt>
      <trkpt lat="44.08979" lon="7.04325">
        <ele>1407.51</ele>
        <time>2019-09-28T11:38:47Z</time>
      </trkpt>
      <trkpt lat="44.08937" lon="7.04319">
        <ele>1412.79</ele>
        <time>2019-09-28T11:39:04Z</time>
      </trkpt>
      <trkpt lat="44.0889" lon="7.04286">
        <ele>1416.64</ele>
        <time>2019-09-28T11:39:25Z</time>
      </trkpt>
      <trkpt lat="44.08861" lon="7.04232">
        <ele>1418.56</ele>
        <time>2019-09-28T11:39:44Z</time>
      </trkpt>
      <trkpt lat="44.08838" lon="7.04212">
        <ele>1420.97</ele>
        <time>2019-09-28T11:39:56Z</time>
      </trkpt>
      <trkpt lat="44.08836" lon="7.04214">
        <ele>1421.45</ele>
        <time>2019-09-28T11:39:57Z</time>
      </trkpt>
      <trkpt lat="44.08834" lon="7.04217">
        <ele>1421.45</ele>
        <time>2019-09-28T11:39:58Z</time>
      </trkpt>
      <trkpt lat="44.08815" lon="7.04267">
        <ele>1425.77</ele>
        <time>2019-09-28T11:40:15Z</time>
      </trkpt>
      <trkpt lat="44.08801" lon="7.04313">
        <ele>1429.14</ele>
        <time>2019-09-28T11:40:30Z</time>
      </trkpt>
      <trkpt lat="44.08792" lon="7.04364">
        <ele>1431.06</ele>
        <time>2019-09-28T11:40:46Z</time>
      </trkpt>
      <trkpt lat="44.08782" lon="7.04378">
        <ele>1433.46</ele>
        <time>2019-09-28T11:40:52Z</time>
      </trkpt>
      <trkpt lat="44.0878" lon="7.04377">
        <ele>1433.94</ele>
        <time>2019-09-28T11:40:53Z</time>
      </trkpt>
      <trkpt lat="44.08778" lon="7.04374">
        <ele>1434.42</ele>
        <time>2019-09-28T11:40:54Z</time>
      </trkpt>
      <trkpt lat="44.08779" lon="7.04371">
        <ele>1434.91</ele>
        <time>2019-09-28T11:40:55Z</time>
      </trkpt>
      <trkpt lat="44.0878" lon="7.04368">
        <ele>1434.91</ele>
        <time>2019-09-28T11:40:56Z</time>
      </trkpt>
      <trkpt lat="44.08781" lon="7.04365">
        <ele>1435.39</ele>
        <time>2019-09-28T11:40:57Z</time>
      </trkpt>
      <trkpt lat="44.08782" lon="7.04362">
        <ele>1435.87</ele>
        <time>2019-09-28T11:40:58Z</time>
      </trkpt>
      <trkpt lat="44.08796" lon="7.04309">
        <ele>1438.27</ele>
        <time>2019-09-28T11:41:14Z</time>
      </trkpt>
      <trkpt lat="44.08803" lon="7.04251">
        <ele>1441.63</ele>
        <time>2019-09-28T11:41:31Z</time>
      </trkpt>
      <trkpt lat="44.08816" lon="7.04193">
        <ele>1446.92</ele>
        <time>2019-09-28T11:41:49Z</time>
      </trkpt>
      <trkpt lat="44.0883" lon="7.04141">
        <ele>1452.21</ele>
        <time>2019-09-28T11:42:06Z</time>
      </trkpt>
      <trkpt lat="44.0884" lon="7.04076">
        <ele>1456.53</ele>
        <time>2019-09-28T11:42:26Z</time>
      </trkpt>
      <trkpt lat="44.0886" lon="7.04019">
        <ele>1460.38</ele>
        <time>2019-09-28T11:42:45Z</time>
      </trkpt>
      <trkpt lat="44.08871" lon="7.03961">
        <ele>1462.3</ele>
        <time>2019-09-28T11:43:03Z</time>
      </trkpt>
      <trkpt lat="44.08872" lon="7.03958">
        <ele>1462.78</ele>
        <time>2019-09-28T11:43:04Z</time>
      </trkpt>
      <trkpt lat="44.08872" lon="7.03955">
        <ele>1462.78</ele>
        <time>2019-09-28T11:43:05Z</time>
      </trkpt>
      <trkpt lat="44.08872" lon="7.03952">
        <ele>1463.26</ele>
        <time>2019-09-28T11:43:06Z</time>
      </trkpt>
      <trkpt lat="44.08873" lon="7.03948">
        <ele>1463.26</ele>
        <time>2019-09-28T11:43:07Z</time>
      </trkpt>
      <trkpt lat="44.08873" lon="7.03945">
        <ele>1463.74</ele>
        <time>2019-09-28T11:43:08Z</time>
      </trkpt>
      <trkpt lat="44.08873" lon="7.03942">
        <ele>1463.74</ele>
        <time>2019-09-28T11:43:09Z</time>
      </trkpt>
      <trkpt lat="44.08873" lon="7.03939">
        <ele>1464.23</ele>
        <time>2019-09-28T11:43:10Z</time>
      </trkpt>
      <trkpt lat="44.08873" lon="7.03936">
        <ele>1464.71</ele>
        <time>2019-09-28T11:43:11Z</time>
      </trkpt>
      <trkpt lat="44.08873" lon="7.03932">
        <ele>1464.71</ele>
        <time>2019-09-28T11:43:12Z</time>
      </trkpt>
      <trkpt lat="44.08874" lon="7.03929">
        <ele>1465.19</ele>
        <time>2019-09-28T11:43:13Z</time>
      </trkpt>
      <trkpt lat="44.08874" lon="7.03926">
        <ele>1465.19</ele>
        <time>2019-09-28T11:43:14Z</time>
      </trkpt>
      <trkpt lat="44.08874" lon="7.03922">
        <ele>1465.19</ele>
        <time>2019-09-28T11:43:15Z</time>
      </trkpt>
      <trkpt lat="44.08874" lon="7.03919">
        <ele>1465.67</ele>
        <time>2019-09-28T11:43:16Z</time>
      </trkpt>
      <trkpt lat="44.08874" lon="7.03916">
        <ele>1465.67</ele>
        <time>2019-09-28T11:43:17Z</time>
      </trkpt>
      <trkpt lat="44.0888" lon="7.03855">
        <ele>1469.51</ele>
        <time>2019-09-28T11:43:35Z</time>
      </trkpt>
      <trkpt lat="44.08897" lon="7.03824">
        <ele>1471.92</ele>
        <time>2019-09-28T11:43:47Z</time>
      </trkpt>
      <trkpt lat="44.08903" lon="7.03829">
        <ele>1472.4</ele>
        <time>2019-09-28T11:43:50Z</time>
      </trkpt>
      <trkpt lat="44.08904" lon="7.03833">
        <ele>1472.4</ele>
        <time>2019-09-28T11:43:51Z</time>
      </trkpt>
      <trkpt lat="44.08905" lon="7.03837">
        <ele>1472.88</ele>
        <time>2019-09-28T11:43:52Z</time>
      </trkpt>
      <trkpt lat="44.0891" lon="7.03893">
        <ele>1471.92</ele>
        <time>2019-09-28T11:44:07Z</time>
      </trkpt>
      <trkpt lat="44.08931" lon="7.03916">
        <ele>1469.03</ele>
        <time>2019-09-28T11:44:20Z</time>
      </trkpt>
      <trkpt lat="44.08967" lon="7.03922">
        <ele>1469.99</ele>
        <time>2019-09-28T11:44:37Z</time>
      </trkpt>
      <trkpt lat="44.08995" lon="7.03913">
        <ele>1471.92</ele>
        <time>2019-09-28T11:44:50Z</time>
      </trkpt>
      <trkpt lat="44.09012" lon="7.03879">
        <ele>1473.36</ele>
        <time>2019-09-28T11:45:03Z</time>
      </trkpt>
      <trkpt lat="44.09034" lon="7.0384">
        <ele>1475.76</ele>
        <time>2019-09-28T11:45:18Z</time>
      </trkpt>
      <trkpt lat="44.09063" lon="7.03805">
        <ele>1480.09</ele>
        <time>2019-09-28T11:45:34Z</time>
      </trkpt>
      <trkpt lat="44.09089" lon="7.03755">
        <ele>1482.97</ele>
        <time>2019-09-28T11:45:52Z</time>
      </trkpt>
      <trkpt lat="44.09117" lon="7.03713">
        <ele>1487.3</ele>
        <time>2019-09-28T11:46:09Z</time>
      </trkpt>
      <trkpt lat="44.0915" lon="7.03673">
        <ele>1490.66</ele>
        <time>2019-09-28T11:46:27Z</time>
      </trkpt>
      <trkpt lat="44.0919" lon="7.03656">
        <ele>1496.43</ele>
        <time>2019-09-28T11:46:44Z</time>
      </trkpt>
      <trkpt lat="44.09222" lon="7.03625">
        <ele>1498.83</ele>
        <time>2019-09-28T11:47:00Z</time>
      </trkpt>
      <trkpt lat="44.09248" lon="7.03592">
        <ele>1500.76</ele>
        <time>2019-09-28T11:47:15Z</time>
      </trkpt>
      <trkpt lat="44.09282" lon="7.03573">
        <ele>1507.48</ele>
        <time>2019-09-28T11:47:30Z</time>
      </trkpt>
      <trkpt lat="44.09316" lon="7.03545">
        <ele>1510.85</ele>
        <time>2019-09-28T11:47:46Z</time>
      </trkpt>
      <trkpt lat="44.09342" lon="7.03509">
        <ele>1511.81</ele>
        <time>2019-09-28T11:48:01Z</time>
      </trkpt>
      <trkpt lat="44.09347" lon="7.03469">
        <ele>1513.25</ele>
        <time>2019-09-28T11:48:13Z</time>
      </trkpt>
      <trkpt lat="44.09345" lon="7.03468">
        <ele>1513.73</ele>
        <time>2019-09-28T11:48:14Z</time>
      </trkpt>
      <trkpt lat="44.09342" lon="7.03468">
        <ele>1513.73</ele>
        <time>2019-09-28T11:48:15Z</time>
      </trkpt>
      <trkpt lat="44.09339" lon="7.03469">
        <ele>1513.73</ele>
        <time>2019-09-28T11:48:16Z</time>
      </trkpt>
      <trkpt lat="44.09337" lon="7.03471">
        <ele>1513.73</ele>
        <time>2019-09-28T11:48:17Z</time>
      </trkpt>
      <trkpt lat="44.09334" lon="7.03473">
        <ele>1513.73</ele>
        <time>2019-09-28T11:48:18Z</time>
      </trkpt>
      <trkpt lat="44.09333" lon="7.03475">
        <ele>1513.73</ele>
        <time>2019-09-28T11:48:19Z</time>
      </trkpt>
      <trkpt lat="44.09331" lon="7.03478">
        <ele>1514.21</ele>
        <time>2019-09-28T11:48:20Z</time>
      </trkpt>
      <trkpt lat="44.09329" lon="7.03481">
        <ele>1514.21</ele>
        <time>2019-09-28T11:48:21Z</time>
      </trkpt>
      <trkpt lat="44.09328" lon="7.03483">
        <ele>1514.21</ele>
        <time>2019-09-28T11:48:22Z</time>
      </trkpt>
      <trkpt lat="44.09327" lon="7.03486">
        <ele>1514.21</ele>
        <time>2019-09-28T11:48:23Z</time>
      </trkpt>
      <trkpt lat="44.09304" lon="7.03519">
        <ele>1516.14</ele>
        <time>2019-09-28T11:48:37Z</time>
      </trkpt>
      <trkpt lat="44.09275" lon="7.0353">
        <ele>1519.02</ele>
        <time>2019-09-28T11:48:50Z</time>
      </trkpt>
      <trkpt lat="44.09242" lon="7.03538">
        <ele>1520.94</ele>
        <time>2019-09-28T11:49:05Z</time>
      </trkpt>
      <trkpt lat="44.09205" lon="7.03549">
        <ele>1523.35</ele>
        <time>2019-09-28T11:49:22Z</time>
      </trkpt>
      <trkpt lat="44.09167" lon="7.0355">
        <ele>1527.19</ele>
        <time>2019-09-28T11:49:39Z</time>
      </trkpt>
      <trkpt lat="44.09151" lon="7.03522">
        <ele>1528.63</ele>
        <time>2019-09-28T11:49:52Z</time>
      </trkpt>
      <trkpt lat="44.0916" lon="7.03483">
        <ele>1531.04</ele>
        <time>2019-09-28T11:50:06Z</time>
      </trkpt>
      <trkpt lat="44.09172" lon="7.03442">
        <ele>1534.4</ele>
        <time>2019-09-28T11:50:20Z</time>
      </trkpt>
      <trkpt lat="44.09151" lon="7.03413">
        <ele>1535.36</ele>
        <time>2019-09-28T11:50:33Z</time>
      </trkpt>
      <trkpt lat="44.0911" lon="7.03397">
        <ele>1538.73</ele>
        <time>2019-09-28T11:50:50Z</time>
      </trkpt>
      <trkpt lat="44.09064" lon="7.03389">
        <ele>1541.13</ele>
        <time>2019-09-28T11:51:09Z</time>
      </trkpt>
      <trkpt lat="44.09056" lon="7.0338">
        <ele>1542.09</ele>
        <time>2019-09-28T11:51:13Z</time>
      </trkpt>
      <trkpt lat="44.09056" lon="7.03376">
        <ele>1542.09</ele>
        <time>2019-09-28T11:51:14Z</time>
      </trkpt>
      <trkpt lat="44.09058" lon="7.03374">
        <ele>1542.57</ele>
        <time>2019-09-28T11:51:15Z</time>
      </trkpt>
      <trkpt lat="44.0906" lon="7.03371">
        <ele>1543.05</ele>
        <time>2019-09-28T11:51:16Z</time>
      </trkpt>
      <trkpt lat="44.09062" lon="7.03371">
        <ele>1543.05</ele>
        <time>2019-09-28T11:51:17Z</time>
      </trkpt>
      <trkpt lat="44.09064" lon="7.0337">
        <ele>1542.57</ele>
        <time>2019-09-28T11:51:18Z</time>
      </trkpt>
      <trkpt lat="44.09067" lon="7.03369">
        <ele>1542.57</ele>
        <time>2019-09-28T11:51:19Z</time>
      </trkpt>
      <trkpt lat="44.09098" lon="7.03353">
        <ele>1546.9</ele>
        <time>2019-09-28T11:51:33Z</time>
      </trkpt>
      <trkpt lat="44.09129" lon="7.03316">
        <ele>1550.74</ele>
        <time>2019-09-28T11:51:50Z</time>
      </trkpt>
      <trkpt lat="44.09156" lon="7.03282">
        <ele>1554.11</ele>
        <time>2019-09-28T11:52:06Z</time>
      </trkpt>
      <trkpt lat="44.09185" lon="7.03245">
        <ele>1558.92</ele>
        <time>2019-09-28T11:52:24Z</time>
      </trkpt>
      <trkpt lat="44.09205" lon="7.03216">
        <ele>1561.32</ele>
        <time>2019-09-28T11:52:37Z</time>
      </trkpt>
      <trkpt lat="44.09218" lon="7.03199">
        <ele>1562.28</ele>
        <time>2019-09-28T11:52:45Z</time>
      </trkpt>
      <trkpt lat="44.0922" lon="7.03198">
        <ele>1562.28</ele>
        <time>2019-09-28T11:52:46Z</time>
      </trkpt>
      <trkpt lat="44.09246" lon="7.03173">
        <ele>1567.09</ele>
        <time>2019-09-28T11:53:00Z</time>
      </trkpt>
      <trkpt lat="44.09267" lon="7.03132">
        <ele>1569.01</ele>
        <time>2019-09-28T11:53:16Z</time>
      </trkpt>
      <trkpt lat="44.09283" lon="7.03088">
        <ele>1572.85</ele>
        <time>2019-09-28T11:53:33Z</time>
      </trkpt>
      <trkpt lat="44.09295" lon="7.03048">
        <ele>1575.26</ele>
        <time>2019-09-28T11:53:49Z</time>
      </trkpt>
      <trkpt lat="44.09303" lon="7.03003">
        <ele>1579.1</ele>
        <time>2019-09-28T11:54:05Z</time>
      </trkpt>
      <trkpt lat="44.09306" lon="7.02957">
        <ele>1585.35</ele>
        <time>2019-09-28T11:54:20Z</time>
      </trkpt>
      <trkpt lat="44.09303" lon="7.02915">
        <ele>1590.64</ele>
        <time>2019-09-28T11:54:34Z</time>
      </trkpt>
      <trkpt lat="44.09294" lon="7.02869">
        <ele>1594.48</ele>
        <time>2019-09-28T11:54:50Z</time>
      </trkpt>
      <trkpt lat="44.09298" lon="7.02817">
        <ele>1598.81</ele>
        <time>2019-09-28T11:55:06Z</time>
      </trkpt>
      <trkpt lat="44.09307" lon="7.0277">
        <ele>1603.62</ele>
        <time>2019-09-28T11:55:21Z</time>
      </trkpt>
      <trkpt lat="44.09316" lon="7.02728">
        <ele>1606.02</ele>
        <time>2019-09-28T11:55:35Z</time>
      </trkpt>
      <trkpt lat="44.09319" lon="7.02684">
        <ele>1609.38</ele>
        <time>2019-09-28T11:55:49Z</time>
      </trkpt>
      <trkpt lat="44.09316" lon="7.02625">
        <ele>1612.75</ele>
        <time>2019-09-28T11:56:07Z</time>
      </trkpt>
      <trkpt lat="44.09333" lon="7.02602">
        <ele>1616.11</ele>
        <time>2019-09-28T11:56:19Z</time>
      </trkpt>
      <trkpt lat="44.09372" lon="7.02625">
        <ele>1619.48</ele>
        <time>2019-09-28T11:56:37Z</time>
      </trkpt>
      <trkpt lat="44.09412" lon="7.02637">
        <ele>1624.28</ele>
        <time>2019-09-28T11:56:54Z</time>
      </trkpt>
      <trkpt lat="44.09457" lon="7.02633">
        <ele>1628.13</ele>
        <time>2019-09-28T11:57:14Z</time>
      </trkpt>
      <trkpt lat="44.09492" lon="7.02598">
        <ele>1629.57</ele>
        <time>2019-09-28T11:57:32Z</time>
      </trkpt>
      <trkpt lat="44.09528" lon="7.02552">
        <ele>1633.42</ele>
        <time>2019-09-28T11:57:53Z</time>
      </trkpt>
      <trkpt lat="44.09561" lon="7.02504">
        <ele>1636.78</ele>
        <time>2019-09-28T11:58:14Z</time>
      </trkpt>
      <trkpt lat="44.09591" lon="7.02471">
        <ele>1640.63</ele>
        <time>2019-09-28T11:58:32Z</time>
      </trkpt>
      <trkpt lat="44.09628" lon="7.02455">
        <ele>1643.99</ele>
        <time>2019-09-28T11:58:49Z</time>
      </trkpt>
      <trkpt lat="44.09659" lon="7.0241">
        <ele>1647.36</ele>
        <time>2019-09-28T11:59:08Z</time>
      </trkpt>
      <trkpt lat="44.09689" lon="7.02379">
        <ele>1651.68</ele>
        <time>2019-09-28T11:59:24Z</time>
      </trkpt>
      <trkpt lat="44.09708" lon="7.02343">
        <ele>1655.53</ele>
        <time>2019-09-28T11:59:40Z</time>
      </trkpt>
      <trkpt lat="44.0972" lon="7.02298">
        <ele>1657.93</ele>
        <time>2019-09-28T11:59:56Z</time>
      </trkpt>
      <trkpt lat="44.09757" lon="7.02303">
        <ele>1662.26</ele>
        <time>2019-09-28T12:00:12Z</time>
      </trkpt>
      <trkpt lat="44.09794" lon="7.0229">
        <ele>1664.18</ele>
        <time>2019-09-28T12:00:29Z</time>
      </trkpt>
      <trkpt lat="44.09824" lon="7.02284">
        <ele>1667.54</ele>
        <time>2019-09-28T12:00:44Z</time>
      </trkpt>
      <trkpt lat="44.09852" lon="7.02317">
        <ele>1671.87</ele>
        <time>2019-09-28T12:01:00Z</time>
      </trkpt>
      <trkpt lat="44.09896" lon="7.0232">
        <ele>1675.72</ele>
        <time>2019-09-28T12:01:18Z</time>
      </trkpt>
      <trkpt lat="44.09929" lon="7.02349">
        <ele>1678.12</ele>
        <time>2019-09-28T12:01:34Z</time>
      </trkpt>
      <trkpt lat="44.09974" lon="7.02338">
        <ele>1682.44</ele>
        <time>2019-09-28T12:01:51Z</time>
      </trkpt>
      <trkpt lat="44.10014" lon="7.02308">
        <ele>1685.81</ele>
        <time>2019-09-28T12:02:08Z</time>
      </trkpt>
      <trkpt lat="44.10027" lon="7.02292">
        <ele>1686.29</ele>
        <time>2019-09-28T12:02:15Z</time>
      </trkpt>
      <trkpt lat="44.10027" lon="7.0229">
        <ele>1685.81</ele>
        <time>2019-09-28T12:02:16Z</time>
      </trkpt>
      <trkpt lat="44.10028" lon="7.02287">
        <ele>1685.81</ele>
        <time>2019-09-28T12:02:17Z</time>
      </trkpt>
      <trkpt lat="44.10029" lon="7.02286">
        <ele>1685.33</ele>
        <time>2019-09-28T12:02:18Z</time>
      </trkpt>
      <trkpt lat="44.1003" lon="7.02285">
        <ele>1685.33</ele>
        <time>2019-09-28T12:02:19Z</time>
      </trkpt>
      <trkpt lat="44.10031" lon="7.02285">
        <ele>1685.33</ele>
        <time>2019-09-28T12:02:20Z</time>
      </trkpt>
      <trkpt lat="44.10033" lon="7.02285">
        <ele>1685.33</ele>
        <time>2019-09-28T12:02:21Z</time>
      </trkpt>
      <trkpt lat="44.10033" lon="7.02287">
        <ele>1683.89</ele>
        <time>2019-09-28T12:02:33Z</time>
      </trkpt>
      <trkpt lat="44.10033" lon="7.0229">
        <ele>1685.33</ele>
        <time>2019-09-28T12:02:57Z</time>
      </trkpt>
      <trkpt lat="44.10033" lon="7.02286">
        <ele>1685.81</ele>
        <time>2019-09-28T12:03:16Z</time>
      </trkpt>
      <trkpt lat="44.10032" lon="7.02286">
        <ele>1685.33</ele>
        <time>2019-09-28T12:03:43Z</time>
      </trkpt>
      <trkpt lat="44.10035" lon="7.02284">
        <ele>1685.81</ele>
        <time>2019-09-28T12:04:01Z</time>
      </trkpt>
      <trkpt lat="44.10035" lon="7.02285">
        <ele>1686.77</ele>
        <time>2019-09-28T12:04:34Z</time>
      </trkpt>
      <trkpt lat="44.10034" lon="7.02284">
        <ele>1684.37</ele>
        <time>2019-09-28T12:05:14Z</time>
      </trkpt>
      <trkpt lat="44.10033" lon="7.02287">
        <ele>1683.41</ele>
        <time>2019-09-28T12:05:49Z</time>
      </trkpt>
      <trkpt lat="44.10036" lon="7.02287">
        <ele>1681.96</ele>
        <time>2019-09-28T12:06:18Z</time>
      </trkpt>
      <trkpt lat="44.10035" lon="7.02287">
        <ele>1682.44</ele>
        <time>2019-09-28T12:06:47Z</time>
      </trkpt>
      <trkpt lat="44.10035" lon="7.02284">
        <ele>1684.85</ele>
        <time>2019-09-28T12:07:20Z</time>
      </trkpt>
      <trkpt lat="44.10032" lon="7.02286">
        <ele>1684.37</ele>
        <time>2019-09-28T12:07:50Z</time>
      </trkpt>
      <trkpt lat="44.10034" lon="7.02282">
        <ele>1682.93</ele>
        <time>2019-09-28T12:08:20Z</time>
      </trkpt>
      <trkpt lat="44.10033" lon="7.02282">
        <ele>1685.81</ele>
        <time>2019-09-28T12:08:54Z</time>
      </trkpt>
      <trkpt lat="44.10032" lon="7.02283">
        <ele>1682.44</ele>
        <time>2019-09-28T12:09:25Z</time>
      </trkpt>
      <trkpt lat="44.10031" lon="7.0229">
        <ele>1682.93</ele>
        <time>2019-09-28T12:10:00Z</time>
      </trkpt>
      <trkpt lat="44.10031" lon="7.02291">
        <ele>1681.48</ele>
        <time>2019-09-28T12:10:33Z</time>
      </trkpt>
      <trkpt lat="44.10034" lon="7.02286">
        <ele>1683.89</ele>
        <time>2019-09-28T12:11:03Z</time>
      </trkpt>
      <trkpt lat="44.10031" lon="7.02291">
        <ele>1686.77</ele>
        <time>2019-09-28T12:11:38Z</time>
      </trkpt>
      <trkpt lat="44.10031" lon="7.02288">
        <ele>1683.89</ele>
        <time>2019-09-28T12:12:14Z</time>
      </trkpt>
      <trkpt lat="44.10032" lon="7.0229">
        <ele>1682.93</ele>
        <time>2019-09-28T12:12:29Z</time>
      </trkpt>
      <trkpt lat="44.10034" lon="7.02291">
        <ele>1682.93</ele>
        <time>2019-09-28T12:12:44Z</time>
      </trkpt>
      <trkpt lat="44.10035" lon="7.02293">
        <ele>1683.41</ele>
        <time>2019-09-28T12:12:45Z</time>
      </trkpt>
      <trkpt lat="44.10037" lon="7.02294">
        <ele>1683.41</ele>
        <time>2019-09-28T12:12:46Z</time>
      </trkpt>
      <trkpt lat="44.10039" lon="7.02295">
        <ele>1683.41</ele>
        <time>2019-09-28T12:12:47Z</time>
      </trkpt>
      <trkpt lat="44.10042" lon="7.02295">
        <ele>1683.41</ele>
        <time>2019-09-28T12:12:48Z</time>
      </trkpt>
      <trkpt lat="44.10045" lon="7.02294">
        <ele>1682.93</ele>
        <time>2019-09-28T12:12:49Z</time>
      </trkpt>
      <trkpt lat="44.10049" lon="7.02292">
        <ele>1682.93</ele>
        <time>2019-09-28T12:12:50Z</time>
      </trkpt>
      <trkpt lat="44.10053" lon="7.0229">
        <ele>1682.44</ele>
        <time>2019-09-28T12:12:51Z</time>
      </trkpt>
      <trkpt lat="44.10058" lon="7.02287">
        <ele>1681.96</ele>
        <time>2019-09-28T12:12:52Z</time>
      </trkpt>
      <trkpt lat="44.10114" lon="7.02263">
        <ele>1676.2</ele>
        <time>2019-09-28T12:12:59Z</time>
      </trkpt>
      <trkpt lat="44.10123" lon="7.02254">
        <ele>1674.75</ele>
        <time>2019-09-28T12:13:00Z</time>
      </trkpt>
      <trkpt lat="44.1013" lon="7.02242">
        <ele>1673.79</ele>
        <time>2019-09-28T12:13:01Z</time>
      </trkpt>
      <trkpt lat="44.10136" lon="7.02227">
        <ele>1672.35</ele>
        <time>2019-09-28T12:13:02Z</time>
      </trkpt>
      <trkpt lat="44.10141" lon="7.02216">
        <ele>1671.39</ele>
        <time>2019-09-28T12:13:03Z</time>
      </trkpt>
      <trkpt lat="44.10149" lon="7.02206">
        <ele>1669.95</ele>
        <time>2019-09-28T12:13:04Z</time>
      </trkpt>
      <trkpt lat="44.1016" lon="7.022">
        <ele>1668.51</ele>
        <time>2019-09-28T12:13:05Z</time>
      </trkpt>
      <trkpt lat="44.10172" lon="7.02197">
        <ele>1667.06</ele>
        <time>2019-09-28T12:13:06Z</time>
      </trkpt>
      <trkpt lat="44.10209" lon="7.02186">
        <ele>1663.7</ele>
        <time>2019-09-28T12:13:09Z</time>
      </trkpt>
      <trkpt lat="44.10221" lon="7.0218">
        <ele>1662.26</ele>
        <time>2019-09-28T12:13:10Z</time>
      </trkpt>
      <trkpt lat="44.10262" lon="7.02154">
        <ele>1658.41</ele>
        <time>2019-09-28T12:13:14Z</time>
      </trkpt>
      <trkpt lat="44.10268" lon="7.02144">
        <ele>1657.45</ele>
        <time>2019-09-28T12:13:15Z</time>
      </trkpt>
      <trkpt lat="44.1027" lon="7.0213">
        <ele>1656.49</ele>
        <time>2019-09-28T12:13:16Z</time>
      </trkpt>
      <trkpt lat="44.10268" lon="7.02117">
        <ele>1655.53</ele>
        <time>2019-09-28T12:13:17Z</time>
      </trkpt>
      <trkpt lat="44.10263" lon="7.02104">
        <ele>1654.57</ele>
        <time>2019-09-28T12:13:18Z</time>
      </trkpt>
      <trkpt lat="44.10257" lon="7.02096">
        <ele>1654.09</ele>
        <time>2019-09-28T12:13:19Z</time>
      </trkpt>
      <trkpt lat="44.10248" lon="7.02089">
        <ele>1653.6</ele>
        <time>2019-09-28T12:13:20Z</time>
      </trkpt>
      <trkpt lat="44.10238" lon="7.02084">
        <ele>1652.64</ele>
        <time>2019-09-28T12:13:21Z</time>
      </trkpt>
      <trkpt lat="44.10228" lon="7.02081">
        <ele>1651.68</ele>
        <time>2019-09-28T12:13:22Z</time>
      </trkpt>
      <trkpt lat="44.10217" lon="7.02081">
        <ele>1650.72</ele>
        <time>2019-09-28T12:13:23Z</time>
      </trkpt>
      <trkpt lat="44.10206" lon="7.02083">
        <ele>1649.28</ele>
        <time>2019-09-28T12:13:24Z</time>
      </trkpt>
      <trkpt lat="44.10197" lon="7.02084">
        <ele>1648.8</ele>
        <time>2019-09-28T12:13:25Z</time>
      </trkpt>
      <trkpt lat="44.10187" lon="7.02082">
        <ele>1647.84</ele>
        <time>2019-09-28T12:13:26Z</time>
      </trkpt>
      <trkpt lat="44.10177" lon="7.02079">
        <ele>1647.36</ele>
        <time>2019-09-28T12:13:27Z</time>
      </trkpt>
      <trkpt lat="44.10167" lon="7.02074">
        <ele>1646.4</ele>
        <time>2019-09-28T12:13:28Z</time>
      </trkpt>
      <trkpt lat="44.10158" lon="7.02067">
        <ele>1645.91</ele>
        <time>2019-09-28T12:13:29Z</time>
      </trkpt>
      <trkpt lat="44.10149" lon="7.02058">
        <ele>1644.95</ele>
        <time>2019-09-28T12:13:30Z</time>
      </trkpt>
      <trkpt lat="44.10141" lon="7.02048">
        <ele>1644.47</ele>
        <time>2019-09-28T12:13:31Z</time>
      </trkpt>
      <trkpt lat="44.10134" lon="7.02037">
        <ele>1643.51</ele>
        <time>2019-09-28T12:13:32Z</time>
      </trkpt>
      <trkpt lat="44.10128" lon="7.02024">
        <ele>1643.03</ele>
        <time>2019-09-28T12:13:33Z</time>
      </trkpt>
      <trkpt lat="44.10123" lon="7.0201">
        <ele>1642.07</ele>
        <time>2019-09-28T12:13:34Z</time>
      </trkpt>
      <trkpt lat="44.10113" lon="7.01982">
        <ele>1640.63</ele>
        <time>2019-09-28T12:13:36Z</time>
      </trkpt>
      <trkpt lat="44.10042" lon="7.01875">
        <ele>1631.98</ele>
        <time>2019-09-28T12:13:45Z</time>
      </trkpt>
      <trkpt lat="44.10033" lon="7.01868">
        <ele>1631.01</ele>
        <time>2019-09-28T12:13:46Z</time>
      </trkpt>
      <trkpt lat="44.10021" lon="7.01861">
        <ele>1630.05</ele>
        <time>2019-09-28T12:13:47Z</time>
      </trkpt>
      <trkpt lat="44.10009" lon="7.01854">
        <ele>1629.09</ele>
        <time>2019-09-28T12:13:48Z</time>
      </trkpt>
      <trkpt lat="44.09997" lon="7.01849">
        <ele>1628.13</ele>
        <time>2019-09-28T12:13:49Z</time>
      </trkpt>
      <trkpt lat="44.09987" lon="7.01841">
        <ele>1627.17</ele>
        <time>2019-09-28T12:13:50Z</time>
      </trkpt>
      <trkpt lat="44.09977" lon="7.01831">
        <ele>1626.21</ele>
        <time>2019-09-28T12:13:51Z</time>
      </trkpt>
      <trkpt lat="44.09969" lon="7.01821">
        <ele>1625.73</ele>
        <time>2019-09-28T12:13:52Z</time>
      </trkpt>
      <trkpt lat="44.09952" lon="7.01802">
        <ele>1624.77</ele>
        <time>2019-09-28T12:13:54Z</time>
      </trkpt>
      <trkpt lat="44.09942" lon="7.01795">
        <ele>1624.28</ele>
        <time>2019-09-28T12:13:55Z</time>
      </trkpt>
      <trkpt lat="44.09855" lon="7.01727">
        <ele>1622.36</ele>
        <time>2019-09-28T12:14:06Z</time>
      </trkpt>
      <trkpt lat="44.09805" lon="7.01668">
        <ele>1620.44</ele>
        <time>2019-09-28T12:14:14Z</time>
      </trkpt>
      <trkpt lat="44.098" lon="7.0166">
        <ele>1619.96</ele>
        <time>2019-09-28T12:14:15Z</time>
      </trkpt>
      <trkpt lat="44.09796" lon="7.01651">
        <ele>1619.48</ele>
        <time>2019-09-28T12:14:16Z</time>
      </trkpt>
      <trkpt lat="44.09793" lon="7.01641">
        <ele>1619.48</ele>
        <time>2019-09-28T12:14:17Z</time>
      </trkpt>
      <trkpt lat="44.0979" lon="7.01631">
        <ele>1619</ele>
        <time>2019-09-28T12:14:18Z</time>
      </trkpt>
      <trkpt lat="44.09787" lon="7.01621">
        <ele>1619</ele>
        <time>2019-09-28T12:14:19Z</time>
      </trkpt>
      <trkpt lat="44.09751" lon="7.01447">
        <ele>1614.67</ele>
        <time>2019-09-28T12:14:36Z</time>
      </trkpt>
      <trkpt lat="44.09727" lon="7.01308">
        <ele>1611.31</ele>
        <time>2019-09-28T12:14:50Z</time>
      </trkpt>
      <trkpt lat="44.09681" lon="7.01208">
        <ele>1610.35</ele>
        <time>2019-09-28T12:15:02Z</time>
      </trkpt>
      <trkpt lat="44.09665" lon="7.01152">
        <ele>1610.35</ele>
        <time>2019-09-28T12:15:08Z</time>
      </trkpt>
      <trkpt lat="44.09661" lon="7.01143">
        <ele>1610.35</ele>
        <time>2019-09-28T12:15:09Z</time>
      </trkpt>
      <trkpt lat="44.09605" lon="7.01019">
        <ele>1611.31</ele>
        <time>2019-09-28T12:15:24Z</time>
      </trkpt>
      <trkpt lat="44.09581" lon="7.00919">
        <ele>1609.86</ele>
        <time>2019-09-28T12:15:35Z</time>
      </trkpt>
      <trkpt lat="44.09577" lon="7.0091">
        <ele>1609.86</ele>
        <time>2019-09-28T12:15:36Z</time>
      </trkpt>
      <trkpt lat="44.09573" lon="7.00902">
        <ele>1609.86</ele>
        <time>2019-09-28T12:15:37Z</time>
      </trkpt>
      <trkpt lat="44.09529" lon="7.00828">
        <ele>1609.38</ele>
        <time>2019-09-28T12:15:47Z</time>
      </trkpt>
      <trkpt lat="44.09526" lon="7.00821">
        <ele>1608.9</ele>
        <time>2019-09-28T12:15:48Z</time>
      </trkpt>
      <trkpt lat="44.09513" lon="7.00793">
        <ele>1608.9</ele>
        <time>2019-09-28T12:15:52Z</time>
      </trkpt>
      <trkpt lat="44.09499" lon="7.00746">
        <ele>1608.42</ele>
        <time>2019-09-28T12:15:59Z</time>
      </trkpt>
      <trkpt lat="44.09497" lon="7.00739">
        <ele>1608.42</ele>
        <time>2019-09-28T12:16:00Z</time>
      </trkpt>
      <trkpt lat="44.09494" lon="7.00732">
        <ele>1607.94</ele>
        <time>2019-09-28T12:16:01Z</time>
      </trkpt>
      <trkpt lat="44.09491" lon="7.00726">
        <ele>1607.94</ele>
        <time>2019-09-28T12:16:02Z</time>
      </trkpt>
      <trkpt lat="44.09487" lon="7.0072">
        <ele>1607.94</ele>
        <time>2019-09-28T12:16:03Z</time>
      </trkpt>
      <trkpt lat="44.09483" lon="7.00714">
        <ele>1607.94</ele>
        <time>2019-09-28T12:16:04Z</time>
      </trkpt>
      <trkpt lat="44.09479" lon="7.00709">
        <ele>1607.46</ele>
        <time>2019-09-28T12:16:05Z</time>
      </trkpt>
      <trkpt lat="44.09475" lon="7.00705">
        <ele>1607.46</ele>
        <time>2019-09-28T12:16:06Z</time>
      </trkpt>
      <trkpt lat="44.09463" lon="7.00691">
        <ele>1606.98</ele>
        <time>2019-09-28T12:16:09Z</time>
      </trkpt>
      <trkpt lat="44.0946" lon="7.00685">
        <ele>1606.98</ele>
        <time>2019-09-28T12:16:10Z</time>
      </trkpt>
      <trkpt lat="44.09456" lon="7.0068">
        <ele>1606.5</ele>
        <time>2019-09-28T12:16:11Z</time>
      </trkpt>
      <trkpt lat="44.09395" lon="7.00576">
        <ele>1604.58</ele>
        <time>2019-09-28T12:16:29Z</time>
      </trkpt>
      <trkpt lat="44.0936" lon="7.00495">
        <ele>1603.62</ele>
        <time>2019-09-28T12:16:43Z</time>
      </trkpt>
      <trkpt lat="44.0934" lon="7.00443">
        <ele>1604.1</ele>
        <time>2019-09-28T12:16:51Z</time>
      </trkpt>
      <trkpt lat="44.09339" lon="7.00435">
        <ele>1604.1</ele>
        <time>2019-09-28T12:16:52Z</time>
      </trkpt>
      <trkpt lat="44.09334" lon="7.0041">
        <ele>1604.1</ele>
        <time>2019-09-28T12:16:55Z</time>
      </trkpt>
      <trkpt lat="44.09331" lon="7.00402">
        <ele>1604.58</ele>
        <time>2019-09-28T12:16:56Z</time>
      </trkpt>
      <trkpt lat="44.09327" lon="7.00396">
        <ele>1604.58</ele>
        <time>2019-09-28T12:16:57Z</time>
      </trkpt>
      <trkpt lat="44.09322" lon="7.0039">
        <ele>1604.58</ele>
        <time>2019-09-28T12:16:58Z</time>
      </trkpt>
      <trkpt lat="44.09317" lon="7.00384">
        <ele>1604.58</ele>
        <time>2019-09-28T12:16:59Z</time>
      </trkpt>
      <trkpt lat="44.09312" lon="7.00378">
        <ele>1604.58</ele>
        <time>2019-09-28T12:17:00Z</time>
      </trkpt>
      <trkpt lat="44.09253" lon="7.00293">
        <ele>1603.62</ele>
        <time>2019-09-28T12:17:13Z</time>
      </trkpt>
      <trkpt lat="44.09237" lon="7.00264">
        <ele>1603.14</ele>
        <time>2019-09-28T12:17:17Z</time>
      </trkpt>
      <trkpt lat="44.09235" lon="7.00256">
        <ele>1602.66</ele>
        <time>2019-09-28T12:17:18Z</time>
      </trkpt>
      <trkpt lat="44.09234" lon="7.00246">
        <ele>1602.66</ele>
        <time>2019-09-28T12:17:19Z</time>
      </trkpt>
      <trkpt lat="44.09236" lon="7.00237">
        <ele>1602.66</ele>
        <time>2019-09-28T12:17:20Z</time>
      </trkpt>
      <trkpt lat="44.09239" lon="7.00228">
        <ele>1602.17</ele>
        <time>2019-09-28T12:17:21Z</time>
      </trkpt>
      <trkpt lat="44.09243" lon="7.00218">
        <ele>1602.17</ele>
        <time>2019-09-28T12:17:22Z</time>
      </trkpt>
      <trkpt lat="44.09248" lon="7.00208">
        <ele>1601.69</ele>
        <time>2019-09-28T12:17:23Z</time>
      </trkpt>
      <trkpt lat="44.09255" lon="7.00199">
        <ele>1601.69</ele>
        <time>2019-09-28T12:17:24Z</time>
      </trkpt>
      <trkpt lat="44.09262" lon="7.0019">
        <ele>1601.69</ele>
        <time>2019-09-28T12:17:25Z</time>
      </trkpt>
      <trkpt lat="44.09271" lon="7.00182">
        <ele>1601.21</ele>
        <time>2019-09-28T12:17:26Z</time>
      </trkpt>
      <trkpt lat="44.0928" lon="7.00174">
        <ele>1601.21</ele>
        <time>2019-09-28T12:17:27Z</time>
      </trkpt>
      <trkpt lat="44.09356" lon="7.00119">
        <ele>1600.25</ele>
        <time>2019-09-28T12:17:35Z</time>
      </trkpt>
      <trkpt lat="44.09367" lon="7.00115">
        <ele>1599.77</ele>
        <time>2019-09-28T12:17:36Z</time>
      </trkpt>
      <trkpt lat="44.09376" lon="7.00113">
        <ele>1599.77</ele>
        <time>2019-09-28T12:17:37Z</time>
      </trkpt>
      <trkpt lat="44.09386" lon="7.00112">
        <ele>1599.29</ele>
        <time>2019-09-28T12:17:38Z</time>
      </trkpt>
      <trkpt lat="44.09396" lon="7.00112">
        <ele>1599.29</ele>
        <time>2019-09-28T12:17:39Z</time>
      </trkpt>
      <trkpt lat="44.09406" lon="7.00114">
        <ele>1598.81</ele>
        <time>2019-09-28T12:17:40Z</time>
      </trkpt>
      <trkpt lat="44.09416" lon="7.00117">
        <ele>1598.81</ele>
        <time>2019-09-28T12:17:41Z</time>
      </trkpt>
      <trkpt lat="44.09457" lon="7.00126">
        <ele>1597.37</ele>
        <time>2019-09-28T12:17:45Z</time>
      </trkpt>
      <trkpt lat="44.09467" lon="7.00126">
        <ele>1597.37</ele>
        <time>2019-09-28T12:17:46Z</time>
      </trkpt>
      <trkpt lat="44.09477" lon="7.00122">
        <ele>1597.37</ele>
        <time>2019-09-28T12:17:47Z</time>
      </trkpt>
      <trkpt lat="44.09505" lon="7.00107">
        <ele>1596.41</ele>
        <time>2019-09-28T12:17:50Z</time>
      </trkpt>
      <trkpt lat="44.09515" lon="7.00105">
        <ele>1595.93</ele>
        <time>2019-09-28T12:17:51Z</time>
      </trkpt>
      <trkpt lat="44.09526" lon="7.00106">
        <ele>1595.93</ele>
        <time>2019-09-28T12:17:52Z</time>
      </trkpt>
      <trkpt lat="44.09536" lon="7.00108">
        <ele>1595.45</ele>
        <time>2019-09-28T12:17:53Z</time>
      </trkpt>
      <trkpt lat="44.09546" lon="7.00112">
        <ele>1595.45</ele>
        <time>2019-09-28T12:17:54Z</time>
      </trkpt>
      <trkpt lat="44.09555" lon="7.00116">
        <ele>1594.96</ele>
        <time>2019-09-28T12:17:55Z</time>
      </trkpt>
      <trkpt lat="44.09564" lon="7.00122">
        <ele>1594.96</ele>
        <time>2019-09-28T12:17:56Z</time>
      </trkpt>
      <trkpt lat="44.0963" lon="7.00157">
        <ele>1594.48</ele>
        <time>2019-09-28T12:18:03Z</time>
      </trkpt>
      <trkpt lat="44.09685" lon="7.00169">
        <ele>1593.52</ele>
        <time>2019-09-28T12:18:09Z</time>
      </trkpt>
      <trkpt lat="44.09695" lon="7.00173">
        <ele>1593.04</ele>
        <time>2019-09-28T12:18:10Z</time>
      </trkpt>
      <trkpt lat="44.09702" lon="7.00178">
        <ele>1593.04</ele>
        <time>2019-09-28T12:18:11Z</time>
      </trkpt>
      <trkpt lat="44.0971" lon="7.00184">
        <ele>1593.04</ele>
        <time>2019-09-28T12:18:12Z</time>
      </trkpt>
      <trkpt lat="44.09717" lon="7.00191">
        <ele>1592.56</ele>
        <time>2019-09-28T12:18:13Z</time>
      </trkpt>
      <trkpt lat="44.09813" lon="7.00271">
        <ele>1591.12</ele>
        <time>2019-09-28T12:18:25Z</time>
      </trkpt>
      <trkpt lat="44.09918" lon="7.00371">
        <ele>1586.79</ele>
        <time>2019-09-28T12:18:38Z</time>
      </trkpt>
      <trkpt lat="44.09995" lon="7.00453">
        <ele>1584.39</ele>
        <time>2019-09-28T12:18:48Z</time>
      </trkpt>
      <trkpt lat="44.10102" lon="7.00549">
        <ele>1581.03</ele>
        <time>2019-09-28T12:19:02Z</time>
      </trkpt>
      <trkpt lat="44.10179" lon="7.00589">
        <ele>1578.62</ele>
        <time>2019-09-28T12:19:11Z</time>
      </trkpt>
      <trkpt lat="44.10187" lon="7.00587">
        <ele>1578.14</ele>
        <time>2019-09-28T12:19:12Z</time>
      </trkpt>
      <trkpt lat="44.10194" lon="7.00581">
        <ele>1578.62</ele>
        <time>2019-09-28T12:19:13Z</time>
      </trkpt>
      <trkpt lat="44.10199" lon="7.00572">
        <ele>1578.62</ele>
        <time>2019-09-28T12:19:14Z</time>
      </trkpt>
      <trkpt lat="44.10201" lon="7.00561">
        <ele>1578.62</ele>
        <time>2019-09-28T12:19:15Z</time>
      </trkpt>
      <trkpt lat="44.102" lon="7.00551">
        <ele>1578.62</ele>
        <time>2019-09-28T12:19:16Z</time>
      </trkpt>
      <trkpt lat="44.10195" lon="7.00541">
        <ele>1578.14</ele>
        <time>2019-09-28T12:19:17Z</time>
      </trkpt>
      <trkpt lat="44.1019" lon="7.00534">
        <ele>1578.14</ele>
        <time>2019-09-28T12:19:18Z</time>
      </trkpt>
      <trkpt lat="44.10183" lon="7.00527">
        <ele>1578.62</ele>
        <time>2019-09-28T12:19:19Z</time>
      </trkpt>
      <trkpt lat="44.10133" lon="7.00476">
        <ele>1579.58</ele>
        <time>2019-09-28T12:19:28Z</time>
      </trkpt>
      <trkpt lat="44.10128" lon="7.0047">
        <ele>1579.58</ele>
        <time>2019-09-28T12:19:29Z</time>
      </trkpt>
      <trkpt lat="44.10085" lon="7.0036">
        <ele>1580.06</ele>
        <time>2019-09-28T12:19:45Z</time>
      </trkpt>
      <trkpt lat="44.10058" lon="7.00247">
        <ele>1579.58</ele>
        <time>2019-09-28T12:20:01Z</time>
      </trkpt>
      <trkpt lat="44.10036" lon="7.00167">
        <ele>1579.1</ele>
        <time>2019-09-28T12:20:13Z</time>
      </trkpt>
      <trkpt lat="44.10025" lon="7.00102">
        <ele>1578.62</ele>
        <time>2019-09-28T12:20:22Z</time>
      </trkpt>
      <trkpt lat="44.09976" lon="7.00013">
        <ele>1581.51</ele>
        <time>2019-09-28T12:20:37Z</time>
      </trkpt>
      <trkpt lat="44.09948" lon="6.99967">
        <ele>1582.47</ele>
        <time>2019-09-28T12:20:49Z</time>
      </trkpt>
      <trkpt lat="44.0993" lon="6.99917">
        <ele>1581.99</ele>
        <time>2019-09-28T12:21:03Z</time>
      </trkpt>
      <trkpt lat="44.09929" lon="6.99915">
        <ele>1582.47</ele>
        <time>2019-09-28T12:21:04Z</time>
      </trkpt>
      <trkpt lat="44.09928" lon="6.99916">
        <ele>1585.35</ele>
        <time>2019-09-28T12:21:18Z</time>
      </trkpt>
      <trkpt lat="44.09927" lon="6.99915">
        <ele>1587.27</ele>
        <time>2019-09-28T12:21:37Z</time>
      </trkpt>
      <trkpt lat="44.09926" lon="6.99913">
        <ele>1587.27</ele>
        <time>2019-09-28T12:21:38Z</time>
      </trkpt>
      <trkpt lat="44.09925" lon="6.99909">
        <ele>1586.79</ele>
        <time>2019-09-28T12:21:39Z</time>
      </trkpt>
      <trkpt lat="44.09923" lon="6.99904">
        <ele>1586.31</ele>
        <time>2019-09-28T12:21:40Z</time>
      </trkpt>
      <trkpt lat="44.09921" lon="6.99898">
        <ele>1585.83</ele>
        <time>2019-09-28T12:21:41Z</time>
      </trkpt>
      <trkpt lat="44.09917" lon="6.9989">
        <ele>1585.83</ele>
        <time>2019-09-28T12:21:42Z</time>
      </trkpt>
      <trkpt lat="44.09899" lon="6.9985">
        <ele>1583.43</ele>
        <time>2019-09-28T12:21:46Z</time>
      </trkpt>
      <trkpt lat="44.09892" lon="6.99839">
        <ele>1582.47</ele>
        <time>2019-09-28T12:21:47Z</time>
      </trkpt>
      <trkpt lat="44.09817" lon="6.99756">
        <ele>1576.7</ele>
        <time>2019-09-28T12:21:56Z</time>
      </trkpt>
      <trkpt lat="44.09804" lon="6.99747">
        <ele>1575.26</ele>
        <time>2019-09-28T12:21:57Z</time>
      </trkpt>
      <trkpt lat="44.09796" lon="6.99743">
        <ele>1574.78</ele>
        <time>2019-09-28T12:21:58Z</time>
      </trkpt>
      <trkpt lat="44.09777" lon="6.9973">
        <ele>1571.89</ele>
        <time>2019-09-28T12:22:00Z</time>
      </trkpt>
      <trkpt lat="44.09769" lon="6.99719">
        <ele>1570.93</ele>
        <time>2019-09-28T12:22:01Z</time>
      </trkpt>
      <trkpt lat="44.09763" lon="6.99707">
        <ele>1569.97</ele>
        <time>2019-09-28T12:22:02Z</time>
      </trkpt>
      <trkpt lat="44.09757" lon="6.99694">
        <ele>1568.53</ele>
        <time>2019-09-28T12:22:03Z</time>
      </trkpt>
      <trkpt lat="44.09753" lon="6.99681">
        <ele>1567.09</ele>
        <time>2019-09-28T12:22:04Z</time>
      </trkpt>
      <trkpt lat="44.09755" lon="6.99666">
        <ele>1566.12</ele>
        <time>2019-09-28T12:22:05Z</time>
      </trkpt>
      <trkpt lat="44.0976" lon="6.99652">
        <ele>1565.16</ele>
        <time>2019-09-28T12:22:06Z</time>
      </trkpt>
      <trkpt lat="44.09767" lon="6.99639">
        <ele>1564.2</ele>
        <time>2019-09-28T12:22:07Z</time>
      </trkpt>
      <trkpt lat="44.09776" lon="6.99628">
        <ele>1563.24</ele>
        <time>2019-09-28T12:22:08Z</time>
      </trkpt>
      <trkpt lat="44.09786" lon="6.99619">
        <ele>1562.28</ele>
        <time>2019-09-28T12:22:09Z</time>
      </trkpt>
      <trkpt lat="44.09797" lon="6.99611">
        <ele>1561.32</ele>
        <time>2019-09-28T12:22:10Z</time>
      </trkpt>
      <trkpt lat="44.09808" lon="6.99605">
        <ele>1560.36</ele>
        <time>2019-09-28T12:22:11Z</time>
      </trkpt>
      <trkpt lat="44.09831" lon="6.99589">
        <ele>1557.95</ele>
        <time>2019-09-28T12:22:13Z</time>
      </trkpt>
      <trkpt lat="44.09841" lon="6.99578">
        <ele>1556.99</ele>
        <time>2019-09-28T12:22:14Z</time>
      </trkpt>
      <trkpt lat="44.0985" lon="6.99564">
        <ele>1555.55</ele>
        <time>2019-09-28T12:22:15Z</time>
      </trkpt>
      <trkpt lat="44.09859" lon="6.99551">
        <ele>1554.11</ele>
        <time>2019-09-28T12:22:16Z</time>
      </trkpt>
      <trkpt lat="44.09871" lon="6.99539">
        <ele>1552.19</ele>
        <time>2019-09-28T12:22:17Z</time>
      </trkpt>
      <trkpt lat="44.09882" lon="6.99532">
        <ele>1550.74</ele>
        <time>2019-09-28T12:22:18Z</time>
      </trkpt>
      <trkpt lat="44.09898" lon="6.99529">
        <ele>1549.3</ele>
        <time>2019-09-28T12:22:19Z</time>
      </trkpt>
      <trkpt lat="44.09911" lon="6.99531">
        <ele>1547.86</ele>
        <time>2019-09-28T12:22:20Z</time>
      </trkpt>
      <trkpt lat="44.09924" lon="6.99535">
        <ele>1546.9</ele>
        <time>2019-09-28T12:22:21Z</time>
      </trkpt>
      <trkpt lat="44.09939" lon="6.99542">
        <ele>1545.46</ele>
        <time>2019-09-28T12:22:22Z</time>
      </trkpt>
      <trkpt lat="44.10024" lon="6.99571">
        <ele>1538.25</ele>
        <time>2019-09-28T12:22:28Z</time>
      </trkpt>
      <trkpt lat="44.10037" lon="6.99579">
        <ele>1537.29</ele>
        <time>2019-09-28T12:22:29Z</time>
      </trkpt>
      <trkpt lat="44.10101" lon="6.99624">
        <ele>1532</ele>
        <time>2019-09-28T12:22:34Z</time>
      </trkpt>
      <trkpt lat="44.10114" lon="6.9963">
        <ele>1531.04</ele>
        <time>2019-09-28T12:22:35Z</time>
      </trkpt>
      <trkpt lat="44.10128" lon="6.99633">
        <ele>1530.08</ele>
        <time>2019-09-28T12:22:36Z</time>
      </trkpt>
      <trkpt lat="44.10142" lon="6.99635">
        <ele>1529.11</ele>
        <time>2019-09-28T12:22:37Z</time>
      </trkpt>
      <trkpt lat="44.10156" lon="6.99637">
        <ele>1528.15</ele>
        <time>2019-09-28T12:22:38Z</time>
      </trkpt>
      <trkpt lat="44.10211" lon="6.99637">
        <ele>1524.31</ele>
        <time>2019-09-28T12:22:42Z</time>
      </trkpt>
      <trkpt lat="44.10224" lon="6.99633">
        <ele>1522.87</ele>
        <time>2019-09-28T12:22:43Z</time>
      </trkpt>
      <trkpt lat="44.10255" lon="6.99615">
        <ele>1519.98</ele>
        <time>2019-09-28T12:22:46Z</time>
      </trkpt>
      <trkpt lat="44.10261" lon="6.99604">
        <ele>1519.02</ele>
        <time>2019-09-28T12:22:47Z</time>
      </trkpt>
      <trkpt lat="44.10263" lon="6.99591">
        <ele>1518.06</ele>
        <time>2019-09-28T12:22:48Z</time>
      </trkpt>
      <trkpt lat="44.1026" lon="6.99578">
        <ele>1516.62</ele>
        <time>2019-09-28T12:22:49Z</time>
      </trkpt>
      <trkpt lat="44.10254" lon="6.99566">
        <ele>1515.66</ele>
        <time>2019-09-28T12:22:50Z</time>
      </trkpt>
      <trkpt lat="44.10246" lon="6.99557">
        <ele>1514.69</ele>
        <time>2019-09-28T12:22:51Z</time>
      </trkpt>
      <trkpt lat="44.10237" lon="6.99546">
        <ele>1513.25</ele>
        <time>2019-09-28T12:22:52Z</time>
      </trkpt>
      <trkpt lat="44.1023" lon="6.99534">
        <ele>1511.81</ele>
        <time>2019-09-28T12:22:53Z</time>
      </trkpt>
      <trkpt lat="44.10225" lon="6.99525">
        <ele>1510.85</ele>
        <time>2019-09-28T12:22:54Z</time>
      </trkpt>
      <trkpt lat="44.10195" lon="6.99461">
        <ele>1505.56</ele>
        <time>2019-09-28T12:22:59Z</time>
      </trkpt>
      <trkpt lat="44.10195" lon="6.99446">
        <ele>1504.6</ele>
        <time>2019-09-28T12:23:00Z</time>
      </trkpt>
      <trkpt lat="44.10198" lon="6.99396">
        <ele>1500.76</ele>
        <time>2019-09-28T12:23:03Z</time>
      </trkpt>
      <trkpt lat="44.10195" lon="6.99346">
        <ele>1497.87</ele>
        <time>2019-09-28T12:23:06Z</time>
      </trkpt>
      <trkpt lat="44.1019" lon="6.99332">
        <ele>1497.39</ele>
        <time>2019-09-28T12:23:07Z</time>
      </trkpt>
      <trkpt lat="44.10183" lon="6.99321">
        <ele>1496.43</ele>
        <time>2019-09-28T12:23:08Z</time>
      </trkpt>
      <trkpt lat="44.10174" lon="6.99314">
        <ele>1495.95</ele>
        <time>2019-09-28T12:23:09Z</time>
      </trkpt>
      <trkpt lat="44.10163" lon="6.99311">
        <ele>1495.47</ele>
        <time>2019-09-28T12:23:10Z</time>
      </trkpt>
      <trkpt lat="44.10152" lon="6.99312">
        <ele>1495.47</ele>
        <time>2019-09-28T12:23:11Z</time>
      </trkpt>
      <trkpt lat="44.10142" lon="6.99317">
        <ele>1494.99</ele>
        <time>2019-09-28T12:23:12Z</time>
      </trkpt>
      <trkpt lat="44.10132" lon="6.99325">
        <ele>1494.51</ele>
        <time>2019-09-28T12:23:13Z</time>
      </trkpt>
      <trkpt lat="44.10123" lon="6.99332">
        <ele>1494.51</ele>
        <time>2019-09-28T12:23:14Z</time>
      </trkpt>
      <trkpt lat="44.10113" lon="6.99337">
        <ele>1494.03</ele>
        <time>2019-09-28T12:23:15Z</time>
      </trkpt>
      <trkpt lat="44.10103" lon="6.99338">
        <ele>1494.03</ele>
        <time>2019-09-28T12:23:16Z</time>
      </trkpt>
      <trkpt lat="44.10094" lon="6.99333">
        <ele>1493.55</ele>
        <time>2019-09-28T12:23:17Z</time>
      </trkpt>
      <trkpt lat="44.10086" lon="6.99324">
        <ele>1493.06</ele>
        <time>2019-09-28T12:23:18Z</time>
      </trkpt>
      <trkpt lat="44.10081" lon="6.99313">
        <ele>1492.58</ele>
        <time>2019-09-28T12:23:19Z</time>
      </trkpt>
      <trkpt lat="44.10077" lon="6.99299">
        <ele>1492.1</ele>
        <time>2019-09-28T12:23:20Z</time>
      </trkpt>
      <trkpt lat="44.10077" lon="6.99285">
        <ele>1491.62</ele>
        <time>2019-09-28T12:23:21Z</time>
      </trkpt>
      <trkpt lat="44.1008" lon="6.99272">
        <ele>1491.14</ele>
        <time>2019-09-28T12:23:22Z</time>
      </trkpt>
      <trkpt lat="44.10086" lon="6.99261">
        <ele>1491.14</ele>
        <time>2019-09-28T12:23:23Z</time>
      </trkpt>
      <trkpt lat="44.10095" lon="6.99252">
        <ele>1490.66</ele>
        <time>2019-09-28T12:23:24Z</time>
      </trkpt>
      <trkpt lat="44.10103" lon="6.99246">
        <ele>1490.18</ele>
        <time>2019-09-28T12:23:25Z</time>
      </trkpt>
      <trkpt lat="44.10113" lon="6.99239">
        <ele>1490.18</ele>
        <time>2019-09-28T12:23:26Z</time>
      </trkpt>
      <trkpt lat="44.10122" lon="6.99231">
        <ele>1489.22</ele>
        <time>2019-09-28T12:23:27Z</time>
      </trkpt>
      <trkpt lat="44.10209" lon="6.99132">
        <ele>1480.57</ele>
        <time>2019-09-28T12:23:36Z</time>
      </trkpt>
      <trkpt lat="44.10318" lon="6.98928">
        <ele>1465.19</ele>
        <time>2019-09-28T12:23:49Z</time>
      </trkpt>
      <trkpt lat="44.10372" lon="6.98813">
        <ele>1457.02</ele>
        <time>2019-09-28T12:23:56Z</time>
      </trkpt>
      <trkpt lat="44.10382" lon="6.98801">
        <ele>1455.57</ele>
        <time>2019-09-28T12:23:57Z</time>
      </trkpt>
      <trkpt lat="44.10393" lon="6.98791">
        <ele>1454.61</ele>
        <time>2019-09-28T12:23:58Z</time>
      </trkpt>
      <trkpt lat="44.10407" lon="6.98783">
        <ele>1453.17</ele>
        <time>2019-09-28T12:23:59Z</time>
      </trkpt>
      <trkpt lat="44.10419" lon="6.9878">
        <ele>1452.21</ele>
        <time>2019-09-28T12:24:00Z</time>
      </trkpt>
      <trkpt lat="44.10435" lon="6.98779">
        <ele>1450.77</ele>
        <time>2019-09-28T12:24:01Z</time>
      </trkpt>
      <trkpt lat="44.10449" lon="6.98778">
        <ele>1449.81</ele>
        <time>2019-09-28T12:24:02Z</time>
      </trkpt>
      <trkpt lat="44.10462" lon="6.98776">
        <ele>1449.32</ele>
        <time>2019-09-28T12:24:03Z</time>
      </trkpt>
      <trkpt lat="44.10474" lon="6.98773">
        <ele>1448.84</ele>
        <time>2019-09-28T12:24:04Z</time>
      </trkpt>
      <trkpt lat="44.10484" lon="6.98767">
        <ele>1448.36</ele>
        <time>2019-09-28T12:24:05Z</time>
      </trkpt>
      <trkpt lat="44.10494" lon="6.98757">
        <ele>1448.36</ele>
        <time>2019-09-28T12:24:06Z</time>
      </trkpt>
      <trkpt lat="44.10498" lon="6.98746">
        <ele>1447.88</ele>
        <time>2019-09-28T12:24:07Z</time>
      </trkpt>
      <trkpt lat="44.10501" lon="6.9873">
        <ele>1447.88</ele>
        <time>2019-09-28T12:24:08Z</time>
      </trkpt>
      <trkpt lat="44.10502" lon="6.98717">
        <ele>1447.4</ele>
        <time>2019-09-28T12:24:09Z</time>
      </trkpt>
      <trkpt lat="44.10502" lon="6.98702">
        <ele>1447.4</ele>
        <time>2019-09-28T12:24:10Z</time>
      </trkpt>
      <trkpt lat="44.105" lon="6.98691">
        <ele>1447.4</ele>
        <time>2019-09-28T12:24:11Z</time>
      </trkpt>
      <trkpt lat="44.10491" lon="6.9868">
        <ele>1446.92</ele>
        <time>2019-09-28T12:24:12Z</time>
      </trkpt>
      <trkpt lat="44.10484" lon="6.98674">
        <ele>1446.92</ele>
        <time>2019-09-28T12:24:13Z</time>
      </trkpt>
      <trkpt lat="44.10476" lon="6.98669">
        <ele>1446.44</ele>
        <time>2019-09-28T12:24:14Z</time>
      </trkpt>
      <trkpt lat="44.10467" lon="6.98665">
        <ele>1445.96</ele>
        <time>2019-09-28T12:24:15Z</time>
      </trkpt>
      <trkpt lat="44.10458" lon="6.98661">
        <ele>1445.48</ele>
        <time>2019-09-28T12:24:16Z</time>
      </trkpt>
      <trkpt lat="44.10385" lon="6.98644">
        <ele>1440.19</ele>
        <time>2019-09-28T12:24:26Z</time>
      </trkpt>
      <trkpt lat="44.10381" lon="6.98642">
        <ele>1438.75</ele>
        <time>2019-09-28T12:24:34Z</time>
      </trkpt>
      <trkpt lat="44.10382" lon="6.98643">
        <ele>1437.79</ele>
        <time>2019-09-28T12:24:59Z</time>
      </trkpt>
      <trkpt lat="44.10382" lon="6.98644">
        <ele>1437.79</ele>
        <time>2019-09-28T12:25:20Z</time>
      </trkpt>
      <trkpt lat="44.10382" lon="6.98644">
        <ele>1435.87</ele>
        <time>2019-09-28T12:25:43Z</time>
      </trkpt>
      <trkpt lat="44.10382" lon="6.98643">
        <ele>1437.79</ele>
        <time>2019-09-28T12:26:07Z</time>
      </trkpt>
      <trkpt lat="44.10382" lon="6.98642">
        <ele>1438.75</ele>
        <time>2019-09-28T12:26:30Z</time>
      </trkpt>
      <trkpt lat="44.10381" lon="6.98643">
        <ele>1438.75</ele>
        <time>2019-09-28T12:26:52Z</time>
      </trkpt>
      <trkpt lat="44.10381" lon="6.98643">
        <ele>1439.23</ele>
        <time>2019-09-28T12:27:06Z</time>
      </trkpt>
      <trkpt lat="44.10382" lon="6.98642">
        <ele>1437.31</ele>
        <time>2019-09-28T12:27:35Z</time>
      </trkpt>
      <trkpt lat="44.10382" lon="6.98644">
        <ele>1436.83</ele>
        <time>2019-09-28T12:28:13Z</time>
      </trkpt>
      <trkpt lat="44.10381" lon="6.98642">
        <ele>1436.83</ele>
        <time>2019-09-28T12:28:19Z</time>
      </trkpt>
      <trkpt lat="44.1038" lon="6.98639">
        <ele>1436.83</ele>
        <time>2019-09-28T12:28:20Z</time>
      </trkpt>
      <trkpt lat="44.1038" lon="6.98637">
        <ele>1436.83</ele>
        <time>2019-09-28T12:28:21Z</time>
      </trkpt>
      <trkpt lat="44.1038" lon="6.98635">
        <ele>1436.83</ele>
        <time>2019-09-28T12:28:22Z</time>
      </trkpt>
      <trkpt lat="44.10381" lon="6.98632">
        <ele>1436.83</ele>
        <time>2019-09-28T12:28:23Z</time>
      </trkpt>
      <trkpt lat="44.10383" lon="6.9863">
        <ele>1437.31</ele>
        <time>2019-09-28T12:28:24Z</time>
      </trkpt>
      <trkpt lat="44.10385" lon="6.98628">
        <ele>1437.31</ele>
        <time>2019-09-28T12:28:25Z</time>
      </trkpt>
      <trkpt lat="44.10386" lon="6.98626">
        <ele>1437.79</ele>
        <time>2019-09-28T12:28:26Z</time>
      </trkpt>
      <trkpt lat="44.10389" lon="6.98623">
        <ele>1438.27</ele>
        <time>2019-09-28T12:28:27Z</time>
      </trkpt>
      <trkpt lat="44.1039" lon="6.98621">
        <ele>1438.27</ele>
        <time>2019-09-28T12:28:28Z</time>
      </trkpt>
      <trkpt lat="44.10427" lon="6.98593">
        <ele>1443.56</ele>
        <time>2019-09-28T12:28:43Z</time>
      </trkpt>
      <trkpt lat="44.10472" lon="6.98569">
        <ele>1448.84</ele>
        <time>2019-09-28T12:29:00Z</time>
      </trkpt>
      <trkpt lat="44.10503" lon="6.98557">
        <ele>1453.17</ele>
        <time>2019-09-28T12:29:12Z</time>
      </trkpt>
      <trkpt lat="44.10526" lon="6.98531">
        <ele>1457.02</ele>
        <time>2019-09-28T12:29:24Z</time>
      </trkpt>
      <trkpt lat="44.10545" lon="6.98507">
        <ele>1459.42</ele>
        <time>2019-09-28T12:29:35Z</time>
      </trkpt>
      <trkpt lat="44.10584" lon="6.9847">
        <ele>1462.3</ele>
        <time>2019-09-28T12:29:52Z</time>
      </trkpt>
      <trkpt lat="44.10623" lon="6.98439">
        <ele>1464.23</ele>
        <time>2019-09-28T12:30:08Z</time>
      </trkpt>
      <trkpt lat="44.10663" lon="6.98408">
        <ele>1465.19</ele>
        <time>2019-09-28T12:30:24Z</time>
      </trkpt>
      <trkpt lat="44.10687" lon="6.98383">
        <ele>1467.59</ele>
        <time>2019-09-28T12:30:35Z</time>
      </trkpt>
      <trkpt lat="44.10689" lon="6.9838">
        <ele>1467.59</ele>
        <time>2019-09-28T12:30:36Z</time>
      </trkpt>
      <trkpt lat="44.1069" lon="6.98377">
        <ele>1467.59</ele>
        <time>2019-09-28T12:30:37Z</time>
      </trkpt>
      <trkpt lat="44.10692" lon="6.98375">
        <ele>1468.07</ele>
        <time>2019-09-28T12:30:38Z</time>
      </trkpt>
      <trkpt lat="44.10694" lon="6.98372">
        <ele>1468.55</ele>
        <time>2019-09-28T12:30:39Z</time>
      </trkpt>
      <trkpt lat="44.10698" lon="6.98363">
        <ele>1469.51</ele>
        <time>2019-09-28T12:30:51Z</time>
      </trkpt>
      <trkpt lat="44.10705" lon="6.98356">
        <ele>1469.51</ele>
        <time>2019-09-28T12:30:58Z</time>
      </trkpt>
      <trkpt lat="44.10726" lon="6.98311">
        <ele>1471.44</ele>
        <time>2019-09-28T12:31:13Z</time>
      </trkpt>
      <trkpt lat="44.10733" lon="6.98296">
        <ele>1473.36</ele>
        <time>2019-09-28T12:31:19Z</time>
      </trkpt>
      <trkpt lat="44.10733" lon="6.98293">
        <ele>1473.36</ele>
        <time>2019-09-28T12:31:20Z</time>
      </trkpt>
      <trkpt lat="44.10733" lon="6.9829">
        <ele>1473.36</ele>
        <time>2019-09-28T12:31:21Z</time>
      </trkpt>
      <trkpt lat="44.10745" lon="6.98252">
        <ele>1473.84</ele>
        <time>2019-09-28T12:31:33Z</time>
      </trkpt>
      <trkpt lat="44.10759" lon="6.98194">
        <ele>1476.72</ele>
        <time>2019-09-28T12:31:49Z</time>
      </trkpt>
      <trkpt lat="44.10775" lon="6.98133">
        <ele>1480.57</ele>
        <time>2019-09-28T12:32:04Z</time>
      </trkpt>
      <trkpt lat="44.10787" lon="6.98109">
        <ele>1482.49</ele>
        <time>2019-09-28T12:32:11Z</time>
      </trkpt>
      <trkpt lat="44.1079" lon="6.98109">
        <ele>1482.49</ele>
        <time>2019-09-28T12:32:12Z</time>
      </trkpt>
      <trkpt lat="44.10792" lon="6.98111">
        <ele>1482.97</ele>
        <time>2019-09-28T12:32:13Z</time>
      </trkpt>
      <trkpt lat="44.10794" lon="6.98114">
        <ele>1482.97</ele>
        <time>2019-09-28T12:32:14Z</time>
      </trkpt>
      <trkpt lat="44.10796" lon="6.98118">
        <ele>1483.45</ele>
        <time>2019-09-28T12:32:15Z</time>
      </trkpt>
      <trkpt lat="44.10797" lon="6.98121">
        <ele>1483.93</ele>
        <time>2019-09-28T12:32:16Z</time>
      </trkpt>
      <trkpt lat="44.10799" lon="6.98123">
        <ele>1484.41</ele>
        <time>2019-09-28T12:32:17Z</time>
      </trkpt>
      <trkpt lat="44.10802" lon="6.98124">
        <ele>1484.41</ele>
        <time>2019-09-28T12:32:18Z</time>
      </trkpt>
      <trkpt lat="44.10804" lon="6.98125">
        <ele>1484.89</ele>
        <time>2019-09-28T12:32:19Z</time>
      </trkpt>
      <trkpt lat="44.10807" lon="6.98125">
        <ele>1484.89</ele>
        <time>2019-09-28T12:32:20Z</time>
      </trkpt>
      <trkpt lat="44.10827" lon="6.98126">
        <ele>1486.82</ele>
        <time>2019-09-28T12:32:27Z</time>
      </trkpt>
      <trkpt lat="44.10832" lon="6.98126">
        <ele>1486.82</ele>
        <time>2019-09-28T12:32:28Z</time>
      </trkpt>
      <trkpt lat="44.10851" lon="6.98129">
        <ele>1488.74</ele>
        <time>2019-09-28T12:32:33Z</time>
      </trkpt>
      <trkpt lat="44.10875" lon="6.98135">
        <ele>1491.14</ele>
        <time>2019-09-28T12:32:39Z</time>
      </trkpt>
      <trkpt lat="44.10887" lon="6.98134">
        <ele>1493.06</ele>
        <time>2019-09-28T12:32:42Z</time>
      </trkpt>
      <trkpt lat="44.10896" lon="6.98132">
        <ele>1494.03</ele>
        <time>2019-09-28T12:32:44Z</time>
      </trkpt>
      <trkpt lat="44.109" lon="6.9813">
        <ele>1494.51</ele>
        <time>2019-09-28T12:32:45Z</time>
      </trkpt>
      <trkpt lat="44.10941" lon="6.98118">
        <ele>1498.83</ele>
        <time>2019-09-28T12:32:58Z</time>
      </trkpt>
      <trkpt lat="44.10976" lon="6.98107">
        <ele>1504.12</ele>
        <time>2019-09-28T12:33:12Z</time>
      </trkpt>
      <trkpt lat="44.11013" lon="6.98095">
        <ele>1508.93</ele>
        <time>2019-09-28T12:33:27Z</time>
      </trkpt>
      <trkpt lat="44.11046" lon="6.98098">
        <ele>1512.77</ele>
        <time>2019-09-28T12:33:40Z</time>
      </trkpt>
      <trkpt lat="44.1106" lon="6.98084">
        <ele>1515.66</ele>
        <time>2019-09-28T12:33:46Z</time>
      </trkpt>
      <trkpt lat="44.11061" lon="6.9808">
        <ele>1516.14</ele>
        <time>2019-09-28T12:33:47Z</time>
      </trkpt>
      <trkpt lat="44.11083" lon="6.98032">
        <ele>1522.87</ele>
        <time>2019-09-28T12:33:59Z</time>
      </trkpt>
      <trkpt lat="44.11094" lon="6.98026">
        <ele>1524.31</ele>
        <time>2019-09-28T12:34:02Z</time>
      </trkpt>
      <trkpt lat="44.11101" lon="6.98019">
        <ele>1524.79</ele>
        <time>2019-09-28T12:34:04Z</time>
      </trkpt>
      <trkpt lat="44.11104" lon="6.98015">
        <ele>1525.27</ele>
        <time>2019-09-28T12:34:05Z</time>
      </trkpt>
      <trkpt lat="44.11107" lon="6.9801">
        <ele>1525.27</ele>
        <time>2019-09-28T12:34:06Z</time>
      </trkpt>
      <trkpt lat="44.11109" lon="6.98005">
        <ele>1525.75</ele>
        <time>2019-09-28T12:34:07Z</time>
      </trkpt>
      <trkpt lat="44.1111" lon="6.97999">
        <ele>1526.71</ele>
        <time>2019-09-28T12:34:08Z</time>
      </trkpt>
      <trkpt lat="44.11111" lon="6.97993">
        <ele>1527.19</ele>
        <time>2019-09-28T12:34:09Z</time>
      </trkpt>
      <trkpt lat="44.11113" lon="6.97989">
        <ele>1527.67</ele>
        <time>2019-09-28T12:34:10Z</time>
      </trkpt>
      <trkpt lat="44.11115" lon="6.97984">
        <ele>1528.15</ele>
        <time>2019-09-28T12:34:11Z</time>
      </trkpt>
      <trkpt lat="44.11118" lon="6.9798">
        <ele>1529.11</ele>
        <time>2019-09-28T12:34:12Z</time>
      </trkpt>
      <trkpt lat="44.11121" lon="6.97977">
        <ele>1529.59</ele>
        <time>2019-09-28T12:34:13Z</time>
      </trkpt>
      <trkpt lat="44.11125" lon="6.97975">
        <ele>1530.08</ele>
        <time>2019-09-28T12:34:14Z</time>
      </trkpt>
      <trkpt lat="44.11128" lon="6.97973">
        <ele>1530.56</ele>
        <time>2019-09-28T12:34:15Z</time>
      </trkpt>
      <trkpt lat="44.11135" lon="6.97968">
        <ele>1531.52</ele>
        <time>2019-09-28T12:34:17Z</time>
      </trkpt>
      <trkpt lat="44.11144" lon="6.9796">
        <ele>1532.48</ele>
        <time>2019-09-28T12:34:19Z</time>
      </trkpt>
      <trkpt lat="44.11153" lon="6.97949">
        <ele>1532.96</ele>
        <time>2019-09-28T12:34:21Z</time>
      </trkpt>
      <trkpt lat="44.11156" lon="6.97944">
        <ele>1533.44</ele>
        <time>2019-09-28T12:34:22Z</time>
      </trkpt>
      <trkpt lat="44.11162" lon="6.97932">
        <ele>1534.4</ele>
        <time>2019-09-28T12:34:24Z</time>
      </trkpt>
      <trkpt lat="44.11165" lon="6.97927">
        <ele>1534.88</ele>
        <time>2019-09-28T12:34:25Z</time>
      </trkpt>
      <trkpt lat="44.11169" lon="6.97924">
        <ele>1535.84</ele>
        <time>2019-09-28T12:34:26Z</time>
      </trkpt>
      <trkpt lat="44.11174" lon="6.97921">
        <ele>1536.8</ele>
        <time>2019-09-28T12:34:27Z</time>
      </trkpt>
      <trkpt lat="44.11179" lon="6.97919">
        <ele>1537.29</ele>
        <time>2019-09-28T12:34:28Z</time>
      </trkpt>
      <trkpt lat="44.11184" lon="6.97918">
        <ele>1537.77</ele>
        <time>2019-09-28T12:34:29Z</time>
      </trkpt>
      <trkpt lat="44.11195" lon="6.97917">
        <ele>1539.21</ele>
        <time>2019-09-28T12:34:31Z</time>
      </trkpt>
      <trkpt lat="44.112" lon="6.97915">
        <ele>1539.69</ele>
        <time>2019-09-28T12:34:32Z</time>
      </trkpt>
      <trkpt lat="44.11205" lon="6.97912">
        <ele>1540.17</ele>
        <time>2019-09-28T12:34:33Z</time>
      </trkpt>
      <trkpt lat="44.1121" lon="6.97908">
        <ele>1540.17</ele>
        <time>2019-09-28T12:34:34Z</time>
      </trkpt>
      <trkpt lat="44.11214" lon="6.97904">
        <ele>1540.65</ele>
        <time>2019-09-28T12:34:35Z</time>
      </trkpt>
      <trkpt lat="44.11218" lon="6.979">
        <ele>1541.13</ele>
        <time>2019-09-28T12:34:36Z</time>
      </trkpt>
      <trkpt lat="44.11222" lon="6.97896">
        <ele>1541.61</ele>
        <time>2019-09-28T12:34:37Z</time>
      </trkpt>
      <trkpt lat="44.11226" lon="6.97893">
        <ele>1542.09</ele>
        <time>2019-09-28T12:34:38Z</time>
      </trkpt>
      <trkpt lat="44.1123" lon="6.97889">
        <ele>1542.09</ele>
        <time>2019-09-28T12:34:39Z</time>
      </trkpt>
      <trkpt lat="44.11235" lon="6.97886">
        <ele>1542.57</ele>
        <time>2019-09-28T12:34:40Z</time>
      </trkpt>
      <trkpt lat="44.1124" lon="6.97883">
        <ele>1543.05</ele>
        <time>2019-09-28T12:34:41Z</time>
      </trkpt>
      <trkpt lat="44.11244" lon="6.97881">
        <ele>1543.05</ele>
        <time>2019-09-28T12:34:42Z</time>
      </trkpt>
      <trkpt lat="44.1125" lon="6.9788">
        <ele>1543.05</ele>
        <time>2019-09-28T12:34:43Z</time>
      </trkpt>
      <trkpt lat="44.11273" lon="6.97874">
        <ele>1545.94</ele>
        <time>2019-09-28T12:34:48Z</time>
      </trkpt>
      <trkpt lat="44.11277" lon="6.97871">
        <ele>1546.42</ele>
        <time>2019-09-28T12:34:49Z</time>
      </trkpt>
      <trkpt lat="44.11281" lon="6.97866">
        <ele>1546.9</ele>
        <time>2019-09-28T12:34:50Z</time>
      </trkpt>
      <trkpt lat="44.11284" lon="6.97862">
        <ele>1547.86</ele>
        <time>2019-09-28T12:34:51Z</time>
      </trkpt>
      <trkpt lat="44.11288" lon="6.97857">
        <ele>1548.34</ele>
        <time>2019-09-28T12:34:52Z</time>
      </trkpt>
      <trkpt lat="44.11291" lon="6.97852">
        <ele>1548.82</ele>
        <time>2019-09-28T12:34:53Z</time>
      </trkpt>
      <trkpt lat="44.11293" lon="6.97848">
        <ele>1549.78</ele>
        <time>2019-09-28T12:34:54Z</time>
      </trkpt>
      <trkpt lat="44.11296" lon="6.97844">
        <ele>1550.26</ele>
        <time>2019-09-28T12:34:55Z</time>
      </trkpt>
      <trkpt lat="44.11326" lon="6.97808">
        <ele>1555.55</ele>
        <time>2019-09-28T12:35:05Z</time>
      </trkpt>
      <trkpt lat="44.11351" lon="6.97768">
        <ele>1560.84</ele>
        <time>2019-09-28T12:35:18Z</time>
      </trkpt>
      <trkpt lat="44.11357" lon="6.97727">
        <ele>1562.76</ele>
        <time>2019-09-28T12:35:30Z</time>
      </trkpt>
      <trkpt lat="44.11366" lon="6.97685">
        <ele>1566.12</ele>
        <time>2019-09-28T12:35:41Z</time>
      </trkpt>
      <trkpt lat="44.11377" lon="6.97639">
        <ele>1570.45</ele>
        <time>2019-09-28T12:35:53Z</time>
      </trkpt>
      <trkpt lat="44.11387" lon="6.97611">
        <ele>1573.82</ele>
        <time>2019-09-28T12:36:06Z</time>
      </trkpt>
      <trkpt lat="44.11388" lon="6.97606">
        <ele>1573.82</ele>
        <time>2019-09-28T12:36:28Z</time>
      </trkpt>
      <trkpt lat="44.11389" lon="6.97609">
        <ele>1575.74</ele>
        <time>2019-09-28T12:36:44Z</time>
      </trkpt>
      <trkpt lat="44.11388" lon="6.97606">
        <ele>1574.3</ele>
        <time>2019-09-28T12:37:04Z</time>
      </trkpt>
      <trkpt lat="44.11389" lon="6.97604">
        <ele>1573.82</ele>
        <time>2019-09-28T12:37:05Z</time>
      </trkpt>
      <trkpt lat="44.1139" lon="6.976">
        <ele>1573.82</ele>
        <time>2019-09-28T12:37:06Z</time>
      </trkpt>
      <trkpt lat="44.11393" lon="6.97562">
        <ele>1575.26</ele>
        <time>2019-09-28T12:37:14Z</time>
      </trkpt>
      <trkpt lat="44.11394" lon="6.97556">
        <ele>1575.74</ele>
        <time>2019-09-28T12:37:15Z</time>
      </trkpt>
      <trkpt lat="44.11394" lon="6.97551">
        <ele>1575.74</ele>
        <time>2019-09-28T12:37:16Z</time>
      </trkpt>
      <trkpt lat="44.11403" lon="6.97488">
        <ele>1581.99</ele>
        <time>2019-09-28T12:37:30Z</time>
      </trkpt>
      <trkpt lat="44.11425" lon="6.97436">
        <ele>1587.27</ele>
        <time>2019-09-28T12:37:44Z</time>
      </trkpt>
      <trkpt lat="44.11434" lon="6.97381">
        <ele>1593.04</ele>
        <time>2019-09-28T12:37:59Z</time>
      </trkpt>
      <trkpt lat="44.11434" lon="6.97379">
        <ele>1593.52</ele>
        <time>2019-09-28T12:38:00Z</time>
      </trkpt>
      <trkpt lat="44.11434" lon="6.97377">
        <ele>1593.04</ele>
        <time>2019-09-28T12:38:01Z</time>
      </trkpt>
      <trkpt lat="44.11434" lon="6.97374">
        <ele>1593.04</ele>
        <time>2019-09-28T12:38:02Z</time>
      </trkpt>
      <trkpt lat="44.11437" lon="6.9731">
        <ele>1595.93</ele>
        <time>2019-09-28T12:38:21Z</time>
      </trkpt>
      <trkpt lat="44.11444" lon="6.97262">
        <ele>1597.85</ele>
        <time>2019-09-28T12:38:35Z</time>
      </trkpt>
      <trkpt lat="44.11452" lon="6.9721">
        <ele>1600.73</ele>
        <time>2019-09-28T12:38:50Z</time>
      </trkpt>
      <trkpt lat="44.11457" lon="6.9716">
        <ele>1604.1</ele>
        <time>2019-09-28T12:39:05Z</time>
      </trkpt>
      <trkpt lat="44.11458" lon="6.97157">
        <ele>1604.58</ele>
        <time>2019-09-28T12:39:06Z</time>
      </trkpt>
      <trkpt lat="44.11458" lon="6.97154">
        <ele>1604.58</ele>
        <time>2019-09-28T12:39:07Z</time>
      </trkpt>
      <trkpt lat="44.1146" lon="6.97152">
        <ele>1605.06</ele>
        <time>2019-09-28T12:39:08Z</time>
      </trkpt>
      <trkpt lat="44.11461" lon="6.9715">
        <ele>1605.54</ele>
        <time>2019-09-28T12:39:09Z</time>
      </trkpt>
      <trkpt lat="44.11463" lon="6.97147">
        <ele>1606.02</ele>
        <time>2019-09-28T12:39:15Z</time>
      </trkpt>
      <trkpt lat="44.11464" lon="6.97147">
        <ele>1606.02</ele>
        <time>2019-09-28T12:39:16Z</time>
      </trkpt>
      <trkpt lat="44.11466" lon="6.97146">
        <ele>1606.02</ele>
        <time>2019-09-28T12:39:17Z</time>
      </trkpt>
      <trkpt lat="44.11467" lon="6.97144">
        <ele>1606.02</ele>
        <time>2019-09-28T12:39:18Z</time>
      </trkpt>
      <trkpt lat="44.11467" lon="6.97144">
        <ele>1606.98</ele>
        <time>2019-09-28T12:39:30Z</time>
      </trkpt>
      <trkpt lat="44.11466" lon="6.97142">
        <ele>1606.98</ele>
        <time>2019-09-28T12:39:43Z</time>
      </trkpt>
      <trkpt lat="44.11466" lon="6.97142">
        <ele>1607.46</ele>
        <time>2019-09-28T12:40:17Z</time>
      </trkpt>
      <trkpt lat="44.11467" lon="6.97139">
        <ele>1608.42</ele>
        <time>2019-09-28T12:40:47Z</time>
      </trkpt>
      <trkpt lat="44.11468" lon="6.9714">
        <ele>1609.38</ele>
        <time>2019-09-28T12:41:16Z</time>
      </trkpt>
      <trkpt lat="44.11466" lon="6.97138">
        <ele>1610.83</ele>
        <time>2019-09-28T12:41:30Z</time>
      </trkpt>
      <trkpt lat="44.11467" lon="6.97137">
        <ele>1610.83</ele>
        <time>2019-09-28T12:41:31Z</time>
      </trkpt>
      <trkpt lat="44.11468" lon="6.97134">
        <ele>1610.83</ele>
        <time>2019-09-28T12:41:32Z</time>
      </trkpt>
      <trkpt lat="44.11468" lon="6.97131">
        <ele>1611.31</ele>
        <time>2019-09-28T12:41:33Z</time>
      </trkpt>
      <trkpt lat="44.11469" lon="6.97128">
        <ele>1612.27</ele>
        <time>2019-09-28T12:41:34Z</time>
      </trkpt>
      <trkpt lat="44.1147" lon="6.97125">
        <ele>1612.75</ele>
        <time>2019-09-28T12:41:35Z</time>
      </trkpt>
      <trkpt lat="44.1147" lon="6.97121">
        <ele>1612.75</ele>
        <time>2019-09-28T12:41:36Z</time>
      </trkpt>
      <trkpt lat="44.11474" lon="6.97051">
        <ele>1618.52</ele>
        <time>2019-09-28T12:41:55Z</time>
      </trkpt>
      <trkpt lat="44.11485" lon="6.96999">
        <ele>1621.88</ele>
        <time>2019-09-28T12:42:10Z</time>
      </trkpt>
      <trkpt lat="44.11481" lon="6.96946">
        <ele>1622.84</ele>
        <time>2019-09-28T12:42:22Z</time>
      </trkpt>
      <trkpt lat="44.1148" lon="6.9694">
        <ele>1622.84</ele>
        <time>2019-09-28T12:42:23Z</time>
      </trkpt>
      <trkpt lat="44.11469" lon="6.96874">
        <ele>1626.21</ele>
        <time>2019-09-28T12:42:35Z</time>
      </trkpt>
      <trkpt lat="44.11451" lon="6.96811">
        <ele>1630.53</ele>
        <time>2019-09-28T12:42:51Z</time>
      </trkpt>
      <trkpt lat="44.11441" lon="6.9675">
        <ele>1636.78</ele>
        <time>2019-09-28T12:43:08Z</time>
      </trkpt>
      <trkpt lat="44.11433" lon="6.96698">
        <ele>1642.07</ele>
        <time>2019-09-28T12:43:24Z</time>
      </trkpt>
      <trkpt lat="44.11428" lon="6.96641">
        <ele>1643.99</ele>
        <time>2019-09-28T12:43:41Z</time>
      </trkpt>
      <trkpt lat="44.11427" lon="6.96591">
        <ele>1644.47</ele>
        <time>2019-09-28T12:43:55Z</time>
      </trkpt>
      <trkpt lat="44.11432" lon="6.96555">
        <ele>1645.91</ele>
        <time>2019-09-28T12:44:05Z</time>
      </trkpt>
      <trkpt lat="44.1144" lon="6.96545">
        <ele>1647.84</ele>
        <time>2019-09-28T12:44:18Z</time>
      </trkpt>
      <trkpt lat="44.1144" lon="6.96546">
        <ele>1647.36</ele>
        <time>2019-09-28T12:44:44Z</time>
      </trkpt>
      <trkpt lat="44.11438" lon="6.96546">
        <ele>1645.91</ele>
        <time>2019-09-28T12:45:11Z</time>
      </trkpt>
      <trkpt lat="44.11438" lon="6.96545">
        <ele>1645.91</ele>
        <time>2019-09-28T12:45:49Z</time>
      </trkpt>
      <trkpt lat="44.11438" lon="6.96549">
        <ele>1646.4</ele>
        <time>2019-09-28T12:46:05Z</time>
      </trkpt>
      <trkpt lat="44.11439" lon="6.96549">
        <ele>1647.84</ele>
        <time>2019-09-28T12:46:24Z</time>
      </trkpt>
      <trkpt lat="44.11438" lon="6.96554">
        <ele>1647.84</ele>
        <time>2019-09-28T12:46:26Z</time>
      </trkpt>
      <trkpt lat="44.11439" lon="6.96556">
        <ele>1648.32</ele>
        <time>2019-09-28T12:46:27Z</time>
      </trkpt>
      <trkpt lat="44.11439" lon="6.96559">
        <ele>1648.8</ele>
        <time>2019-09-28T12:46:28Z</time>
      </trkpt>
      <trkpt lat="44.11447" lon="6.96612">
        <ele>1652.16</ele>
        <time>2019-09-28T12:46:42Z</time>
      </trkpt>
      <trkpt lat="44.1147" lon="6.96654">
        <ele>1655.05</ele>
        <time>2019-09-28T12:46:55Z</time>
      </trkpt>
      <trkpt lat="44.11494" lon="6.96687">
        <ele>1655.53</ele>
        <time>2019-09-28T12:47:08Z</time>
      </trkpt>
      <trkpt lat="44.11512" lon="6.96722">
        <ele>1655.05</ele>
        <time>2019-09-28T12:47:20Z</time>
      </trkpt>
      <trkpt lat="44.11529" lon="6.96756">
        <ele>1654.57</ele>
        <time>2019-09-28T12:47:32Z</time>
      </trkpt>
      <trkpt lat="44.11544" lon="6.9679">
        <ele>1655.53</ele>
        <time>2019-09-28T12:47:43Z</time>
      </trkpt>
      <trkpt lat="44.11567" lon="6.96844">
        <ele>1656.97</ele>
        <time>2019-09-28T12:47:59Z</time>
      </trkpt>
      <trkpt lat="44.11587" lon="6.96888">
        <ele>1659.85</ele>
        <time>2019-09-28T12:48:13Z</time>
      </trkpt>
      <trkpt lat="44.11604" lon="6.96938">
        <ele>1663.22</ele>
        <time>2019-09-28T12:48:29Z</time>
      </trkpt>
      <trkpt lat="44.11618" lon="6.96979">
        <ele>1667.06</ele>
        <time>2019-09-28T12:48:43Z</time>
      </trkpt>
      <trkpt lat="44.11619" lon="6.96979">
        <ele>1667.06</ele>
        <time>2019-09-28T12:48:44Z</time>
      </trkpt>
      <trkpt lat="44.11621" lon="6.96979">
        <ele>1667.06</ele>
        <time>2019-09-28T12:48:45Z</time>
      </trkpt>
      <trkpt lat="44.11622" lon="6.96978">
        <ele>1667.54</ele>
        <time>2019-09-28T12:48:46Z</time>
      </trkpt>
      <trkpt lat="44.11623" lon="6.96976">
        <ele>1667.54</ele>
        <time>2019-09-28T12:48:47Z</time>
      </trkpt>
      <trkpt lat="44.11624" lon="6.96974">
        <ele>1667.54</ele>
        <time>2019-09-28T12:48:48Z</time>
      </trkpt>
      <trkpt lat="44.11624" lon="6.96972">
        <ele>1668.02</ele>
        <time>2019-09-28T12:48:49Z</time>
      </trkpt>
      <trkpt lat="44.11624" lon="6.9697">
        <ele>1668.02</ele>
        <time>2019-09-28T12:48:50Z</time>
      </trkpt>
      <trkpt lat="44.11623" lon="6.96967">
        <ele>1668.51</ele>
        <time>2019-09-28T12:48:51Z</time>
      </trkpt>
      <trkpt lat="44.11622" lon="6.96964">
        <ele>1668.51</ele>
        <time>2019-09-28T12:48:52Z</time>
      </trkpt>
      <trkpt lat="44.11621" lon="6.96962">
        <ele>1668.51</ele>
        <time>2019-09-28T12:48:53Z</time>
      </trkpt>
      <trkpt lat="44.11621" lon="6.96959">
        <ele>1668.51</ele>
        <time>2019-09-28T12:48:54Z</time>
      </trkpt>
      <trkpt lat="44.1162" lon="6.96956">
        <ele>1668.99</ele>
        <time>2019-09-28T12:48:55Z</time>
      </trkpt>
      <trkpt lat="44.11619" lon="6.96954">
        <ele>1668.99</ele>
        <time>2019-09-28T12:48:56Z</time>
      </trkpt>
      <trkpt lat="44.11618" lon="6.96951">
        <ele>1668.99</ele>
        <time>2019-09-28T12:48:57Z</time>
      </trkpt>
      <trkpt lat="44.11618" lon="6.96948">
        <ele>1669.47</ele>
        <time>2019-09-28T12:48:58Z</time>
      </trkpt>
      <trkpt lat="44.11618" lon="6.96945">
        <ele>1669.47</ele>
        <time>2019-09-28T12:48:59Z</time>
      </trkpt>
      <trkpt lat="44.11618" lon="6.96942">
        <ele>1669.47</ele>
        <time>2019-09-28T12:49:00Z</time>
      </trkpt>
      <trkpt lat="44.11616" lon="6.96889">
        <ele>1672.83</ele>
        <time>2019-09-28T12:49:17Z</time>
      </trkpt>
      <trkpt lat="44.11614" lon="6.96855">
        <ele>1675.72</ele>
        <time>2019-09-28T12:49:29Z</time>
      </trkpt>
      <trkpt lat="44.11611" lon="6.96798">
        <ele>1678.6</ele>
        <time>2019-09-28T12:49:46Z</time>
      </trkpt>
      <trkpt lat="44.11611" lon="6.96754">
        <ele>1681</ele>
        <time>2019-09-28T12:49:59Z</time>
      </trkpt>
      <trkpt lat="44.11612" lon="6.96699">
        <ele>1684.37</ele>
        <time>2019-09-28T12:50:15Z</time>
      </trkpt>
      <trkpt lat="44.11618" lon="6.96639">
        <ele>1688.21</ele>
        <time>2019-09-28T12:50:32Z</time>
      </trkpt>
      <trkpt lat="44.11625" lon="6.9659">
        <ele>1692.54</ele>
        <time>2019-09-28T12:50:46Z</time>
      </trkpt>
      <trkpt lat="44.11637" lon="6.96538">
        <ele>1695.42</ele>
        <time>2019-09-28T12:51:01Z</time>
      </trkpt>
      <trkpt lat="44.11652" lon="6.96487">
        <ele>1697.34</ele>
        <time>2019-09-28T12:51:16Z</time>
      </trkpt>
      <trkpt lat="44.11665" lon="6.9643">
        <ele>1699.75</ele>
        <time>2019-09-28T12:51:32Z</time>
      </trkpt>
      <trkpt lat="44.11687" lon="6.96383">
        <ele>1702.63</ele>
        <time>2019-09-28T12:51:48Z</time>
      </trkpt>
      <trkpt lat="44.11721" lon="6.96343">
        <ele>1707.92</ele>
        <time>2019-09-28T12:52:06Z</time>
      </trkpt>
      <trkpt lat="44.11746" lon="6.96324">
        <ele>1711.28</ele>
        <time>2019-09-28T12:52:18Z</time>
      </trkpt>
      <trkpt lat="44.11762" lon="6.96299">
        <ele>1712.25</ele>
        <time>2019-09-28T12:52:28Z</time>
      </trkpt>
      <trkpt lat="44.1176" lon="6.96296">
        <ele>1712.25</ele>
        <time>2019-09-28T12:52:29Z</time>
      </trkpt>
      <trkpt lat="44.11757" lon="6.96293">
        <ele>1712.25</ele>
        <time>2019-09-28T12:52:30Z</time>
      </trkpt>
      <trkpt lat="44.11727" lon="6.96273">
        <ele>1715.13</ele>
        <time>2019-09-28T12:52:43Z</time>
      </trkpt>
      <trkpt lat="44.11695" lon="6.96266">
        <ele>1717.05</ele>
        <time>2019-09-28T12:52:57Z</time>
      </trkpt>
      <trkpt lat="44.11661" lon="6.96251">
        <ele>1719.46</ele>
        <time>2019-09-28T12:53:11Z</time>
      </trkpt>
      <trkpt lat="44.11634" lon="6.96232">
        <ele>1723.3</ele>
        <time>2019-09-28T12:53:23Z</time>
      </trkpt>
      <trkpt lat="44.116" lon="6.96206">
        <ele>1726.67</ele>
        <time>2019-09-28T12:53:35Z</time>
      </trkpt>
      <trkpt lat="44.11567" lon="6.96198">
        <ele>1729.55</ele>
        <time>2019-09-28T12:53:48Z</time>
      </trkpt>
      <trkpt lat="44.1153" lon="6.96192">
        <ele>1730.99</ele>
        <time>2019-09-28T12:54:03Z</time>
      </trkpt>
      <trkpt lat="44.11495" lon="6.96179">
        <ele>1731.47</ele>
        <time>2019-09-28T12:54:14Z</time>
      </trkpt>
      <trkpt lat="44.11491" lon="6.96178">
        <ele>1731.95</ele>
        <time>2019-09-28T12:54:15Z</time>
      </trkpt>
      <trkpt lat="44.11439" lon="6.96172">
        <ele>1735.32</ele>
        <time>2019-09-28T12:54:30Z</time>
      </trkpt>
      <trkpt lat="44.11405" lon="6.96173">
        <ele>1738.2</ele>
        <time>2019-09-28T12:54:43Z</time>
      </trkpt>
      <trkpt lat="44.11393" lon="6.96171">
        <ele>1739.64</ele>
        <time>2019-09-28T12:54:55Z</time>
      </trkpt>
      <trkpt lat="44.11394" lon="6.96173">
        <ele>1739.16</ele>
        <time>2019-09-28T12:55:23Z</time>
      </trkpt>
      <trkpt lat="44.11396" lon="6.96175">
        <ele>1733.88</ele>
        <time>2019-09-28T12:55:50Z</time>
      </trkpt>
      <trkpt lat="44.11393" lon="6.96178">
        <ele>1733.88</ele>
        <time>2019-09-28T12:56:18Z</time>
      </trkpt>
      <trkpt lat="44.11393" lon="6.96175">
        <ele>1734.36</ele>
        <time>2019-09-28T12:56:43Z</time>
      </trkpt>
      <trkpt lat="44.11364" lon="6.96157">
        <ele>1736.28</ele>
        <time>2019-09-28T12:56:54Z</time>
      </trkpt>
      <trkpt lat="44.11332" lon="6.96123">
        <ele>1743.01</ele>
        <time>2019-09-28T12:57:08Z</time>
      </trkpt>
      <trkpt lat="44.11292" lon="6.96087">
        <ele>1750.7</ele>
        <time>2019-09-28T12:57:25Z</time>
      </trkpt>
      <trkpt lat="44.1126" lon="6.96043">
        <ele>1754.06</ele>
        <time>2019-09-28T12:57:42Z</time>
      </trkpt>
      <trkpt lat="44.11239" lon="6.95993">
        <ele>1756.95</ele>
        <time>2019-09-28T12:57:58Z</time>
      </trkpt>
      <trkpt lat="44.11226" lon="6.95938">
        <ele>1761.75</ele>
        <time>2019-09-28T12:58:14Z</time>
      </trkpt>
      <trkpt lat="44.11226" lon="6.95918">
        <ele>1762.71</ele>
        <time>2019-09-28T12:58:20Z</time>
      </trkpt>
      <trkpt lat="44.11228" lon="6.95915">
        <ele>1763.2</ele>
        <time>2019-09-28T12:58:21Z</time>
      </trkpt>
      <trkpt lat="44.1123" lon="6.95914">
        <ele>1763.2</ele>
        <time>2019-09-28T12:58:22Z</time>
      </trkpt>
      <trkpt lat="44.11232" lon="6.95912">
        <ele>1763.68</ele>
        <time>2019-09-28T12:58:23Z</time>
      </trkpt>
      <trkpt lat="44.11234" lon="6.95911">
        <ele>1763.68</ele>
        <time>2019-09-28T12:58:24Z</time>
      </trkpt>
      <trkpt lat="44.11235" lon="6.9591">
        <ele>1763.68</ele>
        <time>2019-09-28T12:58:25Z</time>
      </trkpt>
      <trkpt lat="44.11237" lon="6.95909">
        <ele>1763.68</ele>
        <time>2019-09-28T12:58:26Z</time>
      </trkpt>
      <trkpt lat="44.11238" lon="6.95907">
        <ele>1763.68</ele>
        <time>2019-09-28T12:58:27Z</time>
      </trkpt>
      <trkpt lat="44.11238" lon="6.95905">
        <ele>1763.68</ele>
        <time>2019-09-28T12:58:28Z</time>
      </trkpt>
      <trkpt lat="44.11238" lon="6.95903">
        <ele>1763.2</ele>
        <time>2019-09-28T12:58:29Z</time>
      </trkpt>
      <trkpt lat="44.11238" lon="6.95901">
        <ele>1763.2</ele>
        <time>2019-09-28T12:58:30Z</time>
      </trkpt>
      <trkpt lat="44.11238" lon="6.95899">
        <ele>1763.2</ele>
        <time>2019-09-28T12:58:31Z</time>
      </trkpt>
      <trkpt lat="44.1124" lon="6.95895">
        <ele>1763.2</ele>
        <time>2019-09-28T12:58:44Z</time>
      </trkpt>
      <trkpt lat="44.11232" lon="6.95863">
        <ele>1761.75</ele>
        <time>2019-09-28T12:58:54Z</time>
      </trkpt>
      <trkpt lat="44.11228" lon="6.95859">
        <ele>1761.27</ele>
        <time>2019-09-28T12:58:55Z</time>
      </trkpt>
      <trkpt lat="44.11223" lon="6.95857">
        <ele>1760.79</ele>
        <time>2019-09-28T12:58:56Z</time>
      </trkpt>
      <trkpt lat="44.11218" lon="6.95857">
        <ele>1760.31</ele>
        <time>2019-09-28T12:58:57Z</time>
      </trkpt>
      <trkpt lat="44.11212" lon="6.95856">
        <ele>1760.31</ele>
        <time>2019-09-28T12:58:58Z</time>
      </trkpt>
      <trkpt lat="44.11206" lon="6.95854">
        <ele>1759.83</ele>
        <time>2019-09-28T12:58:59Z</time>
      </trkpt>
      <trkpt lat="44.112" lon="6.95852">
        <ele>1759.35</ele>
        <time>2019-09-28T12:59:00Z</time>
      </trkpt>
      <trkpt lat="44.11193" lon="6.9585">
        <ele>1758.87</ele>
        <time>2019-09-28T12:59:01Z</time>
      </trkpt>
      <trkpt lat="44.11186" lon="6.95849">
        <ele>1757.91</ele>
        <time>2019-09-28T12:59:02Z</time>
      </trkpt>
      <trkpt lat="44.11178" lon="6.95848">
        <ele>1757.43</ele>
        <time>2019-09-28T12:59:03Z</time>
      </trkpt>
      <trkpt lat="44.1117" lon="6.95846">
        <ele>1756.95</ele>
        <time>2019-09-28T12:59:04Z</time>
      </trkpt>
      <trkpt lat="44.11163" lon="6.95843">
        <ele>1755.99</ele>
        <time>2019-09-28T12:59:05Z</time>
      </trkpt>
      <trkpt lat="44.11157" lon="6.95837">
        <ele>1755.5</ele>
        <time>2019-09-28T12:59:06Z</time>
      </trkpt>
      <trkpt lat="44.11152" lon="6.9583">
        <ele>1754.54</ele>
        <time>2019-09-28T12:59:07Z</time>
      </trkpt>
      <trkpt lat="44.11147" lon="6.95824">
        <ele>1754.06</ele>
        <time>2019-09-28T12:59:08Z</time>
      </trkpt>
      <trkpt lat="44.11142" lon="6.95821">
        <ele>1753.58</ele>
        <time>2019-09-28T12:59:09Z</time>
      </trkpt>
      <trkpt lat="44.11137" lon="6.95821">
        <ele>1753.1</ele>
        <time>2019-09-28T12:59:10Z</time>
      </trkpt>
      <trkpt lat="44.11131" lon="6.95826">
        <ele>1752.14</ele>
        <time>2019-09-28T12:59:11Z</time>
      </trkpt>
      <trkpt lat="44.11125" lon="6.95831">
        <ele>1751.66</ele>
        <time>2019-09-28T12:59:12Z</time>
      </trkpt>
      <trkpt lat="44.11119" lon="6.95836">
        <ele>1751.18</ele>
        <time>2019-09-28T12:59:13Z</time>
      </trkpt>
      <trkpt lat="44.11113" lon="6.95839">
        <ele>1750.7</ele>
        <time>2019-09-28T12:59:14Z</time>
      </trkpt>
      <trkpt lat="44.11108" lon="6.9584">
        <ele>1750.22</ele>
        <time>2019-09-28T12:59:15Z</time>
      </trkpt>
      <trkpt lat="44.11103" lon="6.95839">
        <ele>1749.74</ele>
        <time>2019-09-28T12:59:16Z</time>
      </trkpt>
      <trkpt lat="44.11098" lon="6.95837">
        <ele>1749.74</ele>
        <time>2019-09-28T12:59:17Z</time>
      </trkpt>
      <trkpt lat="44.11092" lon="6.95834">
        <ele>1749.26</ele>
        <time>2019-09-28T12:59:18Z</time>
      </trkpt>
      <trkpt lat="44.11086" lon="6.95833">
        <ele>1748.78</ele>
        <time>2019-09-28T12:59:19Z</time>
      </trkpt>
      <trkpt lat="44.1108" lon="6.95834">
        <ele>1748.29</ele>
        <time>2019-09-28T12:59:20Z</time>
      </trkpt>
      <trkpt lat="44.11074" lon="6.95836">
        <ele>1748.29</ele>
        <time>2019-09-28T12:59:21Z</time>
      </trkpt>
      <trkpt lat="44.11068" lon="6.9584">
        <ele>1748.29</ele>
        <time>2019-09-28T12:59:22Z</time>
      </trkpt>
      <trkpt lat="44.11063" lon="6.9584">
        <ele>1748.78</ele>
        <time>2019-09-28T12:59:23Z</time>
      </trkpt>
      <trkpt lat="44.11059" lon="6.9584">
        <ele>1748.78</ele>
        <time>2019-09-28T12:59:24Z</time>
      </trkpt>
      <trkpt lat="44.11056" lon="6.95837">
        <ele>1748.29</ele>
        <time>2019-09-28T12:59:25Z</time>
      </trkpt>
      <trkpt lat="44.11054" lon="6.95835">
        <ele>1748.29</ele>
        <time>2019-09-28T12:59:26Z</time>
      </trkpt>
      <trkpt lat="44.11051" lon="6.95835">
        <ele>1748.29</ele>
        <time>2019-09-28T12:59:27Z</time>
      </trkpt>
      <trkpt lat="44.11049" lon="6.95834">
        <ele>1747.81</ele>
        <time>2019-09-28T12:59:28Z</time>
      </trkpt>
      <trkpt lat="44.11047" lon="6.95834">
        <ele>1747.81</ele>
        <time>2019-09-28T12:59:29Z</time>
      </trkpt>
      <trkpt lat="44.11046" lon="6.95832">
        <ele>1747.81</ele>
        <time>2019-09-28T12:59:30Z</time>
      </trkpt>
      <trkpt lat="44.11046" lon="6.9583">
        <ele>1747.81</ele>
        <time>2019-09-28T12:59:31Z</time>
      </trkpt>
      <trkpt lat="44.1105" lon="6.95825">
        <ele>1747.33</ele>
        <time>2019-09-28T12:59:33Z</time>
      </trkpt>
      <trkpt lat="44.11053" lon="6.9582">
        <ele>1747.33</ele>
        <time>2019-09-28T12:59:34Z</time>
      </trkpt>
      <trkpt lat="44.11053" lon="6.95819">
        <ele>1746.85</ele>
        <time>2019-09-28T12:59:35Z</time>
      </trkpt>
      <trkpt lat="44.11052" lon="6.95819">
        <ele>1747.33</ele>
        <time>2019-09-28T12:59:45Z</time>
      </trkpt>
      <trkpt lat="44.11051" lon="6.95819">
        <ele>1747.33</ele>
        <time>2019-09-28T13:00:20Z</time>
      </trkpt>
      <trkpt lat="44.11062" lon="6.95798">
        <ele>1748.78</ele>
        <time>2019-09-28T13:00:38Z</time>
      </trkpt>
      <trkpt lat="44.11063" lon="6.95794">
        <ele>1748.78</ele>
        <time>2019-09-28T13:00:39Z</time>
      </trkpt>
      <trkpt lat="44.11065" lon="6.95787">
        <ele>1748.78</ele>
        <time>2019-09-28T13:00:40Z</time>
      </trkpt>
      <trkpt lat="44.11066" lon="6.95781">
        <ele>1748.78</ele>
        <time>2019-09-28T13:00:41Z</time>
      </trkpt>
      <trkpt lat="44.11067" lon="6.95773">
        <ele>1749.26</ele>
        <time>2019-09-28T13:00:42Z</time>
      </trkpt>
      <trkpt lat="44.11067" lon="6.95769">
        <ele>1749.26</ele>
        <time>2019-09-28T13:00:43Z</time>
      </trkpt>
      <trkpt lat="44.11066" lon="6.95762">
        <ele>1749.26</ele>
        <time>2019-09-28T13:00:44Z</time>
      </trkpt>
      <trkpt lat="44.11063" lon="6.95755">
        <ele>1749.26</ele>
        <time>2019-09-28T13:00:45Z</time>
      </trkpt>
      <trkpt lat="44.1106" lon="6.9575">
        <ele>1749.26</ele>
        <time>2019-09-28T13:00:46Z</time>
      </trkpt>
      <trkpt lat="44.11056" lon="6.95745">
        <ele>1749.26</ele>
        <time>2019-09-28T13:00:47Z</time>
      </trkpt>
      <trkpt lat="44.11048" lon="6.95736">
        <ele>1749.26</ele>
        <time>2019-09-28T13:00:49Z</time>
      </trkpt>
      <trkpt lat="44.11046" lon="6.95731">
        <ele>1749.26</ele>
        <time>2019-09-28T13:00:50Z</time>
      </trkpt>
      <trkpt lat="44.11043" lon="6.95726">
        <ele>1749.74</ele>
        <time>2019-09-28T13:00:51Z</time>
      </trkpt>
      <trkpt lat="44.11042" lon="6.95721">
        <ele>1749.74</ele>
        <time>2019-09-28T13:00:52Z</time>
      </trkpt>
      <trkpt lat="44.1104" lon="6.95715">
        <ele>1749.74</ele>
        <time>2019-09-28T13:00:53Z</time>
      </trkpt>
      <trkpt lat="44.1104" lon="6.9571">
        <ele>1749.74</ele>
        <time>2019-09-28T13:00:54Z</time>
      </trkpt>
      <trkpt lat="44.11039" lon="6.95705">
        <ele>1750.22</ele>
        <time>2019-09-28T13:00:55Z</time>
      </trkpt>
      <trkpt lat="44.11035" lon="6.95643">
        <ele>1750.22</ele>
        <time>2019-09-28T13:01:07Z</time>
      </trkpt>
      <trkpt lat="44.11019" lon="6.95503">
        <ele>1748.78</ele>
        <time>2019-09-28T13:01:24Z</time>
      </trkpt>
      <trkpt lat="44.11012" lon="6.95459">
        <ele>1747.33</ele>
        <time>2019-09-28T13:01:29Z</time>
      </trkpt>
      <trkpt lat="44.11012" lon="6.9542">
        <ele>1746.37</ele>
        <time>2019-09-28T13:01:33Z</time>
      </trkpt>
      <trkpt lat="44.11011" lon="6.95411">
        <ele>1746.37</ele>
        <time>2019-09-28T13:01:34Z</time>
      </trkpt>
      <trkpt lat="44.10999" lon="6.95306">
        <ele>1746.37</ele>
        <time>2019-09-28T13:01:47Z</time>
      </trkpt>
      <trkpt lat="44.10998" lon="6.95268">
        <ele>1745.41</ele>
        <time>2019-09-28T13:01:51Z</time>
      </trkpt>
      <trkpt lat="44.10999" lon="6.95258">
        <ele>1744.45</ele>
        <time>2019-09-28T13:01:52Z</time>
      </trkpt>
      <trkpt lat="44.11006" lon="6.95224">
        <ele>1743.01</ele>
        <time>2019-09-28T13:01:55Z</time>
      </trkpt>
      <trkpt lat="44.11006" lon="6.95212">
        <ele>1742.53</ele>
        <time>2019-09-28T13:01:56Z</time>
      </trkpt>
      <trkpt lat="44.11004" lon="6.95201">
        <ele>1742.53</ele>
        <time>2019-09-28T13:01:57Z</time>
      </trkpt>
      <trkpt lat="44.10977" lon="6.95108">
        <ele>1743.49</ele>
        <time>2019-09-28T13:02:08Z</time>
      </trkpt>
      <trkpt lat="44.10939" lon="6.9501">
        <ele>1748.29</ele>
        <time>2019-09-28T13:02:25Z</time>
      </trkpt>
      <trkpt lat="44.10914" lon="6.94955">
        <ele>1753.58</ele>
        <time>2019-09-28T13:02:37Z</time>
      </trkpt>
      <trkpt lat="44.10907" lon="6.94944">
        <ele>1754.54</ele>
        <time>2019-09-28T13:02:39Z</time>
      </trkpt>
      <trkpt lat="44.10851" lon="6.94843">
        <ele>1761.75</ele>
        <time>2019-09-28T13:02:56Z</time>
      </trkpt>
      <trkpt lat="44.10844" lon="6.94831">
        <ele>1762.71</ele>
        <time>2019-09-28T13:02:58Z</time>
      </trkpt>
      <trkpt lat="44.10841" lon="6.94824">
        <ele>1763.2</ele>
        <time>2019-09-28T13:02:59Z</time>
      </trkpt>
      <trkpt lat="44.10837" lon="6.94818">
        <ele>1763.2</ele>
        <time>2019-09-28T13:03:00Z</time>
      </trkpt>
      <trkpt lat="44.10834" lon="6.94812">
        <ele>1763.68</ele>
        <time>2019-09-28T13:03:01Z</time>
      </trkpt>
      <trkpt lat="44.10831" lon="6.94805">
        <ele>1764.16</ele>
        <time>2019-09-28T13:03:02Z</time>
      </trkpt>
      <trkpt lat="44.10828" lon="6.94799">
        <ele>1764.64</ele>
        <time>2019-09-28T13:03:03Z</time>
      </trkpt>
      <trkpt lat="44.10824" lon="6.94794">
        <ele>1765.12</ele>
        <time>2019-09-28T13:03:04Z</time>
      </trkpt>
      <trkpt lat="44.1082" lon="6.94789">
        <ele>1765.12</ele>
        <time>2019-09-28T13:03:05Z</time>
      </trkpt>
      <trkpt lat="44.10812" lon="6.9478">
        <ele>1765.6</ele>
        <time>2019-09-28T13:03:07Z</time>
      </trkpt>
      <trkpt lat="44.10789" lon="6.9475">
        <ele>1766.56</ele>
        <time>2019-09-28T13:03:14Z</time>
      </trkpt>
      <trkpt lat="44.10776" lon="6.94723">
        <ele>1766.56</ele>
        <time>2019-09-28T13:03:19Z</time>
      </trkpt>
      <trkpt lat="44.10772" lon="6.94705">
        <ele>1765.6</ele>
        <time>2019-09-28T13:03:22Z</time>
      </trkpt>
      <trkpt lat="44.10772" lon="6.94699">
        <ele>1765.6</ele>
        <time>2019-09-28T13:03:23Z</time>
      </trkpt>
      <trkpt lat="44.10774" lon="6.94692">
        <ele>1765.12</ele>
        <time>2019-09-28T13:03:24Z</time>
      </trkpt>
      <trkpt lat="44.10777" lon="6.94682">
        <ele>1765.12</ele>
        <time>2019-09-28T13:03:26Z</time>
      </trkpt>
      <trkpt lat="44.10779" lon="6.94677">
        <ele>1765.12</ele>
        <time>2019-09-28T13:03:27Z</time>
      </trkpt>
      <trkpt lat="44.10782" lon="6.94673">
        <ele>1765.12</ele>
        <time>2019-09-28T13:03:28Z</time>
      </trkpt>
      <trkpt lat="44.10784" lon="6.94669">
        <ele>1765.12</ele>
        <time>2019-09-28T13:03:29Z</time>
      </trkpt>
      <trkpt lat="44.10786" lon="6.94665">
        <ele>1765.12</ele>
        <time>2019-09-28T13:03:30Z</time>
      </trkpt>
      <trkpt lat="44.10789" lon="6.94661">
        <ele>1765.12</ele>
        <time>2019-09-28T13:03:31Z</time>
      </trkpt>
      <trkpt lat="44.10791" lon="6.94657">
        <ele>1765.6</ele>
        <time>2019-09-28T13:03:32Z</time>
      </trkpt>
      <trkpt lat="44.10794" lon="6.94652">
        <ele>1765.12</ele>
        <time>2019-09-28T13:03:33Z</time>
      </trkpt>
      <trkpt lat="44.10797" lon="6.94646">
        <ele>1765.12</ele>
        <time>2019-09-28T13:03:34Z</time>
      </trkpt>
      <trkpt lat="44.10799" lon="6.9464">
        <ele>1765.12</ele>
        <time>2019-09-28T13:03:35Z</time>
      </trkpt>
      <trkpt lat="44.10801" lon="6.94632">
        <ele>1765.12</ele>
        <time>2019-09-28T13:03:36Z</time>
      </trkpt>
      <trkpt lat="44.10801" lon="6.94626">
        <ele>1765.12</ele>
        <time>2019-09-28T13:03:37Z</time>
      </trkpt>
      <trkpt lat="44.10801" lon="6.94619">
        <ele>1765.12</ele>
        <time>2019-09-28T13:03:38Z</time>
      </trkpt>
      <trkpt lat="44.10801" lon="6.94611">
        <ele>1765.12</ele>
        <time>2019-09-28T13:03:39Z</time>
      </trkpt>
      <trkpt lat="44.108" lon="6.94554">
        <ele>1764.64</ele>
        <time>2019-09-28T13:03:46Z</time>
      </trkpt>
      <trkpt lat="44.10799" lon="6.94546">
        <ele>1764.64</ele>
        <time>2019-09-28T13:03:47Z</time>
      </trkpt>
      <trkpt lat="44.10797" lon="6.94538">
        <ele>1764.64</ele>
        <time>2019-09-28T13:03:48Z</time>
      </trkpt>
      <trkpt lat="44.10796" lon="6.9453">
        <ele>1764.64</ele>
        <time>2019-09-28T13:03:49Z</time>
      </trkpt>
      <trkpt lat="44.10795" lon="6.94522">
        <ele>1764.64</ele>
        <time>2019-09-28T13:03:50Z</time>
      </trkpt>
      <trkpt lat="44.10794" lon="6.94515">
        <ele>1764.64</ele>
        <time>2019-09-28T13:03:51Z</time>
      </trkpt>
      <trkpt lat="44.10793" lon="6.94493">
        <ele>1764.64</ele>
        <time>2019-09-28T13:03:54Z</time>
      </trkpt>
      <trkpt lat="44.10794" lon="6.94458">
        <ele>1764.64</ele>
        <time>2019-09-28T13:03:59Z</time>
      </trkpt>
      <trkpt lat="44.10796" lon="6.94451">
        <ele>1764.64</ele>
        <time>2019-09-28T13:04:00Z</time>
      </trkpt>
      <trkpt lat="44.10799" lon="6.94444">
        <ele>1764.64</ele>
        <time>2019-09-28T13:04:01Z</time>
      </trkpt>
      <trkpt lat="44.10807" lon="6.94423">
        <ele>1764.64</ele>
        <time>2019-09-28T13:04:04Z</time>
      </trkpt>
      <trkpt lat="44.10807" lon="6.94415">
        <ele>1764.16</ele>
        <time>2019-09-28T13:04:05Z</time>
      </trkpt>
      <trkpt lat="44.10805" lon="6.94408">
        <ele>1764.64</ele>
        <time>2019-09-28T13:04:06Z</time>
      </trkpt>
      <trkpt lat="44.10802" lon="6.94402">
        <ele>1764.64</ele>
        <time>2019-09-28T13:04:07Z</time>
      </trkpt>
      <trkpt lat="44.10796" lon="6.94399">
        <ele>1764.64</ele>
        <time>2019-09-28T13:04:08Z</time>
      </trkpt>
      <trkpt lat="44.10792" lon="6.94398">
        <ele>1764.64</ele>
        <time>2019-09-28T13:04:09Z</time>
      </trkpt>
      <trkpt lat="44.10787" lon="6.94399">
        <ele>1764.64</ele>
        <time>2019-09-28T13:04:10Z</time>
      </trkpt>
      <trkpt lat="44.10782" lon="6.944">
        <ele>1764.64</ele>
        <time>2019-09-28T13:04:11Z</time>
      </trkpt>
      <trkpt lat="44.10778" lon="6.94401">
        <ele>1764.16</ele>
        <time>2019-09-28T13:04:12Z</time>
      </trkpt>
      <trkpt lat="44.10774" lon="6.94403">
        <ele>1764.16</ele>
        <time>2019-09-28T13:04:13Z</time>
      </trkpt>
      <trkpt lat="44.1072" lon="6.94417">
        <ele>1762.71</ele>
        <time>2019-09-28T13:04:28Z</time>
      </trkpt>
      <trkpt lat="44.10692" lon="6.94422">
        <ele>1763.2</ele>
        <time>2019-09-28T13:04:34Z</time>
      </trkpt>
      <trkpt lat="44.10687" lon="6.94422">
        <ele>1763.2</ele>
        <time>2019-09-28T13:04:35Z</time>
      </trkpt>
      <trkpt lat="44.10606" lon="6.94407">
        <ele>1763.2</ele>
        <time>2019-09-28T13:04:49Z</time>
      </trkpt>
      <trkpt lat="44.10601" lon="6.94404">
        <ele>1763.2</ele>
        <time>2019-09-28T13:04:50Z</time>
      </trkpt>
      <trkpt lat="44.10539" lon="6.94332">
        <ele>1762.23</ele>
        <time>2019-09-28T13:05:04Z</time>
      </trkpt>
      <trkpt lat="44.10523" lon="6.94294">
        <ele>1760.31</ele>
        <time>2019-09-28T13:05:09Z</time>
      </trkpt>
      <trkpt lat="44.10497" lon="6.94156">
        <ele>1757.43</ele>
        <time>2019-09-28T13:05:25Z</time>
      </trkpt>
      <trkpt lat="44.10455" lon="6.94046">
        <ele>1754.06</ele>
        <time>2019-09-28T13:05:38Z</time>
      </trkpt>
      <trkpt lat="44.10391" lon="6.93966">
        <ele>1754.54</ele>
        <time>2019-09-28T13:05:51Z</time>
      </trkpt>
      <trkpt lat="44.10385" lon="6.93963">
        <ele>1754.54</ele>
        <time>2019-09-28T13:05:52Z</time>
      </trkpt>
      <trkpt lat="44.10379" lon="6.93961">
        <ele>1754.54</ele>
        <time>2019-09-28T13:05:53Z</time>
      </trkpt>
      <trkpt lat="44.10316" lon="6.93941">
        <ele>1753.58</ele>
        <time>2019-09-28T13:06:02Z</time>
      </trkpt>
      <trkpt lat="44.1031" lon="6.93935">
        <ele>1753.58</ele>
        <time>2019-09-28T13:06:03Z</time>
      </trkpt>
      <trkpt lat="44.10292" lon="6.93916">
        <ele>1753.58</ele>
        <time>2019-09-28T13:06:06Z</time>
      </trkpt>
      <trkpt lat="44.10272" lon="6.93884">
        <ele>1752.14</ele>
        <time>2019-09-28T13:06:10Z</time>
      </trkpt>
      <trkpt lat="44.10219" lon="6.93742">
        <ele>1748.29</ele>
        <time>2019-09-28T13:06:25Z</time>
      </trkpt>
      <trkpt lat="44.10178" lon="6.93577">
        <ele>1742.53</ele>
        <time>2019-09-28T13:06:41Z</time>
      </trkpt>
      <trkpt lat="44.10171" lon="6.93558">
        <ele>1742.05</ele>
        <time>2019-09-28T13:06:43Z</time>
      </trkpt>
      <trkpt lat="44.10166" lon="6.93549">
        <ele>1741.57</ele>
        <time>2019-09-28T13:06:44Z</time>
      </trkpt>
      <trkpt lat="44.10161" lon="6.93542">
        <ele>1741.08</ele>
        <time>2019-09-28T13:06:45Z</time>
      </trkpt>
      <trkpt lat="44.10138" lon="6.93511">
        <ele>1739.64</ele>
        <time>2019-09-28T13:06:49Z</time>
      </trkpt>
      <trkpt lat="44.10069" lon="6.93416">
        <ele>1736.76</ele>
        <time>2019-09-28T13:07:01Z</time>
      </trkpt>
      <trkpt lat="44.10051" lon="6.93398">
        <ele>1736.28</ele>
        <time>2019-09-28T13:07:04Z</time>
      </trkpt>
      <trkpt lat="44.10046" lon="6.93391">
        <ele>1736.28</ele>
        <time>2019-09-28T13:07:05Z</time>
      </trkpt>
      <trkpt lat="44.10036" lon="6.93376">
        <ele>1735.8</ele>
        <time>2019-09-28T13:07:07Z</time>
      </trkpt>
      <trkpt lat="44.1003" lon="6.9337">
        <ele>1735.32</ele>
        <time>2019-09-28T13:07:08Z</time>
      </trkpt>
      <trkpt lat="44.10023" lon="6.93366">
        <ele>1735.32</ele>
        <time>2019-09-28T13:07:09Z</time>
      </trkpt>
      <trkpt lat="44.09963" lon="6.93347">
        <ele>1735.32</ele>
        <time>2019-09-28T13:07:18Z</time>
      </trkpt>
      <trkpt lat="44.09956" lon="6.93348">
        <ele>1734.84</ele>
        <time>2019-09-28T13:07:19Z</time>
      </trkpt>
      <trkpt lat="44.0994" lon="6.93352">
        <ele>1733.88</ele>
        <time>2019-09-28T13:07:21Z</time>
      </trkpt>
      <trkpt lat="44.09933" lon="6.93352">
        <ele>1733.39</ele>
        <time>2019-09-28T13:07:22Z</time>
      </trkpt>
      <trkpt lat="44.09924" lon="6.93352">
        <ele>1733.39</ele>
        <time>2019-09-28T13:07:23Z</time>
      </trkpt>
      <trkpt lat="44.09916" lon="6.93352">
        <ele>1732.91</ele>
        <time>2019-09-28T13:07:24Z</time>
      </trkpt>
      <trkpt lat="44.09908" lon="6.9335">
        <ele>1732.91</ele>
        <time>2019-09-28T13:07:25Z</time>
      </trkpt>
      <trkpt lat="44.09901" lon="6.93347">
        <ele>1732.91</ele>
        <time>2019-09-28T13:07:26Z</time>
      </trkpt>
      <trkpt lat="44.09894" lon="6.93343">
        <ele>1732.91</ele>
        <time>2019-09-28T13:07:27Z</time>
      </trkpt>
      <trkpt lat="44.09888" lon="6.93337">
        <ele>1732.91</ele>
        <time>2019-09-28T13:07:28Z</time>
      </trkpt>
      <trkpt lat="44.09882" lon="6.93331">
        <ele>1732.43</ele>
        <time>2019-09-28T13:07:29Z</time>
      </trkpt>
      <trkpt lat="44.09862" lon="6.93313">
        <ele>1731.95</ele>
        <time>2019-09-28T13:07:32Z</time>
      </trkpt>
      <trkpt lat="44.09855" lon="6.93309">
        <ele>1731.47</ele>
        <time>2019-09-28T13:07:33Z</time>
      </trkpt>
      <trkpt lat="44.09847" lon="6.93305">
        <ele>1731.47</ele>
        <time>2019-09-28T13:07:34Z</time>
      </trkpt>
      <trkpt lat="44.09842" lon="6.93303">
        <ele>1731.47</ele>
        <time>2019-09-28T13:07:35Z</time>
      </trkpt>
      <trkpt lat="44.09833" lon="6.933">
        <ele>1730.99</ele>
        <time>2019-09-28T13:07:36Z</time>
      </trkpt>
      <trkpt lat="44.09752" lon="6.93261">
        <ele>1728.11</ele>
        <time>2019-09-28T13:07:48Z</time>
      </trkpt>
      <trkpt lat="44.09747" lon="6.93262">
        <ele>1727.63</ele>
        <time>2019-09-28T13:07:49Z</time>
      </trkpt>
      <trkpt lat="44.09741" lon="6.93266">
        <ele>1727.63</ele>
        <time>2019-09-28T13:07:50Z</time>
      </trkpt>
      <trkpt lat="44.09738" lon="6.93269">
        <ele>1727.63</ele>
        <time>2019-09-28T13:07:51Z</time>
      </trkpt>
      <trkpt lat="44.09733" lon="6.93275">
        <ele>1727.63</ele>
        <time>2019-09-28T13:07:52Z</time>
      </trkpt>
      <trkpt lat="44.0973" lon="6.93281">
        <ele>1727.63</ele>
        <time>2019-09-28T13:07:53Z</time>
      </trkpt>
      <trkpt lat="44.09727" lon="6.93287">
        <ele>1727.63</ele>
        <time>2019-09-28T13:07:54Z</time>
      </trkpt>
      <trkpt lat="44.09717" lon="6.93306">
        <ele>1728.11</ele>
        <time>2019-09-28T13:07:57Z</time>
      </trkpt>
      <trkpt lat="44.09713" lon="6.93311">
        <ele>1728.11</ele>
        <time>2019-09-28T13:07:58Z</time>
      </trkpt>
      <trkpt lat="44.09708" lon="6.93315">
        <ele>1728.59</ele>
        <time>2019-09-28T13:07:59Z</time>
      </trkpt>
      <trkpt lat="44.09703" lon="6.93318">
        <ele>1728.59</ele>
        <time>2019-09-28T13:08:00Z</time>
      </trkpt>
      <trkpt lat="44.09698" lon="6.93319">
        <ele>1729.07</ele>
        <time>2019-09-28T13:08:01Z</time>
      </trkpt>
      <trkpt lat="44.09694" lon="6.9332">
        <ele>1729.07</ele>
        <time>2019-09-28T13:08:02Z</time>
      </trkpt>
      <trkpt lat="44.09674" lon="6.93323">
        <ele>1730.03</ele>
        <time>2019-09-28T13:08:06Z</time>
      </trkpt>
      <trkpt lat="44.0967" lon="6.93326">
        <ele>1730.03</ele>
        <time>2019-09-28T13:08:07Z</time>
      </trkpt>
      <trkpt lat="44.09668" lon="6.93332">
        <ele>1730.51</ele>
        <time>2019-09-28T13:08:08Z</time>
      </trkpt>
      <trkpt lat="44.09669" lon="6.93338">
        <ele>1730.99</ele>
        <time>2019-09-28T13:08:09Z</time>
      </trkpt>
      <trkpt lat="44.09671" lon="6.93341">
        <ele>1731.47</ele>
        <time>2019-09-28T13:08:10Z</time>
      </trkpt>
      <trkpt lat="44.09674" lon="6.93345">
        <ele>1731.47</ele>
        <time>2019-09-28T13:08:11Z</time>
      </trkpt>
      <trkpt lat="44.09677" lon="6.93349">
        <ele>1731.95</ele>
        <time>2019-09-28T13:08:12Z</time>
      </trkpt>
      <trkpt lat="44.0968" lon="6.93353">
        <ele>1732.43</ele>
        <time>2019-09-28T13:08:13Z</time>
      </trkpt>
      <trkpt lat="44.09683" lon="6.93356">
        <ele>1732.43</ele>
        <time>2019-09-28T13:08:14Z</time>
      </trkpt>
      <trkpt lat="44.09705" lon="6.93388">
        <ele>1734.36</ele>
        <time>2019-09-28T13:08:23Z</time>
      </trkpt>
      <trkpt lat="44.09705" lon="6.93394">
        <ele>1734.84</ele>
        <time>2019-09-28T13:08:24Z</time>
      </trkpt>
      <trkpt lat="44.09704" lon="6.93401">
        <ele>1734.84</ele>
        <time>2019-09-28T13:08:25Z</time>
      </trkpt>
      <trkpt lat="44.09702" lon="6.93408">
        <ele>1735.32</ele>
        <time>2019-09-28T13:08:26Z</time>
      </trkpt>
      <trkpt lat="44.09698" lon="6.93414">
        <ele>1735.8</ele>
        <time>2019-09-28T13:08:27Z</time>
      </trkpt>
      <trkpt lat="44.09694" lon="6.93421">
        <ele>1735.8</ele>
        <time>2019-09-28T13:08:28Z</time>
      </trkpt>
    </trkseg>
  </trk>
</gpx>